<?xml version="1.0" encoding="UTF-8" standalone="no" ?>
<gpx xmlns="http://www.topografix.com/GPX/1/1" xmlns:xsi="http://www.w3.org/2001/XMLSchema-instance" xsi:schemaLocation="http://www.topografix.com/GPX/1/1 http://www.topografix.com/GPX/1/1/gpx.xsd" version="1.1" creator="VisuGPX - https://www.visugpx.com">
  <metadata>
    <name>Reconnaissance du Trail des trois Pitons</name>
    <desc><![CDATA[Cette reco du trail des 3 pitons qui nous fait faire une boucle de la Plaine des Palmistes en passant par le Piton des Cabris, le Piton de l\'eau et le Piton Textor nous fait découvrir de nombreux paysages, forêt, zone du volcan, piton de l\'eau et son lac sertis d\'arôme entre aout et novembre. Rando cependant difficile et réservée aux bons marcheurs si on l\'effectue dans sa totalité.]]></desc>
  </metadata>
  <trk>
    <name><![CDATA[2013-08-08-01_Trail des 3 pitons]]></name>
    <trkseg>
      <trkpt lat="-21.13572" lon="55.6256">
        <ele>1031.6</ele>
        <time>2013-08-08T02:56:11Z</time>
      </trkpt>
      <trkpt lat="-21.13577" lon="55.62553">
        <ele>1031.9</ele>
        <time>2013-08-08T02:56:18Z</time>
      </trkpt>
      <trkpt lat="-21.13582" lon="55.62546">
        <ele>1031.2</ele>
        <time>2013-08-08T02:56:25Z</time>
      </trkpt>
      <trkpt lat="-21.13588" lon="55.6254">
        <ele>1032.2</ele>
        <time>2013-08-08T02:56:30Z</time>
      </trkpt>
      <trkpt lat="-21.13589" lon="55.62539">
        <ele>1032.4</ele>
        <time>2013-08-08T02:56:31Z</time>
      </trkpt>
      <trkpt lat="-21.13604" lon="55.62539">
        <ele>1032.5</ele>
        <time>2013-08-08T02:56:53Z</time>
      </trkpt>
      <trkpt lat="-21.13606" lon="55.62548">
        <ele>1032.2</ele>
        <time>2013-08-08T02:57:02Z</time>
      </trkpt>
      <trkpt lat="-21.13612" lon="55.62554">
        <ele>1031.4</ele>
        <time>2013-08-08T02:57:14Z</time>
      </trkpt>
      <trkpt lat="-21.13617" lon="55.62561">
        <ele>1031.6</ele>
        <time>2013-08-08T02:57:22Z</time>
      </trkpt>
      <trkpt lat="-21.13623" lon="55.62567">
        <ele>1031.5</ele>
        <time>2013-08-08T02:57:30Z</time>
      </trkpt>
      <trkpt lat="-21.13627" lon="55.62574">
        <ele>1031.1</ele>
        <time>2013-08-08T02:57:35Z</time>
      </trkpt>
      <trkpt lat="-21.13628" lon="55.62575">
        <ele>1031</ele>
        <time>2013-08-08T02:57:36Z</time>
      </trkpt>
      <trkpt lat="-21.13638" lon="55.62589">
        <ele>1030.6</ele>
        <time>2013-08-08T02:57:49Z</time>
      </trkpt>
      <trkpt lat="-21.13643" lon="55.62595">
        <ele>1030.3</ele>
        <time>2013-08-08T02:57:55Z</time>
      </trkpt>
      <trkpt lat="-21.13651" lon="55.626">
        <ele>1030.7</ele>
        <time>2013-08-08T02:58:00Z</time>
      </trkpt>
      <trkpt lat="-21.13654" lon="55.62608">
        <ele>1030.1</ele>
        <time>2013-08-08T02:58:06Z</time>
      </trkpt>
      <trkpt lat="-21.1366" lon="55.62615">
        <ele>1030.9</ele>
        <time>2013-08-08T02:58:12Z</time>
      </trkpt>
      <trkpt lat="-21.13668" lon="55.6262">
        <ele>1029.8</ele>
        <time>2013-08-08T02:58:18Z</time>
      </trkpt>
      <trkpt lat="-21.13673" lon="55.62625">
        <ele>1029.8</ele>
        <time>2013-08-08T02:58:24Z</time>
      </trkpt>
      <trkpt lat="-21.13679" lon="55.6263">
        <ele>1030.3</ele>
        <time>2013-08-08T02:58:29Z</time>
      </trkpt>
      <trkpt lat="-21.13686" lon="55.62636">
        <ele>1030.4</ele>
        <time>2013-08-08T02:58:35Z</time>
      </trkpt>
      <trkpt lat="-21.13693" lon="55.6264">
        <ele>1029.9</ele>
        <time>2013-08-08T02:58:41Z</time>
      </trkpt>
      <trkpt lat="-21.13694" lon="55.62641">
        <ele>1029.8</ele>
        <time>2013-08-08T02:58:42Z</time>
      </trkpt>
      <trkpt lat="-21.13704" lon="55.62654">
        <ele>1030.3</ele>
        <time>2013-08-08T02:58:54Z</time>
      </trkpt>
      <trkpt lat="-21.13709" lon="55.62661">
        <ele>1030.6</ele>
        <time>2013-08-08T02:59:01Z</time>
      </trkpt>
      <trkpt lat="-21.13713" lon="55.62669">
        <ele>1030.1</ele>
        <time>2013-08-08T02:59:07Z</time>
      </trkpt>
      <trkpt lat="-21.13716" lon="55.62677">
        <ele>1029.7</ele>
        <time>2013-08-08T02:59:13Z</time>
      </trkpt>
      <trkpt lat="-21.1372" lon="55.62684">
        <ele>1029.7</ele>
        <time>2013-08-08T02:59:19Z</time>
      </trkpt>
      <trkpt lat="-21.13726" lon="55.6269">
        <ele>1029.3</ele>
        <time>2013-08-08T02:59:24Z</time>
      </trkpt>
      <trkpt lat="-21.13732" lon="55.62698">
        <ele>1030.1</ele>
        <time>2013-08-08T02:59:30Z</time>
      </trkpt>
      <trkpt lat="-21.13738" lon="55.62704">
        <ele>1029.7</ele>
        <time>2013-08-08T02:59:36Z</time>
      </trkpt>
      <trkpt lat="-21.13745" lon="55.6271">
        <ele>1030.3</ele>
        <time>2013-08-08T02:59:42Z</time>
      </trkpt>
      <trkpt lat="-21.13751" lon="55.62716">
        <ele>1029.8</ele>
        <time>2013-08-08T02:59:48Z</time>
      </trkpt>
      <trkpt lat="-21.13753" lon="55.62717">
        <ele>1029.8</ele>
        <time>2013-08-08T02:59:49Z</time>
      </trkpt>
      <trkpt lat="-21.13764" lon="55.62726">
        <ele>1030.2</ele>
        <time>2013-08-08T02:59:58Z</time>
      </trkpt>
      <trkpt lat="-21.1377" lon="55.62732">
        <ele>1029.1</ele>
        <time>2013-08-08T03:00:03Z</time>
      </trkpt>
      <trkpt lat="-21.13774" lon="55.62739">
        <ele>1029</ele>
        <time>2013-08-08T03:00:08Z</time>
      </trkpt>
      <trkpt lat="-21.13782" lon="55.62744">
        <ele>1029</ele>
        <time>2013-08-08T03:00:15Z</time>
      </trkpt>
      <trkpt lat="-21.13788" lon="55.62751">
        <ele>1029.5</ele>
        <time>2013-08-08T03:00:22Z</time>
      </trkpt>
      <trkpt lat="-21.13794" lon="55.62758">
        <ele>1028.4</ele>
        <time>2013-08-08T03:00:29Z</time>
      </trkpt>
      <trkpt lat="-21.138" lon="55.62764">
        <ele>1028.8</ele>
        <time>2013-08-08T03:00:34Z</time>
      </trkpt>
      <trkpt lat="-21.13805" lon="55.6277">
        <ele>1028.7</ele>
        <time>2013-08-08T03:00:39Z</time>
      </trkpt>
      <trkpt lat="-21.13812" lon="55.62776">
        <ele>1027.9</ele>
        <time>2013-08-08T03:00:44Z</time>
      </trkpt>
      <trkpt lat="-21.13818" lon="55.62783">
        <ele>1027.5</ele>
        <time>2013-08-08T03:00:49Z</time>
      </trkpt>
      <trkpt lat="-21.13819" lon="55.62784">
        <ele>1027.4</ele>
        <time>2013-08-08T03:00:50Z</time>
      </trkpt>
      <trkpt lat="-21.13829" lon="55.62796">
        <ele>1027.4</ele>
        <time>2013-08-08T03:00:59Z</time>
      </trkpt>
      <trkpt lat="-21.13836" lon="55.62801">
        <ele>1027.2</ele>
        <time>2013-08-08T03:01:04Z</time>
      </trkpt>
      <trkpt lat="-21.13842" lon="55.62806">
        <ele>1027.7</ele>
        <time>2013-08-08T03:01:09Z</time>
      </trkpt>
      <trkpt lat="-21.13849" lon="55.62811">
        <ele>1027.5</ele>
        <time>2013-08-08T03:01:15Z</time>
      </trkpt>
      <trkpt lat="-21.13855" lon="55.62818">
        <ele>1027.6</ele>
        <time>2013-08-08T03:01:22Z</time>
      </trkpt>
      <trkpt lat="-21.13859" lon="55.62825">
        <ele>1027.6</ele>
        <time>2013-08-08T03:01:27Z</time>
      </trkpt>
      <trkpt lat="-21.13864" lon="55.62832">
        <ele>1027.2</ele>
        <time>2013-08-08T03:01:32Z</time>
      </trkpt>
      <trkpt lat="-21.13869" lon="55.62839">
        <ele>1027.8</ele>
        <time>2013-08-08T03:01:38Z</time>
      </trkpt>
      <trkpt lat="-21.13872" lon="55.62846">
        <ele>1027.4</ele>
        <time>2013-08-08T03:01:43Z</time>
      </trkpt>
      <trkpt lat="-21.13878" lon="55.62852">
        <ele>1027</ele>
        <time>2013-08-08T03:01:48Z</time>
      </trkpt>
      <trkpt lat="-21.13883" lon="55.62859">
        <ele>1027.3</ele>
        <time>2013-08-08T03:01:54Z</time>
      </trkpt>
      <trkpt lat="-21.13884" lon="55.6286">
        <ele>1027.1</ele>
        <time>2013-08-08T03:01:55Z</time>
      </trkpt>
      <trkpt lat="-21.13897" lon="55.62871">
        <ele>1027.5</ele>
        <time>2013-08-08T03:02:06Z</time>
      </trkpt>
      <trkpt lat="-21.13903" lon="55.62878">
        <ele>1027.6</ele>
        <time>2013-08-08T03:02:12Z</time>
      </trkpt>
      <trkpt lat="-21.13909" lon="55.62884">
        <ele>1026.6</ele>
        <time>2013-08-08T03:02:18Z</time>
      </trkpt>
      <trkpt lat="-21.13915" lon="55.62891">
        <ele>1027.2</ele>
        <time>2013-08-08T03:02:24Z</time>
      </trkpt>
      <trkpt lat="-21.13921" lon="55.62897">
        <ele>1027.6</ele>
        <time>2013-08-08T03:02:30Z</time>
      </trkpt>
      <trkpt lat="-21.13927" lon="55.62904">
        <ele>1026.8</ele>
        <time>2013-08-08T03:05:41Z</time>
      </trkpt>
      <trkpt lat="-21.13928" lon="55.62904">
        <ele>1026.8</ele>
        <time>2013-08-08T03:05:42Z</time>
      </trkpt>
      <trkpt lat="-21.13938" lon="55.62917">
        <ele>1028.4</ele>
        <time>2013-08-08T03:05:55Z</time>
      </trkpt>
      <trkpt lat="-21.13944" lon="55.62923">
        <ele>1028.4</ele>
        <time>2013-08-08T03:06:01Z</time>
      </trkpt>
      <trkpt lat="-21.1395" lon="55.62929">
        <ele>1027.5</ele>
        <time>2013-08-08T03:06:07Z</time>
      </trkpt>
      <trkpt lat="-21.13956" lon="55.62936">
        <ele>1027.9</ele>
        <time>2013-08-08T03:06:13Z</time>
      </trkpt>
      <trkpt lat="-21.13961" lon="55.62941">
        <ele>1028.8</ele>
        <time>2013-08-08T03:06:19Z</time>
      </trkpt>
      <trkpt lat="-21.13967" lon="55.62948">
        <ele>1029</ele>
        <time>2013-08-08T03:06:25Z</time>
      </trkpt>
      <trkpt lat="-21.13974" lon="55.62954">
        <ele>1028</ele>
        <time>2013-08-08T03:06:31Z</time>
      </trkpt>
      <trkpt lat="-21.13978" lon="55.6296">
        <ele>1027.7</ele>
        <time>2013-08-08T03:06:36Z</time>
      </trkpt>
      <trkpt lat="-21.13984" lon="55.62967">
        <ele>1027.6</ele>
        <time>2013-08-08T03:06:42Z</time>
      </trkpt>
      <trkpt lat="-21.13985" lon="55.62968">
        <ele>1027.1</ele>
        <time>2013-08-08T03:06:43Z</time>
      </trkpt>
      <trkpt lat="-21.13996" lon="55.62979">
        <ele>1026.9</ele>
        <time>2013-08-08T03:06:54Z</time>
      </trkpt>
      <trkpt lat="-21.14003" lon="55.62984">
        <ele>1027</ele>
        <time>2013-08-08T03:06:59Z</time>
      </trkpt>
      <trkpt lat="-21.14009" lon="55.6299">
        <ele>1025.9</ele>
        <time>2013-08-08T03:07:05Z</time>
      </trkpt>
      <trkpt lat="-21.14016" lon="55.62996">
        <ele>1025.9</ele>
        <time>2013-08-08T03:07:11Z</time>
      </trkpt>
      <trkpt lat="-21.14022" lon="55.63001">
        <ele>1026</ele>
        <time>2013-08-08T03:07:16Z</time>
      </trkpt>
      <trkpt lat="-21.14027" lon="55.63007">
        <ele>1025.9</ele>
        <time>2013-08-08T03:07:21Z</time>
      </trkpt>
      <trkpt lat="-21.14033" lon="55.63014">
        <ele>1025.2</ele>
        <time>2013-08-08T03:07:26Z</time>
      </trkpt>
      <trkpt lat="-21.14039" lon="55.6302">
        <ele>1024.9</ele>
        <time>2013-08-08T03:07:31Z</time>
      </trkpt>
      <trkpt lat="-21.14043" lon="55.63026">
        <ele>1023.5</ele>
        <time>2013-08-08T03:07:36Z</time>
      </trkpt>
      <trkpt lat="-21.1405" lon="55.63033">
        <ele>1024.2</ele>
        <time>2013-08-08T03:07:42Z</time>
      </trkpt>
      <trkpt lat="-21.14055" lon="55.6304">
        <ele>1023.7</ele>
        <time>2013-08-08T03:07:48Z</time>
      </trkpt>
      <trkpt lat="-21.14056" lon="55.63041">
        <ele>1023.6</ele>
        <time>2013-08-08T03:07:49Z</time>
      </trkpt>
      <trkpt lat="-21.14067" lon="55.63051">
        <ele>1023.2</ele>
        <time>2013-08-08T03:07:59Z</time>
      </trkpt>
      <trkpt lat="-21.14072" lon="55.63058">
        <ele>1023.9</ele>
        <time>2013-08-08T03:08:05Z</time>
      </trkpt>
      <trkpt lat="-21.14078" lon="55.63065">
        <ele>1023.5</ele>
        <time>2013-08-08T03:08:11Z</time>
      </trkpt>
      <trkpt lat="-21.14084" lon="55.63072">
        <ele>1023.6</ele>
        <time>2013-08-08T03:08:17Z</time>
      </trkpt>
      <trkpt lat="-21.14089" lon="55.63078">
        <ele>1023.6</ele>
        <time>2013-08-08T03:08:22Z</time>
      </trkpt>
      <trkpt lat="-21.14095" lon="55.63085">
        <ele>1024.6</ele>
        <time>2013-08-08T03:08:28Z</time>
      </trkpt>
      <trkpt lat="-21.14101" lon="55.63091">
        <ele>1024.6</ele>
        <time>2013-08-08T03:08:33Z</time>
      </trkpt>
      <trkpt lat="-21.14107" lon="55.63097">
        <ele>1023.7</ele>
        <time>2013-08-08T03:08:39Z</time>
      </trkpt>
      <trkpt lat="-21.14116" lon="55.63098">
        <ele>1024.1</ele>
        <time>2013-08-08T03:08:46Z</time>
      </trkpt>
      <trkpt lat="-21.14123" lon="55.63093">
        <ele>1023.9</ele>
        <time>2013-08-08T03:08:52Z</time>
      </trkpt>
      <trkpt lat="-21.14124" lon="55.63092">
        <ele>1024</ele>
        <time>2013-08-08T03:08:53Z</time>
      </trkpt>
      <trkpt lat="-21.14136" lon="55.63082">
        <ele>1024.9</ele>
        <time>2013-08-08T03:09:04Z</time>
      </trkpt>
      <trkpt lat="-21.14143" lon="55.63076">
        <ele>1025.4</ele>
        <time>2013-08-08T03:09:10Z</time>
      </trkpt>
      <trkpt lat="-21.14149" lon="55.63071">
        <ele>1025.8</ele>
        <time>2013-08-08T03:09:15Z</time>
      </trkpt>
      <trkpt lat="-21.14156" lon="55.63065">
        <ele>1026.2</ele>
        <time>2013-08-08T03:09:21Z</time>
      </trkpt>
      <trkpt lat="-21.14163" lon="55.6306">
        <ele>1026.6</ele>
        <time>2013-08-08T03:09:26Z</time>
      </trkpt>
      <trkpt lat="-21.14169" lon="55.63054">
        <ele>1027.3</ele>
        <time>2013-08-08T03:09:31Z</time>
      </trkpt>
      <trkpt lat="-21.14175" lon="55.63048">
        <ele>1027.8</ele>
        <time>2013-08-08T03:09:37Z</time>
      </trkpt>
      <trkpt lat="-21.14181" lon="55.63043">
        <ele>1028.1</ele>
        <time>2013-08-08T03:09:42Z</time>
      </trkpt>
      <trkpt lat="-21.14188" lon="55.63038">
        <ele>1029.4</ele>
        <time>2013-08-08T03:09:47Z</time>
      </trkpt>
      <trkpt lat="-21.14195" lon="55.63033">
        <ele>1029.4</ele>
        <time>2013-08-08T03:09:53Z</time>
      </trkpt>
      <trkpt lat="-21.14196" lon="55.63031">
        <ele>1029.3</ele>
        <time>2013-08-08T03:09:54Z</time>
      </trkpt>
      <trkpt lat="-21.14209" lon="55.63021">
        <ele>1029.5</ele>
        <time>2013-08-08T03:10:05Z</time>
      </trkpt>
      <trkpt lat="-21.14214" lon="55.63015">
        <ele>1030.6</ele>
        <time>2013-08-08T03:10:10Z</time>
      </trkpt>
      <trkpt lat="-21.14221" lon="55.63009">
        <ele>1031.5</ele>
        <time>2013-08-08T03:10:16Z</time>
      </trkpt>
      <trkpt lat="-21.14228" lon="55.63005">
        <ele>1031.7</ele>
        <time>2013-08-08T03:10:22Z</time>
      </trkpt>
      <trkpt lat="-21.14235" lon="55.62999">
        <ele>1032.4</ele>
        <time>2013-08-08T03:10:28Z</time>
      </trkpt>
      <trkpt lat="-21.14242" lon="55.62993">
        <ele>1033.7</ele>
        <time>2013-08-08T03:10:34Z</time>
      </trkpt>
      <trkpt lat="-21.14249" lon="55.62988">
        <ele>1034.1</ele>
        <time>2013-08-08T03:10:39Z</time>
      </trkpt>
      <trkpt lat="-21.14255" lon="55.62983">
        <ele>1034.3</ele>
        <time>2013-08-08T03:10:44Z</time>
      </trkpt>
      <trkpt lat="-21.14261" lon="55.62979">
        <ele>1034.5</ele>
        <time>2013-08-08T03:10:49Z</time>
      </trkpt>
      <trkpt lat="-21.14268" lon="55.62973">
        <ele>1034.8</ele>
        <time>2013-08-08T03:10:54Z</time>
      </trkpt>
      <trkpt lat="-21.14269" lon="55.62972">
        <ele>1035.2</ele>
        <time>2013-08-08T03:10:55Z</time>
      </trkpt>
      <trkpt lat="-21.14282" lon="55.62963">
        <ele>1035.6</ele>
        <time>2013-08-08T03:11:06Z</time>
      </trkpt>
      <trkpt lat="-21.14288" lon="55.62957">
        <ele>1035.4</ele>
        <time>2013-08-08T03:11:12Z</time>
      </trkpt>
      <trkpt lat="-21.14294" lon="55.62952">
        <ele>1036.4</ele>
        <time>2013-08-08T03:11:17Z</time>
      </trkpt>
      <trkpt lat="-21.14301" lon="55.62946">
        <ele>1037.3</ele>
        <time>2013-08-08T03:11:23Z</time>
      </trkpt>
      <trkpt lat="-21.14308" lon="55.62941">
        <ele>1037.6</ele>
        <time>2013-08-08T03:11:29Z</time>
      </trkpt>
      <trkpt lat="-21.14315" lon="55.62935">
        <ele>1038.7</ele>
        <time>2013-08-08T03:11:35Z</time>
      </trkpt>
      <trkpt lat="-21.14322" lon="55.62929">
        <ele>1039.4</ele>
        <time>2013-08-08T03:11:41Z</time>
      </trkpt>
      <trkpt lat="-21.14328" lon="55.62924">
        <ele>1040.3</ele>
        <time>2013-08-08T03:11:46Z</time>
      </trkpt>
      <trkpt lat="-21.14335" lon="55.6292">
        <ele>1040.7</ele>
        <time>2013-08-08T03:11:51Z</time>
      </trkpt>
      <trkpt lat="-21.14342" lon="55.62914">
        <ele>1041.5</ele>
        <time>2013-08-08T03:11:57Z</time>
      </trkpt>
      <trkpt lat="-21.14343" lon="55.62913">
        <ele>1041.6</ele>
        <time>2013-08-08T03:11:58Z</time>
      </trkpt>
      <trkpt lat="-21.14355" lon="55.62903">
        <ele>1041.9</ele>
        <time>2013-08-08T03:12:09Z</time>
      </trkpt>
      <trkpt lat="-21.14361" lon="55.62897">
        <ele>1042.8</ele>
        <time>2013-08-08T03:12:14Z</time>
      </trkpt>
      <trkpt lat="-21.14368" lon="55.62891">
        <ele>1043.4</ele>
        <time>2013-08-08T03:12:19Z</time>
      </trkpt>
      <trkpt lat="-21.14374" lon="55.62887">
        <ele>1044</ele>
        <time>2013-08-08T03:12:24Z</time>
      </trkpt>
      <trkpt lat="-21.14381" lon="55.62881">
        <ele>1046</ele>
        <time>2013-08-08T03:12:30Z</time>
      </trkpt>
      <trkpt lat="-21.14388" lon="55.62876">
        <ele>1046.3</ele>
        <time>2013-08-08T03:12:36Z</time>
      </trkpt>
      <trkpt lat="-21.14394" lon="55.62871">
        <ele>1046.5</ele>
        <time>2013-08-08T03:12:41Z</time>
      </trkpt>
      <trkpt lat="-21.144" lon="55.62866">
        <ele>1046.3</ele>
        <time>2013-08-08T03:12:46Z</time>
      </trkpt>
      <trkpt lat="-21.14407" lon="55.6286">
        <ele>1046.7</ele>
        <time>2013-08-08T03:12:52Z</time>
      </trkpt>
      <trkpt lat="-21.14414" lon="55.62854">
        <ele>1048.1</ele>
        <time>2013-08-08T03:12:58Z</time>
      </trkpt>
      <trkpt lat="-21.14415" lon="55.62853">
        <ele>1048</ele>
        <time>2013-08-08T03:12:59Z</time>
      </trkpt>
      <trkpt lat="-21.14427" lon="55.62844">
        <ele>1049</ele>
        <time>2013-08-08T03:13:10Z</time>
      </trkpt>
      <trkpt lat="-21.14433" lon="55.62838">
        <ele>1049.6</ele>
        <time>2013-08-08T03:13:16Z</time>
      </trkpt>
      <trkpt lat="-21.14439" lon="55.62833">
        <ele>1049.6</ele>
        <time>2013-08-08T03:13:22Z</time>
      </trkpt>
      <trkpt lat="-21.14445" lon="55.62826">
        <ele>1050</ele>
        <time>2013-08-08T03:13:28Z</time>
      </trkpt>
      <trkpt lat="-21.14449" lon="55.62821">
        <ele>1050.4</ele>
        <time>2013-08-08T03:13:33Z</time>
      </trkpt>
      <trkpt lat="-21.14456" lon="55.62815">
        <ele>1050.9</ele>
        <time>2013-08-08T03:13:38Z</time>
      </trkpt>
      <trkpt lat="-21.14464" lon="55.62818">
        <ele>1051.6</ele>
        <time>2013-08-08T03:13:44Z</time>
      </trkpt>
      <trkpt lat="-21.1447" lon="55.62823">
        <ele>1051.3</ele>
        <time>2013-08-08T03:13:50Z</time>
      </trkpt>
      <trkpt lat="-21.14476" lon="55.62829">
        <ele>1052.2</ele>
        <time>2013-08-08T03:13:57Z</time>
      </trkpt>
      <trkpt lat="-21.14482" lon="55.62835">
        <ele>1051.6</ele>
        <time>2013-08-08T03:14:03Z</time>
      </trkpt>
      <trkpt lat="-21.14483" lon="55.62837">
        <ele>1052.1</ele>
        <time>2013-08-08T03:14:04Z</time>
      </trkpt>
      <trkpt lat="-21.14493" lon="55.62848">
        <ele>1053.1</ele>
        <time>2013-08-08T03:14:15Z</time>
      </trkpt>
      <trkpt lat="-21.14498" lon="55.62854">
        <ele>1053.6</ele>
        <time>2013-08-08T03:14:20Z</time>
      </trkpt>
      <trkpt lat="-21.14505" lon="55.62861">
        <ele>1054.4</ele>
        <time>2013-08-08T03:14:26Z</time>
      </trkpt>
      <trkpt lat="-21.14512" lon="55.62866">
        <ele>1054.5</ele>
        <time>2013-08-08T03:14:31Z</time>
      </trkpt>
      <trkpt lat="-21.14518" lon="55.62871">
        <ele>1054.6</ele>
        <time>2013-08-08T03:14:36Z</time>
      </trkpt>
      <trkpt lat="-21.14523" lon="55.62877">
        <ele>1054.5</ele>
        <time>2013-08-08T03:14:41Z</time>
      </trkpt>
      <trkpt lat="-21.14529" lon="55.62883">
        <ele>1054.8</ele>
        <time>2013-08-08T03:14:46Z</time>
      </trkpt>
      <trkpt lat="-21.14536" lon="55.62888">
        <ele>1055.6</ele>
        <time>2013-08-08T03:14:52Z</time>
      </trkpt>
      <trkpt lat="-21.14543" lon="55.62892">
        <ele>1056.5</ele>
        <time>2013-08-08T03:14:57Z</time>
      </trkpt>
      <trkpt lat="-21.14551" lon="55.62894">
        <ele>1057.3</ele>
        <time>2013-08-08T03:15:02Z</time>
      </trkpt>
      <trkpt lat="-21.14559" lon="55.62896">
        <ele>1056.7</ele>
        <time>2013-08-08T03:15:07Z</time>
      </trkpt>
      <trkpt lat="-21.14561" lon="55.62896">
        <ele>1056.9</ele>
        <time>2013-08-08T03:15:08Z</time>
      </trkpt>
      <trkpt lat="-21.14575" lon="55.62897">
        <ele>1058.6</ele>
        <time>2013-08-08T03:15:18Z</time>
      </trkpt>
      <trkpt lat="-21.14584" lon="55.62897">
        <ele>1060.2</ele>
        <time>2013-08-08T03:15:24Z</time>
      </trkpt>
      <trkpt lat="-21.14591" lon="55.62898">
        <ele>1060.9</ele>
        <time>2013-08-08T03:15:29Z</time>
      </trkpt>
      <trkpt lat="-21.146" lon="55.62899">
        <ele>1062.2</ele>
        <time>2013-08-08T03:15:35Z</time>
      </trkpt>
      <trkpt lat="-21.14609" lon="55.629">
        <ele>1062.2</ele>
        <time>2013-08-08T03:15:41Z</time>
      </trkpt>
      <trkpt lat="-21.14617" lon="55.62901">
        <ele>1064.5</ele>
        <time>2013-08-08T03:15:47Z</time>
      </trkpt>
      <trkpt lat="-21.14624" lon="55.62905">
        <ele>1064.6</ele>
        <time>2013-08-08T03:15:53Z</time>
      </trkpt>
      <trkpt lat="-21.14629" lon="55.62913">
        <ele>1066</ele>
        <time>2013-08-08T03:16:00Z</time>
      </trkpt>
      <trkpt lat="-21.14626" lon="55.62921">
        <ele>1067.5</ele>
        <time>2013-08-08T03:16:07Z</time>
      </trkpt>
      <trkpt lat="-21.14618" lon="55.62925">
        <ele>1069.9</ele>
        <time>2013-08-08T03:16:13Z</time>
      </trkpt>
      <trkpt lat="-21.14617" lon="55.62926">
        <ele>1069.8</ele>
        <time>2013-08-08T03:16:14Z</time>
      </trkpt>
      <trkpt lat="-21.14603" lon="55.62931">
        <ele>1070.3</ele>
        <time>2013-08-08T03:16:25Z</time>
      </trkpt>
      <trkpt lat="-21.14596" lon="55.62935">
        <ele>1071.9</ele>
        <time>2013-08-08T03:16:31Z</time>
      </trkpt>
      <trkpt lat="-21.14591" lon="55.62943">
        <ele>1072.8</ele>
        <time>2013-08-08T03:16:39Z</time>
      </trkpt>
      <trkpt lat="-21.14598" lon="55.62949">
        <ele>1074.1</ele>
        <time>2013-08-08T03:16:52Z</time>
      </trkpt>
      <trkpt lat="-21.14605" lon="55.62955">
        <ele>1077.3</ele>
        <time>2013-08-08T03:17:04Z</time>
      </trkpt>
      <trkpt lat="-21.14609" lon="55.62963">
        <ele>1081.5</ele>
        <time>2013-08-08T03:17:16Z</time>
      </trkpt>
      <trkpt lat="-21.1461" lon="55.62963">
        <ele>1081.7</ele>
        <time>2013-08-08T03:17:17Z</time>
      </trkpt>
      <trkpt lat="-21.1462" lon="55.62977">
        <ele>1086.6</ele>
        <time>2013-08-08T03:17:35Z</time>
      </trkpt>
      <trkpt lat="-21.14624" lon="55.62985">
        <ele>1088.9</ele>
        <time>2013-08-08T03:17:45Z</time>
      </trkpt>
      <trkpt lat="-21.1463" lon="55.62992">
        <ele>1090.8</ele>
        <time>2013-08-08T03:17:52Z</time>
      </trkpt>
      <trkpt lat="-21.14633" lon="55.63001">
        <ele>1091.3</ele>
        <time>2013-08-08T03:18:02Z</time>
      </trkpt>
      <trkpt lat="-21.1464" lon="55.63006">
        <ele>1094.6</ele>
        <time>2013-08-08T03:18:17Z</time>
      </trkpt>
      <trkpt lat="-21.1464" lon="55.63007">
        <ele>1095</ele>
        <time>2013-08-08T03:18:18Z</time>
      </trkpt>
      <trkpt lat="-21.1465" lon="55.63021">
        <ele>1097.5</ele>
        <time>2013-08-08T03:18:35Z</time>
      </trkpt>
      <trkpt lat="-21.14656" lon="55.63027">
        <ele>1100</ele>
        <time>2013-08-08T03:18:44Z</time>
      </trkpt>
      <trkpt lat="-21.14662" lon="55.63033">
        <ele>1102.9</ele>
        <time>2013-08-08T03:18:54Z</time>
      </trkpt>
      <trkpt lat="-21.14668" lon="55.63039">
        <ele>1104.6</ele>
        <time>2013-08-08T03:19:03Z</time>
      </trkpt>
      <trkpt lat="-21.14674" lon="55.63046">
        <ele>1107.7</ele>
        <time>2013-08-08T03:19:13Z</time>
      </trkpt>
      <trkpt lat="-21.14679" lon="55.63053">
        <ele>1110.4</ele>
        <time>2013-08-08T03:19:25Z</time>
      </trkpt>
      <trkpt lat="-21.14679" lon="55.63054">
        <ele>1110.6</ele>
        <time>2013-08-08T03:19:26Z</time>
      </trkpt>
      <trkpt lat="-21.1469" lon="55.63066">
        <ele>1113.9</ele>
        <time>2013-08-08T03:19:45Z</time>
      </trkpt>
      <trkpt lat="-21.14692" lon="55.63075">
        <ele>1115.6</ele>
        <time>2013-08-08T03:19:54Z</time>
      </trkpt>
      <trkpt lat="-21.14698" lon="55.63082">
        <ele>1118.9</ele>
        <time>2013-08-08T03:20:06Z</time>
      </trkpt>
      <trkpt lat="-21.14704" lon="55.63088">
        <ele>1120.7</ele>
        <time>2013-08-08T03:20:15Z</time>
      </trkpt>
      <trkpt lat="-21.1471" lon="55.63094">
        <ele>1122.9</ele>
        <time>2013-08-08T03:20:23Z</time>
      </trkpt>
      <trkpt lat="-21.14716" lon="55.631">
        <ele>1124</ele>
        <time>2013-08-08T03:20:30Z</time>
      </trkpt>
      <trkpt lat="-21.14717" lon="55.63101">
        <ele>1124.3</ele>
        <time>2013-08-08T03:20:31Z</time>
      </trkpt>
      <trkpt lat="-21.14728" lon="55.63113">
        <ele>1126.3</ele>
        <time>2013-08-08T03:20:46Z</time>
      </trkpt>
      <trkpt lat="-21.14734" lon="55.63118">
        <ele>1128.2</ele>
        <time>2013-08-08T03:20:54Z</time>
      </trkpt>
      <trkpt lat="-21.14742" lon="55.63122">
        <ele>1129.7</ele>
        <time>2013-08-08T03:21:02Z</time>
      </trkpt>
      <trkpt lat="-21.14748" lon="55.63128">
        <ele>1130.9</ele>
        <time>2013-08-08T03:21:09Z</time>
      </trkpt>
      <trkpt lat="-21.14753" lon="55.63135">
        <ele>1131.2</ele>
        <time>2013-08-08T03:21:18Z</time>
      </trkpt>
      <trkpt lat="-21.14758" lon="55.63142">
        <ele>1131.8</ele>
        <time>2013-08-08T03:21:25Z</time>
      </trkpt>
      <trkpt lat="-21.14763" lon="55.6315">
        <ele>1133.1</ele>
        <time>2013-08-08T03:21:32Z</time>
      </trkpt>
      <trkpt lat="-21.14764" lon="55.63151">
        <ele>1133.5</ele>
        <time>2013-08-08T03:21:33Z</time>
      </trkpt>
      <trkpt lat="-21.14773" lon="55.63163">
        <ele>1134.7</ele>
        <time>2013-08-08T03:21:44Z</time>
      </trkpt>
      <trkpt lat="-21.14779" lon="55.6317">
        <ele>1135.3</ele>
        <time>2013-08-08T03:21:50Z</time>
      </trkpt>
      <trkpt lat="-21.14786" lon="55.63176">
        <ele>1135.9</ele>
        <time>2013-08-08T03:21:56Z</time>
      </trkpt>
      <trkpt lat="-21.1479" lon="55.63183">
        <ele>1136.9</ele>
        <time>2013-08-08T03:22:02Z</time>
      </trkpt>
      <trkpt lat="-21.14796" lon="55.6319">
        <ele>1136.9</ele>
        <time>2013-08-08T03:22:08Z</time>
      </trkpt>
      <trkpt lat="-21.14802" lon="55.63196">
        <ele>1137.3</ele>
        <time>2013-08-08T03:22:13Z</time>
      </trkpt>
      <trkpt lat="-21.14807" lon="55.63204">
        <ele>1137.1</ele>
        <time>2013-08-08T03:22:19Z</time>
      </trkpt>
      <trkpt lat="-21.14812" lon="55.6321">
        <ele>1136.8</ele>
        <time>2013-08-08T03:22:24Z</time>
      </trkpt>
      <trkpt lat="-21.14818" lon="55.63216">
        <ele>1137.9</ele>
        <time>2013-08-08T03:22:30Z</time>
      </trkpt>
      <trkpt lat="-21.14825" lon="55.63221">
        <ele>1138.6</ele>
        <time>2013-08-08T03:22:36Z</time>
      </trkpt>
      <trkpt lat="-21.14826" lon="55.63222">
        <ele>1138.6</ele>
        <time>2013-08-08T03:22:37Z</time>
      </trkpt>
      <trkpt lat="-21.14837" lon="55.63232">
        <ele>1139.3</ele>
        <time>2013-08-08T03:22:46Z</time>
      </trkpt>
      <trkpt lat="-21.14843" lon="55.63237">
        <ele>1140.3</ele>
        <time>2013-08-08T03:22:51Z</time>
      </trkpt>
      <trkpt lat="-21.14849" lon="55.63244">
        <ele>1140.9</ele>
        <time>2013-08-08T03:22:57Z</time>
      </trkpt>
      <trkpt lat="-21.14854" lon="55.63252">
        <ele>1140.8</ele>
        <time>2013-08-08T03:23:03Z</time>
      </trkpt>
      <trkpt lat="-21.1486" lon="55.63259">
        <ele>1142.2</ele>
        <time>2013-08-08T03:23:09Z</time>
      </trkpt>
      <trkpt lat="-21.14865" lon="55.63266">
        <ele>1143.4</ele>
        <time>2013-08-08T03:23:15Z</time>
      </trkpt>
      <trkpt lat="-21.1487" lon="55.63272">
        <ele>1144.3</ele>
        <time>2013-08-08T03:23:20Z</time>
      </trkpt>
      <trkpt lat="-21.14876" lon="55.63278">
        <ele>1145.5</ele>
        <time>2013-08-08T03:23:26Z</time>
      </trkpt>
      <trkpt lat="-21.14882" lon="55.63284">
        <ele>1146.3</ele>
        <time>2013-08-08T03:23:32Z</time>
      </trkpt>
      <trkpt lat="-21.14887" lon="55.63291">
        <ele>1147.3</ele>
        <time>2013-08-08T03:23:38Z</time>
      </trkpt>
      <trkpt lat="-21.14888" lon="55.63292">
        <ele>1147.6</ele>
        <time>2013-08-08T03:23:39Z</time>
      </trkpt>
      <trkpt lat="-21.14898" lon="55.63302">
        <ele>1149</ele>
        <time>2013-08-08T03:23:49Z</time>
      </trkpt>
      <trkpt lat="-21.14904" lon="55.63308">
        <ele>1148.7</ele>
        <time>2013-08-08T03:23:54Z</time>
      </trkpt>
      <trkpt lat="-21.14911" lon="55.63315">
        <ele>1149.2</ele>
        <time>2013-08-08T03:24:00Z</time>
      </trkpt>
      <trkpt lat="-21.14916" lon="55.6332">
        <ele>1149.4</ele>
        <time>2013-08-08T03:24:05Z</time>
      </trkpt>
      <trkpt lat="-21.14922" lon="55.63326">
        <ele>1149.2</ele>
        <time>2013-08-08T03:24:10Z</time>
      </trkpt>
      <trkpt lat="-21.14927" lon="55.63332">
        <ele>1150.2</ele>
        <time>2013-08-08T03:24:15Z</time>
      </trkpt>
      <trkpt lat="-21.14933" lon="55.63339">
        <ele>1150.8</ele>
        <time>2013-08-08T03:24:21Z</time>
      </trkpt>
      <trkpt lat="-21.14939" lon="55.63345">
        <ele>1152.5</ele>
        <time>2013-08-08T03:24:27Z</time>
      </trkpt>
      <trkpt lat="-21.14944" lon="55.63352">
        <ele>1153.5</ele>
        <time>2013-08-08T03:24:33Z</time>
      </trkpt>
      <trkpt lat="-21.1495" lon="55.63359">
        <ele>1153.9</ele>
        <time>2013-08-08T03:24:39Z</time>
      </trkpt>
      <trkpt lat="-21.14951" lon="55.6336">
        <ele>1154.2</ele>
        <time>2013-08-08T03:24:40Z</time>
      </trkpt>
      <trkpt lat="-21.14963" lon="55.63371">
        <ele>1156.1</ele>
        <time>2013-08-08T03:24:52Z</time>
      </trkpt>
      <trkpt lat="-21.14969" lon="55.63377">
        <ele>1156.3</ele>
        <time>2013-08-08T03:24:58Z</time>
      </trkpt>
      <trkpt lat="-21.14975" lon="55.63383">
        <ele>1158</ele>
        <time>2013-08-08T03:25:04Z</time>
      </trkpt>
      <trkpt lat="-21.14981" lon="55.6339">
        <ele>1159.6</ele>
        <time>2013-08-08T03:25:10Z</time>
      </trkpt>
      <trkpt lat="-21.14986" lon="55.63397">
        <ele>1160.1</ele>
        <time>2013-08-08T03:25:16Z</time>
      </trkpt>
      <trkpt lat="-21.14992" lon="55.63403">
        <ele>1161.6</ele>
        <time>2013-08-08T03:25:22Z</time>
      </trkpt>
      <trkpt lat="-21.14998" lon="55.63409">
        <ele>1161.8</ele>
        <time>2013-08-08T03:25:28Z</time>
      </trkpt>
      <trkpt lat="-21.15003" lon="55.63416">
        <ele>1162.8</ele>
        <time>2013-08-08T03:25:34Z</time>
      </trkpt>
      <trkpt lat="-21.1501" lon="55.63422">
        <ele>1164.2</ele>
        <time>2013-08-08T03:25:40Z</time>
      </trkpt>
      <trkpt lat="-21.15011" lon="55.63423">
        <ele>1164.6</ele>
        <time>2013-08-08T03:25:41Z</time>
      </trkpt>
      <trkpt lat="-21.15021" lon="55.63434">
        <ele>1165.2</ele>
        <time>2013-08-08T03:25:52Z</time>
      </trkpt>
      <trkpt lat="-21.15026" lon="55.63442">
        <ele>1166.8</ele>
        <time>2013-08-08T03:25:58Z</time>
      </trkpt>
      <trkpt lat="-21.15031" lon="55.63449">
        <ele>1168.2</ele>
        <time>2013-08-08T03:26:04Z</time>
      </trkpt>
      <trkpt lat="-21.15035" lon="55.63455">
        <ele>1169</ele>
        <time>2013-08-08T03:26:09Z</time>
      </trkpt>
      <trkpt lat="-21.15041" lon="55.63462">
        <ele>1169.2</ele>
        <time>2013-08-08T03:26:15Z</time>
      </trkpt>
      <trkpt lat="-21.15047" lon="55.63469">
        <ele>1171.1</ele>
        <time>2013-08-08T03:26:21Z</time>
      </trkpt>
      <trkpt lat="-21.15054" lon="55.63474">
        <ele>1171.9</ele>
        <time>2013-08-08T03:26:27Z</time>
      </trkpt>
      <trkpt lat="-21.15063" lon="55.63476">
        <ele>1173</ele>
        <time>2013-08-08T03:26:34Z</time>
      </trkpt>
      <trkpt lat="-21.1507" lon="55.63477">
        <ele>1173.3</ele>
        <time>2013-08-08T03:26:40Z</time>
      </trkpt>
      <trkpt lat="-21.15078" lon="55.63476">
        <ele>1173.8</ele>
        <time>2013-08-08T03:26:45Z</time>
      </trkpt>
      <trkpt lat="-21.15079" lon="55.63476">
        <ele>1173.6</ele>
        <time>2013-08-08T03:26:46Z</time>
      </trkpt>
      <trkpt lat="-21.15094" lon="55.63472">
        <ele>1174</ele>
        <time>2013-08-08T03:26:56Z</time>
      </trkpt>
      <trkpt lat="-21.15101" lon="55.63471">
        <ele>1174.9</ele>
        <time>2013-08-08T03:27:01Z</time>
      </trkpt>
      <trkpt lat="-21.15109" lon="55.6347">
        <ele>1175</ele>
        <time>2013-08-08T03:27:06Z</time>
      </trkpt>
      <trkpt lat="-21.15116" lon="55.63472">
        <ele>1175.4</ele>
        <time>2013-08-08T03:27:11Z</time>
      </trkpt>
      <trkpt lat="-21.15124" lon="55.63476">
        <ele>1174.2</ele>
        <time>2013-08-08T03:27:17Z</time>
      </trkpt>
      <trkpt lat="-21.15131" lon="55.63481">
        <ele>1174.9</ele>
        <time>2013-08-08T03:27:23Z</time>
      </trkpt>
      <trkpt lat="-21.15132" lon="55.63491">
        <ele>1174.9</ele>
        <time>2013-08-08T03:27:32Z</time>
      </trkpt>
      <trkpt lat="-21.15127" lon="55.63498">
        <ele>1175.4</ele>
        <time>2013-08-08T03:27:41Z</time>
      </trkpt>
      <trkpt lat="-21.15121" lon="55.63504">
        <ele>1175.5</ele>
        <time>2013-08-08T03:27:47Z</time>
      </trkpt>
      <trkpt lat="-21.15121" lon="55.63505">
        <ele>1175.6</ele>
        <time>2013-08-08T03:27:48Z</time>
      </trkpt>
      <trkpt lat="-21.15109" lon="55.63516">
        <ele>1174.3</ele>
        <time>2013-08-08T03:27:58Z</time>
      </trkpt>
      <trkpt lat="-21.15105" lon="55.63524">
        <ele>1173.8</ele>
        <time>2013-08-08T03:28:04Z</time>
      </trkpt>
      <trkpt lat="-21.15104" lon="55.63534">
        <ele>1173.8</ele>
        <time>2013-08-08T03:28:10Z</time>
      </trkpt>
      <trkpt lat="-21.15108" lon="55.63542">
        <ele>1172.5</ele>
        <time>2013-08-08T03:28:16Z</time>
      </trkpt>
      <trkpt lat="-21.15113" lon="55.6355">
        <ele>1173.5</ele>
        <time>2013-08-08T03:28:54Z</time>
      </trkpt>
      <trkpt lat="-21.15114" lon="55.63551">
        <ele>1173.2</ele>
        <time>2013-08-08T03:28:55Z</time>
      </trkpt>
      <trkpt lat="-21.15125" lon="55.63563">
        <ele>1173</ele>
        <time>2013-08-08T03:29:06Z</time>
      </trkpt>
      <trkpt lat="-21.15131" lon="55.63569">
        <ele>1173</ele>
        <time>2013-08-08T03:29:12Z</time>
      </trkpt>
      <trkpt lat="-21.15138" lon="55.63576">
        <ele>1174.1</ele>
        <time>2013-08-08T03:29:18Z</time>
      </trkpt>
      <trkpt lat="-21.15143" lon="55.63583">
        <ele>1174.6</ele>
        <time>2013-08-08T03:29:24Z</time>
      </trkpt>
      <trkpt lat="-21.15149" lon="55.6359">
        <ele>1174.8</ele>
        <time>2013-08-08T03:29:30Z</time>
      </trkpt>
      <trkpt lat="-21.15155" lon="55.63596">
        <ele>1175.4</ele>
        <time>2013-08-08T03:29:36Z</time>
      </trkpt>
      <trkpt lat="-21.15161" lon="55.63603">
        <ele>1176.6</ele>
        <time>2013-08-08T03:29:42Z</time>
      </trkpt>
      <trkpt lat="-21.15166" lon="55.63609">
        <ele>1177.1</ele>
        <time>2013-08-08T03:29:48Z</time>
      </trkpt>
      <trkpt lat="-21.15173" lon="55.63616">
        <ele>1177.5</ele>
        <time>2013-08-08T03:29:54Z</time>
      </trkpt>
      <trkpt lat="-21.15179" lon="55.63622">
        <ele>1178.5</ele>
        <time>2013-08-08T03:29:59Z</time>
      </trkpt>
      <trkpt lat="-21.1518" lon="55.63623">
        <ele>1178.5</ele>
        <time>2013-08-08T03:30:00Z</time>
      </trkpt>
      <trkpt lat="-21.15191" lon="55.63634">
        <ele>1178.7</ele>
        <time>2013-08-08T03:30:10Z</time>
      </trkpt>
      <trkpt lat="-21.15197" lon="55.6364">
        <ele>1180.3</ele>
        <time>2013-08-08T03:30:16Z</time>
      </trkpt>
      <trkpt lat="-21.15203" lon="55.63647">
        <ele>1180.5</ele>
        <time>2013-08-08T03:30:21Z</time>
      </trkpt>
      <trkpt lat="-21.15209" lon="55.63653">
        <ele>1182</ele>
        <time>2013-08-08T03:30:27Z</time>
      </trkpt>
      <trkpt lat="-21.15214" lon="55.63659">
        <ele>1182.9</ele>
        <time>2013-08-08T03:30:32Z</time>
      </trkpt>
      <trkpt lat="-21.15219" lon="55.63666">
        <ele>1183.8</ele>
        <time>2013-08-08T03:30:37Z</time>
      </trkpt>
      <trkpt lat="-21.15225" lon="55.63672">
        <ele>1184.2</ele>
        <time>2013-08-08T03:30:42Z</time>
      </trkpt>
      <trkpt lat="-21.1523" lon="55.63677">
        <ele>1184.5</ele>
        <time>2013-08-08T03:30:47Z</time>
      </trkpt>
      <trkpt lat="-21.15236" lon="55.63684">
        <ele>1184.6</ele>
        <time>2013-08-08T03:30:52Z</time>
      </trkpt>
      <trkpt lat="-21.15242" lon="55.63691">
        <ele>1186.2</ele>
        <time>2013-08-08T03:30:58Z</time>
      </trkpt>
      <trkpt lat="-21.15246" lon="55.63697">
        <ele>1185.3</ele>
        <time>2013-08-08T03:31:03Z</time>
      </trkpt>
      <trkpt lat="-21.15247" lon="55.63699">
        <ele>1185.7</ele>
        <time>2013-08-08T03:31:04Z</time>
      </trkpt>
      <trkpt lat="-21.15257" lon="55.63711">
        <ele>1186.9</ele>
        <time>2013-08-08T03:31:14Z</time>
      </trkpt>
      <trkpt lat="-21.15263" lon="55.63717">
        <ele>1186.9</ele>
        <time>2013-08-08T03:31:19Z</time>
      </trkpt>
      <trkpt lat="-21.15269" lon="55.63724">
        <ele>1188.2</ele>
        <time>2013-08-08T03:31:25Z</time>
      </trkpt>
      <trkpt lat="-21.15275" lon="55.63731">
        <ele>1188</ele>
        <time>2013-08-08T03:31:31Z</time>
      </trkpt>
      <trkpt lat="-21.15281" lon="55.63736">
        <ele>1187.8</ele>
        <time>2013-08-08T03:31:36Z</time>
      </trkpt>
      <trkpt lat="-21.15286" lon="55.63742">
        <ele>1188.4</ele>
        <time>2013-08-08T03:31:41Z</time>
      </trkpt>
      <trkpt lat="-21.15292" lon="55.63749">
        <ele>1188.6</ele>
        <time>2013-08-08T03:31:46Z</time>
      </trkpt>
      <trkpt lat="-21.15297" lon="55.63755">
        <ele>1189.6</ele>
        <time>2013-08-08T03:31:51Z</time>
      </trkpt>
      <trkpt lat="-21.15303" lon="55.63761">
        <ele>1189.8</ele>
        <time>2013-08-08T03:31:56Z</time>
      </trkpt>
      <trkpt lat="-21.15308" lon="55.63767">
        <ele>1190</ele>
        <time>2013-08-08T03:32:01Z</time>
      </trkpt>
      <trkpt lat="-21.15313" lon="55.63774">
        <ele>1191.2</ele>
        <time>2013-08-08T03:32:06Z</time>
      </trkpt>
      <trkpt lat="-21.15314" lon="55.63775">
        <ele>1191.3</ele>
        <time>2013-08-08T03:32:07Z</time>
      </trkpt>
      <trkpt lat="-21.15324" lon="55.63786">
        <ele>1191.4</ele>
        <time>2013-08-08T03:32:16Z</time>
      </trkpt>
      <trkpt lat="-21.1533" lon="55.63793">
        <ele>1191.6</ele>
        <time>2013-08-08T03:32:22Z</time>
      </trkpt>
      <trkpt lat="-21.15336" lon="55.638">
        <ele>1191.6</ele>
        <time>2013-08-08T03:32:28Z</time>
      </trkpt>
      <trkpt lat="-21.15342" lon="55.63806">
        <ele>1192</ele>
        <time>2013-08-08T03:32:33Z</time>
      </trkpt>
      <trkpt lat="-21.15347" lon="55.63812">
        <ele>1192.6</ele>
        <time>2013-08-08T03:32:38Z</time>
      </trkpt>
      <trkpt lat="-21.15353" lon="55.63818">
        <ele>1193.3</ele>
        <time>2013-08-08T03:32:43Z</time>
      </trkpt>
      <trkpt lat="-21.15359" lon="55.63824">
        <ele>1192.3</ele>
        <time>2013-08-08T03:32:48Z</time>
      </trkpt>
      <trkpt lat="-21.15365" lon="55.63829">
        <ele>1193.6</ele>
        <time>2013-08-08T03:32:53Z</time>
      </trkpt>
      <trkpt lat="-21.15372" lon="55.63834">
        <ele>1194.1</ele>
        <time>2013-08-08T03:32:58Z</time>
      </trkpt>
      <trkpt lat="-21.15378" lon="55.6384">
        <ele>1193.9</ele>
        <time>2013-08-08T03:33:04Z</time>
      </trkpt>
      <trkpt lat="-21.15385" lon="55.63846">
        <ele>1193.9</ele>
        <time>2013-08-08T03:33:10Z</time>
      </trkpt>
      <trkpt lat="-21.15386" lon="55.63847">
        <ele>1193.8</ele>
        <time>2013-08-08T03:33:11Z</time>
      </trkpt>
      <trkpt lat="-21.15398" lon="55.63857">
        <ele>1195.2</ele>
        <time>2013-08-08T03:33:21Z</time>
      </trkpt>
      <trkpt lat="-21.15404" lon="55.63862">
        <ele>1195.2</ele>
        <time>2013-08-08T03:33:26Z</time>
      </trkpt>
      <trkpt lat="-21.1541" lon="55.63867">
        <ele>1196.6</ele>
        <time>2013-08-08T03:33:31Z</time>
      </trkpt>
      <trkpt lat="-21.15418" lon="55.6387">
        <ele>1196.8</ele>
        <time>2013-08-08T03:33:36Z</time>
      </trkpt>
      <trkpt lat="-21.15425" lon="55.63874">
        <ele>1196.3</ele>
        <time>2013-08-08T03:33:41Z</time>
      </trkpt>
      <trkpt lat="-21.15432" lon="55.63878">
        <ele>1196.6</ele>
        <time>2013-08-08T03:33:46Z</time>
      </trkpt>
      <trkpt lat="-21.15439" lon="55.63879">
        <ele>1196.2</ele>
        <time>2013-08-08T03:33:51Z</time>
      </trkpt>
      <trkpt lat="-21.15447" lon="55.63882">
        <ele>1196.3</ele>
        <time>2013-08-08T03:33:56Z</time>
      </trkpt>
      <trkpt lat="-21.15454" lon="55.63885">
        <ele>1196.8</ele>
        <time>2013-08-08T03:34:01Z</time>
      </trkpt>
      <trkpt lat="-21.15462" lon="55.63888">
        <ele>1198</ele>
        <time>2013-08-08T03:34:07Z</time>
      </trkpt>
      <trkpt lat="-21.15471" lon="55.63891">
        <ele>1198.4</ele>
        <time>2013-08-08T03:34:13Z</time>
      </trkpt>
      <trkpt lat="-21.15472" lon="55.63892">
        <ele>1198.4</ele>
        <time>2013-08-08T03:34:14Z</time>
      </trkpt>
      <trkpt lat="-21.15487" lon="55.63897">
        <ele>1198.2</ele>
        <time>2013-08-08T03:34:24Z</time>
      </trkpt>
      <trkpt lat="-21.15495" lon="55.63901">
        <ele>1199.2</ele>
        <time>2013-08-08T03:34:30Z</time>
      </trkpt>
      <trkpt lat="-21.15502" lon="55.63905">
        <ele>1200.1</ele>
        <time>2013-08-08T03:34:35Z</time>
      </trkpt>
      <trkpt lat="-21.1551" lon="55.63909">
        <ele>1200.2</ele>
        <time>2013-08-08T03:34:41Z</time>
      </trkpt>
      <trkpt lat="-21.15517" lon="55.63913">
        <ele>1200.5</ele>
        <time>2013-08-08T03:34:46Z</time>
      </trkpt>
      <trkpt lat="-21.15524" lon="55.63916">
        <ele>1200.5</ele>
        <time>2013-08-08T03:34:52Z</time>
      </trkpt>
      <trkpt lat="-21.15532" lon="55.6392">
        <ele>1201</ele>
        <time>2013-08-08T03:34:58Z</time>
      </trkpt>
      <trkpt lat="-21.15539" lon="55.63925">
        <ele>1200.6</ele>
        <time>2013-08-08T03:35:04Z</time>
      </trkpt>
      <trkpt lat="-21.15547" lon="55.63929">
        <ele>1200.3</ele>
        <time>2013-08-08T03:35:10Z</time>
      </trkpt>
      <trkpt lat="-21.15552" lon="55.63936">
        <ele>1201.1</ele>
        <time>2013-08-08T03:35:15Z</time>
      </trkpt>
      <trkpt lat="-21.15553" lon="55.63938">
        <ele>1201.1</ele>
        <time>2013-08-08T03:35:16Z</time>
      </trkpt>
      <trkpt lat="-21.15553" lon="55.63953">
        <ele>1200.4</ele>
        <time>2013-08-08T03:35:25Z</time>
      </trkpt>
      <trkpt lat="-21.1555" lon="55.63962">
        <ele>1199.6</ele>
        <time>2013-08-08T03:35:31Z</time>
      </trkpt>
      <trkpt lat="-21.15547" lon="55.63971">
        <ele>1199</ele>
        <time>2013-08-08T03:35:37Z</time>
      </trkpt>
      <trkpt lat="-21.15546" lon="55.6398">
        <ele>1198.5</ele>
        <time>2013-08-08T03:35:42Z</time>
      </trkpt>
      <trkpt lat="-21.15544" lon="55.63989">
        <ele>1198.5</ele>
        <time>2013-08-08T03:35:48Z</time>
      </trkpt>
      <trkpt lat="-21.15542" lon="55.63998">
        <ele>1198.9</ele>
        <time>2013-08-08T03:35:54Z</time>
      </trkpt>
      <trkpt lat="-21.15547" lon="55.64006">
        <ele>1198.7</ele>
        <time>2013-08-08T03:36:00Z</time>
      </trkpt>
      <trkpt lat="-21.15554" lon="55.64009">
        <ele>1200.2</ele>
        <time>2013-08-08T03:36:06Z</time>
      </trkpt>
      <trkpt lat="-21.15562" lon="55.64012">
        <ele>1200.8</ele>
        <time>2013-08-08T03:36:11Z</time>
      </trkpt>
      <trkpt lat="-21.15569" lon="55.64014">
        <ele>1202.4</ele>
        <time>2013-08-08T03:36:17Z</time>
      </trkpt>
      <trkpt lat="-21.1557" lon="55.64014">
        <ele>1202.5</ele>
        <time>2013-08-08T03:36:18Z</time>
      </trkpt>
      <trkpt lat="-21.15585" lon="55.64017">
        <ele>1204.4</ele>
        <time>2013-08-08T03:36:33Z</time>
      </trkpt>
      <trkpt lat="-21.15593" lon="55.64016">
        <ele>1205.2</ele>
        <time>2013-08-08T03:36:40Z</time>
      </trkpt>
      <trkpt lat="-21.156" lon="55.64016">
        <ele>1206.6</ele>
        <time>2013-08-08T03:36:45Z</time>
      </trkpt>
      <trkpt lat="-21.15608" lon="55.6402">
        <ele>1207</ele>
        <time>2013-08-08T03:36:50Z</time>
      </trkpt>
      <trkpt lat="-21.15611" lon="55.64029">
        <ele>1208.3</ele>
        <time>2013-08-08T03:36:59Z</time>
      </trkpt>
      <trkpt lat="-21.15607" lon="55.64037">
        <ele>1208.6</ele>
        <time>2013-08-08T03:37:06Z</time>
      </trkpt>
      <trkpt lat="-21.15601" lon="55.64044">
        <ele>1208.9</ele>
        <time>2013-08-08T03:37:14Z</time>
      </trkpt>
      <trkpt lat="-21.15596" lon="55.6405">
        <ele>1210.2</ele>
        <time>2013-08-08T03:37:20Z</time>
      </trkpt>
      <trkpt lat="-21.15595" lon="55.64052">
        <ele>1210.2</ele>
        <time>2013-08-08T03:37:21Z</time>
      </trkpt>
      <trkpt lat="-21.15585" lon="55.64064">
        <ele>1210.4</ele>
        <time>2013-08-08T03:37:32Z</time>
      </trkpt>
      <trkpt lat="-21.15579" lon="55.64069">
        <ele>1210.7</ele>
        <time>2013-08-08T03:37:37Z</time>
      </trkpt>
      <trkpt lat="-21.15574" lon="55.64076">
        <ele>1211.4</ele>
        <time>2013-08-08T03:37:41Z</time>
      </trkpt>
      <trkpt lat="-21.15566" lon="55.64079">
        <ele>1212.1</ele>
        <time>2013-08-08T03:37:47Z</time>
      </trkpt>
      <trkpt lat="-21.15558" lon="55.64079">
        <ele>1212.3</ele>
        <time>2013-08-08T03:37:53Z</time>
      </trkpt>
      <trkpt lat="-21.15551" lon="55.64075">
        <ele>1213</ele>
        <time>2013-08-08T03:37:59Z</time>
      </trkpt>
      <trkpt lat="-21.15543" lon="55.64072">
        <ele>1213.2</ele>
        <time>2013-08-08T03:38:04Z</time>
      </trkpt>
      <trkpt lat="-21.15535" lon="55.64069">
        <ele>1212.8</ele>
        <time>2013-08-08T03:38:09Z</time>
      </trkpt>
      <trkpt lat="-21.15527" lon="55.64066">
        <ele>1212.8</ele>
        <time>2013-08-08T03:38:14Z</time>
      </trkpt>
      <trkpt lat="-21.1552" lon="55.64063">
        <ele>1212.7</ele>
        <time>2013-08-08T03:38:19Z</time>
      </trkpt>
      <trkpt lat="-21.15512" lon="55.64059">
        <ele>1212.5</ele>
        <time>2013-08-08T03:38:24Z</time>
      </trkpt>
      <trkpt lat="-21.15511" lon="55.64058">
        <ele>1212.5</ele>
        <time>2013-08-08T03:38:25Z</time>
      </trkpt>
      <trkpt lat="-21.15497" lon="55.64054">
        <ele>1212.2</ele>
        <time>2013-08-08T03:38:34Z</time>
      </trkpt>
      <trkpt lat="-21.15489" lon="55.64055">
        <ele>1212.8</ele>
        <time>2013-08-08T03:38:39Z</time>
      </trkpt>
      <trkpt lat="-21.15482" lon="55.64056">
        <ele>1212.3</ele>
        <time>2013-08-08T03:38:44Z</time>
      </trkpt>
      <trkpt lat="-21.15474" lon="55.64058">
        <ele>1212.5</ele>
        <time>2013-08-08T03:38:49Z</time>
      </trkpt>
      <trkpt lat="-21.15465" lon="55.6406">
        <ele>1211.8</ele>
        <time>2013-08-08T03:38:55Z</time>
      </trkpt>
      <trkpt lat="-21.15457" lon="55.64059">
        <ele>1212.1</ele>
        <time>2013-08-08T03:39:01Z</time>
      </trkpt>
      <trkpt lat="-21.15449" lon="55.64058">
        <ele>1211.7</ele>
        <time>2013-08-08T03:39:06Z</time>
      </trkpt>
      <trkpt lat="-21.15441" lon="55.64058">
        <ele>1211.6</ele>
        <time>2013-08-08T03:39:12Z</time>
      </trkpt>
      <trkpt lat="-21.15433" lon="55.64057">
        <ele>1212</ele>
        <time>2013-08-08T03:39:17Z</time>
      </trkpt>
      <trkpt lat="-21.15425" lon="55.64058">
        <ele>1211.1</ele>
        <time>2013-08-08T03:39:22Z</time>
      </trkpt>
      <trkpt lat="-21.15417" lon="55.64059">
        <ele>1210.1</ele>
        <time>2013-08-08T03:39:27Z</time>
      </trkpt>
      <trkpt lat="-21.15416" lon="55.6406">
        <ele>1209.8</ele>
        <time>2013-08-08T03:39:28Z</time>
      </trkpt>
      <trkpt lat="-21.15401" lon="55.64061">
        <ele>1210.3</ele>
        <time>2013-08-08T03:39:36Z</time>
      </trkpt>
      <trkpt lat="-21.15394" lon="55.64059">
        <ele>1209.2</ele>
        <time>2013-08-08T03:39:41Z</time>
      </trkpt>
      <trkpt lat="-21.15385" lon="55.64057">
        <ele>1208.4</ele>
        <time>2013-08-08T03:39:48Z</time>
      </trkpt>
      <trkpt lat="-21.15378" lon="55.64058">
        <ele>1207</ele>
        <time>2013-08-08T03:39:52Z</time>
      </trkpt>
      <trkpt lat="-21.1537" lon="55.6406">
        <ele>1206.7</ele>
        <time>2013-08-08T03:39:56Z</time>
      </trkpt>
      <trkpt lat="-21.15363" lon="55.64065">
        <ele>1206.5</ele>
        <time>2013-08-08T03:40:01Z</time>
      </trkpt>
      <trkpt lat="-21.15355" lon="55.64069">
        <ele>1206.2</ele>
        <time>2013-08-08T03:40:06Z</time>
      </trkpt>
      <trkpt lat="-21.15348" lon="55.64074">
        <ele>1206.5</ele>
        <time>2013-08-08T03:40:11Z</time>
      </trkpt>
      <trkpt lat="-21.15342" lon="55.6408">
        <ele>1206.3</ele>
        <time>2013-08-08T03:40:16Z</time>
      </trkpt>
      <trkpt lat="-21.15335" lon="55.64086">
        <ele>1206.1</ele>
        <time>2013-08-08T03:40:21Z</time>
      </trkpt>
      <trkpt lat="-21.15329" lon="55.64093">
        <ele>1206.3</ele>
        <time>2013-08-08T03:40:27Z</time>
      </trkpt>
      <trkpt lat="-21.15325" lon="55.641">
        <ele>1206.1</ele>
        <time>2013-08-08T03:40:32Z</time>
      </trkpt>
      <trkpt lat="-21.15324" lon="55.64101">
        <ele>1206.2</ele>
        <time>2013-08-08T03:40:33Z</time>
      </trkpt>
      <trkpt lat="-21.15315" lon="55.64113">
        <ele>1206.7</ele>
        <time>2013-08-08T03:40:42Z</time>
      </trkpt>
      <trkpt lat="-21.15309" lon="55.6412">
        <ele>1207.4</ele>
        <time>2013-08-08T03:40:49Z</time>
      </trkpt>
      <trkpt lat="-21.15303" lon="55.64125">
        <ele>1207</ele>
        <time>2013-08-08T03:40:55Z</time>
      </trkpt>
      <trkpt lat="-21.15299" lon="55.64132">
        <ele>1207.1</ele>
        <time>2013-08-08T03:41:00Z</time>
      </trkpt>
      <trkpt lat="-21.15294" lon="55.64139">
        <ele>1206.5</ele>
        <time>2013-08-08T03:41:06Z</time>
      </trkpt>
      <trkpt lat="-21.1529" lon="55.64146">
        <ele>1207.2</ele>
        <time>2013-08-08T03:41:11Z</time>
      </trkpt>
      <trkpt lat="-21.15285" lon="55.64152">
        <ele>1207</ele>
        <time>2013-08-08T03:41:16Z</time>
      </trkpt>
      <trkpt lat="-21.1528" lon="55.64158">
        <ele>1207.1</ele>
        <time>2013-08-08T03:41:21Z</time>
      </trkpt>
      <trkpt lat="-21.15274" lon="55.64165">
        <ele>1206.9</ele>
        <time>2013-08-08T03:41:27Z</time>
      </trkpt>
      <trkpt lat="-21.15268" lon="55.64172">
        <ele>1206.6</ele>
        <time>2013-08-08T03:41:35Z</time>
      </trkpt>
      <trkpt lat="-21.15266" lon="55.64173">
        <ele>1206.7</ele>
        <time>2013-08-08T03:41:36Z</time>
      </trkpt>
      <trkpt lat="-21.15258" lon="55.64185">
        <ele>1206.8</ele>
        <time>2013-08-08T03:41:46Z</time>
      </trkpt>
      <trkpt lat="-21.15252" lon="55.64191">
        <ele>1207.6</ele>
        <time>2013-08-08T03:41:51Z</time>
      </trkpt>
      <trkpt lat="-21.15249" lon="55.642">
        <ele>1207.4</ele>
        <time>2013-08-08T03:41:57Z</time>
      </trkpt>
      <trkpt lat="-21.15244" lon="55.64207">
        <ele>1207</ele>
        <time>2013-08-08T03:42:02Z</time>
      </trkpt>
      <trkpt lat="-21.15239" lon="55.64214">
        <ele>1206.8</ele>
        <time>2013-08-08T03:42:06Z</time>
      </trkpt>
      <trkpt lat="-21.15233" lon="55.6422">
        <ele>1206</ele>
        <time>2013-08-08T03:42:10Z</time>
      </trkpt>
      <trkpt lat="-21.15226" lon="55.64226">
        <ele>1207</ele>
        <time>2013-08-08T03:42:15Z</time>
      </trkpt>
      <trkpt lat="-21.15219" lon="55.64231">
        <ele>1207.1</ele>
        <time>2013-08-08T03:42:20Z</time>
      </trkpt>
      <trkpt lat="-21.15212" lon="55.64236">
        <ele>1206.8</ele>
        <time>2013-08-08T03:42:25Z</time>
      </trkpt>
      <trkpt lat="-21.15207" lon="55.64241">
        <ele>1207.1</ele>
        <time>2013-08-08T03:42:29Z</time>
      </trkpt>
      <trkpt lat="-21.15202" lon="55.64248">
        <ele>1207.1</ele>
        <time>2013-08-08T03:42:34Z</time>
      </trkpt>
      <trkpt lat="-21.15196" lon="55.64254">
        <ele>1207</ele>
        <time>2013-08-08T03:42:39Z</time>
      </trkpt>
      <trkpt lat="-21.15195" lon="55.64255">
        <ele>1207.4</ele>
        <time>2013-08-08T03:42:40Z</time>
      </trkpt>
      <trkpt lat="-21.15182" lon="55.64262">
        <ele>1207.9</ele>
        <time>2013-08-08T03:42:49Z</time>
      </trkpt>
      <trkpt lat="-21.15175" lon="55.64266">
        <ele>1208.8</ele>
        <time>2013-08-08T03:42:54Z</time>
      </trkpt>
      <trkpt lat="-21.15168" lon="55.64269">
        <ele>1208.7</ele>
        <time>2013-08-08T03:42:59Z</time>
      </trkpt>
      <trkpt lat="-21.1516" lon="55.64271">
        <ele>1209.2</ele>
        <time>2013-08-08T03:43:04Z</time>
      </trkpt>
      <trkpt lat="-21.15152" lon="55.64274">
        <ele>1210.3</ele>
        <time>2013-08-08T03:43:09Z</time>
      </trkpt>
      <trkpt lat="-21.15146" lon="55.64278">
        <ele>1211</ele>
        <time>2013-08-08T03:43:14Z</time>
      </trkpt>
      <trkpt lat="-21.15139" lon="55.64283">
        <ele>1210.6</ele>
        <time>2013-08-08T03:43:19Z</time>
      </trkpt>
      <trkpt lat="-21.15133" lon="55.64288">
        <ele>1211.1</ele>
        <time>2013-08-08T03:43:24Z</time>
      </trkpt>
      <trkpt lat="-21.15126" lon="55.64295">
        <ele>1211.5</ele>
        <time>2013-08-08T03:43:30Z</time>
      </trkpt>
      <trkpt lat="-21.15123" lon="55.64303">
        <ele>1211.7</ele>
        <time>2013-08-08T03:43:37Z</time>
      </trkpt>
      <trkpt lat="-21.15117" lon="55.6431">
        <ele>1211.9</ele>
        <time>2013-08-08T03:43:43Z</time>
      </trkpt>
      <trkpt lat="-21.15116" lon="55.64311">
        <ele>1211.8</ele>
        <time>2013-08-08T03:43:44Z</time>
      </trkpt>
      <trkpt lat="-21.15104" lon="55.64323">
        <ele>1212.9</ele>
        <time>2013-08-08T03:43:54Z</time>
      </trkpt>
      <trkpt lat="-21.15097" lon="55.64327">
        <ele>1213.6</ele>
        <time>2013-08-08T03:43:59Z</time>
      </trkpt>
      <trkpt lat="-21.15091" lon="55.64332">
        <ele>1213.5</ele>
        <time>2013-08-08T03:44:04Z</time>
      </trkpt>
      <trkpt lat="-21.15085" lon="55.64338">
        <ele>1213.9</ele>
        <time>2013-08-08T03:44:09Z</time>
      </trkpt>
      <trkpt lat="-21.15078" lon="55.64343">
        <ele>1213.9</ele>
        <time>2013-08-08T03:44:14Z</time>
      </trkpt>
      <trkpt lat="-21.15072" lon="55.64348">
        <ele>1214.8</ele>
        <time>2013-08-08T03:44:19Z</time>
      </trkpt>
      <trkpt lat="-21.15065" lon="55.64354">
        <ele>1215</ele>
        <time>2013-08-08T03:44:24Z</time>
      </trkpt>
      <trkpt lat="-21.15058" lon="55.64359">
        <ele>1216.1</ele>
        <time>2013-08-08T03:44:30Z</time>
      </trkpt>
      <trkpt lat="-21.15052" lon="55.64366">
        <ele>1216.4</ele>
        <time>2013-08-08T03:44:36Z</time>
      </trkpt>
      <trkpt lat="-21.15046" lon="55.64369">
        <ele>1217</ele>
        <time>2013-08-08T03:44:41Z</time>
      </trkpt>
      <trkpt lat="-21.15038" lon="55.64373">
        <ele>1216.7</ele>
        <time>2013-08-08T03:44:47Z</time>
      </trkpt>
      <trkpt lat="-21.15037" lon="55.64373">
        <ele>1216.8</ele>
        <time>2013-08-08T03:44:48Z</time>
      </trkpt>
      <trkpt lat="-21.15022" lon="55.64371">
        <ele>1217.1</ele>
        <time>2013-08-08T03:45:00Z</time>
      </trkpt>
      <trkpt lat="-21.15014" lon="55.64367">
        <ele>1217.6</ele>
        <time>2013-08-08T03:45:06Z</time>
      </trkpt>
      <trkpt lat="-21.15006" lon="55.64363">
        <ele>1217.2</ele>
        <time>2013-08-08T03:45:13Z</time>
      </trkpt>
      <trkpt lat="-21.14998" lon="55.64359">
        <ele>1217.4</ele>
        <time>2013-08-08T03:45:19Z</time>
      </trkpt>
      <trkpt lat="-21.1499" lon="55.64358">
        <ele>1217.3</ele>
        <time>2013-08-08T03:45:25Z</time>
      </trkpt>
      <trkpt lat="-21.14983" lon="55.64359">
        <ele>1218</ele>
        <time>2013-08-08T03:45:31Z</time>
      </trkpt>
      <trkpt lat="-21.14975" lon="55.6436">
        <ele>1218.4</ele>
        <time>2013-08-08T03:45:36Z</time>
      </trkpt>
      <trkpt lat="-21.14968" lon="55.64364">
        <ele>1219.5</ele>
        <time>2013-08-08T03:45:41Z</time>
      </trkpt>
      <trkpt lat="-21.14961" lon="55.64369">
        <ele>1220.3</ele>
        <time>2013-08-08T03:45:46Z</time>
      </trkpt>
      <trkpt lat="-21.14954" lon="55.64372">
        <ele>1220.2</ele>
        <time>2013-08-08T03:45:51Z</time>
      </trkpt>
      <trkpt lat="-21.14953" lon="55.64373">
        <ele>1220.6</ele>
        <time>2013-08-08T03:45:52Z</time>
      </trkpt>
      <trkpt lat="-21.14938" lon="55.64375">
        <ele>1222.5</ele>
        <time>2013-08-08T03:46:05Z</time>
      </trkpt>
      <trkpt lat="-21.1493" lon="55.64373">
        <ele>1222.1</ele>
        <time>2013-08-08T03:46:11Z</time>
      </trkpt>
      <trkpt lat="-21.1492" lon="55.64374">
        <ele>1223</ele>
        <time>2013-08-08T03:46:31Z</time>
      </trkpt>
      <trkpt lat="-21.14924" lon="55.64383">
        <ele>1223</ele>
        <time>2013-08-08T03:47:01Z</time>
      </trkpt>
      <trkpt lat="-21.14924" lon="55.64383">
        <ele>1223.9</ele>
        <time>2013-08-08T03:47:03Z</time>
      </trkpt>
      <trkpt lat="-21.14926" lon="55.64383">
        <ele>1225.2</ele>
        <time>2013-08-08T03:47:36Z</time>
      </trkpt>
      <trkpt lat="-21.14934" lon="55.6438">
        <ele>1227.5</ele>
        <time>2013-08-08T03:47:51Z</time>
      </trkpt>
      <trkpt lat="-21.14942" lon="55.64383">
        <ele>1229.1</ele>
        <time>2013-08-08T03:48:03Z</time>
      </trkpt>
      <trkpt lat="-21.14943" lon="55.64384">
        <ele>1229.1</ele>
        <time>2013-08-08T03:48:04Z</time>
      </trkpt>
      <trkpt lat="-21.14958" lon="55.64389">
        <ele>1230</ele>
        <time>2013-08-08T03:48:20Z</time>
      </trkpt>
      <trkpt lat="-21.14965" lon="55.64394">
        <ele>1231.8</ele>
        <time>2013-08-08T03:48:28Z</time>
      </trkpt>
      <trkpt lat="-21.14967" lon="55.64403">
        <ele>1232.7</ele>
        <time>2013-08-08T03:48:38Z</time>
      </trkpt>
      <trkpt lat="-21.14968" lon="55.64411">
        <ele>1235</ele>
        <time>2013-08-08T03:48:49Z</time>
      </trkpt>
      <trkpt lat="-21.14966" lon="55.6442">
        <ele>1238.7</ele>
        <time>2013-08-08T03:49:05Z</time>
      </trkpt>
      <trkpt lat="-21.14966" lon="55.64421">
        <ele>1239.3</ele>
        <time>2013-08-08T03:49:06Z</time>
      </trkpt>
      <trkpt lat="-21.14952" lon="55.64427">
        <ele>1241.9</ele>
        <time>2013-08-08T03:49:34Z</time>
      </trkpt>
      <trkpt lat="-21.14943" lon="55.64427">
        <ele>1242.9</ele>
        <time>2013-08-08T03:49:43Z</time>
      </trkpt>
      <trkpt lat="-21.14935" lon="55.64427">
        <ele>1243.6</ele>
        <time>2013-08-08T03:49:52Z</time>
      </trkpt>
      <trkpt lat="-21.14927" lon="55.64429">
        <ele>1244.7</ele>
        <time>2013-08-08T03:50:00Z</time>
      </trkpt>
      <trkpt lat="-21.14919" lon="55.64431">
        <ele>1245.9</ele>
        <time>2013-08-08T03:50:08Z</time>
      </trkpt>
      <trkpt lat="-21.14918" lon="55.64431">
        <ele>1245.9</ele>
        <time>2013-08-08T03:50:09Z</time>
      </trkpt>
      <trkpt lat="-21.14903" lon="55.64437">
        <ele>1248</ele>
        <time>2013-08-08T03:50:26Z</time>
      </trkpt>
      <trkpt lat="-21.14895" lon="55.6444">
        <ele>1249.8</ele>
        <time>2013-08-08T03:50:35Z</time>
      </trkpt>
      <trkpt lat="-21.14888" lon="55.64445">
        <ele>1250.2</ele>
        <time>2013-08-08T03:50:42Z</time>
      </trkpt>
      <trkpt lat="-21.14881" lon="55.64451">
        <ele>1251.2</ele>
        <time>2013-08-08T03:50:51Z</time>
      </trkpt>
      <trkpt lat="-21.14874" lon="55.64457">
        <ele>1253.1</ele>
        <time>2013-08-08T03:51:00Z</time>
      </trkpt>
      <trkpt lat="-21.14867" lon="55.64459">
        <ele>1253.4</ele>
        <time>2013-08-08T03:51:07Z</time>
      </trkpt>
      <trkpt lat="-21.1486" lon="55.64465">
        <ele>1254.4</ele>
        <time>2013-08-08T03:51:17Z</time>
      </trkpt>
      <trkpt lat="-21.14859" lon="55.64465">
        <ele>1254.4</ele>
        <time>2013-08-08T03:51:18Z</time>
      </trkpt>
      <trkpt lat="-21.14846" lon="55.64473">
        <ele>1256.2</ele>
        <time>2013-08-08T03:51:35Z</time>
      </trkpt>
      <trkpt lat="-21.14838" lon="55.64476">
        <ele>1256.7</ele>
        <time>2013-08-08T03:51:43Z</time>
      </trkpt>
      <trkpt lat="-21.1483" lon="55.6448">
        <ele>1258.4</ele>
        <time>2013-08-08T03:51:51Z</time>
      </trkpt>
      <trkpt lat="-21.14823" lon="55.64484">
        <ele>1259.4</ele>
        <time>2013-08-08T03:51:58Z</time>
      </trkpt>
      <trkpt lat="-21.14817" lon="55.6449">
        <ele>1261.4</ele>
        <time>2013-08-08T03:52:08Z</time>
      </trkpt>
      <trkpt lat="-21.14811" lon="55.64497">
        <ele>1262.7</ele>
        <time>2013-08-08T03:52:18Z</time>
      </trkpt>
      <trkpt lat="-21.1481" lon="55.64497">
        <ele>1262.8</ele>
        <time>2013-08-08T03:52:19Z</time>
      </trkpt>
      <trkpt lat="-21.14802" lon="55.64511">
        <ele>1264.6</ele>
        <time>2013-08-08T03:52:36Z</time>
      </trkpt>
      <trkpt lat="-21.14799" lon="55.64519">
        <ele>1264.5</ele>
        <time>2013-08-08T03:52:42Z</time>
      </trkpt>
      <trkpt lat="-21.14796" lon="55.64527">
        <ele>1265.2</ele>
        <time>2013-08-08T03:52:50Z</time>
      </trkpt>
      <trkpt lat="-21.14804" lon="55.64527">
        <ele>1270</ele>
        <time>2013-08-08T03:53:19Z</time>
      </trkpt>
      <trkpt lat="-21.14805" lon="55.64527">
        <ele>1270.2</ele>
        <time>2013-08-08T03:53:20Z</time>
      </trkpt>
      <trkpt lat="-21.1482" lon="55.6452">
        <ele>1271.4</ele>
        <time>2013-08-08T03:53:37Z</time>
      </trkpt>
      <trkpt lat="-21.14828" lon="55.64519">
        <ele>1273.1</ele>
        <time>2013-08-08T03:53:45Z</time>
      </trkpt>
      <trkpt lat="-21.14837" lon="55.64519">
        <ele>1273.8</ele>
        <time>2013-08-08T03:53:53Z</time>
      </trkpt>
      <trkpt lat="-21.14844" lon="55.64521">
        <ele>1274.3</ele>
        <time>2013-08-08T03:54:00Z</time>
      </trkpt>
      <trkpt lat="-21.14853" lon="55.64521">
        <ele>1275.1</ele>
        <time>2013-08-08T03:54:07Z</time>
      </trkpt>
      <trkpt lat="-21.14861" lon="55.64522">
        <ele>1275.8</ele>
        <time>2013-08-08T03:54:15Z</time>
      </trkpt>
      <trkpt lat="-21.14869" lon="55.64522">
        <ele>1277.9</ele>
        <time>2013-08-08T03:54:24Z</time>
      </trkpt>
      <trkpt lat="-21.1487" lon="55.64522">
        <ele>1278.1</ele>
        <time>2013-08-08T03:54:25Z</time>
      </trkpt>
      <trkpt lat="-21.14886" lon="55.64526">
        <ele>1280.1</ele>
        <time>2013-08-08T03:54:38Z</time>
      </trkpt>
      <trkpt lat="-21.14893" lon="55.64529">
        <ele>1280.9</ele>
        <time>2013-08-08T03:54:44Z</time>
      </trkpt>
      <trkpt lat="-21.14901" lon="55.6453">
        <ele>1281.7</ele>
        <time>2013-08-08T03:54:52Z</time>
      </trkpt>
      <trkpt lat="-21.14893" lon="55.64533">
        <ele>1284.9</ele>
        <time>2013-08-08T03:55:26Z</time>
      </trkpt>
      <trkpt lat="-21.14892" lon="55.64533">
        <ele>1284.9</ele>
        <time>2013-08-08T03:55:27Z</time>
      </trkpt>
      <trkpt lat="-21.1488" lon="55.64543">
        <ele>1287</ele>
        <time>2013-08-08T03:55:43Z</time>
      </trkpt>
      <trkpt lat="-21.14872" lon="55.64546">
        <ele>1287.8</ele>
        <time>2013-08-08T03:55:50Z</time>
      </trkpt>
      <trkpt lat="-21.14865" lon="55.6455">
        <ele>1288.8</ele>
        <time>2013-08-08T03:56:00Z</time>
      </trkpt>
      <trkpt lat="-21.14858" lon="55.64554">
        <ele>1290.4</ele>
        <time>2013-08-08T03:56:09Z</time>
      </trkpt>
      <trkpt lat="-21.14853" lon="55.64562">
        <ele>1291.4</ele>
        <time>2013-08-08T03:56:16Z</time>
      </trkpt>
      <trkpt lat="-21.14862" lon="55.64564">
        <ele>1293.7</ele>
        <time>2013-08-08T03:56:36Z</time>
      </trkpt>
      <trkpt lat="-21.14863" lon="55.64564">
        <ele>1293.8</ele>
        <time>2013-08-08T03:56:37Z</time>
      </trkpt>
      <trkpt lat="-21.14875" lon="55.64575">
        <ele>1295.6</ele>
        <time>2013-08-08T03:56:53Z</time>
      </trkpt>
      <trkpt lat="-21.14882" lon="55.6458">
        <ele>1297.5</ele>
        <time>2013-08-08T03:57:04Z</time>
      </trkpt>
      <trkpt lat="-21.14891" lon="55.6458">
        <ele>1299.5</ele>
        <time>2013-08-08T03:57:11Z</time>
      </trkpt>
      <trkpt lat="-21.14899" lon="55.64582">
        <ele>1300.2</ele>
        <time>2013-08-08T03:57:19Z</time>
      </trkpt>
      <trkpt lat="-21.14908" lon="55.64584">
        <ele>1301.5</ele>
        <time>2013-08-08T03:57:28Z</time>
      </trkpt>
      <trkpt lat="-21.14916" lon="55.64582">
        <ele>1301.4</ele>
        <time>2013-08-08T03:57:34Z</time>
      </trkpt>
      <trkpt lat="-21.14923" lon="55.6458">
        <ele>1301.3</ele>
        <time>2013-08-08T03:57:40Z</time>
      </trkpt>
      <trkpt lat="-21.14924" lon="55.64579">
        <ele>1301.3</ele>
        <time>2013-08-08T03:57:41Z</time>
      </trkpt>
      <trkpt lat="-21.14939" lon="55.64583">
        <ele>1308.3</ele>
        <time>2013-08-08T03:58:18Z</time>
      </trkpt>
      <trkpt lat="-21.14939" lon="55.64593">
        <ele>1312.9</ele>
        <time>2013-08-08T03:58:37Z</time>
      </trkpt>
      <trkpt lat="-21.1494" lon="55.64602">
        <ele>1314.9</ele>
        <time>2013-08-08T03:58:49Z</time>
      </trkpt>
      <trkpt lat="-21.14941" lon="55.64603">
        <ele>1315.2</ele>
        <time>2013-08-08T03:58:50Z</time>
      </trkpt>
      <trkpt lat="-21.14947" lon="55.64619">
        <ele>1320</ele>
        <time>2013-08-08T03:59:12Z</time>
      </trkpt>
      <trkpt lat="-21.14953" lon="55.64625">
        <ele>1321.6</ele>
        <time>2013-08-08T03:59:23Z</time>
      </trkpt>
      <trkpt lat="-21.14959" lon="55.64632">
        <ele>1323.2</ele>
        <time>2013-08-08T03:59:37Z</time>
      </trkpt>
      <trkpt lat="-21.14967" lon="55.64635">
        <ele>1328.9</ele>
        <time>2013-08-08T03:59:57Z</time>
      </trkpt>
      <trkpt lat="-21.14968" lon="55.64635">
        <ele>1329</ele>
        <time>2013-08-08T03:59:58Z</time>
      </trkpt>
      <trkpt lat="-21.14981" lon="55.64645">
        <ele>1335.4</ele>
        <time>2013-08-08T04:00:29Z</time>
      </trkpt>
      <trkpt lat="-21.14979" lon="55.64654">
        <ele>1337.3</ele>
        <time>2013-08-08T04:00:41Z</time>
      </trkpt>
      <trkpt lat="-21.14977" lon="55.64663">
        <ele>1339</ele>
        <time>2013-08-08T04:00:53Z</time>
      </trkpt>
      <trkpt lat="-21.1498" lon="55.64672">
        <ele>1340.8</ele>
        <time>2013-08-08T04:01:03Z</time>
      </trkpt>
      <trkpt lat="-21.1498" lon="55.64672">
        <ele>1341.1</ele>
        <time>2013-08-08T04:01:04Z</time>
      </trkpt>
      <trkpt lat="-21.14974" lon="55.64688">
        <ele>1348.8</ele>
        <time>2013-08-08T04:01:41Z</time>
      </trkpt>
      <trkpt lat="-21.14972" lon="55.64697">
        <ele>1351.3</ele>
        <time>2013-08-08T04:01:53Z</time>
      </trkpt>
      <trkpt lat="-21.14972" lon="55.64707">
        <ele>1351.9</ele>
        <time>2013-08-08T04:02:03Z</time>
      </trkpt>
      <trkpt lat="-21.14971" lon="55.64716">
        <ele>1354.2</ele>
        <time>2013-08-08T04:02:19Z</time>
      </trkpt>
      <trkpt lat="-21.14971" lon="55.64717">
        <ele>1354.6</ele>
        <time>2013-08-08T04:02:20Z</time>
      </trkpt>
      <trkpt lat="-21.1498" lon="55.64724">
        <ele>1361.2</ele>
        <time>2013-08-08T04:02:54Z</time>
      </trkpt>
      <trkpt lat="-21.14977" lon="55.64733">
        <ele>1363.5</ele>
        <time>2013-08-08T04:03:03Z</time>
      </trkpt>
      <trkpt lat="-21.14975" lon="55.64742">
        <ele>1367.1</ele>
        <time>2013-08-08T04:03:21Z</time>
      </trkpt>
      <trkpt lat="-21.14975" lon="55.64743">
        <ele>1367.1</ele>
        <time>2013-08-08T04:03:22Z</time>
      </trkpt>
      <trkpt lat="-21.14982" lon="55.64766">
        <ele>1373</ele>
        <time>2013-08-08T04:03:52Z</time>
      </trkpt>
      <trkpt lat="-21.14988" lon="55.64774">
        <ele>1378.5</ele>
        <time>2013-08-08T04:04:40Z</time>
      </trkpt>
      <trkpt lat="-21.14988" lon="55.64774">
        <ele>1378.6</ele>
        <time>2013-08-08T04:04:41Z</time>
      </trkpt>
      <trkpt lat="-21.14989" lon="55.64783">
        <ele>1377.8</ele>
        <time>2013-08-08T04:05:56Z</time>
      </trkpt>
      <trkpt lat="-21.1498" lon="55.64789">
        <ele>1385</ele>
        <time>2013-08-08T04:07:36Z</time>
      </trkpt>
      <trkpt lat="-21.14981" lon="55.64789">
        <ele>1385.2</ele>
        <time>2013-08-08T04:07:37Z</time>
      </trkpt>
      <trkpt lat="-21.14988" lon="55.64805">
        <ele>1390.3</ele>
        <time>2013-08-08T04:08:02Z</time>
      </trkpt>
      <trkpt lat="-21.14996" lon="55.64808">
        <ele>1394.2</ele>
        <time>2013-08-08T04:08:21Z</time>
      </trkpt>
      <trkpt lat="-21.14997" lon="55.64817">
        <ele>1398.6</ele>
        <time>2013-08-08T04:08:39Z</time>
      </trkpt>
      <trkpt lat="-21.14996" lon="55.64818">
        <ele>1398.9</ele>
        <time>2013-08-08T04:08:40Z</time>
      </trkpt>
      <trkpt lat="-21.15002" lon="55.64844">
        <ele>1404</ele>
        <time>2013-08-08T04:09:09Z</time>
      </trkpt>
      <trkpt lat="-21.14999" lon="55.64834">
        <ele>1407</ele>
        <time>2013-08-08T04:09:30Z</time>
      </trkpt>
      <trkpt lat="-21.14995" lon="55.64843">
        <ele>1411.8</ele>
        <time>2013-08-08T04:09:44Z</time>
      </trkpt>
      <trkpt lat="-21.14995" lon="55.64846">
        <ele>1412.1</ele>
        <time>2013-08-08T04:09:45Z</time>
      </trkpt>
      <trkpt lat="-21.15005" lon="55.64858">
        <ele>1413.8</ele>
        <time>2013-08-08T04:09:55Z</time>
      </trkpt>
      <trkpt lat="-21.14998" lon="55.64867">
        <ele>1422</ele>
        <time>2013-08-08T04:10:42Z</time>
      </trkpt>
      <trkpt lat="-21.15003" lon="55.64875">
        <ele>1425.6</ele>
        <time>2013-08-08T04:11:51Z</time>
      </trkpt>
      <trkpt lat="-21.15004" lon="55.64876">
        <ele>1425.9</ele>
        <time>2013-08-08T04:11:52Z</time>
      </trkpt>
      <trkpt lat="-21.15004" lon="55.64894">
        <ele>1433.1</ele>
        <time>2013-08-08T04:12:34Z</time>
      </trkpt>
      <trkpt lat="-21.15002" lon="55.64903">
        <ele>1438.5</ele>
        <time>2013-08-08T04:12:58Z</time>
      </trkpt>
      <trkpt lat="-21.15003" lon="55.64903">
        <ele>1438.9</ele>
        <time>2013-08-08T04:12:59Z</time>
      </trkpt>
      <trkpt lat="-21.15012" lon="55.64914">
        <ele>1448</ele>
        <time>2013-08-08T04:13:47Z</time>
      </trkpt>
      <trkpt lat="-21.1502" lon="55.64922">
        <ele>1451</ele>
        <time>2013-08-08T04:13:59Z</time>
      </trkpt>
      <trkpt lat="-21.1502" lon="55.64921">
        <ele>1450.9</ele>
        <time>2013-08-08T04:14:00Z</time>
      </trkpt>
      <trkpt lat="-21.15036" lon="55.64916">
        <ele>1455.7</ele>
        <time>2013-08-08T04:14:21Z</time>
      </trkpt>
      <trkpt lat="-21.15038" lon="55.64905">
        <ele>1462</ele>
        <time>2013-08-08T04:14:55Z</time>
      </trkpt>
      <trkpt lat="-21.15043" lon="55.64912">
        <ele>1466</ele>
        <time>2013-08-08T04:15:13Z</time>
      </trkpt>
      <trkpt lat="-21.15043" lon="55.64913">
        <ele>1466.3</ele>
        <time>2013-08-08T04:15:14Z</time>
      </trkpt>
      <trkpt lat="-21.1505" lon="55.64928">
        <ele>1469.5</ele>
        <time>2013-08-08T04:15:33Z</time>
      </trkpt>
      <trkpt lat="-21.15053" lon="55.64937">
        <ele>1473.9</ele>
        <time>2013-08-08T04:15:52Z</time>
      </trkpt>
      <trkpt lat="-21.15061" lon="55.64941">
        <ele>1476.9</ele>
        <time>2013-08-08T04:16:06Z</time>
      </trkpt>
      <trkpt lat="-21.15053" lon="55.64945">
        <ele>1482.2</ele>
        <time>2013-08-08T04:16:32Z</time>
      </trkpt>
      <trkpt lat="-21.15052" lon="55.64946">
        <ele>1482.5</ele>
        <time>2013-08-08T04:16:33Z</time>
      </trkpt>
      <trkpt lat="-21.15068" lon="55.64954">
        <ele>1488</ele>
        <time>2013-08-08T04:17:05Z</time>
      </trkpt>
      <trkpt lat="-21.15075" lon="55.64959">
        <ele>1491.2</ele>
        <time>2013-08-08T04:17:16Z</time>
      </trkpt>
      <trkpt lat="-21.1508" lon="55.64966">
        <ele>1495.3</ele>
        <time>2013-08-08T04:17:42Z</time>
      </trkpt>
      <trkpt lat="-21.1508" lon="55.64967">
        <ele>1495.3</ele>
        <time>2013-08-08T04:17:43Z</time>
      </trkpt>
      <trkpt lat="-21.15086" lon="55.64984">
        <ele>1502.2</ele>
        <time>2013-08-08T04:18:13Z</time>
      </trkpt>
      <trkpt lat="-21.15092" lon="55.64991">
        <ele>1504.8</ele>
        <time>2013-08-08T04:18:28Z</time>
      </trkpt>
      <trkpt lat="-21.15099" lon="55.64996">
        <ele>1511.9</ele>
        <time>2013-08-08T04:19:02Z</time>
      </trkpt>
      <trkpt lat="-21.151" lon="55.64996">
        <ele>1512</ele>
        <time>2013-08-08T04:19:03Z</time>
      </trkpt>
      <trkpt lat="-21.15114" lon="55.65003">
        <ele>1518.2</ele>
        <time>2013-08-08T04:19:30Z</time>
      </trkpt>
      <trkpt lat="-21.15118" lon="55.65011">
        <ele>1521.6</ele>
        <time>2013-08-08T04:19:46Z</time>
      </trkpt>
      <trkpt lat="-21.15123" lon="55.65019">
        <ele>1522.1</ele>
        <time>2013-08-08T04:20:02Z</time>
      </trkpt>
      <trkpt lat="-21.15123" lon="55.65028">
        <ele>1520.8</ele>
        <time>2013-08-08T04:20:19Z</time>
      </trkpt>
      <trkpt lat="-21.15123" lon="55.65029">
        <ele>1521.1</ele>
        <time>2013-08-08T04:20:20Z</time>
      </trkpt>
      <trkpt lat="-21.15128" lon="55.65046">
        <ele>1523.9</ele>
        <time>2013-08-08T04:20:41Z</time>
      </trkpt>
      <trkpt lat="-21.15136" lon="55.65049">
        <ele>1523.8</ele>
        <time>2013-08-08T04:20:51Z</time>
      </trkpt>
      <trkpt lat="-21.15144" lon="55.65051">
        <ele>1525.4</ele>
        <time>2013-08-08T04:21:07Z</time>
      </trkpt>
      <trkpt lat="-21.15151" lon="55.65056">
        <ele>1529.9</ele>
        <time>2013-08-08T04:21:24Z</time>
      </trkpt>
      <trkpt lat="-21.15153" lon="55.65057">
        <ele>1530</ele>
        <time>2013-08-08T04:21:25Z</time>
      </trkpt>
      <trkpt lat="-21.15168" lon="55.65053">
        <ele>1532.7</ele>
        <time>2013-08-08T04:21:42Z</time>
      </trkpt>
      <trkpt lat="-21.15177" lon="55.65056">
        <ele>1536.8</ele>
        <time>2013-08-08T04:22:05Z</time>
      </trkpt>
      <trkpt lat="-21.15185" lon="55.65054">
        <ele>1538.9</ele>
        <time>2013-08-08T04:22:20Z</time>
      </trkpt>
      <trkpt lat="-21.15191" lon="55.65061">
        <ele>1541.9</ele>
        <time>2013-08-08T04:22:41Z</time>
      </trkpt>
      <trkpt lat="-21.15192" lon="55.65061">
        <ele>1542</ele>
        <time>2013-08-08T04:22:42Z</time>
      </trkpt>
      <trkpt lat="-21.15208" lon="55.65063">
        <ele>1546.5</ele>
        <time>2013-08-08T04:23:15Z</time>
      </trkpt>
      <trkpt lat="-21.15214" lon="55.65069">
        <ele>1547.6</ele>
        <time>2013-08-08T04:23:35Z</time>
      </trkpt>
      <trkpt lat="-21.15221" lon="55.65076">
        <ele>1552.4</ele>
        <time>2013-08-08T04:24:06Z</time>
      </trkpt>
      <trkpt lat="-21.15222" lon="55.65075">
        <ele>1552.5</ele>
        <time>2013-08-08T04:24:07Z</time>
      </trkpt>
      <trkpt lat="-21.15235" lon="55.65086">
        <ele>1555.9</ele>
        <time>2013-08-08T04:24:40Z</time>
      </trkpt>
      <trkpt lat="-21.15242" lon="55.65092">
        <ele>1557.5</ele>
        <time>2013-08-08T04:24:56Z</time>
      </trkpt>
      <trkpt lat="-21.1525" lon="55.65093">
        <ele>1557.4</ele>
        <time>2013-08-08T04:25:09Z</time>
      </trkpt>
      <trkpt lat="-21.15251" lon="55.65093">
        <ele>1557.8</ele>
        <time>2013-08-08T04:25:10Z</time>
      </trkpt>
      <trkpt lat="-21.15266" lon="55.65097">
        <ele>1560.1</ele>
        <time>2013-08-08T04:25:43Z</time>
      </trkpt>
      <trkpt lat="-21.15269" lon="55.65106">
        <ele>1561.8</ele>
        <time>2013-08-08T04:26:04Z</time>
      </trkpt>
      <trkpt lat="-21.15277" lon="55.65102">
        <ele>1564.3</ele>
        <time>2013-08-08T04:26:38Z</time>
      </trkpt>
      <trkpt lat="-21.15278" lon="55.65102">
        <ele>1564.4</ele>
        <time>2013-08-08T04:26:39Z</time>
      </trkpt>
      <trkpt lat="-21.15295" lon="55.65101">
        <ele>1569.4</ele>
        <time>2013-08-08T04:27:16Z</time>
      </trkpt>
      <trkpt lat="-21.15303" lon="55.65103">
        <ele>1570.5</ele>
        <time>2013-08-08T04:27:28Z</time>
      </trkpt>
      <trkpt lat="-21.15312" lon="55.65104">
        <ele>1571.9</ele>
        <time>2013-08-08T04:27:42Z</time>
      </trkpt>
      <trkpt lat="-21.15313" lon="55.65104">
        <ele>1572.4</ele>
        <time>2013-08-08T04:27:43Z</time>
      </trkpt>
      <trkpt lat="-21.15328" lon="55.65099">
        <ele>1577.3</ele>
        <time>2013-08-08T04:28:16Z</time>
      </trkpt>
      <trkpt lat="-21.15335" lon="55.65094">
        <ele>1578.7</ele>
        <time>2013-08-08T04:28:28Z</time>
      </trkpt>
      <trkpt lat="-21.15344" lon="55.65096">
        <ele>1579.7</ele>
        <time>2013-08-08T04:28:43Z</time>
      </trkpt>
      <trkpt lat="-21.15345" lon="55.65096">
        <ele>1579.5</ele>
        <time>2013-08-08T04:28:44Z</time>
      </trkpt>
      <trkpt lat="-21.1536" lon="55.65095">
        <ele>1579.9</ele>
        <time>2013-08-08T04:29:06Z</time>
      </trkpt>
      <trkpt lat="-21.15369" lon="55.65095">
        <ele>1580.1</ele>
        <time>2013-08-08T04:29:15Z</time>
      </trkpt>
      <trkpt lat="-21.15378" lon="55.65095">
        <ele>1578.9</ele>
        <time>2013-08-08T04:29:25Z</time>
      </trkpt>
      <trkpt lat="-21.15386" lon="55.65094">
        <ele>1578.3</ele>
        <time>2013-08-08T04:29:37Z</time>
      </trkpt>
      <trkpt lat="-21.1539" lon="55.65086">
        <ele>1577.3</ele>
        <time>2013-08-08T04:30:00Z</time>
      </trkpt>
      <trkpt lat="-21.15391" lon="55.65086">
        <ele>1577.5</ele>
        <time>2013-08-08T04:30:01Z</time>
      </trkpt>
      <trkpt lat="-21.15404" lon="55.65074">
        <ele>1577.1</ele>
        <time>2013-08-08T04:30:31Z</time>
      </trkpt>
      <trkpt lat="-21.15411" lon="55.65069">
        <ele>1576.3</ele>
        <time>2013-08-08T04:30:42Z</time>
      </trkpt>
      <trkpt lat="-21.15419" lon="55.65068">
        <ele>1577.5</ele>
        <time>2013-08-08T04:31:07Z</time>
      </trkpt>
      <trkpt lat="-21.1542" lon="55.65068">
        <ele>1577.8</ele>
        <time>2013-08-08T04:31:08Z</time>
      </trkpt>
      <trkpt lat="-21.15434" lon="55.65076">
        <ele>1578.1</ele>
        <time>2013-08-08T04:31:39Z</time>
      </trkpt>
      <trkpt lat="-21.15443" lon="55.65078">
        <ele>1579.9</ele>
        <time>2013-08-08T04:31:55Z</time>
      </trkpt>
      <trkpt lat="-21.1545" lon="55.65079">
        <ele>1581.2</ele>
        <time>2013-08-08T04:32:11Z</time>
      </trkpt>
      <trkpt lat="-21.15452" lon="55.6508">
        <ele>1581.4</ele>
        <time>2013-08-08T04:32:12Z</time>
      </trkpt>
      <trkpt lat="-21.1547" lon="55.6509">
        <ele>1585.4</ele>
        <time>2013-08-08T04:32:36Z</time>
      </trkpt>
      <trkpt lat="-21.15467" lon="55.65081">
        <ele>1587.3</ele>
        <time>2013-08-08T04:32:53Z</time>
      </trkpt>
      <trkpt lat="-21.15468" lon="55.6506">
        <ele>1588</ele>
        <time>2013-08-08T04:33:01Z</time>
      </trkpt>
      <trkpt lat="-21.15476" lon="55.65056">
        <ele>1590</ele>
        <time>2013-08-08T04:33:09Z</time>
      </trkpt>
      <trkpt lat="-21.1548" lon="55.65058">
        <ele>1591.4</ele>
        <time>2013-08-08T04:33:13Z</time>
      </trkpt>
      <trkpt lat="-21.15521" lon="55.65097">
        <ele>1593</ele>
        <time>2013-08-08T04:33:24Z</time>
      </trkpt>
      <trkpt lat="-21.15531" lon="55.65104">
        <ele>1594</ele>
        <time>2013-08-08T04:33:32Z</time>
      </trkpt>
      <trkpt lat="-21.15523" lon="55.651">
        <ele>1595</ele>
        <time>2013-08-08T04:33:38Z</time>
      </trkpt>
      <trkpt lat="-21.15512" lon="55.6509">
        <ele>1597.5</ele>
        <time>2013-08-08T04:33:48Z</time>
      </trkpt>
      <trkpt lat="-21.15509" lon="55.65082">
        <ele>1599.2</ele>
        <time>2013-08-08T04:33:58Z</time>
      </trkpt>
      <trkpt lat="-21.15507" lon="55.65073">
        <ele>1602.6</ele>
        <time>2013-08-08T04:34:15Z</time>
      </trkpt>
      <trkpt lat="-21.15507" lon="55.65072">
        <ele>1602.7</ele>
        <time>2013-08-08T04:34:16Z</time>
      </trkpt>
      <trkpt lat="-21.15506" lon="55.65055">
        <ele>1606</ele>
        <time>2013-08-08T04:34:39Z</time>
      </trkpt>
      <trkpt lat="-21.15512" lon="55.65061">
        <ele>1611.4</ele>
        <time>2013-08-08T04:35:09Z</time>
      </trkpt>
      <trkpt lat="-21.15517" lon="55.65069">
        <ele>1612.6</ele>
        <time>2013-08-08T04:35:20Z</time>
      </trkpt>
      <trkpt lat="-21.15518" lon="55.65071">
        <ele>1613.3</ele>
        <time>2013-08-08T04:35:21Z</time>
      </trkpt>
      <trkpt lat="-21.15533" lon="55.65075">
        <ele>1614</ele>
        <time>2013-08-08T04:35:43Z</time>
      </trkpt>
      <trkpt lat="-21.15538" lon="55.65084">
        <ele>1615</ele>
        <time>2013-08-08T04:35:50Z</time>
      </trkpt>
      <trkpt lat="-21.15541" lon="55.65066">
        <ele>1617</ele>
        <time>2013-08-08T04:36:00Z</time>
      </trkpt>
      <trkpt lat="-21.15547" lon="55.65053">
        <ele>1620</ele>
        <time>2013-08-08T04:36:19Z</time>
      </trkpt>
      <trkpt lat="-21.15549" lon="55.65056">
        <ele>1621.6</ele>
        <time>2013-08-08T04:36:23Z</time>
      </trkpt>
      <trkpt lat="-21.15552" lon="55.65071">
        <ele>1626.4</ele>
        <time>2013-08-08T04:36:46Z</time>
      </trkpt>
      <trkpt lat="-21.15557" lon="55.65078">
        <ele>1633.8</ele>
        <time>2013-08-08T04:37:23Z</time>
      </trkpt>
      <trkpt lat="-21.1556" lon="55.65087">
        <ele>1637.8</ele>
        <time>2013-08-08T04:37:48Z</time>
      </trkpt>
      <trkpt lat="-21.15561" lon="55.65089">
        <ele>1638.2</ele>
        <time>2013-08-08T04:37:49Z</time>
      </trkpt>
      <trkpt lat="-21.15571" lon="55.65083">
        <ele>1642.1</ele>
        <time>2013-08-08T04:38:07Z</time>
      </trkpt>
      <trkpt lat="-21.15577" lon="55.65078">
        <ele>1644.5</ele>
        <time>2013-08-08T04:38:17Z</time>
      </trkpt>
      <trkpt lat="-21.15586" lon="55.65074">
        <ele>1646.9</ele>
        <time>2013-08-08T04:38:29Z</time>
      </trkpt>
      <trkpt lat="-21.15594" lon="55.65066">
        <ele>1647</ele>
        <time>2013-08-08T04:38:41Z</time>
      </trkpt>
      <trkpt lat="-21.15608" lon="55.65082">
        <ele>1649</ele>
        <time>2013-08-08T04:38:56Z</time>
      </trkpt>
      <trkpt lat="-21.15607" lon="55.65069">
        <ele>1649.8</ele>
        <time>2013-08-08T04:39:01Z</time>
      </trkpt>
      <trkpt lat="-21.15624" lon="55.65075">
        <ele>1652</ele>
        <time>2013-08-08T04:39:18Z</time>
      </trkpt>
      <trkpt lat="-21.15633" lon="55.65069">
        <ele>1658</ele>
        <time>2013-08-08T04:40:02Z</time>
      </trkpt>
      <trkpt lat="-21.15638" lon="55.65067">
        <ele>1659.6</ele>
        <time>2013-08-08T04:40:06Z</time>
      </trkpt>
      <trkpt lat="-21.15654" lon="55.65069">
        <ele>1665.6</ele>
        <time>2013-08-08T04:40:29Z</time>
      </trkpt>
      <trkpt lat="-21.15655" lon="55.65078">
        <ele>1666.1</ele>
        <time>2013-08-08T04:40:39Z</time>
      </trkpt>
      <trkpt lat="-21.1565" lon="55.65086">
        <ele>1667.1</ele>
        <time>2013-08-08T04:40:44Z</time>
      </trkpt>
      <trkpt lat="-21.15657" lon="55.65092">
        <ele>1672.5</ele>
        <time>2013-08-08T04:41:10Z</time>
      </trkpt>
      <trkpt lat="-21.15657" lon="55.65093">
        <ele>1672.8</ele>
        <time>2013-08-08T04:41:11Z</time>
      </trkpt>
      <trkpt lat="-21.15673" lon="55.65081">
        <ele>1678.8</ele>
        <time>2013-08-08T04:41:45Z</time>
      </trkpt>
      <trkpt lat="-21.1568" lon="55.65087">
        <ele>1680.5</ele>
        <time>2013-08-08T04:41:56Z</time>
      </trkpt>
      <trkpt lat="-21.1567" lon="55.65096">
        <ele>1682</ele>
        <time>2013-08-08T04:42:06Z</time>
      </trkpt>
      <trkpt lat="-21.15669" lon="55.65089">
        <ele>1683.2</ele>
        <time>2013-08-08T04:42:11Z</time>
      </trkpt>
      <trkpt lat="-21.1566" lon="55.65095">
        <ele>1684.9</ele>
        <time>2013-08-08T04:42:13Z</time>
      </trkpt>
      <trkpt lat="-21.15668" lon="55.65095">
        <ele>1685.5</ele>
        <time>2013-08-08T04:42:27Z</time>
      </trkpt>
      <trkpt lat="-21.15675" lon="55.65094">
        <ele>1685</ele>
        <time>2013-08-08T04:42:33Z</time>
      </trkpt>
      <trkpt lat="-21.15684" lon="55.65094">
        <ele>1685.7</ele>
        <time>2013-08-08T04:42:41Z</time>
      </trkpt>
      <trkpt lat="-21.15693" lon="55.65097">
        <ele>1685.6</ele>
        <time>2013-08-08T04:42:49Z</time>
      </trkpt>
      <trkpt lat="-21.157" lon="55.65094">
        <ele>1687.8</ele>
        <time>2013-08-08T04:42:57Z</time>
      </trkpt>
      <trkpt lat="-21.15708" lon="55.65098">
        <ele>1691.6</ele>
        <time>2013-08-08T04:43:09Z</time>
      </trkpt>
      <trkpt lat="-21.15716" lon="55.65094">
        <ele>1699.5</ele>
        <time>2013-08-08T04:43:48Z</time>
      </trkpt>
      <trkpt lat="-21.15719" lon="55.65094">
        <ele>1700.1</ele>
        <time>2013-08-08T04:43:49Z</time>
      </trkpt>
      <trkpt lat="-21.15731" lon="55.651">
        <ele>1702.9</ele>
        <time>2013-08-08T04:44:07Z</time>
      </trkpt>
      <trkpt lat="-21.15738" lon="55.65105">
        <ele>1703.6</ele>
        <time>2013-08-08T04:44:12Z</time>
      </trkpt>
      <trkpt lat="-21.15744" lon="55.65107">
        <ele>1704.4</ele>
        <time>2013-08-08T04:44:16Z</time>
      </trkpt>
      <trkpt lat="-21.15753" lon="55.65106">
        <ele>1707</ele>
        <time>2013-08-08T04:44:28Z</time>
      </trkpt>
      <trkpt lat="-21.15754" lon="55.65115">
        <ele>1711.1</ele>
        <time>2013-08-08T04:44:48Z</time>
      </trkpt>
      <trkpt lat="-21.15759" lon="55.65123">
        <ele>1710</ele>
        <time>2013-08-08T04:44:59Z</time>
      </trkpt>
      <trkpt lat="-21.1576" lon="55.65124">
        <ele>1710</ele>
        <time>2013-08-08T04:45:00Z</time>
      </trkpt>
      <trkpt lat="-21.15767" lon="55.65139">
        <ele>1709.5</ele>
        <time>2013-08-08T04:45:25Z</time>
      </trkpt>
      <trkpt lat="-21.1577" lon="55.65147">
        <ele>1710.5</ele>
        <time>2013-08-08T04:45:35Z</time>
      </trkpt>
      <trkpt lat="-21.15771" lon="55.65156">
        <ele>1710.4</ele>
        <time>2013-08-08T04:45:43Z</time>
      </trkpt>
      <trkpt lat="-21.15774" lon="55.65165">
        <ele>1711.4</ele>
        <time>2013-08-08T04:45:53Z</time>
      </trkpt>
      <trkpt lat="-21.1578" lon="55.65171">
        <ele>1711.6</ele>
        <time>2013-08-08T04:46:03Z</time>
      </trkpt>
      <trkpt lat="-21.15781" lon="55.65171">
        <ele>1711.7</ele>
        <time>2013-08-08T04:46:04Z</time>
      </trkpt>
      <trkpt lat="-21.15792" lon="55.65183">
        <ele>1713.9</ele>
        <time>2013-08-08T04:46:20Z</time>
      </trkpt>
      <trkpt lat="-21.15798" lon="55.6519">
        <ele>1714.3</ele>
        <time>2013-08-08T04:46:31Z</time>
      </trkpt>
      <trkpt lat="-21.15799" lon="55.65199">
        <ele>1716.9</ele>
        <time>2013-08-08T04:46:41Z</time>
      </trkpt>
      <trkpt lat="-21.15799" lon="55.65208">
        <ele>1717.3</ele>
        <time>2013-08-08T04:46:49Z</time>
      </trkpt>
      <trkpt lat="-21.15799" lon="55.65217">
        <ele>1718.6</ele>
        <time>2013-08-08T04:47:00Z</time>
      </trkpt>
      <trkpt lat="-21.15802" lon="55.65226">
        <ele>1719.7</ele>
        <time>2013-08-08T04:47:10Z</time>
      </trkpt>
      <trkpt lat="-21.15803" lon="55.65227">
        <ele>1719.5</ele>
        <time>2013-08-08T04:47:11Z</time>
      </trkpt>
      <trkpt lat="-21.15813" lon="55.6524">
        <ele>1721.7</ele>
        <time>2013-08-08T04:47:29Z</time>
      </trkpt>
      <trkpt lat="-21.15818" lon="55.65247">
        <ele>1724.5</ele>
        <time>2013-08-08T04:47:41Z</time>
      </trkpt>
      <trkpt lat="-21.1582" lon="55.65256">
        <ele>1725.6</ele>
        <time>2013-08-08T04:47:55Z</time>
      </trkpt>
      <trkpt lat="-21.15816" lon="55.65264">
        <ele>1727.5</ele>
        <time>2013-08-08T04:48:06Z</time>
      </trkpt>
      <trkpt lat="-21.15813" lon="55.65272">
        <ele>1725.7</ele>
        <time>2013-08-08T04:48:19Z</time>
      </trkpt>
      <trkpt lat="-21.15812" lon="55.65273">
        <ele>1725.8</ele>
        <time>2013-08-08T04:48:20Z</time>
      </trkpt>
      <trkpt lat="-21.15816" lon="55.6529">
        <ele>1728.9</ele>
        <time>2013-08-08T04:48:44Z</time>
      </trkpt>
      <trkpt lat="-21.15815" lon="55.65299">
        <ele>1730.7</ele>
        <time>2013-08-08T04:48:53Z</time>
      </trkpt>
      <trkpt lat="-21.15817" lon="55.65307">
        <ele>1728.1</ele>
        <time>2013-08-08T04:49:07Z</time>
      </trkpt>
      <trkpt lat="-21.15817" lon="55.65316">
        <ele>1725.9</ele>
        <time>2013-08-08T04:49:22Z</time>
      </trkpt>
      <trkpt lat="-21.15817" lon="55.65317">
        <ele>1725.6</ele>
        <time>2013-08-08T04:49:23Z</time>
      </trkpt>
      <trkpt lat="-21.15828" lon="55.6533">
        <ele>1724.7</ele>
        <time>2013-08-08T04:49:41Z</time>
      </trkpt>
      <trkpt lat="-21.15835" lon="55.65335">
        <ele>1723.5</ele>
        <time>2013-08-08T04:49:50Z</time>
      </trkpt>
      <trkpt lat="-21.15843" lon="55.6534">
        <ele>1722</ele>
        <time>2013-08-08T04:50:01Z</time>
      </trkpt>
      <trkpt lat="-21.15852" lon="55.65341">
        <ele>1719.9</ele>
        <time>2013-08-08T04:50:11Z</time>
      </trkpt>
      <trkpt lat="-21.1586" lon="55.65344">
        <ele>1718.8</ele>
        <time>2013-08-08T04:50:21Z</time>
      </trkpt>
      <trkpt lat="-21.15867" lon="55.65345">
        <ele>1718.4</ele>
        <time>2013-08-08T04:50:30Z</time>
      </trkpt>
      <trkpt lat="-21.15869" lon="55.65345">
        <ele>1718.1</ele>
        <time>2013-08-08T04:50:31Z</time>
      </trkpt>
      <trkpt lat="-21.15883" lon="55.65344">
        <ele>1717</ele>
        <time>2013-08-08T04:50:46Z</time>
      </trkpt>
      <trkpt lat="-21.15892" lon="55.65346">
        <ele>1716.8</ele>
        <time>2013-08-08T04:50:53Z</time>
      </trkpt>
      <trkpt lat="-21.159" lon="55.65348">
        <ele>1716.8</ele>
        <time>2013-08-08T04:51:00Z</time>
      </trkpt>
      <trkpt lat="-21.15909" lon="55.65349">
        <ele>1717.4</ele>
        <time>2013-08-08T04:51:08Z</time>
      </trkpt>
      <trkpt lat="-21.15918" lon="55.65348">
        <ele>1719.3</ele>
        <time>2013-08-08T04:51:17Z</time>
      </trkpt>
      <trkpt lat="-21.15926" lon="55.65346">
        <ele>1720</ele>
        <time>2013-08-08T04:51:26Z</time>
      </trkpt>
      <trkpt lat="-21.15934" lon="55.65348">
        <ele>1720.4</ele>
        <time>2013-08-08T04:51:33Z</time>
      </trkpt>
      <trkpt lat="-21.15936" lon="55.65348">
        <ele>1720.5</ele>
        <time>2013-08-08T04:51:34Z</time>
      </trkpt>
      <trkpt lat="-21.15951" lon="55.65348">
        <ele>1721.2</ele>
        <time>2013-08-08T04:51:50Z</time>
      </trkpt>
      <trkpt lat="-21.15958" lon="55.65352">
        <ele>1720.6</ele>
        <time>2013-08-08T04:51:57Z</time>
      </trkpt>
      <trkpt lat="-21.15967" lon="55.65352">
        <ele>1719.2</ele>
        <time>2013-08-08T04:52:04Z</time>
      </trkpt>
      <trkpt lat="-21.15975" lon="55.65353">
        <ele>1719.6</ele>
        <time>2013-08-08T04:52:11Z</time>
      </trkpt>
      <trkpt lat="-21.15984" lon="55.65351">
        <ele>1719.2</ele>
        <time>2013-08-08T04:52:18Z</time>
      </trkpt>
      <trkpt lat="-21.15991" lon="55.65353">
        <ele>1718.7</ele>
        <time>2013-08-08T04:52:27Z</time>
      </trkpt>
      <trkpt lat="-21.15998" lon="55.65358">
        <ele>1717.8</ele>
        <time>2013-08-08T04:52:35Z</time>
      </trkpt>
      <trkpt lat="-21.15999" lon="55.6536">
        <ele>1717.2</ele>
        <time>2013-08-08T04:52:36Z</time>
      </trkpt>
      <trkpt lat="-21.16011" lon="55.65371">
        <ele>1715.3</ele>
        <time>2013-08-08T04:53:03Z</time>
      </trkpt>
      <trkpt lat="-21.1602" lon="55.6537">
        <ele>1714.9</ele>
        <time>2013-08-08T04:53:58Z</time>
      </trkpt>
      <trkpt lat="-21.1602" lon="55.6537">
        <ele>1714.5</ele>
        <time>2013-08-08T04:53:59Z</time>
      </trkpt>
      <trkpt lat="-21.16037" lon="55.65374">
        <ele>1710.9</ele>
        <time>2013-08-08T04:54:28Z</time>
      </trkpt>
      <trkpt lat="-21.16044" lon="55.65379">
        <ele>1708.6</ele>
        <time>2013-08-08T04:54:39Z</time>
      </trkpt>
      <trkpt lat="-21.16053" lon="55.65382">
        <ele>1706.2</ele>
        <time>2013-08-08T04:54:56Z</time>
      </trkpt>
      <trkpt lat="-21.16061" lon="55.65381">
        <ele>1701.6</ele>
        <time>2013-08-08T04:55:09Z</time>
      </trkpt>
      <trkpt lat="-21.16062" lon="55.65381">
        <ele>1701.4</ele>
        <time>2013-08-08T04:55:10Z</time>
      </trkpt>
      <trkpt lat="-21.16079" lon="55.65382">
        <ele>1696.3</ele>
        <time>2013-08-08T04:55:40Z</time>
      </trkpt>
      <trkpt lat="-21.16087" lon="55.65384">
        <ele>1693.8</ele>
        <time>2013-08-08T04:55:50Z</time>
      </trkpt>
      <trkpt lat="-21.16095" lon="55.65388">
        <ele>1692.2</ele>
        <time>2013-08-08T04:56:02Z</time>
      </trkpt>
      <trkpt lat="-21.16098" lon="55.65397">
        <ele>1688.6</ele>
        <time>2013-08-08T04:56:25Z</time>
      </trkpt>
      <trkpt lat="-21.16099" lon="55.65397">
        <ele>1688.4</ele>
        <time>2013-08-08T04:56:26Z</time>
      </trkpt>
      <trkpt lat="-21.16112" lon="55.65406">
        <ele>1684.7</ele>
        <time>2013-08-08T04:57:05Z</time>
      </trkpt>
      <trkpt lat="-21.1612" lon="55.6541">
        <ele>1682.1</ele>
        <time>2013-08-08T04:57:18Z</time>
      </trkpt>
      <trkpt lat="-21.16126" lon="55.65416">
        <ele>1681</ele>
        <time>2013-08-08T04:57:30Z</time>
      </trkpt>
      <trkpt lat="-21.16127" lon="55.65416">
        <ele>1681.1</ele>
        <time>2013-08-08T04:57:31Z</time>
      </trkpt>
      <trkpt lat="-21.16141" lon="55.65423">
        <ele>1678.2</ele>
        <time>2013-08-08T04:58:02Z</time>
      </trkpt>
      <trkpt lat="-21.16147" lon="55.6543">
        <ele>1677.3</ele>
        <time>2013-08-08T04:58:16Z</time>
      </trkpt>
      <trkpt lat="-21.16153" lon="55.65437">
        <ele>1672.1</ele>
        <time>2013-08-08T04:58:42Z</time>
      </trkpt>
      <trkpt lat="-21.16153" lon="55.65437">
        <ele>1672.1</ele>
        <time>2013-08-08T04:58:43Z</time>
      </trkpt>
      <trkpt lat="-21.16165" lon="55.65433">
        <ele>1663.5</ele>
        <time>2013-08-08T04:59:42Z</time>
      </trkpt>
      <trkpt lat="-21.16166" lon="55.65424">
        <ele>1661.2</ele>
        <time>2013-08-08T05:00:23Z</time>
      </trkpt>
      <trkpt lat="-21.16167" lon="55.65424">
        <ele>1661.3</ele>
        <time>2013-08-08T05:00:24Z</time>
      </trkpt>
      <trkpt lat="-21.16183" lon="55.65426">
        <ele>1662.3</ele>
        <time>2013-08-08T05:00:44Z</time>
      </trkpt>
      <trkpt lat="-21.16191" lon="55.65428">
        <ele>1662.7</ele>
        <time>2013-08-08T05:00:50Z</time>
      </trkpt>
      <trkpt lat="-21.162" lon="55.65429">
        <ele>1662.1</ele>
        <time>2013-08-08T05:01:02Z</time>
      </trkpt>
      <trkpt lat="-21.16208" lon="55.65432">
        <ele>1662.6</ele>
        <time>2013-08-08T05:01:12Z</time>
      </trkpt>
      <trkpt lat="-21.16215" lon="55.65437">
        <ele>1661.9</ele>
        <time>2013-08-08T05:01:40Z</time>
      </trkpt>
      <trkpt lat="-21.16216" lon="55.65437">
        <ele>1662</ele>
        <time>2013-08-08T05:01:41Z</time>
      </trkpt>
      <trkpt lat="-21.1623" lon="55.65447">
        <ele>1661.2</ele>
        <time>2013-08-08T05:02:16Z</time>
      </trkpt>
      <trkpt lat="-21.16235" lon="55.65455">
        <ele>1660.9</ele>
        <time>2013-08-08T05:02:31Z</time>
      </trkpt>
      <trkpt lat="-21.16238" lon="55.65464">
        <ele>1659.7</ele>
        <time>2013-08-08T05:02:45Z</time>
      </trkpt>
      <trkpt lat="-21.16239" lon="55.65464">
        <ele>1659.4</ele>
        <time>2013-08-08T05:02:46Z</time>
      </trkpt>
      <trkpt lat="-21.16251" lon="55.65474">
        <ele>1659.4</ele>
        <time>2013-08-08T05:03:05Z</time>
      </trkpt>
      <trkpt lat="-21.1626" lon="55.65476">
        <ele>1659.4</ele>
        <time>2013-08-08T05:03:12Z</time>
      </trkpt>
      <trkpt lat="-21.16269" lon="55.65477">
        <ele>1660</ele>
        <time>2013-08-08T05:03:20Z</time>
      </trkpt>
      <trkpt lat="-21.16277" lon="55.65475">
        <ele>1659.1</ele>
        <time>2013-08-08T05:03:29Z</time>
      </trkpt>
      <trkpt lat="-21.16286" lon="55.65472">
        <ele>1660.5</ele>
        <time>2013-08-08T05:03:43Z</time>
      </trkpt>
      <trkpt lat="-21.16294" lon="55.65476">
        <ele>1660.3</ele>
        <time>2013-08-08T05:03:55Z</time>
      </trkpt>
      <trkpt lat="-21.16295" lon="55.65476">
        <ele>1660.3</ele>
        <time>2013-08-08T05:03:56Z</time>
      </trkpt>
      <trkpt lat="-21.16308" lon="55.65485">
        <ele>1661.6</ele>
        <time>2013-08-08T05:04:23Z</time>
      </trkpt>
      <trkpt lat="-21.16315" lon="55.65491">
        <ele>1662.4</ele>
        <time>2013-08-08T05:04:37Z</time>
      </trkpt>
      <trkpt lat="-21.16322" lon="55.65495">
        <ele>1663.1</ele>
        <time>2013-08-08T05:04:50Z</time>
      </trkpt>
      <trkpt lat="-21.1633" lon="55.65497">
        <ele>1665.7</ele>
        <time>2013-08-08T05:05:04Z</time>
      </trkpt>
      <trkpt lat="-21.16331" lon="55.65497">
        <ele>1666</ele>
        <time>2013-08-08T05:05:05Z</time>
      </trkpt>
      <trkpt lat="-21.16346" lon="55.65505">
        <ele>1666.7</ele>
        <time>2013-08-08T05:05:36Z</time>
      </trkpt>
      <trkpt lat="-21.16343" lon="55.65514">
        <ele>1667.9</ele>
        <time>2013-08-08T05:05:47Z</time>
      </trkpt>
      <trkpt lat="-21.16339" lon="55.65522">
        <ele>1670.7</ele>
        <time>2013-08-08T05:06:18Z</time>
      </trkpt>
      <trkpt lat="-21.16339" lon="55.65523">
        <ele>1670.6</ele>
        <time>2013-08-08T05:06:19Z</time>
      </trkpt>
      <trkpt lat="-21.16338" lon="55.6554">
        <ele>1673.4</ele>
        <time>2013-08-08T05:06:42Z</time>
      </trkpt>
      <trkpt lat="-21.16341" lon="55.65549">
        <ele>1673.8</ele>
        <time>2013-08-08T05:06:51Z</time>
      </trkpt>
      <trkpt lat="-21.16341" lon="55.65559">
        <ele>1672.4</ele>
        <time>2013-08-08T05:07:02Z</time>
      </trkpt>
      <trkpt lat="-21.16345" lon="55.65567">
        <ele>1672.2</ele>
        <time>2013-08-08T05:07:12Z</time>
      </trkpt>
      <trkpt lat="-21.16345" lon="55.65576">
        <ele>1672.7</ele>
        <time>2013-08-08T05:07:24Z</time>
      </trkpt>
      <trkpt lat="-21.16345" lon="55.65577">
        <ele>1672.7</ele>
        <time>2013-08-08T05:07:25Z</time>
      </trkpt>
      <trkpt lat="-21.16334" lon="55.65589">
        <ele>1671.5</ele>
        <time>2013-08-08T05:08:04Z</time>
      </trkpt>
      <trkpt lat="-21.16332" lon="55.65598">
        <ele>1671.9</ele>
        <time>2013-08-08T05:08:15Z</time>
      </trkpt>
      <trkpt lat="-21.16331" lon="55.65607">
        <ele>1672.4</ele>
        <time>2013-08-08T05:08:25Z</time>
      </trkpt>
      <trkpt lat="-21.16331" lon="55.65617">
        <ele>1671.1</ele>
        <time>2013-08-08T05:08:34Z</time>
      </trkpt>
      <trkpt lat="-21.1633" lon="55.65617">
        <ele>1671.1</ele>
        <time>2013-08-08T05:08:35Z</time>
      </trkpt>
      <trkpt lat="-21.16341" lon="55.65626">
        <ele>1670.8</ele>
        <time>2013-08-08T05:09:19Z</time>
      </trkpt>
      <trkpt lat="-21.16349" lon="55.65625">
        <ele>1674.4</ele>
        <time>2013-08-08T05:09:38Z</time>
      </trkpt>
      <trkpt lat="-21.1635" lon="55.65625">
        <ele>1674.6</ele>
        <time>2013-08-08T05:09:39Z</time>
      </trkpt>
      <trkpt lat="-21.16364" lon="55.65634">
        <ele>1678.9</ele>
        <time>2013-08-08T05:10:10Z</time>
      </trkpt>
      <trkpt lat="-21.16371" lon="55.65638">
        <ele>1680.4</ele>
        <time>2013-08-08T05:10:22Z</time>
      </trkpt>
      <trkpt lat="-21.16378" lon="55.65644">
        <ele>1679.6</ele>
        <time>2013-08-08T05:10:34Z</time>
      </trkpt>
      <trkpt lat="-21.16386" lon="55.65648">
        <ele>1679.6</ele>
        <time>2013-08-08T05:10:44Z</time>
      </trkpt>
      <trkpt lat="-21.16387" lon="55.65649">
        <ele>1679.6</ele>
        <time>2013-08-08T05:10:45Z</time>
      </trkpt>
      <trkpt lat="-21.16389" lon="55.65666">
        <ele>1677</ele>
        <time>2013-08-08T05:11:05Z</time>
      </trkpt>
      <trkpt lat="-21.1639" lon="55.65675">
        <ele>1677.7</ele>
        <time>2013-08-08T05:11:14Z</time>
      </trkpt>
      <trkpt lat="-21.16388" lon="55.65684">
        <ele>1676.7</ele>
        <time>2013-08-08T05:11:26Z</time>
      </trkpt>
      <trkpt lat="-21.16386" lon="55.65693">
        <ele>1674.5</ele>
        <time>2013-08-08T05:11:38Z</time>
      </trkpt>
      <trkpt lat="-21.16381" lon="55.65701">
        <ele>1673.8</ele>
        <time>2013-08-08T05:11:45Z</time>
      </trkpt>
      <trkpt lat="-21.16378" lon="55.65709">
        <ele>1673.4</ele>
        <time>2013-08-08T05:11:54Z</time>
      </trkpt>
      <trkpt lat="-21.16378" lon="55.6571">
        <ele>1673.3</ele>
        <time>2013-08-08T05:11:55Z</time>
      </trkpt>
      <trkpt lat="-21.16389" lon="55.65722">
        <ele>1674.4</ele>
        <time>2013-08-08T05:12:22Z</time>
      </trkpt>
      <trkpt lat="-21.16393" lon="55.6573">
        <ele>1675.3</ele>
        <time>2013-08-08T05:12:31Z</time>
      </trkpt>
      <trkpt lat="-21.16395" lon="55.65739">
        <ele>1675.9</ele>
        <time>2013-08-08T05:12:41Z</time>
      </trkpt>
      <trkpt lat="-21.16394" lon="55.65748">
        <ele>1675.5</ele>
        <time>2013-08-08T05:12:54Z</time>
      </trkpt>
      <trkpt lat="-21.16397" lon="55.65757">
        <ele>1673.8</ele>
        <time>2013-08-08T05:13:05Z</time>
      </trkpt>
      <trkpt lat="-21.16397" lon="55.65758">
        <ele>1673.8</ele>
        <time>2013-08-08T05:13:06Z</time>
      </trkpt>
      <trkpt lat="-21.16399" lon="55.65775">
        <ele>1668.2</ele>
        <time>2013-08-08T05:13:33Z</time>
      </trkpt>
      <trkpt lat="-21.16398" lon="55.65784">
        <ele>1668</ele>
        <time>2013-08-08T05:13:41Z</time>
      </trkpt>
      <trkpt lat="-21.164" lon="55.65793">
        <ele>1667.2</ele>
        <time>2013-08-08T05:13:49Z</time>
      </trkpt>
      <trkpt lat="-21.16402" lon="55.65801">
        <ele>1667.3</ele>
        <time>2013-08-08T05:13:56Z</time>
      </trkpt>
      <trkpt lat="-21.16403" lon="55.6581">
        <ele>1667.3</ele>
        <time>2013-08-08T05:14:05Z</time>
      </trkpt>
      <trkpt lat="-21.16402" lon="55.65819">
        <ele>1667.2</ele>
        <time>2013-08-08T05:14:13Z</time>
      </trkpt>
      <trkpt lat="-21.16402" lon="55.65821">
        <ele>1667.1</ele>
        <time>2013-08-08T05:14:14Z</time>
      </trkpt>
      <trkpt lat="-21.16404" lon="55.65838">
        <ele>1668</ele>
        <time>2013-08-08T05:14:28Z</time>
      </trkpt>
      <trkpt lat="-21.16405" lon="55.65847">
        <ele>1667.3</ele>
        <time>2013-08-08T05:14:37Z</time>
      </trkpt>
      <trkpt lat="-21.16405" lon="55.65856">
        <ele>1665.3</ele>
        <time>2013-08-08T05:14:55Z</time>
      </trkpt>
      <trkpt lat="-21.16399" lon="55.65863">
        <ele>1663.9</ele>
        <time>2013-08-08T05:15:10Z</time>
      </trkpt>
      <trkpt lat="-21.16392" lon="55.65869">
        <ele>1661.7</ele>
        <time>2013-08-08T05:15:23Z</time>
      </trkpt>
      <trkpt lat="-21.16391" lon="55.6587">
        <ele>1661.3</ele>
        <time>2013-08-08T05:15:24Z</time>
      </trkpt>
      <trkpt lat="-21.16381" lon="55.65881">
        <ele>1657.3</ele>
        <time>2013-08-08T05:16:00Z</time>
      </trkpt>
      <trkpt lat="-21.16381" lon="55.6589">
        <ele>1657.6</ele>
        <time>2013-08-08T05:16:09Z</time>
      </trkpt>
      <trkpt lat="-21.16384" lon="55.65899">
        <ele>1658.3</ele>
        <time>2013-08-08T05:16:20Z</time>
      </trkpt>
      <trkpt lat="-21.16387" lon="55.65907">
        <ele>1659.9</ele>
        <time>2013-08-08T05:16:32Z</time>
      </trkpt>
      <trkpt lat="-21.16387" lon="55.65908">
        <ele>1659.9</ele>
        <time>2013-08-08T05:16:33Z</time>
      </trkpt>
      <trkpt lat="-21.16397" lon="55.65922">
        <ele>1661.4</ele>
        <time>2013-08-08T05:16:51Z</time>
      </trkpt>
      <trkpt lat="-21.16403" lon="55.65928">
        <ele>1662</ele>
        <time>2013-08-08T05:16:58Z</time>
      </trkpt>
      <trkpt lat="-21.1641" lon="55.65933">
        <ele>1661.8</ele>
        <time>2013-08-08T05:17:05Z</time>
      </trkpt>
      <trkpt lat="-21.16409" lon="55.65942">
        <ele>1662.5</ele>
        <time>2013-08-08T05:17:18Z</time>
      </trkpt>
      <trkpt lat="-21.16405" lon="55.6595">
        <ele>1663.7</ele>
        <time>2013-08-08T05:17:35Z</time>
      </trkpt>
      <trkpt lat="-21.16405" lon="55.65951">
        <ele>1663.8</ele>
        <time>2013-08-08T05:17:36Z</time>
      </trkpt>
      <trkpt lat="-21.16399" lon="55.65967">
        <ele>1666.7</ele>
        <time>2013-08-08T05:17:58Z</time>
      </trkpt>
      <trkpt lat="-21.16399" lon="55.65976">
        <ele>1667.9</ele>
        <time>2013-08-08T05:18:08Z</time>
      </trkpt>
      <trkpt lat="-21.16398" lon="55.65985">
        <ele>1668.6</ele>
        <time>2013-08-08T05:18:19Z</time>
      </trkpt>
      <trkpt lat="-21.16397" lon="55.65994">
        <ele>1666.8</ele>
        <time>2013-08-08T05:18:32Z</time>
      </trkpt>
      <trkpt lat="-21.16394" lon="55.66003">
        <ele>1668.6</ele>
        <time>2013-08-08T05:18:41Z</time>
      </trkpt>
      <trkpt lat="-21.16394" lon="55.66004">
        <ele>1668.4</ele>
        <time>2013-08-08T05:18:42Z</time>
      </trkpt>
      <trkpt lat="-21.16395" lon="55.66021">
        <ele>1664.8</ele>
        <time>2013-08-08T05:19:06Z</time>
      </trkpt>
      <trkpt lat="-21.1639" lon="55.66029">
        <ele>1662.8</ele>
        <time>2013-08-08T05:19:23Z</time>
      </trkpt>
      <trkpt lat="-21.16385" lon="55.66036">
        <ele>1660.1</ele>
        <time>2013-08-08T05:19:38Z</time>
      </trkpt>
      <trkpt lat="-21.16378" lon="55.66042">
        <ele>1658.8</ele>
        <time>2013-08-08T05:19:53Z</time>
      </trkpt>
      <trkpt lat="-21.16377" lon="55.66043">
        <ele>1658.7</ele>
        <time>2013-08-08T05:19:54Z</time>
      </trkpt>
      <trkpt lat="-21.16375" lon="55.66061">
        <ele>1658.7</ele>
        <time>2013-08-08T05:20:11Z</time>
      </trkpt>
      <trkpt lat="-21.16371" lon="55.66068">
        <ele>1659.1</ele>
        <time>2013-08-08T05:20:21Z</time>
      </trkpt>
      <trkpt lat="-21.16374" lon="55.66077">
        <ele>1660.2</ele>
        <time>2013-08-08T05:20:30Z</time>
      </trkpt>
      <trkpt lat="-21.1637" lon="55.66084">
        <ele>1662.1</ele>
        <time>2013-08-08T05:20:48Z</time>
      </trkpt>
      <trkpt lat="-21.16364" lon="55.66091">
        <ele>1661.7</ele>
        <time>2013-08-08T05:20:59Z</time>
      </trkpt>
      <trkpt lat="-21.16364" lon="55.66092">
        <ele>1661.6</ele>
        <time>2013-08-08T05:21:00Z</time>
      </trkpt>
      <trkpt lat="-21.16358" lon="55.66108">
        <ele>1662.6</ele>
        <time>2013-08-08T05:21:24Z</time>
      </trkpt>
      <trkpt lat="-21.16355" lon="55.66117">
        <ele>1662.9</ele>
        <time>2013-08-08T05:21:36Z</time>
      </trkpt>
      <trkpt lat="-21.16355" lon="55.66126">
        <ele>1662.8</ele>
        <time>2013-08-08T05:21:44Z</time>
      </trkpt>
      <trkpt lat="-21.16357" lon="55.66135">
        <ele>1662.6</ele>
        <time>2013-08-08T05:21:51Z</time>
      </trkpt>
      <trkpt lat="-21.1636" lon="55.66143">
        <ele>1663</ele>
        <time>2013-08-08T05:21:59Z</time>
      </trkpt>
      <trkpt lat="-21.16363" lon="55.66152">
        <ele>1663.4</ele>
        <time>2013-08-08T05:22:10Z</time>
      </trkpt>
      <trkpt lat="-21.16363" lon="55.66153">
        <ele>1663.5</ele>
        <time>2013-08-08T05:22:11Z</time>
      </trkpt>
      <trkpt lat="-21.16364" lon="55.6617">
        <ele>1661.6</ele>
        <time>2013-08-08T05:22:35Z</time>
      </trkpt>
      <trkpt lat="-21.16363" lon="55.6618">
        <ele>1661.4</ele>
        <time>2013-08-08T05:22:48Z</time>
      </trkpt>
      <trkpt lat="-21.16363" lon="55.66189">
        <ele>1663</ele>
        <time>2013-08-08T05:22:58Z</time>
      </trkpt>
      <trkpt lat="-21.16364" lon="55.66198">
        <ele>1665.7</ele>
        <time>2013-08-08T05:23:14Z</time>
      </trkpt>
      <trkpt lat="-21.16364" lon="55.66199">
        <ele>1665.8</ele>
        <time>2013-08-08T05:23:15Z</time>
      </trkpt>
      <trkpt lat="-21.16369" lon="55.66215">
        <ele>1666.8</ele>
        <time>2013-08-08T05:23:28Z</time>
      </trkpt>
      <trkpt lat="-21.16366" lon="55.66222">
        <ele>1667.1</ele>
        <time>2013-08-08T05:23:40Z</time>
      </trkpt>
      <trkpt lat="-21.16364" lon="55.66231">
        <ele>1667.8</ele>
        <time>2013-08-08T05:23:49Z</time>
      </trkpt>
      <trkpt lat="-21.16366" lon="55.6624">
        <ele>1668.4</ele>
        <time>2013-08-08T05:24:00Z</time>
      </trkpt>
      <trkpt lat="-21.16361" lon="55.66248">
        <ele>1669.2</ele>
        <time>2013-08-08T05:24:09Z</time>
      </trkpt>
      <trkpt lat="-21.16362" lon="55.66257">
        <ele>1669.2</ele>
        <time>2013-08-08T05:24:18Z</time>
      </trkpt>
      <trkpt lat="-21.16362" lon="55.66258">
        <ele>1669.3</ele>
        <time>2013-08-08T05:24:19Z</time>
      </trkpt>
      <trkpt lat="-21.16362" lon="55.66274">
        <ele>1669</ele>
        <time>2013-08-08T05:24:32Z</time>
      </trkpt>
      <trkpt lat="-21.16363" lon="55.66284">
        <ele>1669</ele>
        <time>2013-08-08T05:24:44Z</time>
      </trkpt>
      <trkpt lat="-21.16362" lon="55.66293">
        <ele>1665.4</ele>
        <time>2013-08-08T05:25:00Z</time>
      </trkpt>
      <trkpt lat="-21.16363" lon="55.66302">
        <ele>1666.9</ele>
        <time>2013-08-08T05:25:18Z</time>
      </trkpt>
      <trkpt lat="-21.16363" lon="55.66312">
        <ele>1667.3</ele>
        <time>2013-08-08T05:25:38Z</time>
      </trkpt>
      <trkpt lat="-21.16363" lon="55.66312">
        <ele>1667.1</ele>
        <time>2013-08-08T05:25:39Z</time>
      </trkpt>
      <trkpt lat="-21.16359" lon="55.66328">
        <ele>1668.2</ele>
        <time>2013-08-08T05:25:51Z</time>
      </trkpt>
      <trkpt lat="-21.16358" lon="55.66337">
        <ele>1669.7</ele>
        <time>2013-08-08T05:26:02Z</time>
      </trkpt>
      <trkpt lat="-21.16366" lon="55.66341">
        <ele>1670.3</ele>
        <time>2013-08-08T05:26:18Z</time>
      </trkpt>
      <trkpt lat="-21.16365" lon="55.66349">
        <ele>1671.4</ele>
        <time>2013-08-08T05:26:50Z</time>
      </trkpt>
      <trkpt lat="-21.16364" lon="55.6635">
        <ele>1671.3</ele>
        <time>2013-08-08T05:26:51Z</time>
      </trkpt>
      <trkpt lat="-21.16364" lon="55.66365">
        <ele>1668</ele>
        <time>2013-08-08T05:27:13Z</time>
      </trkpt>
      <trkpt lat="-21.16368" lon="55.66374">
        <ele>1666</ele>
        <time>2013-08-08T05:27:23Z</time>
      </trkpt>
      <trkpt lat="-21.16369" lon="55.66382">
        <ele>1664.8</ele>
        <time>2013-08-08T05:27:31Z</time>
      </trkpt>
      <trkpt lat="-21.16372" lon="55.66391">
        <ele>1662</ele>
        <time>2013-08-08T05:27:42Z</time>
      </trkpt>
      <trkpt lat="-21.16373" lon="55.664">
        <ele>1661.5</ele>
        <time>2013-08-08T05:27:50Z</time>
      </trkpt>
      <trkpt lat="-21.16373" lon="55.66409">
        <ele>1661.4</ele>
        <time>2013-08-08T05:28:01Z</time>
      </trkpt>
      <trkpt lat="-21.16373" lon="55.6641">
        <ele>1661.6</ele>
        <time>2013-08-08T05:28:02Z</time>
      </trkpt>
      <trkpt lat="-21.16365" lon="55.66426">
        <ele>1665.2</ele>
        <time>2013-08-08T05:28:33Z</time>
      </trkpt>
      <trkpt lat="-21.16363" lon="55.66436">
        <ele>1667.3</ele>
        <time>2013-08-08T05:28:45Z</time>
      </trkpt>
      <trkpt lat="-21.16364" lon="55.66445">
        <ele>1666.4</ele>
        <time>2013-08-08T05:28:57Z</time>
      </trkpt>
      <trkpt lat="-21.16372" lon="55.66449">
        <ele>1666.8</ele>
        <time>2013-08-08T05:29:14Z</time>
      </trkpt>
      <trkpt lat="-21.16373" lon="55.6645">
        <ele>1666.6</ele>
        <time>2013-08-08T05:29:15Z</time>
      </trkpt>
      <trkpt lat="-21.16388" lon="55.66447">
        <ele>1667.8</ele>
        <time>2013-08-08T05:29:34Z</time>
      </trkpt>
      <trkpt lat="-21.16397" lon="55.66445">
        <ele>1668.5</ele>
        <time>2013-08-08T05:29:45Z</time>
      </trkpt>
      <trkpt lat="-21.16405" lon="55.66444">
        <ele>1668.6</ele>
        <time>2013-08-08T05:29:58Z</time>
      </trkpt>
      <trkpt lat="-21.16414" lon="55.66446">
        <ele>1668.7</ele>
        <time>2013-08-08T05:30:05Z</time>
      </trkpt>
      <trkpt lat="-21.1642" lon="55.66451">
        <ele>1668.5</ele>
        <time>2013-08-08T05:30:12Z</time>
      </trkpt>
      <trkpt lat="-21.16428" lon="55.66455">
        <ele>1669.6</ele>
        <time>2013-08-08T05:30:22Z</time>
      </trkpt>
      <trkpt lat="-21.16429" lon="55.66456">
        <ele>1669.4</ele>
        <time>2013-08-08T05:30:23Z</time>
      </trkpt>
      <trkpt lat="-21.16438" lon="55.6647">
        <ele>1669.6</ele>
        <time>2013-08-08T05:30:46Z</time>
      </trkpt>
      <trkpt lat="-21.16443" lon="55.66478">
        <ele>1670.1</ele>
        <time>2013-08-08T05:30:57Z</time>
      </trkpt>
      <trkpt lat="-21.1645" lon="55.66483">
        <ele>1672.4</ele>
        <time>2013-08-08T05:31:07Z</time>
      </trkpt>
      <trkpt lat="-21.16455" lon="55.66491">
        <ele>1674.6</ele>
        <time>2013-08-08T05:31:33Z</time>
      </trkpt>
      <trkpt lat="-21.16455" lon="55.66491">
        <ele>1674.6</ele>
        <time>2013-08-08T05:31:34Z</time>
      </trkpt>
      <trkpt lat="-21.16464" lon="55.66491">
        <ele>1675</ele>
        <time>2013-08-08T05:35:52Z</time>
      </trkpt>
      <trkpt lat="-21.16479" lon="55.66497">
        <ele>1682.9</ele>
        <time>2013-08-08T05:36:33Z</time>
      </trkpt>
      <trkpt lat="-21.16486" lon="55.66503">
        <ele>1684.2</ele>
        <time>2013-08-08T05:36:49Z</time>
      </trkpt>
      <trkpt lat="-21.16494" lon="55.66506">
        <ele>1687.2</ele>
        <time>2013-08-08T05:37:05Z</time>
      </trkpt>
      <trkpt lat="-21.16495" lon="55.66506">
        <ele>1687.1</ele>
        <time>2013-08-08T05:37:06Z</time>
      </trkpt>
      <trkpt lat="-21.1651" lon="55.66514">
        <ele>1691</ele>
        <time>2013-08-08T05:37:34Z</time>
      </trkpt>
      <trkpt lat="-21.16519" lon="55.66515">
        <ele>1693.8</ele>
        <time>2013-08-08T05:37:52Z</time>
      </trkpt>
      <trkpt lat="-21.16527" lon="55.66516">
        <ele>1695.4</ele>
        <time>2013-08-08T05:38:11Z</time>
      </trkpt>
      <trkpt lat="-21.16528" lon="55.66517">
        <ele>1695.5</ele>
        <time>2013-08-08T05:38:12Z</time>
      </trkpt>
      <trkpt lat="-21.16542" lon="55.66512">
        <ele>1698.3</ele>
        <time>2013-08-08T05:38:33Z</time>
      </trkpt>
      <trkpt lat="-21.1655" lon="55.66516">
        <ele>1699.4</ele>
        <time>2013-08-08T05:38:41Z</time>
      </trkpt>
      <trkpt lat="-21.16557" lon="55.66521">
        <ele>1700.3</ele>
        <time>2013-08-08T05:38:50Z</time>
      </trkpt>
      <trkpt lat="-21.16566" lon="55.66522">
        <ele>1702.7</ele>
        <time>2013-08-08T05:39:02Z</time>
      </trkpt>
      <trkpt lat="-21.16573" lon="55.66526">
        <ele>1703.4</ele>
        <time>2013-08-08T05:39:12Z</time>
      </trkpt>
      <trkpt lat="-21.16581" lon="55.66528">
        <ele>1706</ele>
        <time>2013-08-08T05:39:25Z</time>
      </trkpt>
      <trkpt lat="-21.16582" lon="55.66529">
        <ele>1706.2</ele>
        <time>2013-08-08T05:39:26Z</time>
      </trkpt>
      <trkpt lat="-21.16599" lon="55.66529">
        <ele>1707.6</ele>
        <time>2013-08-08T05:39:46Z</time>
      </trkpt>
      <trkpt lat="-21.16608" lon="55.66527">
        <ele>1710</ele>
        <time>2013-08-08T05:39:59Z</time>
      </trkpt>
      <trkpt lat="-21.16616" lon="55.66528">
        <ele>1712.6</ele>
        <time>2013-08-08T05:40:09Z</time>
      </trkpt>
      <trkpt lat="-21.16624" lon="55.66532">
        <ele>1713.6</ele>
        <time>2013-08-08T05:40:19Z</time>
      </trkpt>
      <trkpt lat="-21.16632" lon="55.66534">
        <ele>1714.1</ele>
        <time>2013-08-08T05:40:34Z</time>
      </trkpt>
      <trkpt lat="-21.16633" lon="55.66534">
        <ele>1714.1</ele>
        <time>2013-08-08T05:40:35Z</time>
      </trkpt>
      <trkpt lat="-21.16648" lon="55.66539">
        <ele>1717.6</ele>
        <time>2013-08-08T05:40:59Z</time>
      </trkpt>
      <trkpt lat="-21.16654" lon="55.66546">
        <ele>1717.8</ele>
        <time>2013-08-08T05:41:07Z</time>
      </trkpt>
      <trkpt lat="-21.16663" lon="55.66549">
        <ele>1718.5</ele>
        <time>2013-08-08T05:41:19Z</time>
      </trkpt>
      <trkpt lat="-21.16671" lon="55.66551">
        <ele>1719.4</ele>
        <time>2013-08-08T05:41:28Z</time>
      </trkpt>
      <trkpt lat="-21.16678" lon="55.66555">
        <ele>1721.2</ele>
        <time>2013-08-08T05:41:37Z</time>
      </trkpt>
      <trkpt lat="-21.16679" lon="55.66555">
        <ele>1721.5</ele>
        <time>2013-08-08T05:41:38Z</time>
      </trkpt>
      <trkpt lat="-21.16692" lon="55.66566">
        <ele>1725.4</ele>
        <time>2013-08-08T05:42:04Z</time>
      </trkpt>
      <trkpt lat="-21.16691" lon="55.66577">
        <ele>1725.9</ele>
        <time>2013-08-08T05:42:21Z</time>
      </trkpt>
      <trkpt lat="-21.16696" lon="55.66585">
        <ele>1724.3</ele>
        <time>2013-08-08T05:42:40Z</time>
      </trkpt>
      <trkpt lat="-21.16697" lon="55.66585">
        <ele>1724.3</ele>
        <time>2013-08-08T05:42:41Z</time>
      </trkpt>
      <trkpt lat="-21.16708" lon="55.66598">
        <ele>1725.9</ele>
        <time>2013-08-08T05:43:04Z</time>
      </trkpt>
      <trkpt lat="-21.16716" lon="55.66604">
        <ele>1727</ele>
        <time>2013-08-08T05:43:28Z</time>
      </trkpt>
      <trkpt lat="-21.16725" lon="55.66604">
        <ele>1728.8</ele>
        <time>2013-08-08T05:43:41Z</time>
      </trkpt>
      <trkpt lat="-21.16733" lon="55.66604">
        <ele>1730.5</ele>
        <time>2013-08-08T05:43:51Z</time>
      </trkpt>
      <trkpt lat="-21.16734" lon="55.66605">
        <ele>1730.6</ele>
        <time>2013-08-08T05:43:52Z</time>
      </trkpt>
      <trkpt lat="-21.16748" lon="55.66597">
        <ele>1734</ele>
        <time>2013-08-08T05:44:16Z</time>
      </trkpt>
      <trkpt lat="-21.16756" lon="55.66601">
        <ele>1736.7</ele>
        <time>2013-08-08T05:44:31Z</time>
      </trkpt>
      <trkpt lat="-21.16764" lon="55.66605">
        <ele>1737.9</ele>
        <time>2013-08-08T05:44:39Z</time>
      </trkpt>
      <trkpt lat="-21.16774" lon="55.66607">
        <ele>1736</ele>
        <time>2013-08-08T05:44:47Z</time>
      </trkpt>
      <trkpt lat="-21.16779" lon="55.66614">
        <ele>1737.1</ele>
        <time>2013-08-08T05:45:00Z</time>
      </trkpt>
      <trkpt lat="-21.16779" lon="55.66615">
        <ele>1737.6</ele>
        <time>2013-08-08T05:45:01Z</time>
      </trkpt>
      <trkpt lat="-21.16795" lon="55.66621">
        <ele>1740.2</ele>
        <time>2013-08-08T05:45:21Z</time>
      </trkpt>
      <trkpt lat="-21.16803" lon="55.66621">
        <ele>1741.2</ele>
        <time>2013-08-08T05:45:33Z</time>
      </trkpt>
      <trkpt lat="-21.16812" lon="55.66623">
        <ele>1743.1</ele>
        <time>2013-08-08T05:45:47Z</time>
      </trkpt>
      <trkpt lat="-21.1682" lon="55.66619">
        <ele>1745.7</ele>
        <time>2013-08-08T05:46:03Z</time>
      </trkpt>
      <trkpt lat="-21.1682" lon="55.66618">
        <ele>1745.7</ele>
        <time>2013-08-08T05:46:04Z</time>
      </trkpt>
      <trkpt lat="-21.16836" lon="55.66622">
        <ele>1752.7</ele>
        <time>2013-08-08T05:46:42Z</time>
      </trkpt>
      <trkpt lat="-21.16844" lon="55.66626">
        <ele>1754.8</ele>
        <time>2013-08-08T05:46:57Z</time>
      </trkpt>
      <trkpt lat="-21.16852" lon="55.6663">
        <ele>1756.1</ele>
        <time>2013-08-08T05:47:09Z</time>
      </trkpt>
      <trkpt lat="-21.16853" lon="55.66629">
        <ele>1756.4</ele>
        <time>2013-08-08T05:47:10Z</time>
      </trkpt>
      <trkpt lat="-21.16869" lon="55.66631">
        <ele>1758.8</ele>
        <time>2013-08-08T05:47:32Z</time>
      </trkpt>
      <trkpt lat="-21.16877" lon="55.66629">
        <ele>1761.1</ele>
        <time>2013-08-08T05:47:42Z</time>
      </trkpt>
      <trkpt lat="-21.16887" lon="55.66631">
        <ele>1765</ele>
        <time>2013-08-08T05:47:57Z</time>
      </trkpt>
      <trkpt lat="-21.16896" lon="55.66628">
        <ele>1766</ele>
        <time>2013-08-08T05:48:07Z</time>
      </trkpt>
      <trkpt lat="-21.16903" lon="55.66623">
        <ele>1768</ele>
        <time>2013-08-08T05:48:19Z</time>
      </trkpt>
      <trkpt lat="-21.16903" lon="55.66623">
        <ele>1768.2</ele>
        <time>2013-08-08T05:48:20Z</time>
      </trkpt>
      <trkpt lat="-21.16919" lon="55.66623">
        <ele>1770.3</ele>
        <time>2013-08-08T05:48:55Z</time>
      </trkpt>
      <trkpt lat="-21.16928" lon="55.6662">
        <ele>1772.4</ele>
        <time>2013-08-08T05:49:20Z</time>
      </trkpt>
      <trkpt lat="-21.16934" lon="55.66614">
        <ele>1774.4</ele>
        <time>2013-08-08T05:49:35Z</time>
      </trkpt>
      <trkpt lat="-21.16935" lon="55.66614">
        <ele>1774.3</ele>
        <time>2013-08-08T05:49:36Z</time>
      </trkpt>
      <trkpt lat="-21.16951" lon="55.66618">
        <ele>1777</ele>
        <time>2013-08-08T05:50:07Z</time>
      </trkpt>
      <trkpt lat="-21.16959" lon="55.66619">
        <ele>1779.6</ele>
        <time>2013-08-08T05:50:16Z</time>
      </trkpt>
      <trkpt lat="-21.16968" lon="55.66621">
        <ele>1779.1</ele>
        <time>2013-08-08T05:50:23Z</time>
      </trkpt>
      <trkpt lat="-21.16975" lon="55.66625">
        <ele>1778.9</ele>
        <time>2013-08-08T05:50:30Z</time>
      </trkpt>
      <trkpt lat="-21.16984" lon="55.66624">
        <ele>1780.7</ele>
        <time>2013-08-08T05:50:40Z</time>
      </trkpt>
      <trkpt lat="-21.16984" lon="55.66623">
        <ele>1780.9</ele>
        <time>2013-08-08T05:50:41Z</time>
      </trkpt>
      <trkpt lat="-21.17002" lon="55.66616">
        <ele>1782</ele>
        <time>2013-08-08T05:51:07Z</time>
      </trkpt>
      <trkpt lat="-21.1701" lon="55.66618">
        <ele>1785.2</ele>
        <time>2013-08-08T05:51:21Z</time>
      </trkpt>
      <trkpt lat="-21.17019" lon="55.66616">
        <ele>1787.2</ele>
        <time>2013-08-08T05:51:31Z</time>
      </trkpt>
      <trkpt lat="-21.17026" lon="55.66611">
        <ele>1788.7</ele>
        <time>2013-08-08T05:51:40Z</time>
      </trkpt>
      <trkpt lat="-21.17032" lon="55.66605">
        <ele>1789.3</ele>
        <time>2013-08-08T05:51:50Z</time>
      </trkpt>
      <trkpt lat="-21.17033" lon="55.66604">
        <ele>1789.5</ele>
        <time>2013-08-08T05:51:51Z</time>
      </trkpt>
      <trkpt lat="-21.17043" lon="55.66591">
        <ele>1791.6</ele>
        <time>2013-08-08T05:52:08Z</time>
      </trkpt>
      <trkpt lat="-21.17051" lon="55.66588">
        <ele>1794</ele>
        <time>2013-08-08T05:52:22Z</time>
      </trkpt>
      <trkpt lat="-21.17058" lon="55.66593">
        <ele>1794.8</ele>
        <time>2013-08-08T05:52:33Z</time>
      </trkpt>
      <trkpt lat="-21.17066" lon="55.66589">
        <ele>1797.5</ele>
        <time>2013-08-08T05:52:44Z</time>
      </trkpt>
      <trkpt lat="-21.17075" lon="55.66589">
        <ele>1798.4</ele>
        <time>2013-08-08T05:53:00Z</time>
      </trkpt>
      <trkpt lat="-21.17076" lon="55.66589">
        <ele>1798.1</ele>
        <time>2013-08-08T05:53:01Z</time>
      </trkpt>
      <trkpt lat="-21.17088" lon="55.66601">
        <ele>1797.3</ele>
        <time>2013-08-08T05:53:16Z</time>
      </trkpt>
      <trkpt lat="-21.17091" lon="55.66609">
        <ele>1799.6</ele>
        <time>2013-08-08T05:53:26Z</time>
      </trkpt>
      <trkpt lat="-21.17094" lon="55.66619">
        <ele>1801</ele>
        <time>2013-08-08T05:53:49Z</time>
      </trkpt>
      <trkpt lat="-21.17095" lon="55.66628">
        <ele>1801.1</ele>
        <time>2013-08-08T05:54:03Z</time>
      </trkpt>
      <trkpt lat="-21.17095" lon="55.66629">
        <ele>1801.2</ele>
        <time>2013-08-08T05:54:04Z</time>
      </trkpt>
      <trkpt lat="-21.17095" lon="55.66651">
        <ele>1804</ele>
        <time>2013-08-08T05:54:23Z</time>
      </trkpt>
      <trkpt lat="-21.17102" lon="55.6666">
        <ele>1806</ele>
        <time>2013-08-08T05:54:40Z</time>
      </trkpt>
      <trkpt lat="-21.17105" lon="55.66668">
        <ele>1808.2</ele>
        <time>2013-08-08T05:54:51Z</time>
      </trkpt>
      <trkpt lat="-21.17111" lon="55.66675">
        <ele>1806.9</ele>
        <time>2013-08-08T05:54:59Z</time>
      </trkpt>
      <trkpt lat="-21.17115" lon="55.66683">
        <ele>1807.2</ele>
        <time>2013-08-08T05:55:08Z</time>
      </trkpt>
      <trkpt lat="-21.17115" lon="55.66684">
        <ele>1807</ele>
        <time>2013-08-08T05:55:09Z</time>
      </trkpt>
      <trkpt lat="-21.17119" lon="55.667">
        <ele>1808.2</ele>
        <time>2013-08-08T05:55:31Z</time>
      </trkpt>
      <trkpt lat="-21.17113" lon="55.66707">
        <ele>1808.7</ele>
        <time>2013-08-08T05:55:42Z</time>
      </trkpt>
      <trkpt lat="-21.1711" lon="55.66715">
        <ele>1807.2</ele>
        <time>2013-08-08T05:55:51Z</time>
      </trkpt>
      <trkpt lat="-21.17109" lon="55.66725">
        <ele>1804.9</ele>
        <time>2013-08-08T05:56:01Z</time>
      </trkpt>
      <trkpt lat="-21.1711" lon="55.66734">
        <ele>1804.1</ele>
        <time>2013-08-08T05:56:08Z</time>
      </trkpt>
      <trkpt lat="-21.17115" lon="55.6674">
        <ele>1804.8</ele>
        <time>2013-08-08T05:56:15Z</time>
      </trkpt>
      <trkpt lat="-21.17115" lon="55.66742">
        <ele>1804.7</ele>
        <time>2013-08-08T05:56:16Z</time>
      </trkpt>
      <trkpt lat="-21.17112" lon="55.66758">
        <ele>1806.3</ele>
        <time>2013-08-08T05:56:43Z</time>
      </trkpt>
      <trkpt lat="-21.1711" lon="55.66768">
        <ele>1803.4</ele>
        <time>2013-08-08T05:57:12Z</time>
      </trkpt>
      <trkpt lat="-21.17107" lon="55.66776">
        <ele>1806.2</ele>
        <time>2013-08-08T05:57:34Z</time>
      </trkpt>
      <trkpt lat="-21.17107" lon="55.66777">
        <ele>1806.4</ele>
        <time>2013-08-08T05:57:35Z</time>
      </trkpt>
      <trkpt lat="-21.17102" lon="55.66794">
        <ele>1804</ele>
        <time>2013-08-08T05:58:00Z</time>
      </trkpt>
      <trkpt lat="-21.171" lon="55.66802">
        <ele>1804.3</ele>
        <time>2013-08-08T05:58:09Z</time>
      </trkpt>
      <trkpt lat="-21.17102" lon="55.66811">
        <ele>1806.1</ele>
        <time>2013-08-08T05:58:19Z</time>
      </trkpt>
      <trkpt lat="-21.17104" lon="55.6682">
        <ele>1806.1</ele>
        <time>2013-08-08T05:58:29Z</time>
      </trkpt>
      <trkpt lat="-21.17108" lon="55.66828">
        <ele>1804.5</ele>
        <time>2013-08-08T05:58:47Z</time>
      </trkpt>
      <trkpt lat="-21.17108" lon="55.66829">
        <ele>1804.5</ele>
        <time>2013-08-08T05:58:48Z</time>
      </trkpt>
      <trkpt lat="-21.17119" lon="55.66843">
        <ele>1808</ele>
        <time>2013-08-08T05:59:48Z</time>
      </trkpt>
      <trkpt lat="-21.17118" lon="55.66851">
        <ele>1808</ele>
        <time>2013-08-08T05:59:58Z</time>
      </trkpt>
      <trkpt lat="-21.17117" lon="55.66852">
        <ele>1807.8</ele>
        <time>2013-08-08T05:59:59Z</time>
      </trkpt>
      <trkpt lat="-21.1711" lon="55.66866">
        <ele>1808.8</ele>
        <time>2013-08-08T06:00:16Z</time>
      </trkpt>
      <trkpt lat="-21.17102" lon="55.66868">
        <ele>1808.4</ele>
        <time>2013-08-08T06:00:25Z</time>
      </trkpt>
      <trkpt lat="-21.17101" lon="55.66877">
        <ele>1808.7</ele>
        <time>2013-08-08T06:00:34Z</time>
      </trkpt>
      <trkpt lat="-21.17107" lon="55.66884">
        <ele>1811.3</ele>
        <time>2013-08-08T06:01:01Z</time>
      </trkpt>
      <trkpt lat="-21.17107" lon="55.66885">
        <ele>1811.1</ele>
        <time>2013-08-08T06:01:02Z</time>
      </trkpt>
      <trkpt lat="-21.17109" lon="55.66901">
        <ele>1812.7</ele>
        <time>2013-08-08T06:01:28Z</time>
      </trkpt>
      <trkpt lat="-21.17111" lon="55.6691">
        <ele>1814.3</ele>
        <time>2013-08-08T06:01:40Z</time>
      </trkpt>
      <trkpt lat="-21.17109" lon="55.66919">
        <ele>1814.8</ele>
        <time>2013-08-08T06:01:52Z</time>
      </trkpt>
      <trkpt lat="-21.17109" lon="55.66929">
        <ele>1815.3</ele>
        <time>2013-08-08T06:02:00Z</time>
      </trkpt>
      <trkpt lat="-21.17109" lon="55.66936">
        <ele>1815.6</ele>
        <time>2013-08-08T06:02:05Z</time>
      </trkpt>
      <trkpt lat="-21.1711" lon="55.66939">
        <ele>1815.5</ele>
        <time>2013-08-08T06:02:06Z</time>
      </trkpt>
      <trkpt lat="-21.17115" lon="55.66951">
        <ele>1816.3</ele>
        <time>2013-08-08T06:02:16Z</time>
      </trkpt>
      <trkpt lat="-21.17119" lon="55.66959">
        <ele>1817.8</ele>
        <time>2013-08-08T06:02:26Z</time>
      </trkpt>
      <trkpt lat="-21.17124" lon="55.66967">
        <ele>1818.5</ele>
        <time>2013-08-08T06:02:35Z</time>
      </trkpt>
      <trkpt lat="-21.17129" lon="55.66973">
        <ele>1819.2</ele>
        <time>2013-08-08T06:02:42Z</time>
      </trkpt>
      <trkpt lat="-21.17136" lon="55.66981">
        <ele>1820.8</ele>
        <time>2013-08-08T06:02:54Z</time>
      </trkpt>
      <trkpt lat="-21.17142" lon="55.66987">
        <ele>1822.3</ele>
        <time>2013-08-08T06:03:16Z</time>
      </trkpt>
      <trkpt lat="-21.17142" lon="55.66988">
        <ele>1822.4</ele>
        <time>2013-08-08T06:03:17Z</time>
      </trkpt>
      <trkpt lat="-21.17157" lon="55.66999">
        <ele>1824.9</ele>
        <time>2013-08-08T06:03:43Z</time>
      </trkpt>
      <trkpt lat="-21.17164" lon="55.67005">
        <ele>1828</ele>
        <time>2013-08-08T06:03:55Z</time>
      </trkpt>
      <trkpt lat="-21.17169" lon="55.67014">
        <ele>1828</ele>
        <time>2013-08-08T06:04:07Z</time>
      </trkpt>
      <trkpt lat="-21.17167" lon="55.67027">
        <ele>1832</ele>
        <time>2013-08-08T06:04:27Z</time>
      </trkpt>
      <trkpt lat="-21.17167" lon="55.67027">
        <ele>1833.3</ele>
        <time>2013-08-08T06:04:29Z</time>
      </trkpt>
      <trkpt lat="-21.17168" lon="55.67052">
        <ele>1836</ele>
        <time>2013-08-08T06:04:47Z</time>
      </trkpt>
      <trkpt lat="-21.17174" lon="55.6706">
        <ele>1837</ele>
        <time>2013-08-08T06:04:55Z</time>
      </trkpt>
      <trkpt lat="-21.1718" lon="55.67066">
        <ele>1838.5</ele>
        <time>2013-08-08T06:05:07Z</time>
      </trkpt>
      <trkpt lat="-21.17183" lon="55.67074">
        <ele>1839.5</ele>
        <time>2013-08-08T06:05:12Z</time>
      </trkpt>
      <trkpt lat="-21.17193" lon="55.67079">
        <ele>1840</ele>
        <time>2013-08-08T06:05:18Z</time>
      </trkpt>
      <trkpt lat="-21.172" lon="55.67085">
        <ele>1841</ele>
        <time>2013-08-08T06:05:26Z</time>
      </trkpt>
      <trkpt lat="-21.17207" lon="55.67092">
        <ele>1842</ele>
        <time>2013-08-08T06:05:40Z</time>
      </trkpt>
      <trkpt lat="-21.17208" lon="55.67093">
        <ele>1842.5</ele>
        <time>2013-08-08T06:05:42Z</time>
      </trkpt>
      <trkpt lat="-21.17207" lon="55.6711">
        <ele>1841.8</ele>
        <time>2013-08-08T06:05:53Z</time>
      </trkpt>
      <trkpt lat="-21.17206" lon="55.67119">
        <ele>1841.2</ele>
        <time>2013-08-08T06:05:58Z</time>
      </trkpt>
      <trkpt lat="-21.17212" lon="55.67126">
        <ele>1839.9</ele>
        <time>2013-08-08T06:06:09Z</time>
      </trkpt>
      <trkpt lat="-21.17219" lon="55.67134">
        <ele>1839.7</ele>
        <time>2013-08-08T06:06:16Z</time>
      </trkpt>
      <trkpt lat="-21.17218" lon="55.67143">
        <ele>1840.4</ele>
        <time>2013-08-08T06:06:19Z</time>
      </trkpt>
      <trkpt lat="-21.17218" lon="55.67152">
        <ele>1840.5</ele>
        <time>2013-08-08T06:06:22Z</time>
      </trkpt>
      <trkpt lat="-21.17223" lon="55.67159">
        <ele>1840</ele>
        <time>2013-08-08T06:06:26Z</time>
      </trkpt>
      <trkpt lat="-21.1723" lon="55.67169">
        <ele>1838</ele>
        <time>2013-08-08T06:06:39Z</time>
      </trkpt>
      <trkpt lat="-21.17227" lon="55.67183">
        <ele>1837</ele>
        <time>2013-08-08T06:06:47Z</time>
      </trkpt>
      <trkpt lat="-21.17226" lon="55.67186">
        <ele>1837.3</ele>
        <time>2013-08-08T06:06:49Z</time>
      </trkpt>
      <trkpt lat="-21.1723" lon="55.672">
        <ele>1836.3</ele>
        <time>2013-08-08T06:07:07Z</time>
      </trkpt>
      <trkpt lat="-21.17235" lon="55.67209">
        <ele>1834</ele>
        <time>2013-08-08T06:07:28Z</time>
      </trkpt>
      <trkpt lat="-21.17239" lon="55.67216">
        <ele>1837.9</ele>
        <time>2013-08-08T06:07:41Z</time>
      </trkpt>
      <trkpt lat="-21.17243" lon="55.67224">
        <ele>1839.2</ele>
        <time>2013-08-08T06:07:47Z</time>
      </trkpt>
      <trkpt lat="-21.17245" lon="55.67232">
        <ele>1839.6</ele>
        <time>2013-08-08T06:07:52Z</time>
      </trkpt>
      <trkpt lat="-21.17246" lon="55.67233">
        <ele>1839.6</ele>
        <time>2013-08-08T06:07:53Z</time>
      </trkpt>
      <trkpt lat="-21.17252" lon="55.67249">
        <ele>1839.6</ele>
        <time>2013-08-08T06:08:04Z</time>
      </trkpt>
      <trkpt lat="-21.17256" lon="55.67256">
        <ele>1838.7</ele>
        <time>2013-08-08T06:08:10Z</time>
      </trkpt>
      <trkpt lat="-21.1726" lon="55.67263">
        <ele>1839.4</ele>
        <time>2013-08-08T06:08:16Z</time>
      </trkpt>
      <trkpt lat="-21.17264" lon="55.67273">
        <ele>1838</ele>
        <time>2013-08-08T06:08:29Z</time>
      </trkpt>
      <trkpt lat="-21.17268" lon="55.67283">
        <ele>1838</ele>
        <time>2013-08-08T06:08:37Z</time>
      </trkpt>
      <trkpt lat="-21.17271" lon="55.67292">
        <ele>1837</ele>
        <time>2013-08-08T06:08:45Z</time>
      </trkpt>
      <trkpt lat="-21.17274" lon="55.67302">
        <ele>1838</ele>
        <time>2013-08-08T06:08:57Z</time>
      </trkpt>
      <trkpt lat="-21.17275" lon="55.67303">
        <ele>1838.9</ele>
        <time>2013-08-08T06:08:59Z</time>
      </trkpt>
      <trkpt lat="-21.17274" lon="55.67329">
        <ele>1838</ele>
        <time>2013-08-08T06:09:21Z</time>
      </trkpt>
      <trkpt lat="-21.17268" lon="55.67345">
        <ele>1837</ele>
        <time>2013-08-08T06:09:33Z</time>
      </trkpt>
      <trkpt lat="-21.17268" lon="55.67357">
        <ele>1836</ele>
        <time>2013-08-08T06:09:41Z</time>
      </trkpt>
      <trkpt lat="-21.17272" lon="55.67367">
        <ele>1836</ele>
        <time>2013-08-08T06:09:49Z</time>
      </trkpt>
      <trkpt lat="-21.17274" lon="55.67377">
        <ele>1836</ele>
        <time>2013-08-08T06:09:57Z</time>
      </trkpt>
      <trkpt lat="-21.17277" lon="55.67386">
        <ele>1836</ele>
        <time>2013-08-08T06:10:05Z</time>
      </trkpt>
      <trkpt lat="-21.17277" lon="55.67387">
        <ele>1837</ele>
        <time>2013-08-08T06:10:07Z</time>
      </trkpt>
      <trkpt lat="-21.17272" lon="55.67402">
        <ele>1835</ele>
        <time>2013-08-08T06:10:41Z</time>
      </trkpt>
      <trkpt lat="-21.17268" lon="55.67413">
        <ele>1837</ele>
        <time>2013-08-08T06:10:53Z</time>
      </trkpt>
      <trkpt lat="-21.17267" lon="55.67424">
        <ele>1836</ele>
        <time>2013-08-08T06:11:01Z</time>
      </trkpt>
      <trkpt lat="-21.17264" lon="55.67432">
        <ele>1835.4</ele>
        <time>2013-08-08T06:11:08Z</time>
      </trkpt>
      <trkpt lat="-21.17263" lon="55.67433">
        <ele>1835.1</ele>
        <time>2013-08-08T06:11:09Z</time>
      </trkpt>
      <trkpt lat="-21.17257" lon="55.67448">
        <ele>1833.3</ele>
        <time>2013-08-08T06:11:21Z</time>
      </trkpt>
      <trkpt lat="-21.1726" lon="55.67457">
        <ele>1831.4</ele>
        <time>2013-08-08T06:11:28Z</time>
      </trkpt>
      <trkpt lat="-21.17262" lon="55.67467">
        <ele>1830.4</ele>
        <time>2013-08-08T06:11:34Z</time>
      </trkpt>
      <trkpt lat="-21.17264" lon="55.67475">
        <ele>1829.1</ele>
        <time>2013-08-08T06:11:38Z</time>
      </trkpt>
      <trkpt lat="-21.17264" lon="55.67484">
        <ele>1828.9</ele>
        <time>2013-08-08T06:11:42Z</time>
      </trkpt>
      <trkpt lat="-21.17273" lon="55.67487">
        <ele>1829.6</ele>
        <time>2013-08-08T06:11:56Z</time>
      </trkpt>
      <trkpt lat="-21.17278" lon="55.67494">
        <ele>1829.3</ele>
        <time>2013-08-08T06:12:02Z</time>
      </trkpt>
      <trkpt lat="-21.17283" lon="55.67502">
        <ele>1829.5</ele>
        <time>2013-08-08T06:12:07Z</time>
      </trkpt>
      <trkpt lat="-21.17289" lon="55.67508">
        <ele>1827.4</ele>
        <time>2013-08-08T06:12:14Z</time>
      </trkpt>
      <trkpt lat="-21.1729" lon="55.67509">
        <ele>1827.4</ele>
        <time>2013-08-08T06:12:15Z</time>
      </trkpt>
      <trkpt lat="-21.17296" lon="55.67532">
        <ele>1825</ele>
        <time>2013-08-08T06:12:38Z</time>
      </trkpt>
      <trkpt lat="-21.17302" lon="55.6754">
        <ele>1825</ele>
        <time>2013-08-08T06:12:50Z</time>
      </trkpt>
      <trkpt lat="-21.17301" lon="55.67551">
        <ele>1824</ele>
        <time>2013-08-08T06:13:02Z</time>
      </trkpt>
      <trkpt lat="-21.17303" lon="55.67564">
        <ele>1823</ele>
        <time>2013-08-08T06:13:14Z</time>
      </trkpt>
      <trkpt lat="-21.17303" lon="55.67566">
        <ele>1823.4</ele>
        <time>2013-08-08T06:13:16Z</time>
      </trkpt>
      <trkpt lat="-21.17306" lon="55.67592">
        <ele>1823</ele>
        <time>2013-08-08T06:13:38Z</time>
      </trkpt>
      <trkpt lat="-21.17313" lon="55.67604">
        <ele>1831</ele>
        <time>2013-08-08T06:14:15Z</time>
      </trkpt>
      <trkpt lat="-21.17313" lon="55.67607">
        <ele>1832.1</ele>
        <time>2013-08-08T06:14:17Z</time>
      </trkpt>
      <trkpt lat="-21.17305" lon="55.676">
        <ele>1833</ele>
        <time>2013-08-08T06:14:39Z</time>
      </trkpt>
      <trkpt lat="-21.17313" lon="55.67605">
        <ele>1837</ele>
        <time>2013-08-08T06:14:55Z</time>
      </trkpt>
      <trkpt lat="-21.17318" lon="55.67617">
        <ele>1839</ele>
        <time>2013-08-08T06:15:07Z</time>
      </trkpt>
      <trkpt lat="-21.17317" lon="55.67631">
        <ele>1840</ele>
        <time>2013-08-08T06:15:14Z</time>
      </trkpt>
      <trkpt lat="-21.17318" lon="55.67636">
        <ele>1841.7</ele>
        <time>2013-08-08T06:15:18Z</time>
      </trkpt>
      <trkpt lat="-21.17313" lon="55.67662">
        <ele>1837</ele>
        <time>2013-08-08T06:16:09Z</time>
      </trkpt>
      <trkpt lat="-21.17323" lon="55.67662">
        <ele>1838</ele>
        <time>2013-08-08T06:16:21Z</time>
      </trkpt>
      <trkpt lat="-21.17324" lon="55.67663">
        <ele>1839.2</ele>
        <time>2013-08-08T06:16:23Z</time>
      </trkpt>
      <trkpt lat="-21.17329" lon="55.67696">
        <ele>1836</ele>
        <time>2013-08-08T06:17:00Z</time>
      </trkpt>
      <trkpt lat="-21.17331" lon="55.67704">
        <ele>1836.4</ele>
        <time>2013-08-08T06:17:10Z</time>
      </trkpt>
      <trkpt lat="-21.17337" lon="55.67711">
        <ele>1835.3</ele>
        <time>2013-08-08T06:17:23Z</time>
      </trkpt>
      <trkpt lat="-21.17345" lon="55.6772">
        <ele>1834</ele>
        <time>2013-08-08T06:17:36Z</time>
      </trkpt>
      <trkpt lat="-21.17345" lon="55.67722">
        <ele>1834.9</ele>
        <time>2013-08-08T06:17:38Z</time>
      </trkpt>
      <trkpt lat="-21.1735" lon="55.67742">
        <ele>1839</ele>
        <time>2013-08-08T06:18:14Z</time>
      </trkpt>
      <trkpt lat="-21.17356" lon="55.67753">
        <ele>1842</ele>
        <time>2013-08-08T06:18:26Z</time>
      </trkpt>
      <trkpt lat="-21.17353" lon="55.67763">
        <ele>1842</ele>
        <time>2013-08-08T06:18:38Z</time>
      </trkpt>
      <trkpt lat="-21.17353" lon="55.67764">
        <ele>1842.3</ele>
        <time>2013-08-08T06:18:40Z</time>
      </trkpt>
      <trkpt lat="-21.17343" lon="55.67785">
        <ele>1837</ele>
        <time>2013-08-08T06:19:06Z</time>
      </trkpt>
      <trkpt lat="-21.17341" lon="55.67799">
        <ele>1837</ele>
        <time>2013-08-08T06:19:14Z</time>
      </trkpt>
      <trkpt lat="-21.17338" lon="55.67812">
        <ele>1835</ele>
        <time>2013-08-08T06:19:22Z</time>
      </trkpt>
      <trkpt lat="-21.17332" lon="55.67821">
        <ele>1834</ele>
        <time>2013-08-08T06:19:38Z</time>
      </trkpt>
      <trkpt lat="-21.17328" lon="55.6783">
        <ele>1832.3</ele>
        <time>2013-08-08T06:19:51Z</time>
      </trkpt>
      <trkpt lat="-21.17328" lon="55.67831">
        <ele>1832.1</ele>
        <time>2013-08-08T06:19:52Z</time>
      </trkpt>
      <trkpt lat="-21.17327" lon="55.6785">
        <ele>1831</ele>
        <time>2013-08-08T06:20:16Z</time>
      </trkpt>
      <trkpt lat="-21.1733" lon="55.6786">
        <ele>1831</ele>
        <time>2013-08-08T06:20:28Z</time>
      </trkpt>
      <trkpt lat="-21.1734" lon="55.67863">
        <ele>1835</ele>
        <time>2013-08-08T06:20:48Z</time>
      </trkpt>
      <trkpt lat="-21.17349" lon="55.67871">
        <ele>1839</ele>
        <time>2013-08-08T06:21:01Z</time>
      </trkpt>
      <trkpt lat="-21.1735" lon="55.67872">
        <ele>1840</ele>
        <time>2013-08-08T06:21:03Z</time>
      </trkpt>
      <trkpt lat="-21.1737" lon="55.6788">
        <ele>1842</ele>
        <time>2013-08-08T06:21:36Z</time>
      </trkpt>
      <trkpt lat="-21.17376" lon="55.67891">
        <ele>1847</ele>
        <time>2013-08-08T06:22:00Z</time>
      </trkpt>
      <trkpt lat="-21.17383" lon="55.67898">
        <ele>1851</ele>
        <time>2013-08-08T06:22:16Z</time>
      </trkpt>
      <trkpt lat="-21.17385" lon="55.67898">
        <ele>1851.3</ele>
        <time>2013-08-08T06:22:19Z</time>
      </trkpt>
      <trkpt lat="-21.17397" lon="55.67912">
        <ele>1855</ele>
        <time>2013-08-08T06:22:49Z</time>
      </trkpt>
      <trkpt lat="-21.174" lon="55.67926">
        <ele>1856</ele>
        <time>2013-08-08T06:22:57Z</time>
      </trkpt>
      <trkpt lat="-21.17405" lon="55.67934">
        <ele>1858</ele>
        <time>2013-08-08T06:23:07Z</time>
      </trkpt>
      <trkpt lat="-21.1741" lon="55.67942">
        <ele>1859.4</ele>
        <time>2013-08-08T06:23:17Z</time>
      </trkpt>
      <trkpt lat="-21.17413" lon="55.67951">
        <ele>1859.9</ele>
        <time>2013-08-08T06:23:24Z</time>
      </trkpt>
      <trkpt lat="-21.17414" lon="55.67951">
        <ele>1859.7</ele>
        <time>2013-08-08T06:23:25Z</time>
      </trkpt>
      <trkpt lat="-21.17427" lon="55.67962">
        <ele>1860.7</ele>
        <time>2013-08-08T06:23:43Z</time>
      </trkpt>
      <trkpt lat="-21.17435" lon="55.67967">
        <ele>1861.9</ele>
        <time>2013-08-08T06:23:51Z</time>
      </trkpt>
      <trkpt lat="-21.17439" lon="55.67975">
        <ele>1862.4</ele>
        <time>2013-08-08T06:23:58Z</time>
      </trkpt>
      <trkpt lat="-21.17442" lon="55.67983">
        <ele>1862.9</ele>
        <time>2013-08-08T06:24:04Z</time>
      </trkpt>
      <trkpt lat="-21.17449" lon="55.67989">
        <ele>1862.3</ele>
        <time>2013-08-08T06:24:12Z</time>
      </trkpt>
      <trkpt lat="-21.17456" lon="55.67993">
        <ele>1862.7</ele>
        <time>2013-08-08T06:24:19Z</time>
      </trkpt>
      <trkpt lat="-21.17464" lon="55.67998">
        <ele>1862.6</ele>
        <time>2013-08-08T06:24:26Z</time>
      </trkpt>
      <trkpt lat="-21.17465" lon="55.67999">
        <ele>1862.6</ele>
        <time>2013-08-08T06:24:27Z</time>
      </trkpt>
      <trkpt lat="-21.17479" lon="55.68">
        <ele>1863.2</ele>
        <time>2013-08-08T06:24:39Z</time>
      </trkpt>
      <trkpt lat="-21.17487" lon="55.67996">
        <ele>1863.9</ele>
        <time>2013-08-08T06:24:48Z</time>
      </trkpt>
      <trkpt lat="-21.17494" lon="55.67992">
        <ele>1864.7</ele>
        <time>2013-08-08T06:24:56Z</time>
      </trkpt>
      <trkpt lat="-21.17503" lon="55.6799">
        <ele>1865.1</ele>
        <time>2013-08-08T06:25:03Z</time>
      </trkpt>
      <trkpt lat="-21.17511" lon="55.67991">
        <ele>1866.2</ele>
        <time>2013-08-08T06:25:10Z</time>
      </trkpt>
      <trkpt lat="-21.17519" lon="55.67992">
        <ele>1865.5</ele>
        <time>2013-08-08T06:25:17Z</time>
      </trkpt>
      <trkpt lat="-21.17526" lon="55.67996">
        <ele>1867.3</ele>
        <time>2013-08-08T06:25:26Z</time>
      </trkpt>
      <trkpt lat="-21.17535" lon="55.67999">
        <ele>1869.1</ele>
        <time>2013-08-08T06:25:39Z</time>
      </trkpt>
      <trkpt lat="-21.17535" lon="55.67999">
        <ele>1869.2</ele>
        <time>2013-08-08T06:25:40Z</time>
      </trkpt>
      <trkpt lat="-21.17554" lon="55.67996">
        <ele>1875</ele>
        <time>2013-08-08T06:26:05Z</time>
      </trkpt>
      <trkpt lat="-21.17561" lon="55.68001">
        <ele>1877.7</ele>
        <time>2013-08-08T06:26:14Z</time>
      </trkpt>
      <trkpt lat="-21.17569" lon="55.68005">
        <ele>1879.1</ele>
        <time>2013-08-08T06:26:22Z</time>
      </trkpt>
      <trkpt lat="-21.17575" lon="55.68012">
        <ele>1878.7</ele>
        <time>2013-08-08T06:26:30Z</time>
      </trkpt>
      <trkpt lat="-21.17582" lon="55.68012">
        <ele>1879.7</ele>
        <time>2013-08-08T06:26:38Z</time>
      </trkpt>
      <trkpt lat="-21.17591" lon="55.68014">
        <ele>1880.1</ele>
        <time>2013-08-08T06:26:45Z</time>
      </trkpt>
      <trkpt lat="-21.17591" lon="55.68014">
        <ele>1879.9</ele>
        <time>2013-08-08T06:26:46Z</time>
      </trkpt>
      <trkpt lat="-21.17607" lon="55.68023">
        <ele>1882</ele>
        <time>2013-08-08T06:27:03Z</time>
      </trkpt>
      <trkpt lat="-21.17614" lon="55.68027">
        <ele>1883.7</ele>
        <time>2013-08-08T06:27:12Z</time>
      </trkpt>
      <trkpt lat="-21.17623" lon="55.68035">
        <ele>1884</ele>
        <time>2013-08-08T06:27:20Z</time>
      </trkpt>
      <trkpt lat="-21.17628" lon="55.68043">
        <ele>1885.4</ele>
        <time>2013-08-08T06:27:26Z</time>
      </trkpt>
      <trkpt lat="-21.17636" lon="55.68048">
        <ele>1886.9</ele>
        <time>2013-08-08T06:27:35Z</time>
      </trkpt>
      <trkpt lat="-21.17644" lon="55.6805">
        <ele>1888</ele>
        <time>2013-08-08T06:27:42Z</time>
      </trkpt>
      <trkpt lat="-21.17653" lon="55.68052">
        <ele>1889.6</ele>
        <time>2013-08-08T06:27:51Z</time>
      </trkpt>
      <trkpt lat="-21.17654" lon="55.68051">
        <ele>1889.4</ele>
        <time>2013-08-08T06:27:52Z</time>
      </trkpt>
      <trkpt lat="-21.17673" lon="55.68052">
        <ele>1892</ele>
        <time>2013-08-08T06:28:12Z</time>
      </trkpt>
      <trkpt lat="-21.17682" lon="55.6806">
        <ele>1894</ele>
        <time>2013-08-08T06:28:24Z</time>
      </trkpt>
      <trkpt lat="-21.1769" lon="55.68065">
        <ele>1896</ele>
        <time>2013-08-08T06:28:36Z</time>
      </trkpt>
      <trkpt lat="-21.177" lon="55.68069">
        <ele>1900</ele>
        <time>2013-08-08T06:28:48Z</time>
      </trkpt>
      <trkpt lat="-21.17709" lon="55.6807">
        <ele>1903</ele>
        <time>2013-08-08T06:29:04Z</time>
      </trkpt>
      <trkpt lat="-21.17711" lon="55.6807">
        <ele>1904.3</ele>
        <time>2013-08-08T06:29:06Z</time>
      </trkpt>
      <trkpt lat="-21.17724" lon="55.68072">
        <ele>1906.3</ele>
        <time>2013-08-08T06:29:21Z</time>
      </trkpt>
      <trkpt lat="-21.17726" lon="55.68081">
        <ele>1906.2</ele>
        <time>2013-08-08T06:29:25Z</time>
      </trkpt>
      <trkpt lat="-21.17732" lon="55.68087">
        <ele>1907.8</ele>
        <time>2013-08-08T06:29:35Z</time>
      </trkpt>
      <trkpt lat="-21.17737" lon="55.68095">
        <ele>1906.9</ele>
        <time>2013-08-08T06:29:43Z</time>
      </trkpt>
      <trkpt lat="-21.17743" lon="55.68102">
        <ele>1908.1</ele>
        <time>2013-08-08T06:30:02Z</time>
      </trkpt>
      <trkpt lat="-21.17748" lon="55.68109">
        <ele>1907.2</ele>
        <time>2013-08-08T06:30:21Z</time>
      </trkpt>
      <trkpt lat="-21.17748" lon="55.6811">
        <ele>1907</ele>
        <time>2013-08-08T06:30:22Z</time>
      </trkpt>
      <trkpt lat="-21.17752" lon="55.68127">
        <ele>1906.9</ele>
        <time>2013-08-08T06:30:42Z</time>
      </trkpt>
      <trkpt lat="-21.17754" lon="55.68135">
        <ele>1906.3</ele>
        <time>2013-08-08T06:30:48Z</time>
      </trkpt>
      <trkpt lat="-21.17749" lon="55.68143">
        <ele>1905.6</ele>
        <time>2013-08-08T06:30:56Z</time>
      </trkpt>
      <trkpt lat="-21.1774" lon="55.68139">
        <ele>1906.4</ele>
        <time>2013-08-08T06:31:47Z</time>
      </trkpt>
      <trkpt lat="-21.17739" lon="55.68139">
        <ele>1906.5</ele>
        <time>2013-08-08T06:31:48Z</time>
      </trkpt>
      <trkpt lat="-21.17723" lon="55.68142">
        <ele>1907.6</ele>
        <time>2013-08-08T06:32:02Z</time>
      </trkpt>
      <trkpt lat="-21.17715" lon="55.68143">
        <ele>1907.1</ele>
        <time>2013-08-08T06:32:09Z</time>
      </trkpt>
      <trkpt lat="-21.17707" lon="55.68144">
        <ele>1908</ele>
        <time>2013-08-08T06:32:16Z</time>
      </trkpt>
      <trkpt lat="-21.17699" lon="55.68149">
        <ele>1907</ele>
        <time>2013-08-08T06:32:24Z</time>
      </trkpt>
      <trkpt lat="-21.17696" lon="55.68157">
        <ele>1906.3</ele>
        <time>2013-08-08T06:32:33Z</time>
      </trkpt>
      <trkpt lat="-21.17692" lon="55.68166">
        <ele>1906.4</ele>
        <time>2013-08-08T06:32:44Z</time>
      </trkpt>
      <trkpt lat="-21.17691" lon="55.68175">
        <ele>1906.9</ele>
        <time>2013-08-08T06:32:54Z</time>
      </trkpt>
      <trkpt lat="-21.17692" lon="55.68176">
        <ele>1906.9</ele>
        <time>2013-08-08T06:32:55Z</time>
      </trkpt>
      <trkpt lat="-21.17694" lon="55.68192">
        <ele>1907.6</ele>
        <time>2013-08-08T06:33:07Z</time>
      </trkpt>
      <trkpt lat="-21.17694" lon="55.68201">
        <ele>1909.2</ele>
        <time>2013-08-08T06:33:14Z</time>
      </trkpt>
      <trkpt lat="-21.17694" lon="55.6821">
        <ele>1909</ele>
        <time>2013-08-08T06:33:21Z</time>
      </trkpt>
      <trkpt lat="-21.17692" lon="55.68218">
        <ele>1908.3</ele>
        <time>2013-08-08T06:33:29Z</time>
      </trkpt>
      <trkpt lat="-21.17688" lon="55.68226">
        <ele>1907.8</ele>
        <time>2013-08-08T06:33:35Z</time>
      </trkpt>
      <trkpt lat="-21.17684" lon="55.68234">
        <ele>1906.3</ele>
        <time>2013-08-08T06:33:42Z</time>
      </trkpt>
      <trkpt lat="-21.1768" lon="55.68242">
        <ele>1905.8</ele>
        <time>2013-08-08T06:33:49Z</time>
      </trkpt>
      <trkpt lat="-21.17675" lon="55.68248">
        <ele>1905.5</ele>
        <time>2013-08-08T06:33:55Z</time>
      </trkpt>
      <trkpt lat="-21.17674" lon="55.68249">
        <ele>1905.4</ele>
        <time>2013-08-08T06:33:56Z</time>
      </trkpt>
      <trkpt lat="-21.17667" lon="55.68263">
        <ele>1904.3</ele>
        <time>2013-08-08T06:34:07Z</time>
      </trkpt>
      <trkpt lat="-21.17665" lon="55.68272">
        <ele>1904</ele>
        <time>2013-08-08T06:34:13Z</time>
      </trkpt>
      <trkpt lat="-21.17665" lon="55.6828">
        <ele>1903.7</ele>
        <time>2013-08-08T06:34:19Z</time>
      </trkpt>
      <trkpt lat="-21.17667" lon="55.68288">
        <ele>1902.5</ele>
        <time>2013-08-08T06:34:24Z</time>
      </trkpt>
      <trkpt lat="-21.17671" lon="55.68296">
        <ele>1901.8</ele>
        <time>2013-08-08T06:34:29Z</time>
      </trkpt>
      <trkpt lat="-21.17675" lon="55.68304">
        <ele>1902.6</ele>
        <time>2013-08-08T06:34:35Z</time>
      </trkpt>
      <trkpt lat="-21.17679" lon="55.68311">
        <ele>1900.8</ele>
        <time>2013-08-08T06:34:41Z</time>
      </trkpt>
      <trkpt lat="-21.17683" lon="55.68319">
        <ele>1900.5</ele>
        <time>2013-08-08T06:34:47Z</time>
      </trkpt>
      <trkpt lat="-21.17685" lon="55.68328">
        <ele>1899.5</ele>
        <time>2013-08-08T06:34:53Z</time>
      </trkpt>
      <trkpt lat="-21.17686" lon="55.68337">
        <ele>1898.2</ele>
        <time>2013-08-08T06:34:59Z</time>
      </trkpt>
      <trkpt lat="-21.17686" lon="55.68339">
        <ele>1898</ele>
        <time>2013-08-08T06:35:00Z</time>
      </trkpt>
      <trkpt lat="-21.17682" lon="55.68356">
        <ele>1897.2</ele>
        <time>2013-08-08T06:35:13Z</time>
      </trkpt>
      <trkpt lat="-21.17681" lon="55.68364">
        <ele>1896.7</ele>
        <time>2013-08-08T06:35:18Z</time>
      </trkpt>
      <trkpt lat="-21.17681" lon="55.68372">
        <ele>1895.7</ele>
        <time>2013-08-08T06:35:23Z</time>
      </trkpt>
      <trkpt lat="-21.17682" lon="55.68381">
        <ele>1894.5</ele>
        <time>2013-08-08T06:35:29Z</time>
      </trkpt>
      <trkpt lat="-21.17685" lon="55.68388">
        <ele>1893.3</ele>
        <time>2013-08-08T06:35:34Z</time>
      </trkpt>
      <trkpt lat="-21.17689" lon="55.68396">
        <ele>1893.2</ele>
        <time>2013-08-08T06:35:39Z</time>
      </trkpt>
      <trkpt lat="-21.17694" lon="55.68403">
        <ele>1892.9</ele>
        <time>2013-08-08T06:35:45Z</time>
      </trkpt>
      <trkpt lat="-21.17699" lon="55.6841">
        <ele>1891.4</ele>
        <time>2013-08-08T06:35:51Z</time>
      </trkpt>
      <trkpt lat="-21.17705" lon="55.68416">
        <ele>1891.5</ele>
        <time>2013-08-08T06:35:56Z</time>
      </trkpt>
      <trkpt lat="-21.17714" lon="55.6842">
        <ele>1890.4</ele>
        <time>2013-08-08T06:36:02Z</time>
      </trkpt>
      <trkpt lat="-21.17715" lon="55.6842">
        <ele>1890.7</ele>
        <time>2013-08-08T06:36:03Z</time>
      </trkpt>
      <trkpt lat="-21.17727" lon="55.68429">
        <ele>1890.1</ele>
        <time>2013-08-08T06:36:13Z</time>
      </trkpt>
      <trkpt lat="-21.17735" lon="55.68433">
        <ele>1888.8</ele>
        <time>2013-08-08T06:36:19Z</time>
      </trkpt>
      <trkpt lat="-21.17742" lon="55.6844">
        <ele>1887.9</ele>
        <time>2013-08-08T06:36:26Z</time>
      </trkpt>
      <trkpt lat="-21.17738" lon="55.68449">
        <ele>1885.6</ele>
        <time>2013-08-08T06:36:36Z</time>
      </trkpt>
      <trkpt lat="-21.17735" lon="55.68457">
        <ele>1882.8</ele>
        <time>2013-08-08T06:36:49Z</time>
      </trkpt>
      <trkpt lat="-21.17727" lon="55.6846">
        <ele>1880.3</ele>
        <time>2013-08-08T06:36:59Z</time>
      </trkpt>
      <trkpt lat="-21.17719" lon="55.68461">
        <ele>1878.5</ele>
        <time>2013-08-08T06:37:07Z</time>
      </trkpt>
      <trkpt lat="-21.17718" lon="55.68461">
        <ele>1878.4</ele>
        <time>2013-08-08T06:37:08Z</time>
      </trkpt>
      <trkpt lat="-21.17704" lon="55.68468">
        <ele>1875.1</ele>
        <time>2013-08-08T06:37:21Z</time>
      </trkpt>
      <trkpt lat="-21.17695" lon="55.68471">
        <ele>1873</ele>
        <time>2013-08-08T06:37:30Z</time>
      </trkpt>
      <trkpt lat="-21.17689" lon="55.68476">
        <ele>1871.8</ele>
        <time>2013-08-08T06:37:36Z</time>
      </trkpt>
      <trkpt lat="-21.17682" lon="55.68481">
        <ele>1871</ele>
        <time>2013-08-08T06:37:41Z</time>
      </trkpt>
      <trkpt lat="-21.17674" lon="55.68482">
        <ele>1869.7</ele>
        <time>2013-08-08T06:37:46Z</time>
      </trkpt>
      <trkpt lat="-21.17667" lon="55.68485">
        <ele>1868.4</ele>
        <time>2013-08-08T06:37:51Z</time>
      </trkpt>
      <trkpt lat="-21.17661" lon="55.68492">
        <ele>1867.8</ele>
        <time>2013-08-08T06:37:57Z</time>
      </trkpt>
      <trkpt lat="-21.17656" lon="55.68499">
        <ele>1867.5</ele>
        <time>2013-08-08T06:38:03Z</time>
      </trkpt>
      <trkpt lat="-21.17648" lon="55.68501">
        <ele>1867.8</ele>
        <time>2013-08-08T06:38:09Z</time>
      </trkpt>
      <trkpt lat="-21.17647" lon="55.68501">
        <ele>1868</ele>
        <time>2013-08-08T06:38:10Z</time>
      </trkpt>
      <trkpt lat="-21.17631" lon="55.685">
        <ele>1868.6</ele>
        <time>2013-08-08T06:38:22Z</time>
      </trkpt>
      <trkpt lat="-21.17623" lon="55.68497">
        <ele>1869.2</ele>
        <time>2013-08-08T06:38:28Z</time>
      </trkpt>
      <trkpt lat="-21.17615" lon="55.68495">
        <ele>1868.8</ele>
        <time>2013-08-08T06:38:35Z</time>
      </trkpt>
      <trkpt lat="-21.17607" lon="55.68499">
        <ele>1869.2</ele>
        <time>2013-08-08T06:38:43Z</time>
      </trkpt>
      <trkpt lat="-21.17602" lon="55.68506">
        <ele>1871.2</ele>
        <time>2013-08-08T06:38:54Z</time>
      </trkpt>
      <trkpt lat="-21.17601" lon="55.68515">
        <ele>1871.8</ele>
        <time>2013-08-08T06:39:05Z</time>
      </trkpt>
      <trkpt lat="-21.17594" lon="55.68519">
        <ele>1875.3</ele>
        <time>2013-08-08T06:39:22Z</time>
      </trkpt>
      <trkpt lat="-21.17593" lon="55.68519">
        <ele>1876</ele>
        <time>2013-08-08T06:39:23Z</time>
      </trkpt>
      <trkpt lat="-21.1758" lon="55.6851">
        <ele>1882.8</ele>
        <time>2013-08-08T06:39:49Z</time>
      </trkpt>
      <trkpt lat="-21.17572" lon="55.68512">
        <ele>1884.5</ele>
        <time>2013-08-08T06:39:59Z</time>
      </trkpt>
      <trkpt lat="-21.17565" lon="55.68516">
        <ele>1886</ele>
        <time>2013-08-08T06:40:06Z</time>
      </trkpt>
      <trkpt lat="-21.17556" lon="55.68519">
        <ele>1884.7</ele>
        <time>2013-08-08T06:40:22Z</time>
      </trkpt>
      <trkpt lat="-21.17549" lon="55.68514">
        <ele>1884.3</ele>
        <time>2013-08-08T06:42:46Z</time>
      </trkpt>
      <trkpt lat="-21.17549" lon="55.68513">
        <ele>1884.1</ele>
        <time>2013-08-08T06:42:47Z</time>
      </trkpt>
      <trkpt lat="-21.17537" lon="55.68502">
        <ele>1884.1</ele>
        <time>2013-08-08T06:43:02Z</time>
      </trkpt>
      <trkpt lat="-21.17529" lon="55.68503">
        <ele>1882.1</ele>
        <time>2013-08-08T06:43:10Z</time>
      </trkpt>
      <trkpt lat="-21.17521" lon="55.68505">
        <ele>1882.8</ele>
        <time>2013-08-08T06:43:19Z</time>
      </trkpt>
      <trkpt lat="-21.17513" lon="55.6851">
        <ele>1882.3</ele>
        <time>2013-08-08T06:45:53Z</time>
      </trkpt>
      <trkpt lat="-21.17512" lon="55.6851">
        <ele>1882.2</ele>
        <time>2013-08-08T06:45:54Z</time>
      </trkpt>
      <trkpt lat="-21.1752" lon="55.68504">
        <ele>1884.2</ele>
        <time>2013-08-08T06:50:22Z</time>
      </trkpt>
      <trkpt lat="-21.17526" lon="55.68497">
        <ele>1883.8</ele>
        <time>2013-08-08T06:55:26Z</time>
      </trkpt>
      <trkpt lat="-21.17542" lon="55.68501">
        <ele>1885.7</ele>
        <time>2013-08-08T06:55:44Z</time>
      </trkpt>
      <trkpt lat="-21.17549" lon="55.68505">
        <ele>1886.1</ele>
        <time>2013-08-08T06:55:55Z</time>
      </trkpt>
      <trkpt lat="-21.17555" lon="55.68511">
        <ele>1886.4</ele>
        <time>2013-08-08T06:56:06Z</time>
      </trkpt>
      <trkpt lat="-21.17564" lon="55.68513">
        <ele>1887</ele>
        <time>2013-08-08T06:56:17Z</time>
      </trkpt>
      <trkpt lat="-21.17573" lon="55.68511">
        <ele>1882.2</ele>
        <time>2013-08-08T06:56:34Z</time>
      </trkpt>
      <trkpt lat="-21.17573" lon="55.68511">
        <ele>1881.9</ele>
        <time>2013-08-08T06:56:35Z</time>
      </trkpt>
      <trkpt lat="-21.17585" lon="55.68519">
        <ele>1874.9</ele>
        <time>2013-08-08T06:57:04Z</time>
      </trkpt>
      <trkpt lat="-21.1759" lon="55.68512">
        <ele>1873.8</ele>
        <time>2013-08-08T06:57:12Z</time>
      </trkpt>
      <trkpt lat="-21.17595" lon="55.68507">
        <ele>1872.3</ele>
        <time>2013-08-08T06:57:17Z</time>
      </trkpt>
      <trkpt lat="-21.17601" lon="55.68501">
        <ele>1870.6</ele>
        <time>2013-08-08T06:57:22Z</time>
      </trkpt>
      <trkpt lat="-21.17608" lon="55.68499">
        <ele>1869.7</ele>
        <time>2013-08-08T06:57:27Z</time>
      </trkpt>
      <trkpt lat="-21.17617" lon="55.685">
        <ele>1870</ele>
        <time>2013-08-08T06:57:33Z</time>
      </trkpt>
      <trkpt lat="-21.17625" lon="55.68502">
        <ele>1869.7</ele>
        <time>2013-08-08T06:57:38Z</time>
      </trkpt>
      <trkpt lat="-21.17626" lon="55.68503">
        <ele>1869.7</ele>
        <time>2013-08-08T06:57:39Z</time>
      </trkpt>
      <trkpt lat="-21.17642" lon="55.68505">
        <ele>1869.2</ele>
        <time>2013-08-08T06:57:50Z</time>
      </trkpt>
      <trkpt lat="-21.17651" lon="55.68506">
        <ele>1869.1</ele>
        <time>2013-08-08T06:57:56Z</time>
      </trkpt>
      <trkpt lat="-21.17656" lon="55.68498">
        <ele>1868.6</ele>
        <time>2013-08-08T06:58:07Z</time>
      </trkpt>
      <trkpt lat="-21.17661" lon="55.68492">
        <ele>1870.1</ele>
        <time>2013-08-08T06:58:14Z</time>
      </trkpt>
      <trkpt lat="-21.17668" lon="55.68487">
        <ele>1869.9</ele>
        <time>2013-08-08T06:58:21Z</time>
      </trkpt>
      <trkpt lat="-21.17677" lon="55.68486">
        <ele>1870.7</ele>
        <time>2013-08-08T06:58:28Z</time>
      </trkpt>
      <trkpt lat="-21.17684" lon="55.68481">
        <ele>1873.7</ele>
        <time>2013-08-08T06:58:36Z</time>
      </trkpt>
      <trkpt lat="-21.17692" lon="55.68477">
        <ele>1874.2</ele>
        <time>2013-08-08T06:58:43Z</time>
      </trkpt>
      <trkpt lat="-21.17693" lon="55.68477">
        <ele>1874</ele>
        <time>2013-08-08T06:58:44Z</time>
      </trkpt>
      <trkpt lat="-21.17707" lon="55.68466">
        <ele>1877.6</ele>
        <time>2013-08-08T06:59:03Z</time>
      </trkpt>
      <trkpt lat="-21.17715" lon="55.68464">
        <ele>1880.2</ele>
        <time>2013-08-08T06:59:12Z</time>
      </trkpt>
      <trkpt lat="-21.17722" lon="55.68462">
        <ele>1880.2</ele>
        <time>2013-08-08T06:59:20Z</time>
      </trkpt>
      <trkpt lat="-21.1773" lon="55.68459">
        <ele>1882.1</ele>
        <time>2013-08-08T06:59:29Z</time>
      </trkpt>
      <trkpt lat="-21.17735" lon="55.68452">
        <ele>1883.6</ele>
        <time>2013-08-08T06:59:39Z</time>
      </trkpt>
      <trkpt lat="-21.17741" lon="55.68445">
        <ele>1886.5</ele>
        <time>2013-08-08T06:59:46Z</time>
      </trkpt>
      <trkpt lat="-21.17742" lon="55.68444">
        <ele>1886.9</ele>
        <time>2013-08-08T06:59:47Z</time>
      </trkpt>
      <trkpt lat="-21.17753" lon="55.68432">
        <ele>1886.8</ele>
        <time>2013-08-08T07:00:03Z</time>
      </trkpt>
      <trkpt lat="-21.1776" lon="55.68427">
        <ele>1887.9</ele>
        <time>2013-08-08T07:00:12Z</time>
      </trkpt>
      <trkpt lat="-21.17764" lon="55.68419">
        <ele>1891.6</ele>
        <time>2013-08-08T07:00:27Z</time>
      </trkpt>
      <trkpt lat="-21.17764" lon="55.6841">
        <ele>1893.4</ele>
        <time>2013-08-08T07:00:36Z</time>
      </trkpt>
      <trkpt lat="-21.17763" lon="55.68401">
        <ele>1895.2</ele>
        <time>2013-08-08T07:00:46Z</time>
      </trkpt>
      <trkpt lat="-21.17766" lon="55.68392">
        <ele>1896.5</ele>
        <time>2013-08-08T07:00:55Z</time>
      </trkpt>
      <trkpt lat="-21.17766" lon="55.68391">
        <ele>1896.8</ele>
        <time>2013-08-08T07:00:56Z</time>
      </trkpt>
      <trkpt lat="-21.17776" lon="55.68377">
        <ele>1900.1</ele>
        <time>2013-08-08T07:01:12Z</time>
      </trkpt>
      <trkpt lat="-21.17783" lon="55.68371">
        <ele>1904.2</ele>
        <time>2013-08-08T07:01:26Z</time>
      </trkpt>
      <trkpt lat="-21.17788" lon="55.68365">
        <ele>1906.5</ele>
        <time>2013-08-08T07:01:37Z</time>
      </trkpt>
      <trkpt lat="-21.17793" lon="55.68357">
        <ele>1908.4</ele>
        <time>2013-08-08T07:01:47Z</time>
      </trkpt>
      <trkpt lat="-21.17793" lon="55.68347">
        <ele>1910.5</ele>
        <time>2013-08-08T07:01:58Z</time>
      </trkpt>
      <trkpt lat="-21.17792" lon="55.68346">
        <ele>1910.4</ele>
        <time>2013-08-08T07:01:59Z</time>
      </trkpt>
      <trkpt lat="-21.17791" lon="55.68329">
        <ele>1912.4</ele>
        <time>2013-08-08T07:02:15Z</time>
      </trkpt>
      <trkpt lat="-21.17799" lon="55.68333">
        <ele>1916.7</ele>
        <time>2013-08-08T07:02:36Z</time>
      </trkpt>
      <trkpt lat="-21.17807" lon="55.68336">
        <ele>1918.5</ele>
        <time>2013-08-08T07:02:45Z</time>
      </trkpt>
      <trkpt lat="-21.17815" lon="55.68338">
        <ele>1918.8</ele>
        <time>2013-08-08T07:02:52Z</time>
      </trkpt>
      <trkpt lat="-21.17823" lon="55.68343">
        <ele>1919.2</ele>
        <time>2013-08-08T07:03:00Z</time>
      </trkpt>
      <trkpt lat="-21.17824" lon="55.68343">
        <ele>1919.2</ele>
        <time>2013-08-08T07:03:01Z</time>
      </trkpt>
      <trkpt lat="-21.17839" lon="55.68346">
        <ele>1921</ele>
        <time>2013-08-08T07:03:15Z</time>
      </trkpt>
      <trkpt lat="-21.17847" lon="55.68346">
        <ele>1921.8</ele>
        <time>2013-08-08T07:03:22Z</time>
      </trkpt>
      <trkpt lat="-21.17855" lon="55.68342">
        <ele>1924.5</ele>
        <time>2013-08-08T07:03:33Z</time>
      </trkpt>
      <trkpt lat="-21.17864" lon="55.68339">
        <ele>1927.3</ele>
        <time>2013-08-08T07:03:43Z</time>
      </trkpt>
      <trkpt lat="-21.17871" lon="55.68335">
        <ele>1928.3</ele>
        <time>2013-08-08T07:03:53Z</time>
      </trkpt>
      <trkpt lat="-21.17878" lon="55.6833">
        <ele>1928.5</ele>
        <time>2013-08-08T07:04:02Z</time>
      </trkpt>
      <trkpt lat="-21.17879" lon="55.6833">
        <ele>1928.6</ele>
        <time>2013-08-08T07:04:03Z</time>
      </trkpt>
      <trkpt lat="-21.17894" lon="55.68323">
        <ele>1929.3</ele>
        <time>2013-08-08T07:04:15Z</time>
      </trkpt>
      <trkpt lat="-21.17901" lon="55.68321">
        <ele>1930</ele>
        <time>2013-08-08T07:04:21Z</time>
      </trkpt>
      <trkpt lat="-21.17909" lon="55.68318">
        <ele>1930.4</ele>
        <time>2013-08-08T07:04:28Z</time>
      </trkpt>
      <trkpt lat="-21.17918" lon="55.68318">
        <ele>1930.6</ele>
        <time>2013-08-08T07:04:40Z</time>
      </trkpt>
      <trkpt lat="-21.17926" lon="55.68314">
        <ele>1931.8</ele>
        <time>2013-08-08T07:04:47Z</time>
      </trkpt>
      <trkpt lat="-21.17932" lon="55.68307">
        <ele>1934</ele>
        <time>2013-08-08T07:04:55Z</time>
      </trkpt>
      <trkpt lat="-21.17936" lon="55.683">
        <ele>1933.7</ele>
        <time>2013-08-08T07:05:01Z</time>
      </trkpt>
      <trkpt lat="-21.17942" lon="55.68295">
        <ele>1934.2</ele>
        <time>2013-08-08T07:05:07Z</time>
      </trkpt>
      <trkpt lat="-21.17943" lon="55.68294">
        <ele>1934.1</ele>
        <time>2013-08-08T07:05:08Z</time>
      </trkpt>
      <trkpt lat="-21.17956" lon="55.68284">
        <ele>1936.4</ele>
        <time>2013-08-08T07:05:23Z</time>
      </trkpt>
      <trkpt lat="-21.17964" lon="55.68287">
        <ele>1938.9</ele>
        <time>2013-08-08T07:05:32Z</time>
      </trkpt>
      <trkpt lat="-21.17972" lon="55.68292">
        <ele>1940.3</ele>
        <time>2013-08-08T07:05:42Z</time>
      </trkpt>
      <trkpt lat="-21.17975" lon="55.683">
        <ele>1941.9</ele>
        <time>2013-08-08T07:05:50Z</time>
      </trkpt>
      <trkpt lat="-21.17975" lon="55.68309">
        <ele>1941.8</ele>
        <time>2013-08-08T07:05:58Z</time>
      </trkpt>
      <trkpt lat="-21.17979" lon="55.68317">
        <ele>1943</ele>
        <time>2013-08-08T07:06:05Z</time>
      </trkpt>
      <trkpt lat="-21.17982" lon="55.68325">
        <ele>1943.3</ele>
        <time>2013-08-08T07:06:11Z</time>
      </trkpt>
      <trkpt lat="-21.17983" lon="55.68327">
        <ele>1943.4</ele>
        <time>2013-08-08T07:06:12Z</time>
      </trkpt>
      <trkpt lat="-21.17992" lon="55.68341">
        <ele>1944.5</ele>
        <time>2013-08-08T07:06:26Z</time>
      </trkpt>
      <trkpt lat="-21.17996" lon="55.68349">
        <ele>1946.3</ele>
        <time>2013-08-08T07:06:32Z</time>
      </trkpt>
      <trkpt lat="-21.18" lon="55.68356">
        <ele>1947.1</ele>
        <time>2013-08-08T07:06:37Z</time>
      </trkpt>
      <trkpt lat="-21.18002" lon="55.68365">
        <ele>1947.5</ele>
        <time>2013-08-08T07:06:43Z</time>
      </trkpt>
      <trkpt lat="-21.18006" lon="55.68371">
        <ele>1948.5</ele>
        <time>2013-08-08T07:06:48Z</time>
      </trkpt>
      <trkpt lat="-21.18011" lon="55.68379">
        <ele>1948.9</ele>
        <time>2013-08-08T07:06:54Z</time>
      </trkpt>
      <trkpt lat="-21.18015" lon="55.68386">
        <ele>1949.2</ele>
        <time>2013-08-08T07:06:59Z</time>
      </trkpt>
      <trkpt lat="-21.1802" lon="55.68394">
        <ele>1949.2</ele>
        <time>2013-08-08T07:07:04Z</time>
      </trkpt>
      <trkpt lat="-21.18024" lon="55.68401">
        <ele>1949.6</ele>
        <time>2013-08-08T07:07:10Z</time>
      </trkpt>
      <trkpt lat="-21.18025" lon="55.6841">
        <ele>1950</ele>
        <time>2013-08-08T07:07:16Z</time>
      </trkpt>
      <trkpt lat="-21.18025" lon="55.68411">
        <ele>1949.8</ele>
        <time>2013-08-08T07:07:17Z</time>
      </trkpt>
      <trkpt lat="-21.18024" lon="55.68426">
        <ele>1951.4</ele>
        <time>2013-08-08T07:07:27Z</time>
      </trkpt>
      <trkpt lat="-21.18025" lon="55.68435">
        <ele>1952.2</ele>
        <time>2013-08-08T07:07:33Z</time>
      </trkpt>
      <trkpt lat="-21.18027" lon="55.68443">
        <ele>1952.8</ele>
        <time>2013-08-08T07:07:39Z</time>
      </trkpt>
      <trkpt lat="-21.18031" lon="55.68451">
        <ele>1952.6</ele>
        <time>2013-08-08T07:07:46Z</time>
      </trkpt>
      <trkpt lat="-21.18034" lon="55.6846">
        <ele>1954.4</ele>
        <time>2013-08-08T07:07:52Z</time>
      </trkpt>
      <trkpt lat="-21.18036" lon="55.68469">
        <ele>1953.6</ele>
        <time>2013-08-08T07:08:00Z</time>
      </trkpt>
      <trkpt lat="-21.18037" lon="55.68478">
        <ele>1953</ele>
        <time>2013-08-08T07:08:06Z</time>
      </trkpt>
      <trkpt lat="-21.18037" lon="55.68487">
        <ele>1952.2</ele>
        <time>2013-08-08T07:08:13Z</time>
      </trkpt>
      <trkpt lat="-21.1804" lon="55.68495">
        <ele>1952.3</ele>
        <time>2013-08-08T07:08:21Z</time>
      </trkpt>
      <trkpt lat="-21.1804" lon="55.68496">
        <ele>1952.3</ele>
        <time>2013-08-08T07:08:22Z</time>
      </trkpt>
      <trkpt lat="-21.18044" lon="55.68511">
        <ele>1953.7</ele>
        <time>2013-08-08T07:08:35Z</time>
      </trkpt>
      <trkpt lat="-21.18046" lon="55.6852">
        <ele>1953.5</ele>
        <time>2013-08-08T07:08:42Z</time>
      </trkpt>
      <trkpt lat="-21.18049" lon="55.68529">
        <ele>1955.2</ele>
        <time>2013-08-08T07:08:49Z</time>
      </trkpt>
      <trkpt lat="-21.18053" lon="55.68536">
        <ele>1955.3</ele>
        <time>2013-08-08T07:08:56Z</time>
      </trkpt>
      <trkpt lat="-21.1806" lon="55.68543">
        <ele>1955.8</ele>
        <time>2013-08-08T07:09:05Z</time>
      </trkpt>
      <trkpt lat="-21.18065" lon="55.68549">
        <ele>1957.7</ele>
        <time>2013-08-08T07:09:11Z</time>
      </trkpt>
      <trkpt lat="-21.18069" lon="55.68556">
        <ele>1957.6</ele>
        <time>2013-08-08T07:09:17Z</time>
      </trkpt>
      <trkpt lat="-21.1807" lon="55.68565">
        <ele>1957</ele>
        <time>2013-08-08T07:09:30Z</time>
      </trkpt>
      <trkpt lat="-21.1807" lon="55.68566">
        <ele>1956.7</ele>
        <time>2013-08-08T07:09:31Z</time>
      </trkpt>
      <trkpt lat="-21.18068" lon="55.68583">
        <ele>1957.5</ele>
        <time>2013-08-08T07:09:47Z</time>
      </trkpt>
      <trkpt lat="-21.1807" lon="55.68591">
        <ele>1957.1</ele>
        <time>2013-08-08T07:09:56Z</time>
      </trkpt>
      <trkpt lat="-21.18075" lon="55.68599">
        <ele>1957.6</ele>
        <time>2013-08-08T07:10:02Z</time>
      </trkpt>
      <trkpt lat="-21.18077" lon="55.68608">
        <ele>1957.8</ele>
        <time>2013-08-08T07:10:09Z</time>
      </trkpt>
      <trkpt lat="-21.18079" lon="55.68617">
        <ele>1958</ele>
        <time>2013-08-08T07:10:16Z</time>
      </trkpt>
      <trkpt lat="-21.1808" lon="55.68626">
        <ele>1957.8</ele>
        <time>2013-08-08T07:10:22Z</time>
      </trkpt>
      <trkpt lat="-21.1808" lon="55.68635">
        <ele>1957</ele>
        <time>2013-08-08T07:10:30Z</time>
      </trkpt>
      <trkpt lat="-21.18083" lon="55.68644">
        <ele>1958.3</ele>
        <time>2013-08-08T07:10:36Z</time>
      </trkpt>
      <trkpt lat="-21.18083" lon="55.68645">
        <ele>1958.4</ele>
        <time>2013-08-08T07:10:37Z</time>
      </trkpt>
      <trkpt lat="-21.18093" lon="55.68657">
        <ele>1960.3</ele>
        <time>2013-08-08T07:10:49Z</time>
      </trkpt>
      <trkpt lat="-21.18101" lon="55.68661">
        <ele>1962.1</ele>
        <time>2013-08-08T07:10:57Z</time>
      </trkpt>
      <trkpt lat="-21.18109" lon="55.68663">
        <ele>1964.2</ele>
        <time>2013-08-08T07:11:05Z</time>
      </trkpt>
      <trkpt lat="-21.18116" lon="55.68658">
        <ele>1967.2</ele>
        <time>2013-08-08T07:11:17Z</time>
      </trkpt>
      <trkpt lat="-21.18119" lon="55.68649">
        <ele>1970.4</ele>
        <time>2013-08-08T07:11:29Z</time>
      </trkpt>
      <trkpt lat="-21.18124" lon="55.68641">
        <ele>1971</ele>
        <time>2013-08-08T07:11:36Z</time>
      </trkpt>
      <trkpt lat="-21.18125" lon="55.68632">
        <ele>1970.8</ele>
        <time>2013-08-08T07:11:44Z</time>
      </trkpt>
      <trkpt lat="-21.18125" lon="55.68631">
        <ele>1970.8</ele>
        <time>2013-08-08T07:11:45Z</time>
      </trkpt>
      <trkpt lat="-21.18122" lon="55.68615">
        <ele>1973.4</ele>
        <time>2013-08-08T07:11:59Z</time>
      </trkpt>
      <trkpt lat="-21.1812" lon="55.68607">
        <ele>1974.1</ele>
        <time>2013-08-08T07:12:05Z</time>
      </trkpt>
      <trkpt lat="-21.18121" lon="55.68598">
        <ele>1973.8</ele>
        <time>2013-08-08T07:12:11Z</time>
      </trkpt>
      <trkpt lat="-21.18122" lon="55.68588">
        <ele>1973.5</ele>
        <time>2013-08-08T07:12:17Z</time>
      </trkpt>
      <trkpt lat="-21.18124" lon="55.6858">
        <ele>1974.9</ele>
        <time>2013-08-08T07:12:23Z</time>
      </trkpt>
      <trkpt lat="-21.18124" lon="55.68571">
        <ele>1974.4</ele>
        <time>2013-08-08T07:12:29Z</time>
      </trkpt>
      <trkpt lat="-21.18124" lon="55.68562">
        <ele>1973.8</ele>
        <time>2013-08-08T07:12:36Z</time>
      </trkpt>
      <trkpt lat="-21.18123" lon="55.68553">
        <ele>1974.4</ele>
        <time>2013-08-08T07:12:44Z</time>
      </trkpt>
      <trkpt lat="-21.18122" lon="55.68544">
        <ele>1976.7</ele>
        <time>2013-08-08T07:12:51Z</time>
      </trkpt>
      <trkpt lat="-21.18122" lon="55.68543">
        <ele>1976.5</ele>
        <time>2013-08-08T07:12:52Z</time>
      </trkpt>
      <trkpt lat="-21.18127" lon="55.68527">
        <ele>1977.3</ele>
        <time>2013-08-08T07:13:05Z</time>
      </trkpt>
      <trkpt lat="-21.18125" lon="55.68519">
        <ele>1977.8</ele>
        <time>2013-08-08T07:13:12Z</time>
      </trkpt>
      <trkpt lat="-21.18127" lon="55.68509">
        <ele>1977.8</ele>
        <time>2013-08-08T07:13:18Z</time>
      </trkpt>
      <trkpt lat="-21.18129" lon="55.68501">
        <ele>1977.7</ele>
        <time>2013-08-08T07:13:23Z</time>
      </trkpt>
      <trkpt lat="-21.18132" lon="55.68492">
        <ele>1977.7</ele>
        <time>2013-08-08T07:13:30Z</time>
      </trkpt>
      <trkpt lat="-21.18132" lon="55.68484">
        <ele>1978.1</ele>
        <time>2013-08-08T07:13:37Z</time>
      </trkpt>
      <trkpt lat="-21.18132" lon="55.68475">
        <ele>1981.1</ele>
        <time>2013-08-08T07:13:46Z</time>
      </trkpt>
      <trkpt lat="-21.18132" lon="55.68466">
        <ele>1984.2</ele>
        <time>2013-08-08T07:13:54Z</time>
      </trkpt>
      <trkpt lat="-21.18132" lon="55.68464">
        <ele>1984</ele>
        <time>2013-08-08T07:13:55Z</time>
      </trkpt>
      <trkpt lat="-21.18136" lon="55.68449">
        <ele>1983.9</ele>
        <time>2013-08-08T07:14:07Z</time>
      </trkpt>
      <trkpt lat="-21.18138" lon="55.68439">
        <ele>1982.5</ele>
        <time>2013-08-08T07:14:16Z</time>
      </trkpt>
      <trkpt lat="-21.18129" lon="55.68437">
        <ele>1980.1</ele>
        <time>2013-08-08T07:14:25Z</time>
      </trkpt>
      <trkpt lat="-21.1813" lon="55.68428">
        <ele>1979.3</ele>
        <time>2013-08-08T07:14:34Z</time>
      </trkpt>
      <trkpt lat="-21.18137" lon="55.68423">
        <ele>1981.1</ele>
        <time>2013-08-08T07:14:43Z</time>
      </trkpt>
      <trkpt lat="-21.18141" lon="55.68414">
        <ele>1982.8</ele>
        <time>2013-08-08T07:14:51Z</time>
      </trkpt>
      <trkpt lat="-21.18145" lon="55.68406">
        <ele>1984.6</ele>
        <time>2013-08-08T07:14:58Z</time>
      </trkpt>
      <trkpt lat="-21.18145" lon="55.68404">
        <ele>1985.1</ele>
        <time>2013-08-08T07:14:59Z</time>
      </trkpt>
      <trkpt lat="-21.18151" lon="55.68389">
        <ele>1984.1</ele>
        <time>2013-08-08T07:15:14Z</time>
      </trkpt>
      <trkpt lat="-21.18156" lon="55.68381">
        <ele>1985.8</ele>
        <time>2013-08-08T07:15:21Z</time>
      </trkpt>
      <trkpt lat="-21.18161" lon="55.68373">
        <ele>1985.9</ele>
        <time>2013-08-08T07:15:27Z</time>
      </trkpt>
      <trkpt lat="-21.18161" lon="55.68364">
        <ele>1986.2</ele>
        <time>2013-08-08T07:15:34Z</time>
      </trkpt>
      <trkpt lat="-21.18157" lon="55.68357">
        <ele>1985.6</ele>
        <time>2013-08-08T07:15:40Z</time>
      </trkpt>
      <trkpt lat="-21.18158" lon="55.68348">
        <ele>1986</ele>
        <time>2013-08-08T07:15:45Z</time>
      </trkpt>
      <trkpt lat="-21.18159" lon="55.68339">
        <ele>1986.4</ele>
        <time>2013-08-08T07:15:51Z</time>
      </trkpt>
      <trkpt lat="-21.18159" lon="55.6833">
        <ele>1987.8</ele>
        <time>2013-08-08T07:15:57Z</time>
      </trkpt>
      <trkpt lat="-21.18159" lon="55.68322">
        <ele>1987.6</ele>
        <time>2013-08-08T07:16:02Z</time>
      </trkpt>
      <trkpt lat="-21.18159" lon="55.6832">
        <ele>1987.4</ele>
        <time>2013-08-08T07:16:03Z</time>
      </trkpt>
      <trkpt lat="-21.18161" lon="55.68304">
        <ele>1988.9</ele>
        <time>2013-08-08T07:16:14Z</time>
      </trkpt>
      <trkpt lat="-21.18161" lon="55.68296">
        <ele>1989.6</ele>
        <time>2013-08-08T07:16:19Z</time>
      </trkpt>
      <trkpt lat="-21.18162" lon="55.68287">
        <ele>1988.9</ele>
        <time>2013-08-08T07:16:25Z</time>
      </trkpt>
      <trkpt lat="-21.18164" lon="55.68278">
        <ele>1989.6</ele>
        <time>2013-08-08T07:16:31Z</time>
      </trkpt>
      <trkpt lat="-21.18168" lon="55.6827">
        <ele>1990</ele>
        <time>2013-08-08T07:16:38Z</time>
      </trkpt>
      <trkpt lat="-21.18175" lon="55.68264">
        <ele>1991</ele>
        <time>2013-08-08T07:16:45Z</time>
      </trkpt>
      <trkpt lat="-21.18184" lon="55.68264">
        <ele>1993.1</ele>
        <time>2013-08-08T07:16:53Z</time>
      </trkpt>
      <trkpt lat="-21.18193" lon="55.68262">
        <ele>1994.4</ele>
        <time>2013-08-08T07:17:02Z</time>
      </trkpt>
      <trkpt lat="-21.182" lon="55.68257">
        <ele>1994.9</ele>
        <time>2013-08-08T07:17:09Z</time>
      </trkpt>
      <trkpt lat="-21.18201" lon="55.68257">
        <ele>1995.2</ele>
        <time>2013-08-08T07:17:10Z</time>
      </trkpt>
      <trkpt lat="-21.18217" lon="55.68255">
        <ele>1997.7</ele>
        <time>2013-08-08T07:17:23Z</time>
      </trkpt>
      <trkpt lat="-21.18224" lon="55.68252">
        <ele>1997.8</ele>
        <time>2013-08-08T07:17:30Z</time>
      </trkpt>
      <trkpt lat="-21.18228" lon="55.68245">
        <ele>1997.9</ele>
        <time>2013-08-08T07:17:35Z</time>
      </trkpt>
      <trkpt lat="-21.18233" lon="55.68239">
        <ele>1998.8</ele>
        <time>2013-08-08T07:17:40Z</time>
      </trkpt>
      <trkpt lat="-21.18241" lon="55.68235">
        <ele>1999.3</ele>
        <time>2013-08-08T07:17:46Z</time>
      </trkpt>
      <trkpt lat="-21.18248" lon="55.6823">
        <ele>1998.3</ele>
        <time>2013-08-08T07:17:53Z</time>
      </trkpt>
      <trkpt lat="-21.18251" lon="55.68221">
        <ele>1999.7</ele>
        <time>2013-08-08T07:18:00Z</time>
      </trkpt>
      <trkpt lat="-21.18249" lon="55.68212">
        <ele>2001.5</ele>
        <time>2013-08-08T07:18:09Z</time>
      </trkpt>
      <trkpt lat="-21.1825" lon="55.68204">
        <ele>2003.4</ele>
        <time>2013-08-08T07:18:17Z</time>
      </trkpt>
      <trkpt lat="-21.18249" lon="55.68202">
        <ele>2003.4</ele>
        <time>2013-08-08T07:18:18Z</time>
      </trkpt>
      <trkpt lat="-21.18259" lon="55.6819">
        <ele>2005.4</ele>
        <time>2013-08-08T07:18:32Z</time>
      </trkpt>
      <trkpt lat="-21.18265" lon="55.68183">
        <ele>2004.6</ele>
        <time>2013-08-08T07:18:37Z</time>
      </trkpt>
      <trkpt lat="-21.18268" lon="55.68175">
        <ele>2004.6</ele>
        <time>2013-08-08T07:18:42Z</time>
      </trkpt>
      <trkpt lat="-21.18271" lon="55.68167">
        <ele>2004</ele>
        <time>2013-08-08T07:18:48Z</time>
      </trkpt>
      <trkpt lat="-21.18273" lon="55.68159">
        <ele>2004.6</ele>
        <time>2013-08-08T07:18:54Z</time>
      </trkpt>
      <trkpt lat="-21.18274" lon="55.6815">
        <ele>2004.2</ele>
        <time>2013-08-08T07:19:00Z</time>
      </trkpt>
      <trkpt lat="-21.18274" lon="55.68141">
        <ele>2004.3</ele>
        <time>2013-08-08T07:19:06Z</time>
      </trkpt>
      <trkpt lat="-21.1827" lon="55.68133">
        <ele>2005.3</ele>
        <time>2013-08-08T07:19:14Z</time>
      </trkpt>
      <trkpt lat="-21.18269" lon="55.68125">
        <ele>2006.5</ele>
        <time>2013-08-08T07:19:20Z</time>
      </trkpt>
      <trkpt lat="-21.18269" lon="55.68123">
        <ele>2006.6</ele>
        <time>2013-08-08T07:19:21Z</time>
      </trkpt>
      <trkpt lat="-21.18268" lon="55.68107">
        <ele>2007.1</ele>
        <time>2013-08-08T07:19:32Z</time>
      </trkpt>
      <trkpt lat="-21.18269" lon="55.68099">
        <ele>2008.4</ele>
        <time>2013-08-08T07:19:38Z</time>
      </trkpt>
      <trkpt lat="-21.18271" lon="55.6809">
        <ele>2009.6</ele>
        <time>2013-08-08T07:19:44Z</time>
      </trkpt>
      <trkpt lat="-21.18274" lon="55.68082">
        <ele>2012.3</ele>
        <time>2013-08-08T07:19:53Z</time>
      </trkpt>
      <trkpt lat="-21.18278" lon="55.68075">
        <ele>2012.7</ele>
        <time>2013-08-08T07:20:01Z</time>
      </trkpt>
      <trkpt lat="-21.18284" lon="55.68067">
        <ele>2015.2</ele>
        <time>2013-08-08T07:20:11Z</time>
      </trkpt>
      <trkpt lat="-21.18285" lon="55.68058">
        <ele>2017.3</ele>
        <time>2013-08-08T07:20:19Z</time>
      </trkpt>
      <trkpt lat="-21.18289" lon="55.6805">
        <ele>2018.4</ele>
        <time>2013-08-08T07:20:26Z</time>
      </trkpt>
      <trkpt lat="-21.18289" lon="55.6805">
        <ele>2018.4</ele>
        <time>2013-08-08T07:20:27Z</time>
      </trkpt>
      <trkpt lat="-21.18293" lon="55.68032">
        <ele>2020.2</ele>
        <time>2013-08-08T07:20:44Z</time>
      </trkpt>
      <trkpt lat="-21.18295" lon="55.68022">
        <ele>2019.9</ele>
        <time>2013-08-08T07:20:52Z</time>
      </trkpt>
      <trkpt lat="-21.18299" lon="55.68014">
        <ele>2022.1</ele>
        <time>2013-08-08T07:21:01Z</time>
      </trkpt>
      <trkpt lat="-21.18301" lon="55.68005">
        <ele>2024</ele>
        <time>2013-08-08T07:21:09Z</time>
      </trkpt>
      <trkpt lat="-21.18305" lon="55.67997">
        <ele>2025.3</ele>
        <time>2013-08-08T07:21:16Z</time>
      </trkpt>
      <trkpt lat="-21.18307" lon="55.67988">
        <ele>2027</ele>
        <time>2013-08-08T07:21:25Z</time>
      </trkpt>
      <trkpt lat="-21.18305" lon="55.67979">
        <ele>2028.2</ele>
        <time>2013-08-08T07:21:33Z</time>
      </trkpt>
      <trkpt lat="-21.18305" lon="55.67978">
        <ele>2028.3</ele>
        <time>2013-08-08T07:21:34Z</time>
      </trkpt>
      <trkpt lat="-21.18311" lon="55.67963">
        <ele>2029.2</ele>
        <time>2013-08-08T07:21:49Z</time>
      </trkpt>
      <trkpt lat="-21.18314" lon="55.67955">
        <ele>2029.8</ele>
        <time>2013-08-08T07:21:55Z</time>
      </trkpt>
      <trkpt lat="-21.18317" lon="55.67947">
        <ele>2028.4</ele>
        <time>2013-08-08T07:22:02Z</time>
      </trkpt>
      <trkpt lat="-21.1832" lon="55.67939">
        <ele>2026.7</ele>
        <time>2013-08-08T07:22:09Z</time>
      </trkpt>
      <trkpt lat="-21.18322" lon="55.6793">
        <ele>2025.1</ele>
        <time>2013-08-08T07:22:16Z</time>
      </trkpt>
      <trkpt lat="-21.18322" lon="55.67921">
        <ele>2024.1</ele>
        <time>2013-08-08T07:22:23Z</time>
      </trkpt>
      <trkpt lat="-21.1832" lon="55.67912">
        <ele>2023.6</ele>
        <time>2013-08-08T07:22:30Z</time>
      </trkpt>
      <trkpt lat="-21.18316" lon="55.67903">
        <ele>2024.2</ele>
        <time>2013-08-08T07:22:37Z</time>
      </trkpt>
      <trkpt lat="-21.18315" lon="55.67902">
        <ele>2023.9</ele>
        <time>2013-08-08T07:22:38Z</time>
      </trkpt>
      <trkpt lat="-21.18308" lon="55.67888">
        <ele>2027</ele>
        <time>2013-08-08T07:22:51Z</time>
      </trkpt>
      <trkpt lat="-21.18303" lon="55.67881">
        <ele>2025.9</ele>
        <time>2013-08-08T07:22:57Z</time>
      </trkpt>
      <trkpt lat="-21.183" lon="55.67873">
        <ele>2027.5</ele>
        <time>2013-08-08T07:23:06Z</time>
      </trkpt>
      <trkpt lat="-21.18299" lon="55.67865">
        <ele>2029.3</ele>
        <time>2013-08-08T07:23:13Z</time>
      </trkpt>
      <trkpt lat="-21.18302" lon="55.67856">
        <ele>2030.5</ele>
        <time>2013-08-08T07:23:20Z</time>
      </trkpt>
      <trkpt lat="-21.18305" lon="55.67848">
        <ele>2031.5</ele>
        <time>2013-08-08T07:23:27Z</time>
      </trkpt>
      <trkpt lat="-21.1831" lon="55.6784">
        <ele>2031.5</ele>
        <time>2013-08-08T07:23:33Z</time>
      </trkpt>
      <trkpt lat="-21.18317" lon="55.67835">
        <ele>2031.7</ele>
        <time>2013-08-08T07:23:41Z</time>
      </trkpt>
      <trkpt lat="-21.18317" lon="55.67834">
        <ele>2031.4</ele>
        <time>2013-08-08T07:23:42Z</time>
      </trkpt>
      <trkpt lat="-21.18325" lon="55.67822">
        <ele>2027.2</ele>
        <time>2013-08-08T07:24:03Z</time>
      </trkpt>
      <trkpt lat="-21.1833" lon="55.67814">
        <ele>2028.9</ele>
        <time>2013-08-08T07:24:15Z</time>
      </trkpt>
      <trkpt lat="-21.18337" lon="55.67811">
        <ele>2030.3</ele>
        <time>2013-08-08T07:24:25Z</time>
      </trkpt>
      <trkpt lat="-21.18343" lon="55.67803">
        <ele>2031.3</ele>
        <time>2013-08-08T07:24:34Z</time>
      </trkpt>
      <trkpt lat="-21.18339" lon="55.67794">
        <ele>2034.4</ele>
        <time>2013-08-08T07:24:46Z</time>
      </trkpt>
      <trkpt lat="-21.18338" lon="55.67793">
        <ele>2034.8</ele>
        <time>2013-08-08T07:24:47Z</time>
      </trkpt>
      <trkpt lat="-21.18336" lon="55.67777">
        <ele>2035.1</ele>
        <time>2013-08-08T07:25:00Z</time>
      </trkpt>
      <trkpt lat="-21.18339" lon="55.67769">
        <ele>2036.9</ele>
        <time>2013-08-08T07:25:07Z</time>
      </trkpt>
      <trkpt lat="-21.1834" lon="55.6776">
        <ele>2036.7</ele>
        <time>2013-08-08T07:25:17Z</time>
      </trkpt>
      <trkpt lat="-21.18343" lon="55.67751">
        <ele>2038.4</ele>
        <time>2013-08-08T07:25:26Z</time>
      </trkpt>
      <trkpt lat="-21.1834" lon="55.67742">
        <ele>2039.2</ele>
        <time>2013-08-08T07:25:34Z</time>
      </trkpt>
      <trkpt lat="-21.18338" lon="55.67733">
        <ele>2039.4</ele>
        <time>2013-08-08T07:25:41Z</time>
      </trkpt>
      <trkpt lat="-21.18337" lon="55.67724">
        <ele>2039</ele>
        <time>2013-08-08T07:25:49Z</time>
      </trkpt>
      <trkpt lat="-21.18337" lon="55.67723">
        <ele>2039.2</ele>
        <time>2013-08-08T07:25:50Z</time>
      </trkpt>
      <trkpt lat="-21.18332" lon="55.67707">
        <ele>2040.5</ele>
        <time>2013-08-08T07:26:04Z</time>
      </trkpt>
      <trkpt lat="-21.18328" lon="55.67699">
        <ele>2041.3</ele>
        <time>2013-08-08T07:26:10Z</time>
      </trkpt>
      <trkpt lat="-21.18321" lon="55.67695">
        <ele>2042.6</ele>
        <time>2013-08-08T07:26:16Z</time>
      </trkpt>
      <trkpt lat="-21.18316" lon="55.67688">
        <ele>2045.4</ele>
        <time>2013-08-08T07:26:23Z</time>
      </trkpt>
      <trkpt lat="-21.18316" lon="55.67678">
        <ele>2045.7</ele>
        <time>2013-08-08T07:26:32Z</time>
      </trkpt>
      <trkpt lat="-21.18318" lon="55.67669">
        <ele>2046.8</ele>
        <time>2013-08-08T07:26:39Z</time>
      </trkpt>
      <trkpt lat="-21.18321" lon="55.67661">
        <ele>2048.5</ele>
        <time>2013-08-08T07:26:46Z</time>
      </trkpt>
      <trkpt lat="-21.18327" lon="55.67655">
        <ele>2048.4</ele>
        <time>2013-08-08T07:26:52Z</time>
      </trkpt>
      <trkpt lat="-21.18327" lon="55.67654">
        <ele>2048.8</ele>
        <time>2013-08-08T07:26:53Z</time>
      </trkpt>
      <trkpt lat="-21.18332" lon="55.67638">
        <ele>2049.9</ele>
        <time>2013-08-08T07:27:04Z</time>
      </trkpt>
      <trkpt lat="-21.18331" lon="55.67629">
        <ele>2049.5</ele>
        <time>2013-08-08T07:27:12Z</time>
      </trkpt>
      <trkpt lat="-21.18325" lon="55.67622">
        <ele>2048.9</ele>
        <time>2013-08-08T07:27:23Z</time>
      </trkpt>
      <trkpt lat="-21.18324" lon="55.67613">
        <ele>2047.7</ele>
        <time>2013-08-08T07:27:33Z</time>
      </trkpt>
      <trkpt lat="-21.18324" lon="55.67604">
        <ele>2050.8</ele>
        <time>2013-08-08T07:27:44Z</time>
      </trkpt>
      <trkpt lat="-21.18318" lon="55.67597">
        <ele>2051.1</ele>
        <time>2013-08-08T07:27:51Z</time>
      </trkpt>
      <trkpt lat="-21.18313" lon="55.67589">
        <ele>2052.4</ele>
        <time>2013-08-08T07:27:58Z</time>
      </trkpt>
      <trkpt lat="-21.18313" lon="55.67588">
        <ele>2052.6</ele>
        <time>2013-08-08T07:27:59Z</time>
      </trkpt>
      <trkpt lat="-21.18311" lon="55.67571">
        <ele>2056.7</ele>
        <time>2013-08-08T07:28:17Z</time>
      </trkpt>
      <trkpt lat="-21.18308" lon="55.67562">
        <ele>2057.9</ele>
        <time>2013-08-08T07:28:26Z</time>
      </trkpt>
      <trkpt lat="-21.18305" lon="55.67553">
        <ele>2058.3</ele>
        <time>2013-08-08T07:28:33Z</time>
      </trkpt>
      <trkpt lat="-21.18304" lon="55.67544">
        <ele>2058.1</ele>
        <time>2013-08-08T07:28:39Z</time>
      </trkpt>
      <trkpt lat="-21.18304" lon="55.67535">
        <ele>2059.3</ele>
        <time>2013-08-08T07:28:45Z</time>
      </trkpt>
      <trkpt lat="-21.18303" lon="55.67526">
        <ele>2059</ele>
        <time>2013-08-08T07:28:51Z</time>
      </trkpt>
      <trkpt lat="-21.18299" lon="55.67519">
        <ele>2058.7</ele>
        <time>2013-08-08T07:28:57Z</time>
      </trkpt>
      <trkpt lat="-21.18297" lon="55.6751">
        <ele>2058.4</ele>
        <time>2013-08-08T07:29:03Z</time>
      </trkpt>
      <trkpt lat="-21.18297" lon="55.67509">
        <ele>2058.9</ele>
        <time>2013-08-08T07:29:04Z</time>
      </trkpt>
      <trkpt lat="-21.18298" lon="55.67492">
        <ele>2059.2</ele>
        <time>2013-08-08T07:29:16Z</time>
      </trkpt>
      <trkpt lat="-21.18303" lon="55.67485">
        <ele>2060.3</ele>
        <time>2013-08-08T07:29:23Z</time>
      </trkpt>
      <trkpt lat="-21.18309" lon="55.67478">
        <ele>2061</ele>
        <time>2013-08-08T07:29:31Z</time>
      </trkpt>
      <trkpt lat="-21.18315" lon="55.67473">
        <ele>2061.4</ele>
        <time>2013-08-08T07:29:38Z</time>
      </trkpt>
      <trkpt lat="-21.18323" lon="55.67469">
        <ele>2063.4</ele>
        <time>2013-08-08T07:29:44Z</time>
      </trkpt>
      <trkpt lat="-21.18331" lon="55.67466">
        <ele>2064.8</ele>
        <time>2013-08-08T07:29:51Z</time>
      </trkpt>
      <trkpt lat="-21.18338" lon="55.67464">
        <ele>2064.4</ele>
        <time>2013-08-08T07:29:57Z</time>
      </trkpt>
      <trkpt lat="-21.18346" lon="55.67462">
        <ele>2064.6</ele>
        <time>2013-08-08T07:30:04Z</time>
      </trkpt>
      <trkpt lat="-21.18348" lon="55.67462">
        <ele>2064.7</ele>
        <time>2013-08-08T07:30:05Z</time>
      </trkpt>
      <trkpt lat="-21.18361" lon="55.67454">
        <ele>2064.8</ele>
        <time>2013-08-08T07:30:16Z</time>
      </trkpt>
      <trkpt lat="-21.18368" lon="55.67448">
        <ele>2065.1</ele>
        <time>2013-08-08T07:30:22Z</time>
      </trkpt>
      <trkpt lat="-21.18376" lon="55.67443">
        <ele>2068.9</ele>
        <time>2013-08-08T07:30:33Z</time>
      </trkpt>
      <trkpt lat="-21.18384" lon="55.6744">
        <ele>2069.6</ele>
        <time>2013-08-08T07:30:42Z</time>
      </trkpt>
      <trkpt lat="-21.18393" lon="55.67438">
        <ele>2070.9</ele>
        <time>2013-08-08T07:30:53Z</time>
      </trkpt>
      <trkpt lat="-21.18399" lon="55.67431">
        <ele>2072.2</ele>
        <time>2013-08-08T07:31:01Z</time>
      </trkpt>
      <trkpt lat="-21.184" lon="55.67422">
        <ele>2072.7</ele>
        <time>2013-08-08T07:31:09Z</time>
      </trkpt>
      <trkpt lat="-21.18401" lon="55.67421">
        <ele>2072.8</ele>
        <time>2013-08-08T07:31:10Z</time>
      </trkpt>
      <trkpt lat="-21.18409" lon="55.67406">
        <ele>2074.6</ele>
        <time>2013-08-08T07:31:24Z</time>
      </trkpt>
      <trkpt lat="-21.18415" lon="55.674">
        <ele>2075.6</ele>
        <time>2013-08-08T07:31:31Z</time>
      </trkpt>
      <trkpt lat="-21.18419" lon="55.67392">
        <ele>2075</ele>
        <time>2013-08-08T07:31:37Z</time>
      </trkpt>
      <trkpt lat="-21.1842" lon="55.67383">
        <ele>2075.8</ele>
        <time>2013-08-08T07:31:45Z</time>
      </trkpt>
      <trkpt lat="-21.18422" lon="55.67374">
        <ele>2077.2</ele>
        <time>2013-08-08T07:31:55Z</time>
      </trkpt>
      <trkpt lat="-21.18421" lon="55.67365">
        <ele>2079.4</ele>
        <time>2013-08-08T07:32:04Z</time>
      </trkpt>
      <trkpt lat="-21.18421" lon="55.67356">
        <ele>2079.5</ele>
        <time>2013-08-08T07:32:11Z</time>
      </trkpt>
      <trkpt lat="-21.18421" lon="55.67355">
        <ele>2079.3</ele>
        <time>2013-08-08T07:32:12Z</time>
      </trkpt>
      <trkpt lat="-21.18424" lon="55.67339">
        <ele>2079.2</ele>
        <time>2013-08-08T07:32:23Z</time>
      </trkpt>
      <trkpt lat="-21.18424" lon="55.6733">
        <ele>2078.8</ele>
        <time>2013-08-08T07:32:30Z</time>
      </trkpt>
      <trkpt lat="-21.18421" lon="55.67322">
        <ele>2076.6</ele>
        <time>2013-08-08T07:32:39Z</time>
      </trkpt>
      <trkpt lat="-21.18424" lon="55.67314">
        <ele>2075.8</ele>
        <time>2013-08-08T07:32:46Z</time>
      </trkpt>
      <trkpt lat="-21.18429" lon="55.67306">
        <ele>2076.9</ele>
        <time>2013-08-08T07:33:06Z</time>
      </trkpt>
      <trkpt lat="-21.18434" lon="55.67299">
        <ele>2076.7</ele>
        <time>2013-08-08T07:33:13Z</time>
      </trkpt>
      <trkpt lat="-21.18435" lon="55.67298">
        <ele>2076.9</ele>
        <time>2013-08-08T07:33:14Z</time>
      </trkpt>
      <trkpt lat="-21.18444" lon="55.67284">
        <ele>2077.9</ele>
        <time>2013-08-08T07:33:25Z</time>
      </trkpt>
      <trkpt lat="-21.18449" lon="55.67277">
        <ele>2078.1</ele>
        <time>2013-08-08T07:33:31Z</time>
      </trkpt>
      <trkpt lat="-21.18454" lon="55.67269">
        <ele>2078.8</ele>
        <time>2013-08-08T07:33:37Z</time>
      </trkpt>
      <trkpt lat="-21.1846" lon="55.67262">
        <ele>2079.2</ele>
        <time>2013-08-08T07:33:43Z</time>
      </trkpt>
      <trkpt lat="-21.18464" lon="55.67255">
        <ele>2081</ele>
        <time>2013-08-08T07:33:49Z</time>
      </trkpt>
      <trkpt lat="-21.18469" lon="55.67248">
        <ele>2081.4</ele>
        <time>2013-08-08T07:33:55Z</time>
      </trkpt>
      <trkpt lat="-21.18475" lon="55.67241">
        <ele>2081.1</ele>
        <time>2013-08-08T07:34:01Z</time>
      </trkpt>
      <trkpt lat="-21.1848" lon="55.67234">
        <ele>2081.9</ele>
        <time>2013-08-08T07:34:08Z</time>
      </trkpt>
      <trkpt lat="-21.18486" lon="55.67229">
        <ele>2082</ele>
        <time>2013-08-08T07:34:15Z</time>
      </trkpt>
      <trkpt lat="-21.18487" lon="55.67227">
        <ele>2082.2</ele>
        <time>2013-08-08T07:34:16Z</time>
      </trkpt>
      <trkpt lat="-21.18494" lon="55.67212">
        <ele>2082.7</ele>
        <time>2013-08-08T07:34:29Z</time>
      </trkpt>
      <trkpt lat="-21.18501" lon="55.67218">
        <ele>2084.5</ele>
        <time>2013-08-08T07:34:47Z</time>
      </trkpt>
      <trkpt lat="-21.18509" lon="55.6722">
        <ele>2085.4</ele>
        <time>2013-08-08T07:34:56Z</time>
      </trkpt>
      <trkpt lat="-21.18516" lon="55.67223">
        <ele>2085.5</ele>
        <time>2013-08-08T07:35:01Z</time>
      </trkpt>
      <trkpt lat="-21.18522" lon="55.67228">
        <ele>2085.4</ele>
        <time>2013-08-08T07:35:06Z</time>
      </trkpt>
      <trkpt lat="-21.1853" lon="55.67231">
        <ele>2085.9</ele>
        <time>2013-08-08T07:35:12Z</time>
      </trkpt>
      <trkpt lat="-21.18538" lon="55.67236">
        <ele>2085.9</ele>
        <time>2013-08-08T07:35:19Z</time>
      </trkpt>
      <trkpt lat="-21.1854" lon="55.67236">
        <ele>2086.1</ele>
        <time>2013-08-08T07:35:20Z</time>
      </trkpt>
      <trkpt lat="-21.18553" lon="55.67242">
        <ele>2088.3</ele>
        <time>2013-08-08T07:35:31Z</time>
      </trkpt>
      <trkpt lat="-21.1856" lon="55.67246">
        <ele>2089.4</ele>
        <time>2013-08-08T07:35:38Z</time>
      </trkpt>
      <trkpt lat="-21.18568" lon="55.67249">
        <ele>2089.6</ele>
        <time>2013-08-08T07:35:45Z</time>
      </trkpt>
      <trkpt lat="-21.18576" lon="55.67252">
        <ele>2090.5</ele>
        <time>2013-08-08T07:35:54Z</time>
      </trkpt>
      <trkpt lat="-21.18583" lon="55.67257">
        <ele>2092.3</ele>
        <time>2013-08-08T07:36:02Z</time>
      </trkpt>
      <trkpt lat="-21.18589" lon="55.67264">
        <ele>2093.9</ele>
        <time>2013-08-08T07:36:10Z</time>
      </trkpt>
      <trkpt lat="-21.18596" lon="55.67269">
        <ele>2093.4</ele>
        <time>2013-08-08T07:36:20Z</time>
      </trkpt>
      <trkpt lat="-21.18597" lon="55.6727">
        <ele>2093.5</ele>
        <time>2013-08-08T07:36:21Z</time>
      </trkpt>
      <trkpt lat="-21.18611" lon="55.67277">
        <ele>2096.1</ele>
        <time>2013-08-08T07:36:40Z</time>
      </trkpt>
      <trkpt lat="-21.18618" lon="55.67282">
        <ele>2098.3</ele>
        <time>2013-08-08T07:36:49Z</time>
      </trkpt>
      <trkpt lat="-21.18626" lon="55.67281">
        <ele>2099.1</ele>
        <time>2013-08-08T07:36:58Z</time>
      </trkpt>
      <trkpt lat="-21.18634" lon="55.67284">
        <ele>2101</ele>
        <time>2013-08-08T07:37:06Z</time>
      </trkpt>
      <trkpt lat="-21.18643" lon="55.67285">
        <ele>2103.4</ele>
        <time>2013-08-08T07:37:16Z</time>
      </trkpt>
      <trkpt lat="-21.1865" lon="55.67287">
        <ele>2105.7</ele>
        <time>2013-08-08T07:37:26Z</time>
      </trkpt>
      <trkpt lat="-21.18651" lon="55.67287">
        <ele>2105.9</ele>
        <time>2013-08-08T07:37:27Z</time>
      </trkpt>
      <trkpt lat="-21.18665" lon="55.67298">
        <ele>2115.2</ele>
        <time>2013-08-08T07:38:05Z</time>
      </trkpt>
      <trkpt lat="-21.18673" lon="55.673">
        <ele>2117.2</ele>
        <time>2013-08-08T07:38:19Z</time>
      </trkpt>
      <trkpt lat="-21.1868" lon="55.67305">
        <ele>2118.1</ele>
        <time>2013-08-08T07:38:31Z</time>
      </trkpt>
      <trkpt lat="-21.1868" lon="55.67306">
        <ele>2118.5</ele>
        <time>2013-08-08T07:38:32Z</time>
      </trkpt>
      <trkpt lat="-21.18694" lon="55.67314">
        <ele>2122.8</ele>
        <time>2013-08-08T07:38:56Z</time>
      </trkpt>
      <trkpt lat="-21.18701" lon="55.67319">
        <ele>2124.7</ele>
        <time>2013-08-08T07:39:03Z</time>
      </trkpt>
      <trkpt lat="-21.18709" lon="55.67323">
        <ele>2125.8</ele>
        <time>2013-08-08T07:39:12Z</time>
      </trkpt>
      <trkpt lat="-21.18716" lon="55.67327">
        <ele>2127.3</ele>
        <time>2013-08-08T07:39:21Z</time>
      </trkpt>
      <trkpt lat="-21.18722" lon="55.67333">
        <ele>2128.2</ele>
        <time>2013-08-08T07:39:27Z</time>
      </trkpt>
      <trkpt lat="-21.18724" lon="55.67341">
        <ele>2130.2</ele>
        <time>2013-08-08T07:39:35Z</time>
      </trkpt>
      <trkpt lat="-21.18724" lon="55.67342">
        <ele>2130</ele>
        <time>2013-08-08T07:39:36Z</time>
      </trkpt>
      <trkpt lat="-21.18736" lon="55.67353">
        <ele>2131.1</ele>
        <time>2013-08-08T07:39:53Z</time>
      </trkpt>
      <trkpt lat="-21.18742" lon="55.6736">
        <ele>2133</ele>
        <time>2013-08-08T07:40:03Z</time>
      </trkpt>
      <trkpt lat="-21.18748" lon="55.67366">
        <ele>2134.3</ele>
        <time>2013-08-08T07:40:11Z</time>
      </trkpt>
      <trkpt lat="-21.18755" lon="55.67372">
        <ele>2134.9</ele>
        <time>2013-08-08T07:40:21Z</time>
      </trkpt>
      <trkpt lat="-21.18758" lon="55.67381">
        <ele>2136</ele>
        <time>2013-08-08T07:40:30Z</time>
      </trkpt>
      <trkpt lat="-21.18765" lon="55.67387">
        <ele>2137.2</ele>
        <time>2013-08-08T07:40:39Z</time>
      </trkpt>
      <trkpt lat="-21.18766" lon="55.67387">
        <ele>2137.3</ele>
        <time>2013-08-08T07:40:40Z</time>
      </trkpt>
      <trkpt lat="-21.1878" lon="55.67391">
        <ele>2139.3</ele>
        <time>2013-08-08T07:40:54Z</time>
      </trkpt>
      <trkpt lat="-21.18788" lon="55.67394">
        <ele>2139.7</ele>
        <time>2013-08-08T07:41:01Z</time>
      </trkpt>
      <trkpt lat="-21.18795" lon="55.67397">
        <ele>2139.5</ele>
        <time>2013-08-08T07:41:08Z</time>
      </trkpt>
      <trkpt lat="-21.18802" lon="55.67401">
        <ele>2140.7</ele>
        <time>2013-08-08T07:41:15Z</time>
      </trkpt>
      <trkpt lat="-21.18809" lon="55.67404">
        <ele>2141.3</ele>
        <time>2013-08-08T07:41:21Z</time>
      </trkpt>
      <trkpt lat="-21.18816" lon="55.67408">
        <ele>2141.1</ele>
        <time>2013-08-08T07:41:27Z</time>
      </trkpt>
      <trkpt lat="-21.18824" lon="55.67411">
        <ele>2141.7</ele>
        <time>2013-08-08T07:41:34Z</time>
      </trkpt>
      <trkpt lat="-21.18831" lon="55.67416">
        <ele>2142</ele>
        <time>2013-08-08T07:41:41Z</time>
      </trkpt>
      <trkpt lat="-21.18832" lon="55.67416">
        <ele>2142</ele>
        <time>2013-08-08T07:41:42Z</time>
      </trkpt>
      <trkpt lat="-21.18844" lon="55.67425">
        <ele>2144</ele>
        <time>2013-08-08T07:41:53Z</time>
      </trkpt>
      <trkpt lat="-21.18851" lon="55.67429">
        <ele>2145.1</ele>
        <time>2013-08-08T07:42:00Z</time>
      </trkpt>
      <trkpt lat="-21.18859" lon="55.67432">
        <ele>2144.7</ele>
        <time>2013-08-08T07:42:06Z</time>
      </trkpt>
      <trkpt lat="-21.18866" lon="55.67438">
        <ele>2145.3</ele>
        <time>2013-08-08T07:42:12Z</time>
      </trkpt>
      <trkpt lat="-21.18873" lon="55.67442">
        <ele>2145.9</ele>
        <time>2013-08-08T07:42:19Z</time>
      </trkpt>
      <trkpt lat="-21.18882" lon="55.67445">
        <ele>2146.1</ele>
        <time>2013-08-08T07:42:26Z</time>
      </trkpt>
      <trkpt lat="-21.1889" lon="55.67448">
        <ele>2148.6</ele>
        <time>2013-08-08T07:42:38Z</time>
      </trkpt>
      <trkpt lat="-21.18898" lon="55.67451">
        <ele>2150.9</ele>
        <time>2013-08-08T07:42:51Z</time>
      </trkpt>
      <trkpt lat="-21.18899" lon="55.67452">
        <ele>2151.2</ele>
        <time>2013-08-08T07:42:52Z</time>
      </trkpt>
      <trkpt lat="-21.18911" lon="55.67462">
        <ele>2152.7</ele>
        <time>2013-08-08T07:43:10Z</time>
      </trkpt>
      <trkpt lat="-21.18917" lon="55.67468">
        <ele>2154.6</ele>
        <time>2013-08-08T07:43:17Z</time>
      </trkpt>
      <trkpt lat="-21.18924" lon="55.67473">
        <ele>2155.6</ele>
        <time>2013-08-08T07:43:25Z</time>
      </trkpt>
      <trkpt lat="-21.1893" lon="55.67479">
        <ele>2156.5</ele>
        <time>2013-08-08T07:43:31Z</time>
      </trkpt>
      <trkpt lat="-21.18936" lon="55.67486">
        <ele>2156.8</ele>
        <time>2013-08-08T07:43:37Z</time>
      </trkpt>
      <trkpt lat="-21.18944" lon="55.67486">
        <ele>2160.8</ele>
        <time>2013-08-08T07:43:54Z</time>
      </trkpt>
      <trkpt lat="-21.18945" lon="55.67486">
        <ele>2161.2</ele>
        <time>2013-08-08T07:43:55Z</time>
      </trkpt>
      <trkpt lat="-21.18959" lon="55.67494">
        <ele>2168.1</ele>
        <time>2013-08-08T07:44:26Z</time>
      </trkpt>
      <trkpt lat="-21.18966" lon="55.675">
        <ele>2170.7</ele>
        <time>2013-08-08T07:44:43Z</time>
      </trkpt>
      <trkpt lat="-21.18974" lon="55.67498">
        <ele>2172.3</ele>
        <time>2013-08-08T07:44:53Z</time>
      </trkpt>
      <trkpt lat="-21.18983" lon="55.67496">
        <ele>2174.3</ele>
        <time>2013-08-08T07:45:02Z</time>
      </trkpt>
      <trkpt lat="-21.18985" lon="55.67496">
        <ele>2174.2</ele>
        <time>2013-08-08T07:45:03Z</time>
      </trkpt>
      <trkpt lat="-21.19" lon="55.67493">
        <ele>2173.9</ele>
        <time>2013-08-08T07:45:17Z</time>
      </trkpt>
      <trkpt lat="-21.19008" lon="55.67492">
        <ele>2174.1</ele>
        <time>2013-08-08T07:45:27Z</time>
      </trkpt>
      <trkpt lat="-21.19015" lon="55.67486">
        <ele>2174.4</ele>
        <time>2013-08-08T07:45:36Z</time>
      </trkpt>
      <trkpt lat="-21.19024" lon="55.67482">
        <ele>2176</ele>
        <time>2013-08-08T07:45:44Z</time>
      </trkpt>
      <trkpt lat="-21.19032" lon="55.67482">
        <ele>2178.1</ele>
        <time>2013-08-08T07:45:51Z</time>
      </trkpt>
      <trkpt lat="-21.1904" lon="55.6748">
        <ele>2178.2</ele>
        <time>2013-08-08T07:45:57Z</time>
      </trkpt>
      <trkpt lat="-21.19048" lon="55.67477">
        <ele>2178.9</ele>
        <time>2013-08-08T07:46:03Z</time>
      </trkpt>
      <trkpt lat="-21.1905" lon="55.67477">
        <ele>2179</ele>
        <time>2013-08-08T07:46:04Z</time>
      </trkpt>
      <trkpt lat="-21.19066" lon="55.67474">
        <ele>2179.7</ele>
        <time>2013-08-08T07:46:16Z</time>
      </trkpt>
      <trkpt lat="-21.19074" lon="55.67471">
        <ele>2179.9</ele>
        <time>2013-08-08T07:46:23Z</time>
      </trkpt>
      <trkpt lat="-21.19082" lon="55.67468">
        <ele>2181.3</ele>
        <time>2013-08-08T07:46:30Z</time>
      </trkpt>
      <trkpt lat="-21.1909" lon="55.67465">
        <ele>2180.7</ele>
        <time>2013-08-08T07:46:36Z</time>
      </trkpt>
      <trkpt lat="-21.19098" lon="55.67462">
        <ele>2182</ele>
        <time>2013-08-08T07:46:43Z</time>
      </trkpt>
      <trkpt lat="-21.19107" lon="55.67461">
        <ele>2182</ele>
        <time>2013-08-08T07:46:51Z</time>
      </trkpt>
      <trkpt lat="-21.19115" lon="55.6746">
        <ele>2182.7</ele>
        <time>2013-08-08T07:46:59Z</time>
      </trkpt>
      <trkpt lat="-21.19123" lon="55.67456">
        <ele>2184.5</ele>
        <time>2013-08-08T07:47:06Z</time>
      </trkpt>
      <trkpt lat="-21.19123" lon="55.67454">
        <ele>2184.8</ele>
        <time>2013-08-08T07:47:07Z</time>
      </trkpt>
      <trkpt lat="-21.19137" lon="55.67445">
        <ele>2191.2</ele>
        <time>2013-08-08T07:47:29Z</time>
      </trkpt>
      <trkpt lat="-21.19145" lon="55.67443">
        <ele>2192.8</ele>
        <time>2013-08-08T07:47:41Z</time>
      </trkpt>
      <trkpt lat="-21.19153" lon="55.67445">
        <ele>2193.7</ele>
        <time>2013-08-08T07:47:48Z</time>
      </trkpt>
      <trkpt lat="-21.19162" lon="55.67444">
        <ele>2195.4</ele>
        <time>2013-08-08T07:47:57Z</time>
      </trkpt>
      <trkpt lat="-21.19169" lon="55.67438">
        <ele>2198.5</ele>
        <time>2013-08-08T07:48:11Z</time>
      </trkpt>
      <trkpt lat="-21.19169" lon="55.67438">
        <ele>2198.8</ele>
        <time>2013-08-08T07:48:12Z</time>
      </trkpt>
      <trkpt lat="-21.19184" lon="55.67431">
        <ele>2204.9</ele>
        <time>2013-08-08T07:48:39Z</time>
      </trkpt>
      <trkpt lat="-21.19192" lon="55.67427">
        <ele>2207.6</ele>
        <time>2013-08-08T07:48:52Z</time>
      </trkpt>
      <trkpt lat="-21.192" lon="55.67422">
        <ele>2210</ele>
        <time>2013-08-08T07:49:08Z</time>
      </trkpt>
      <trkpt lat="-21.19207" lon="55.67417">
        <ele>2213.3</ele>
        <time>2013-08-08T07:49:28Z</time>
      </trkpt>
      <trkpt lat="-21.19207" lon="55.67417">
        <ele>2213.5</ele>
        <time>2013-08-08T07:49:29Z</time>
      </trkpt>
      <trkpt lat="-21.19223" lon="55.67417">
        <ele>2221.1</ele>
        <time>2013-08-08T07:50:04Z</time>
      </trkpt>
      <trkpt lat="-21.19232" lon="55.67417">
        <ele>2224</ele>
        <time>2013-08-08T07:50:19Z</time>
      </trkpt>
      <trkpt lat="-21.19241" lon="55.67419">
        <ele>2227.9</ele>
        <time>2013-08-08T07:50:34Z</time>
      </trkpt>
      <trkpt lat="-21.19241" lon="55.67419">
        <ele>2228.1</ele>
        <time>2013-08-08T07:50:35Z</time>
      </trkpt>
      <trkpt lat="-21.19244" lon="55.67401">
        <ele>2230</ele>
        <time>2013-08-08T07:50:58Z</time>
      </trkpt>
      <trkpt lat="-21.19249" lon="55.67394">
        <ele>2230.2</ele>
        <time>2013-08-08T07:51:11Z</time>
      </trkpt>
      <trkpt lat="-21.19256" lon="55.67387">
        <ele>2230</ele>
        <time>2013-08-08T07:51:20Z</time>
      </trkpt>
      <trkpt lat="-21.19257" lon="55.6738">
        <ele>2230.4</ele>
        <time>2013-08-08T07:51:26Z</time>
      </trkpt>
      <trkpt lat="-21.19258" lon="55.67371">
        <ele>2230.1</ele>
        <time>2013-08-08T07:51:32Z</time>
      </trkpt>
      <trkpt lat="-21.19263" lon="55.67363">
        <ele>2232.7</ele>
        <time>2013-08-08T07:51:46Z</time>
      </trkpt>
      <trkpt lat="-21.19263" lon="55.67362">
        <ele>2233.1</ele>
        <time>2013-08-08T07:51:47Z</time>
      </trkpt>
      <trkpt lat="-21.19275" lon="55.6735">
        <ele>2237.9</ele>
        <time>2013-08-08T07:52:15Z</time>
      </trkpt>
      <trkpt lat="-21.19278" lon="55.67342">
        <ele>2238.8</ele>
        <time>2013-08-08T07:52:27Z</time>
      </trkpt>
      <trkpt lat="-21.19281" lon="55.67333">
        <ele>2242.5</ele>
        <time>2013-08-08T07:52:48Z</time>
      </trkpt>
      <trkpt lat="-21.19281" lon="55.67332">
        <ele>2242.4</ele>
        <time>2013-08-08T07:52:49Z</time>
      </trkpt>
      <trkpt lat="-21.19291" lon="55.67319">
        <ele>2246.4</ele>
        <time>2013-08-08T07:53:08Z</time>
      </trkpt>
      <trkpt lat="-21.19296" lon="55.67312">
        <ele>2248.4</ele>
        <time>2013-08-08T07:53:28Z</time>
      </trkpt>
      <trkpt lat="-21.19304" lon="55.67309">
        <ele>2250.9</ele>
        <time>2013-08-08T07:53:46Z</time>
      </trkpt>
      <trkpt lat="-21.1931" lon="55.67303">
        <ele>2253.8</ele>
        <time>2013-08-08T07:53:59Z</time>
      </trkpt>
      <trkpt lat="-21.19311" lon="55.67303">
        <ele>2253.6</ele>
        <time>2013-08-08T07:54:00Z</time>
      </trkpt>
      <trkpt lat="-21.19324" lon="55.67293">
        <ele>2257.8</ele>
        <time>2013-08-08T07:54:24Z</time>
      </trkpt>
      <trkpt lat="-21.19331" lon="55.67288">
        <ele>2260.7</ele>
        <time>2013-08-08T07:54:37Z</time>
      </trkpt>
      <trkpt lat="-21.19339" lon="55.67284">
        <ele>2263.9</ele>
        <time>2013-08-08T07:54:58Z</time>
      </trkpt>
      <trkpt lat="-21.19347" lon="55.67284">
        <ele>2267.3</ele>
        <time>2013-08-08T07:55:14Z</time>
      </trkpt>
      <trkpt lat="-21.19348" lon="55.67284">
        <ele>2267.4</ele>
        <time>2013-08-08T07:55:15Z</time>
      </trkpt>
      <trkpt lat="-21.19359" lon="55.67275">
        <ele>2272.3</ele>
        <time>2013-08-08T07:55:49Z</time>
      </trkpt>
      <trkpt lat="-21.19359" lon="55.67266">
        <ele>2274</ele>
        <time>2013-08-08T07:56:02Z</time>
      </trkpt>
      <trkpt lat="-21.19364" lon="55.67258">
        <ele>2276</ele>
        <time>2013-08-08T07:56:12Z</time>
      </trkpt>
      <trkpt lat="-21.19371" lon="55.67254">
        <ele>2278.9</ele>
        <time>2013-08-08T07:56:26Z</time>
      </trkpt>
      <trkpt lat="-21.19373" lon="55.67253">
        <ele>2279.3</ele>
        <time>2013-08-08T07:56:27Z</time>
      </trkpt>
      <trkpt lat="-21.19388" lon="55.6725">
        <ele>2282.2</ele>
        <time>2013-08-08T07:56:49Z</time>
      </trkpt>
      <trkpt lat="-21.19396" lon="55.67246">
        <ele>2285.7</ele>
        <time>2013-08-08T07:57:03Z</time>
      </trkpt>
      <trkpt lat="-21.19404" lon="55.67244">
        <ele>2288.7</ele>
        <time>2013-08-08T07:57:22Z</time>
      </trkpt>
      <trkpt lat="-21.19413" lon="55.67245">
        <ele>2291.8</ele>
        <time>2013-08-08T07:57:44Z</time>
      </trkpt>
      <trkpt lat="-21.19414" lon="55.67245">
        <ele>2292.1</ele>
        <time>2013-08-08T07:57:45Z</time>
      </trkpt>
      <trkpt lat="-21.19422" lon="55.67231">
        <ele>2294.5</ele>
        <time>2013-08-08T07:57:59Z</time>
      </trkpt>
      <trkpt lat="-21.19429" lon="55.67226">
        <ele>2294.7</ele>
        <time>2013-08-08T07:58:04Z</time>
      </trkpt>
      <trkpt lat="-21.19434" lon="55.67219">
        <ele>2296.9</ele>
        <time>2013-08-08T07:58:13Z</time>
      </trkpt>
      <trkpt lat="-21.19434" lon="55.6721">
        <ele>2299.4</ele>
        <time>2013-08-08T07:58:29Z</time>
      </trkpt>
      <trkpt lat="-21.19433" lon="55.67201">
        <ele>2300.4</ele>
        <time>2013-08-08T07:58:39Z</time>
      </trkpt>
      <trkpt lat="-21.19431" lon="55.67192">
        <ele>2304.2</ele>
        <time>2013-08-08T07:58:57Z</time>
      </trkpt>
      <trkpt lat="-21.1943" lon="55.67191">
        <ele>2304.2</ele>
        <time>2013-08-08T07:58:58Z</time>
      </trkpt>
      <trkpt lat="-21.19434" lon="55.67176">
        <ele>2309.6</ele>
        <time>2013-08-08T07:59:20Z</time>
      </trkpt>
      <trkpt lat="-21.19441" lon="55.6717">
        <ele>2309.5</ele>
        <time>2013-08-08T07:59:30Z</time>
      </trkpt>
      <trkpt lat="-21.19447" lon="55.67163">
        <ele>2312.3</ele>
        <time>2013-08-08T07:59:44Z</time>
      </trkpt>
      <trkpt lat="-21.19453" lon="55.67157">
        <ele>2313.4</ele>
        <time>2013-08-08T07:59:55Z</time>
      </trkpt>
      <trkpt lat="-21.19459" lon="55.6715">
        <ele>2314.4</ele>
        <time>2013-08-08T08:00:05Z</time>
      </trkpt>
      <trkpt lat="-21.19459" lon="55.6715">
        <ele>2314.6</ele>
        <time>2013-08-08T08:00:06Z</time>
      </trkpt>
      <trkpt lat="-21.19459" lon="55.67134">
        <ele>2315.1</ele>
        <time>2013-08-08T08:00:35Z</time>
      </trkpt>
      <trkpt lat="-21.19463" lon="55.67126">
        <ele>2316.5</ele>
        <time>2013-08-08T08:00:46Z</time>
      </trkpt>
      <trkpt lat="-21.19467" lon="55.67118">
        <ele>2318.5</ele>
        <time>2013-08-08T08:00:56Z</time>
      </trkpt>
      <trkpt lat="-21.19469" lon="55.67109">
        <ele>2320</ele>
        <time>2013-08-08T08:01:10Z</time>
      </trkpt>
      <trkpt lat="-21.19469" lon="55.67108">
        <ele>2320.6</ele>
        <time>2013-08-08T08:01:11Z</time>
      </trkpt>
      <trkpt lat="-21.19473" lon="55.67092">
        <ele>2326.5</ele>
        <time>2013-08-08T08:01:38Z</time>
      </trkpt>
      <trkpt lat="-21.19473" lon="55.67084">
        <ele>2328.9</ele>
        <time>2013-08-08T08:02:01Z</time>
      </trkpt>
      <trkpt lat="-21.19472" lon="55.67075">
        <ele>2330.5</ele>
        <time>2013-08-08T08:02:09Z</time>
      </trkpt>
      <trkpt lat="-21.19468" lon="55.67067">
        <ele>2331.2</ele>
        <time>2013-08-08T08:02:15Z</time>
      </trkpt>
      <trkpt lat="-21.19468" lon="55.67066">
        <ele>2331</ele>
        <time>2013-08-08T08:02:16Z</time>
      </trkpt>
      <trkpt lat="-21.19478" lon="55.67056">
        <ele>2335.2</ele>
        <time>2013-08-08T08:02:45Z</time>
      </trkpt>
      <trkpt lat="-21.19486" lon="55.67054">
        <ele>2337.8</ele>
        <time>2013-08-08T08:02:58Z</time>
      </trkpt>
      <trkpt lat="-21.19494" lon="55.67054">
        <ele>2339.4</ele>
        <time>2013-08-08T08:03:10Z</time>
      </trkpt>
      <trkpt lat="-21.19501" lon="55.67048">
        <ele>2343.7</ele>
        <time>2013-08-08T08:03:37Z</time>
      </trkpt>
      <trkpt lat="-21.19502" lon="55.67048">
        <ele>2343.6</ele>
        <time>2013-08-08T08:03:38Z</time>
      </trkpt>
      <trkpt lat="-21.19517" lon="55.67041">
        <ele>2347.7</ele>
        <time>2013-08-08T08:04:07Z</time>
      </trkpt>
      <trkpt lat="-21.19526" lon="55.6704">
        <ele>2350.5</ele>
        <time>2013-08-08T08:04:22Z</time>
      </trkpt>
      <trkpt lat="-21.19534" lon="55.67037">
        <ele>2351.7</ele>
        <time>2013-08-08T08:04:30Z</time>
      </trkpt>
      <trkpt lat="-21.19541" lon="55.67034">
        <ele>2352.3</ele>
        <time>2013-08-08T08:04:38Z</time>
      </trkpt>
      <trkpt lat="-21.19549" lon="55.67035">
        <ele>2353.9</ele>
        <time>2013-08-08T08:04:46Z</time>
      </trkpt>
      <trkpt lat="-21.19551" lon="55.67035">
        <ele>2353.9</ele>
        <time>2013-08-08T08:04:47Z</time>
      </trkpt>
      <trkpt lat="-21.19566" lon="55.67036">
        <ele>2357.4</ele>
        <time>2013-08-08T08:05:04Z</time>
      </trkpt>
      <trkpt lat="-21.19574" lon="55.67033">
        <ele>2358.2</ele>
        <time>2013-08-08T08:05:13Z</time>
      </trkpt>
      <trkpt lat="-21.1958" lon="55.67026">
        <ele>2360.1</ele>
        <time>2013-08-08T08:05:24Z</time>
      </trkpt>
      <trkpt lat="-21.19586" lon="55.67019">
        <ele>2363.6</ele>
        <time>2013-08-08T08:05:43Z</time>
      </trkpt>
      <trkpt lat="-21.19587" lon="55.6701">
        <ele>2366.2</ele>
        <time>2013-08-08T08:06:02Z</time>
      </trkpt>
      <trkpt lat="-21.19587" lon="55.67009">
        <ele>2366.7</ele>
        <time>2013-08-08T08:06:03Z</time>
      </trkpt>
      <trkpt lat="-21.19596" lon="55.66996">
        <ele>2369.6</ele>
        <time>2013-08-08T08:06:28Z</time>
      </trkpt>
      <trkpt lat="-21.196" lon="55.66988">
        <ele>2370.6</ele>
        <time>2013-08-08T08:06:49Z</time>
      </trkpt>
      <trkpt lat="-21.19602" lon="55.66979">
        <ele>2370.5</ele>
        <time>2013-08-08T08:07:01Z</time>
      </trkpt>
      <trkpt lat="-21.19604" lon="55.6697">
        <ele>2368.9</ele>
        <time>2013-08-08T08:07:10Z</time>
      </trkpt>
      <trkpt lat="-21.19604" lon="55.66969">
        <ele>2368.9</ele>
        <time>2013-08-08T08:07:11Z</time>
      </trkpt>
      <trkpt lat="-21.19611" lon="55.66954">
        <ele>2369.4</ele>
        <time>2013-08-08T08:07:28Z</time>
      </trkpt>
      <trkpt lat="-21.19614" lon="55.66945">
        <ele>2370.4</ele>
        <time>2013-08-08T08:07:37Z</time>
      </trkpt>
      <trkpt lat="-21.19619" lon="55.66938">
        <ele>2371.4</ele>
        <time>2013-08-08T08:07:45Z</time>
      </trkpt>
      <trkpt lat="-21.19621" lon="55.66929">
        <ele>2371.7</ele>
        <time>2013-08-08T08:07:52Z</time>
      </trkpt>
      <trkpt lat="-21.19623" lon="55.6692">
        <ele>2371.1</ele>
        <time>2013-08-08T08:07:59Z</time>
      </trkpt>
      <trkpt lat="-21.19624" lon="55.66912">
        <ele>2371</ele>
        <time>2013-08-08T08:08:05Z</time>
      </trkpt>
      <trkpt lat="-21.19624" lon="55.66903">
        <ele>2370.9</ele>
        <time>2013-08-08T08:08:12Z</time>
      </trkpt>
      <trkpt lat="-21.19625" lon="55.66902">
        <ele>2370.9</ele>
        <time>2013-08-08T08:08:13Z</time>
      </trkpt>
      <trkpt lat="-21.19628" lon="55.66886">
        <ele>2369.1</ele>
        <time>2013-08-08T08:08:26Z</time>
      </trkpt>
      <trkpt lat="-21.19634" lon="55.6688">
        <ele>2369.8</ele>
        <time>2013-08-08T08:08:33Z</time>
      </trkpt>
      <trkpt lat="-21.19639" lon="55.66874">
        <ele>2369.1</ele>
        <time>2013-08-08T08:08:39Z</time>
      </trkpt>
      <trkpt lat="-21.19643" lon="55.66865">
        <ele>2371.3</ele>
        <time>2013-08-08T08:08:50Z</time>
      </trkpt>
      <trkpt lat="-21.19644" lon="55.66857">
        <ele>2371.9</ele>
        <time>2013-08-08T08:09:06Z</time>
      </trkpt>
      <trkpt lat="-21.19642" lon="55.66847">
        <ele>2374.1</ele>
        <time>2013-08-08T08:09:17Z</time>
      </trkpt>
      <trkpt lat="-21.19641" lon="55.66847">
        <ele>2373.8</ele>
        <time>2013-08-08T08:09:18Z</time>
      </trkpt>
      <trkpt lat="-21.19652" lon="55.66836">
        <ele>2377.4</ele>
        <time>2013-08-08T08:09:39Z</time>
      </trkpt>
      <trkpt lat="-21.19658" lon="55.66829">
        <ele>2378.5</ele>
        <time>2013-08-08T08:09:48Z</time>
      </trkpt>
      <trkpt lat="-21.19665" lon="55.66823">
        <ele>2379.9</ele>
        <time>2013-08-08T08:09:57Z</time>
      </trkpt>
      <trkpt lat="-21.19672" lon="55.66819">
        <ele>2380</ele>
        <time>2013-08-08T08:10:05Z</time>
      </trkpt>
      <trkpt lat="-21.19675" lon="55.6681">
        <ele>2381.5</ele>
        <time>2013-08-08T08:10:41Z</time>
      </trkpt>
      <trkpt lat="-21.19676" lon="55.6681">
        <ele>2381</ele>
        <time>2013-08-08T08:10:42Z</time>
      </trkpt>
      <trkpt lat="-21.1969" lon="55.66805">
        <ele>2382.8</ele>
        <time>2013-08-08T08:10:58Z</time>
      </trkpt>
      <trkpt lat="-21.19699" lon="55.66806">
        <ele>2383.9</ele>
        <time>2013-08-08T08:11:04Z</time>
      </trkpt>
      <trkpt lat="-21.19706" lon="55.66805">
        <ele>2382.4</ele>
        <time>2013-08-08T08:11:10Z</time>
      </trkpt>
      <trkpt lat="-21.19714" lon="55.668">
        <ele>2381.8</ele>
        <time>2013-08-08T08:11:16Z</time>
      </trkpt>
      <trkpt lat="-21.19718" lon="55.66792">
        <ele>2381.2</ele>
        <time>2013-08-08T08:11:22Z</time>
      </trkpt>
      <trkpt lat="-21.19724" lon="55.66786">
        <ele>2383</ele>
        <time>2013-08-08T08:11:32Z</time>
      </trkpt>
      <trkpt lat="-21.19729" lon="55.66778">
        <ele>2384.8</ele>
        <time>2013-08-08T08:11:41Z</time>
      </trkpt>
      <trkpt lat="-21.19731" lon="55.66769">
        <ele>2384.1</ele>
        <time>2013-08-08T08:11:51Z</time>
      </trkpt>
      <trkpt lat="-21.19732" lon="55.66768">
        <ele>2383.9</ele>
        <time>2013-08-08T08:11:52Z</time>
      </trkpt>
      <trkpt lat="-21.19744" lon="55.66758">
        <ele>2381.7</ele>
        <time>2013-08-08T08:12:07Z</time>
      </trkpt>
      <trkpt lat="-21.19748" lon="55.66751">
        <ele>2379.8</ele>
        <time>2013-08-08T08:12:17Z</time>
      </trkpt>
      <trkpt lat="-21.19753" lon="55.66744">
        <ele>2378.6</ele>
        <time>2013-08-08T08:12:23Z</time>
      </trkpt>
      <trkpt lat="-21.19753" lon="55.66735">
        <ele>2377.7</ele>
        <time>2013-08-08T08:12:30Z</time>
      </trkpt>
      <trkpt lat="-21.19756" lon="55.66727">
        <ele>2375.5</ele>
        <time>2013-08-08T08:12:39Z</time>
      </trkpt>
      <trkpt lat="-21.1976" lon="55.66718">
        <ele>2373.7</ele>
        <time>2013-08-08T08:12:46Z</time>
      </trkpt>
      <trkpt lat="-21.19766" lon="55.66713">
        <ele>2373</ele>
        <time>2013-08-08T08:12:52Z</time>
      </trkpt>
      <trkpt lat="-21.19765" lon="55.66704">
        <ele>2372.3</ele>
        <time>2013-08-08T08:12:59Z</time>
      </trkpt>
      <trkpt lat="-21.19765" lon="55.66703">
        <ele>2372.4</ele>
        <time>2013-08-08T08:13:00Z</time>
      </trkpt>
      <trkpt lat="-21.19778" lon="55.66692">
        <ele>2367.6</ele>
        <time>2013-08-08T08:13:15Z</time>
      </trkpt>
      <trkpt lat="-21.19786" lon="55.66691">
        <ele>2365.9</ele>
        <time>2013-08-08T08:13:23Z</time>
      </trkpt>
      <trkpt lat="-21.19794" lon="55.66689">
        <ele>2364.4</ele>
        <time>2013-08-08T08:13:30Z</time>
      </trkpt>
      <trkpt lat="-21.19802" lon="55.66686">
        <ele>2361</ele>
        <time>2013-08-08T08:13:40Z</time>
      </trkpt>
      <trkpt lat="-21.1981" lon="55.66683">
        <ele>2360.3</ele>
        <time>2013-08-08T08:13:47Z</time>
      </trkpt>
      <trkpt lat="-21.19814" lon="55.66675">
        <ele>2358.7</ele>
        <time>2013-08-08T08:13:58Z</time>
      </trkpt>
      <trkpt lat="-21.19821" lon="55.66668">
        <ele>2356.5</ele>
        <time>2013-08-08T08:14:05Z</time>
      </trkpt>
      <trkpt lat="-21.19821" lon="55.66667">
        <ele>2356.4</ele>
        <time>2013-08-08T08:14:06Z</time>
      </trkpt>
      <trkpt lat="-21.19823" lon="55.6665">
        <ele>2354.2</ele>
        <time>2013-08-08T08:14:17Z</time>
      </trkpt>
      <trkpt lat="-21.1983" lon="55.66644">
        <ele>2355.2</ele>
        <time>2013-08-08T08:14:26Z</time>
      </trkpt>
      <trkpt lat="-21.19837" lon="55.66638">
        <ele>2355.6</ele>
        <time>2013-08-08T08:14:51Z</time>
      </trkpt>
      <trkpt lat="-21.19845" lon="55.66636">
        <ele>2356.4</ele>
        <time>2013-08-08T08:14:59Z</time>
      </trkpt>
      <trkpt lat="-21.19847" lon="55.66627">
        <ele>2355.7</ele>
        <time>2013-08-08T08:15:08Z</time>
      </trkpt>
      <trkpt lat="-21.19847" lon="55.66626">
        <ele>2356</ele>
        <time>2013-08-08T08:15:09Z</time>
      </trkpt>
      <trkpt lat="-21.19861" lon="55.66619">
        <ele>2357</ele>
        <time>2013-08-08T08:15:22Z</time>
      </trkpt>
      <trkpt lat="-21.19867" lon="55.66613">
        <ele>2358</ele>
        <time>2013-08-08T08:15:30Z</time>
      </trkpt>
      <trkpt lat="-21.19873" lon="55.66607">
        <ele>2362.2</ele>
        <time>2013-08-08T08:15:47Z</time>
      </trkpt>
      <trkpt lat="-21.19879" lon="55.66599">
        <ele>2364.7</ele>
        <time>2013-08-08T08:15:59Z</time>
      </trkpt>
      <trkpt lat="-21.19883" lon="55.66591">
        <ele>2366.3</ele>
        <time>2013-08-08T08:16:14Z</time>
      </trkpt>
      <trkpt lat="-21.19882" lon="55.6659">
        <ele>2366.4</ele>
        <time>2013-08-08T08:16:15Z</time>
      </trkpt>
      <trkpt lat="-21.19883" lon="55.66572">
        <ele>2365.4</ele>
        <time>2013-08-08T08:16:38Z</time>
      </trkpt>
      <trkpt lat="-21.19887" lon="55.66565">
        <ele>2365.8</ele>
        <time>2013-08-08T08:16:46Z</time>
      </trkpt>
      <trkpt lat="-21.19894" lon="55.66559">
        <ele>2368.3</ele>
        <time>2013-08-08T08:17:03Z</time>
      </trkpt>
      <trkpt lat="-21.199" lon="55.66553">
        <ele>2371.5</ele>
        <time>2013-08-08T08:17:18Z</time>
      </trkpt>
      <trkpt lat="-21.19901" lon="55.66553">
        <ele>2371.8</ele>
        <time>2013-08-08T08:17:19Z</time>
      </trkpt>
      <trkpt lat="-21.19916" lon="55.66548">
        <ele>2373.4</ele>
        <time>2013-08-08T08:17:35Z</time>
      </trkpt>
      <trkpt lat="-21.19923" lon="55.66543">
        <ele>2374</ele>
        <time>2013-08-08T08:17:41Z</time>
      </trkpt>
      <trkpt lat="-21.19931" lon="55.66539">
        <ele>2373.8</ele>
        <time>2013-08-08T08:17:49Z</time>
      </trkpt>
      <trkpt lat="-21.19939" lon="55.66534">
        <ele>2374.4</ele>
        <time>2013-08-08T08:17:57Z</time>
      </trkpt>
      <trkpt lat="-21.19946" lon="55.6653">
        <ele>2376.7</ele>
        <time>2013-08-08T08:18:07Z</time>
      </trkpt>
      <trkpt lat="-21.19953" lon="55.66524">
        <ele>2377</ele>
        <time>2013-08-08T08:18:14Z</time>
      </trkpt>
      <trkpt lat="-21.1996" lon="55.66519">
        <ele>2377.7</ele>
        <time>2013-08-08T08:18:23Z</time>
      </trkpt>
      <trkpt lat="-21.1996" lon="55.66518">
        <ele>2377.8</ele>
        <time>2013-08-08T08:18:24Z</time>
      </trkpt>
      <trkpt lat="-21.19975" lon="55.66512">
        <ele>2378.9</ele>
        <time>2013-08-08T08:18:39Z</time>
      </trkpt>
      <trkpt lat="-21.19983" lon="55.66511">
        <ele>2378.9</ele>
        <time>2013-08-08T08:18:46Z</time>
      </trkpt>
      <trkpt lat="-21.19991" lon="55.66506">
        <ele>2380.4</ele>
        <time>2013-08-08T08:18:53Z</time>
      </trkpt>
      <trkpt lat="-21.19998" lon="55.66501">
        <ele>2380.1</ele>
        <time>2013-08-08T08:19:00Z</time>
      </trkpt>
      <trkpt lat="-21.20004" lon="55.66496">
        <ele>2380.5</ele>
        <time>2013-08-08T08:19:06Z</time>
      </trkpt>
      <trkpt lat="-21.20008" lon="55.66488">
        <ele>2380.7</ele>
        <time>2013-08-08T08:19:11Z</time>
      </trkpt>
      <trkpt lat="-21.20014" lon="55.66482">
        <ele>2381.3</ele>
        <time>2013-08-08T08:19:18Z</time>
      </trkpt>
      <trkpt lat="-21.20022" lon="55.66481">
        <ele>2379.9</ele>
        <time>2013-08-08T08:19:23Z</time>
      </trkpt>
      <trkpt lat="-21.20028" lon="55.66475">
        <ele>2379.6</ele>
        <time>2013-08-08T08:19:29Z</time>
      </trkpt>
      <trkpt lat="-21.20029" lon="55.66474">
        <ele>2379.9</ele>
        <time>2013-08-08T08:19:30Z</time>
      </trkpt>
      <trkpt lat="-21.20045" lon="55.6647">
        <ele>2381</ele>
        <time>2013-08-08T08:19:43Z</time>
      </trkpt>
      <trkpt lat="-21.20052" lon="55.66466">
        <ele>2381</ele>
        <time>2013-08-08T08:19:49Z</time>
      </trkpt>
      <trkpt lat="-21.2006" lon="55.66463">
        <ele>2380.9</ele>
        <time>2013-08-08T08:19:55Z</time>
      </trkpt>
      <trkpt lat="-21.20067" lon="55.66461">
        <ele>2381.9</ele>
        <time>2013-08-08T08:20:00Z</time>
      </trkpt>
      <trkpt lat="-21.20075" lon="55.66457">
        <ele>2382.1</ele>
        <time>2013-08-08T08:20:07Z</time>
      </trkpt>
      <trkpt lat="-21.20081" lon="55.66451">
        <ele>2381.4</ele>
        <time>2013-08-08T08:20:14Z</time>
      </trkpt>
      <trkpt lat="-21.20087" lon="55.66445">
        <ele>2383.1</ele>
        <time>2013-08-08T08:20:20Z</time>
      </trkpt>
      <trkpt lat="-21.20092" lon="55.66437">
        <ele>2382.2</ele>
        <time>2013-08-08T08:20:26Z</time>
      </trkpt>
      <trkpt lat="-21.20094" lon="55.66429">
        <ele>2381.7</ele>
        <time>2013-08-08T08:20:31Z</time>
      </trkpt>
      <trkpt lat="-21.20095" lon="55.66428">
        <ele>2382</ele>
        <time>2013-08-08T08:20:32Z</time>
      </trkpt>
      <trkpt lat="-21.20082" lon="55.66417">
        <ele>2382.2</ele>
        <time>2013-08-08T08:20:42Z</time>
      </trkpt>
      <trkpt lat="-21.20082" lon="55.66409">
        <ele>2380.1</ele>
        <time>2013-08-08T08:22:04Z</time>
      </trkpt>
      <trkpt lat="-21.20083" lon="55.66407">
        <ele>2380.2</ele>
        <time>2013-08-08T08:22:05Z</time>
      </trkpt>
      <trkpt lat="-21.20085" lon="55.6639">
        <ele>2379.4</ele>
        <time>2013-08-08T08:22:28Z</time>
      </trkpt>
      <trkpt lat="-21.20083" lon="55.66381">
        <ele>2379.3</ele>
        <time>2013-08-08T08:22:36Z</time>
      </trkpt>
      <trkpt lat="-21.20085" lon="55.66372">
        <ele>2378.4</ele>
        <time>2013-08-08T08:22:44Z</time>
      </trkpt>
      <trkpt lat="-21.20086" lon="55.66364">
        <ele>2379</ele>
        <time>2013-08-08T08:22:52Z</time>
      </trkpt>
      <trkpt lat="-21.20092" lon="55.66357">
        <ele>2379.6</ele>
        <time>2013-08-08T08:22:59Z</time>
      </trkpt>
      <trkpt lat="-21.20096" lon="55.66349">
        <ele>2378.3</ele>
        <time>2013-08-08T08:23:07Z</time>
      </trkpt>
      <trkpt lat="-21.20097" lon="55.66347">
        <ele>2378.5</ele>
        <time>2013-08-08T08:23:08Z</time>
      </trkpt>
      <trkpt lat="-21.20104" lon="55.66334">
        <ele>2378.8</ele>
        <time>2013-08-08T08:23:19Z</time>
      </trkpt>
      <trkpt lat="-21.20107" lon="55.66326">
        <ele>2378.5</ele>
        <time>2013-08-08T08:23:25Z</time>
      </trkpt>
      <trkpt lat="-21.20112" lon="55.6632">
        <ele>2378.9</ele>
        <time>2013-08-08T08:23:30Z</time>
      </trkpt>
      <trkpt lat="-21.20117" lon="55.66313">
        <ele>2378</ele>
        <time>2013-08-08T08:23:36Z</time>
      </trkpt>
      <trkpt lat="-21.2012" lon="55.66305">
        <ele>2379.1</ele>
        <time>2013-08-08T08:23:44Z</time>
      </trkpt>
      <trkpt lat="-21.20124" lon="55.66298">
        <ele>2379.9</ele>
        <time>2013-08-08T08:23:49Z</time>
      </trkpt>
      <trkpt lat="-21.2013" lon="55.66292">
        <ele>2379.6</ele>
        <time>2013-08-08T08:23:55Z</time>
      </trkpt>
      <trkpt lat="-21.20134" lon="55.66286">
        <ele>2380.3</ele>
        <time>2013-08-08T08:24:00Z</time>
      </trkpt>
      <trkpt lat="-21.20139" lon="55.66279">
        <ele>2380.1</ele>
        <time>2013-08-08T08:24:05Z</time>
      </trkpt>
      <trkpt lat="-21.20145" lon="55.66273">
        <ele>2380</ele>
        <time>2013-08-08T08:24:11Z</time>
      </trkpt>
      <trkpt lat="-21.20146" lon="55.66271">
        <ele>2380.1</ele>
        <time>2013-08-08T08:24:12Z</time>
      </trkpt>
      <trkpt lat="-21.2015" lon="55.66256">
        <ele>2381.5</ele>
        <time>2013-08-08T08:24:23Z</time>
      </trkpt>
      <trkpt lat="-21.20155" lon="55.66249">
        <ele>2381.2</ele>
        <time>2013-08-08T08:24:29Z</time>
      </trkpt>
      <trkpt lat="-21.20156" lon="55.6624">
        <ele>2382.1</ele>
        <time>2013-08-08T08:24:36Z</time>
      </trkpt>
      <trkpt lat="-21.2016" lon="55.66233">
        <ele>2383</ele>
        <time>2013-08-08T08:24:47Z</time>
      </trkpt>
      <trkpt lat="-21.20167" lon="55.66227">
        <ele>2384.6</ele>
        <time>2013-08-08T08:24:57Z</time>
      </trkpt>
      <trkpt lat="-21.20175" lon="55.66224">
        <ele>2387.2</ele>
        <time>2013-08-08T08:25:06Z</time>
      </trkpt>
      <trkpt lat="-21.20182" lon="55.6622">
        <ele>2388.9</ele>
        <time>2013-08-08T08:25:14Z</time>
      </trkpt>
      <trkpt lat="-21.20183" lon="55.66219">
        <ele>2388.7</ele>
        <time>2013-08-08T08:25:15Z</time>
      </trkpt>
      <trkpt lat="-21.20194" lon="55.66206">
        <ele>2390.2</ele>
        <time>2013-08-08T08:25:50Z</time>
      </trkpt>
      <trkpt lat="-21.20201" lon="55.662">
        <ele>2390.6</ele>
        <time>2013-08-08T08:26:03Z</time>
      </trkpt>
      <trkpt lat="-21.20209" lon="55.66196">
        <ele>2391.8</ele>
        <time>2013-08-08T08:26:11Z</time>
      </trkpt>
      <trkpt lat="-21.20217" lon="55.66193">
        <ele>2392.4</ele>
        <time>2013-08-08T08:26:17Z</time>
      </trkpt>
      <trkpt lat="-21.20218" lon="55.66192">
        <ele>2392.6</ele>
        <time>2013-08-08T08:26:18Z</time>
      </trkpt>
      <trkpt lat="-21.20231" lon="55.66186">
        <ele>2394.1</ele>
        <time>2013-08-08T08:26:33Z</time>
      </trkpt>
      <trkpt lat="-21.20236" lon="55.66178">
        <ele>2395.5</ele>
        <time>2013-08-08T08:26:43Z</time>
      </trkpt>
      <trkpt lat="-21.20242" lon="55.6617">
        <ele>2396.4</ele>
        <time>2013-08-08T08:26:53Z</time>
      </trkpt>
      <trkpt lat="-21.20246" lon="55.66163">
        <ele>2398.7</ele>
        <time>2013-08-08T08:27:03Z</time>
      </trkpt>
      <trkpt lat="-21.20249" lon="55.66154">
        <ele>2399.4</ele>
        <time>2013-08-08T08:27:12Z</time>
      </trkpt>
      <trkpt lat="-21.20254" lon="55.66146">
        <ele>2401.2</ele>
        <time>2013-08-08T08:27:22Z</time>
      </trkpt>
      <trkpt lat="-21.20254" lon="55.66145">
        <ele>2401.2</ele>
        <time>2013-08-08T08:27:23Z</time>
      </trkpt>
      <trkpt lat="-21.20269" lon="55.66138">
        <ele>2404.1</ele>
        <time>2013-08-08T08:27:45Z</time>
      </trkpt>
      <trkpt lat="-21.20276" lon="55.66134">
        <ele>2404.8</ele>
        <time>2013-08-08T08:27:54Z</time>
      </trkpt>
      <trkpt lat="-21.20283" lon="55.66128">
        <ele>2406.6</ele>
        <time>2013-08-08T08:28:01Z</time>
      </trkpt>
      <trkpt lat="-21.20289" lon="55.66122">
        <ele>2408.1</ele>
        <time>2013-08-08T08:28:14Z</time>
      </trkpt>
      <trkpt lat="-21.20297" lon="55.66122">
        <ele>2409.2</ele>
        <time>2013-08-08T08:28:21Z</time>
      </trkpt>
      <trkpt lat="-21.20304" lon="55.66116">
        <ele>2409.4</ele>
        <time>2013-08-08T08:28:29Z</time>
      </trkpt>
      <trkpt lat="-21.20305" lon="55.66116">
        <ele>2409.2</ele>
        <time>2013-08-08T08:28:30Z</time>
      </trkpt>
      <trkpt lat="-21.20309" lon="55.66101">
        <ele>2412.5</ele>
        <time>2013-08-08T08:28:53Z</time>
      </trkpt>
      <trkpt lat="-21.20312" lon="55.66092">
        <ele>2415.5</ele>
        <time>2013-08-08T08:29:09Z</time>
      </trkpt>
      <trkpt lat="-21.20316" lon="55.66083">
        <ele>2417.9</ele>
        <time>2013-08-08T08:29:21Z</time>
      </trkpt>
      <trkpt lat="-21.2032" lon="55.66075">
        <ele>2418</ele>
        <time>2013-08-08T08:29:28Z</time>
      </trkpt>
      <trkpt lat="-21.20321" lon="55.66066">
        <ele>2419.7</ele>
        <time>2013-08-08T08:29:43Z</time>
      </trkpt>
      <trkpt lat="-21.20321" lon="55.66065">
        <ele>2420.5</ele>
        <time>2013-08-08T08:29:44Z</time>
      </trkpt>
      <trkpt lat="-21.20331" lon="55.66051">
        <ele>2421</ele>
        <time>2013-08-08T08:30:15Z</time>
      </trkpt>
      <trkpt lat="-21.20333" lon="55.66042">
        <ele>2417.4</ele>
        <time>2013-08-08T08:30:31Z</time>
      </trkpt>
      <trkpt lat="-21.20334" lon="55.66033">
        <ele>2414.2</ele>
        <time>2013-08-08T08:30:44Z</time>
      </trkpt>
      <trkpt lat="-21.20336" lon="55.66024">
        <ele>2411.3</ele>
        <time>2013-08-08T08:30:56Z</time>
      </trkpt>
      <trkpt lat="-21.20336" lon="55.66023">
        <ele>2411</ele>
        <time>2013-08-08T08:30:57Z</time>
      </trkpt>
      <trkpt lat="-21.20345" lon="55.66008">
        <ele>2407.8</ele>
        <time>2013-08-08T08:31:14Z</time>
      </trkpt>
      <trkpt lat="-21.20347" lon="55.65999">
        <ele>2405.9</ele>
        <time>2013-08-08T08:31:26Z</time>
      </trkpt>
      <trkpt lat="-21.2035" lon="55.6599">
        <ele>2402.5</ele>
        <time>2013-08-08T08:31:39Z</time>
      </trkpt>
      <trkpt lat="-21.20356" lon="55.65983">
        <ele>2400.2</ele>
        <time>2013-08-08T08:31:49Z</time>
      </trkpt>
      <trkpt lat="-21.20362" lon="55.65976">
        <ele>2398.7</ele>
        <time>2013-08-08T08:31:58Z</time>
      </trkpt>
      <trkpt lat="-21.20363" lon="55.65975">
        <ele>2398.5</ele>
        <time>2013-08-08T08:31:59Z</time>
      </trkpt>
      <trkpt lat="-21.20379" lon="55.6597">
        <ele>2398.2</ele>
        <time>2013-08-08T08:32:13Z</time>
      </trkpt>
      <trkpt lat="-21.20383" lon="55.65962">
        <ele>2398</ele>
        <time>2013-08-08T08:32:20Z</time>
      </trkpt>
      <trkpt lat="-21.20389" lon="55.65957">
        <ele>2397.5</ele>
        <time>2013-08-08T08:32:26Z</time>
      </trkpt>
      <trkpt lat="-21.20396" lon="55.65951">
        <ele>2396.1</ele>
        <time>2013-08-08T08:32:32Z</time>
      </trkpt>
      <trkpt lat="-21.20401" lon="55.65945">
        <ele>2396.7</ele>
        <time>2013-08-08T08:32:38Z</time>
      </trkpt>
      <trkpt lat="-21.20406" lon="55.65938">
        <ele>2397.5</ele>
        <time>2013-08-08T08:32:44Z</time>
      </trkpt>
      <trkpt lat="-21.20411" lon="55.65931">
        <ele>2397.4</ele>
        <time>2013-08-08T08:32:50Z</time>
      </trkpt>
      <trkpt lat="-21.20416" lon="55.65925">
        <ele>2397.6</ele>
        <time>2013-08-08T08:32:55Z</time>
      </trkpt>
      <trkpt lat="-21.20423" lon="55.65918">
        <ele>2396.8</ele>
        <time>2013-08-08T08:33:01Z</time>
      </trkpt>
      <trkpt lat="-21.20424" lon="55.65918">
        <ele>2397.3</ele>
        <time>2013-08-08T08:33:02Z</time>
      </trkpt>
      <trkpt lat="-21.20436" lon="55.65908">
        <ele>2398.8</ele>
        <time>2013-08-08T08:33:15Z</time>
      </trkpt>
      <trkpt lat="-21.20443" lon="55.65904">
        <ele>2399.3</ele>
        <time>2013-08-08T08:33:21Z</time>
      </trkpt>
      <trkpt lat="-21.20448" lon="55.65897">
        <ele>2399.5</ele>
        <time>2013-08-08T08:33:27Z</time>
      </trkpt>
      <trkpt lat="-21.20452" lon="55.65889">
        <ele>2398.3</ele>
        <time>2013-08-08T08:33:33Z</time>
      </trkpt>
      <trkpt lat="-21.20453" lon="55.6588">
        <ele>2398.1</ele>
        <time>2013-08-08T08:33:40Z</time>
      </trkpt>
      <trkpt lat="-21.20452" lon="55.65872">
        <ele>2397.4</ele>
        <time>2013-08-08T08:33:45Z</time>
      </trkpt>
      <trkpt lat="-21.20452" lon="55.65864">
        <ele>2396.6</ele>
        <time>2013-08-08T08:33:50Z</time>
      </trkpt>
      <trkpt lat="-21.20452" lon="55.65854">
        <ele>2397.4</ele>
        <time>2013-08-08T08:33:56Z</time>
      </trkpt>
      <trkpt lat="-21.20448" lon="55.65846">
        <ele>2397</ele>
        <time>2013-08-08T08:34:05Z</time>
      </trkpt>
      <trkpt lat="-21.20448" lon="55.65845">
        <ele>2396.9</ele>
        <time>2013-08-08T08:34:06Z</time>
      </trkpt>
      <trkpt lat="-21.20456" lon="55.65832">
        <ele>2395.4</ele>
        <time>2013-08-08T08:34:23Z</time>
      </trkpt>
      <trkpt lat="-21.20463" lon="55.65828">
        <ele>2395.8</ele>
        <time>2013-08-08T08:34:29Z</time>
      </trkpt>
      <trkpt lat="-21.20469" lon="55.65823">
        <ele>2395.3</ele>
        <time>2013-08-08T08:34:35Z</time>
      </trkpt>
      <trkpt lat="-21.20478" lon="55.65821">
        <ele>2394.3</ele>
        <time>2013-08-08T08:34:42Z</time>
      </trkpt>
      <trkpt lat="-21.20484" lon="55.65815">
        <ele>2393.2</ele>
        <time>2013-08-08T08:34:48Z</time>
      </trkpt>
      <trkpt lat="-21.20486" lon="55.65806">
        <ele>2391.9</ele>
        <time>2013-08-08T08:34:56Z</time>
      </trkpt>
      <trkpt lat="-21.20491" lon="55.658">
        <ele>2388.3</ele>
        <time>2013-08-08T08:35:08Z</time>
      </trkpt>
      <trkpt lat="-21.20493" lon="55.65799">
        <ele>2388</ele>
        <time>2013-08-08T08:35:09Z</time>
      </trkpt>
      <trkpt lat="-21.20508" lon="55.65794">
        <ele>2387.5</ele>
        <time>2013-08-08T08:35:20Z</time>
      </trkpt>
      <trkpt lat="-21.20515" lon="55.65789">
        <ele>2388.2</ele>
        <time>2013-08-08T08:35:29Z</time>
      </trkpt>
      <trkpt lat="-21.20523" lon="55.65785">
        <ele>2388.2</ele>
        <time>2013-08-08T08:35:37Z</time>
      </trkpt>
      <trkpt lat="-21.2053" lon="55.65781">
        <ele>2390.2</ele>
        <time>2013-08-08T08:35:43Z</time>
      </trkpt>
      <trkpt lat="-21.20536" lon="55.65775">
        <ele>2391.3</ele>
        <time>2013-08-08T08:35:49Z</time>
      </trkpt>
      <trkpt lat="-21.20542" lon="55.65769">
        <ele>2391.4</ele>
        <time>2013-08-08T08:35:55Z</time>
      </trkpt>
      <trkpt lat="-21.2055" lon="55.65765">
        <ele>2390.9</ele>
        <time>2013-08-08T08:36:01Z</time>
      </trkpt>
      <trkpt lat="-21.20557" lon="55.65761">
        <ele>2391.8</ele>
        <time>2013-08-08T08:36:07Z</time>
      </trkpt>
      <trkpt lat="-21.20565" lon="55.65758">
        <ele>2392.5</ele>
        <time>2013-08-08T08:36:17Z</time>
      </trkpt>
      <trkpt lat="-21.20566" lon="55.65757">
        <ele>2392.6</ele>
        <time>2013-08-08T08:36:18Z</time>
      </trkpt>
      <trkpt lat="-21.2058" lon="55.65749">
        <ele>2393.1</ele>
        <time>2013-08-08T08:36:30Z</time>
      </trkpt>
      <trkpt lat="-21.20587" lon="55.65744">
        <ele>2394.1</ele>
        <time>2013-08-08T08:36:39Z</time>
      </trkpt>
      <trkpt lat="-21.20595" lon="55.65742">
        <ele>2395.3</ele>
        <time>2013-08-08T08:36:48Z</time>
      </trkpt>
      <trkpt lat="-21.20602" lon="55.65736">
        <ele>2397.5</ele>
        <time>2013-08-08T08:37:01Z</time>
      </trkpt>
      <trkpt lat="-21.20609" lon="55.65731">
        <ele>2400.2</ele>
        <time>2013-08-08T08:37:14Z</time>
      </trkpt>
      <trkpt lat="-21.20618" lon="55.6573">
        <ele>2400.9</ele>
        <time>2013-08-08T08:37:22Z</time>
      </trkpt>
      <trkpt lat="-21.20619" lon="55.6573">
        <ele>2401</ele>
        <time>2013-08-08T08:37:23Z</time>
      </trkpt>
      <trkpt lat="-21.20634" lon="55.65727">
        <ele>2400.4</ele>
        <time>2013-08-08T08:37:35Z</time>
      </trkpt>
      <trkpt lat="-21.20641" lon="55.65723">
        <ele>2399.7</ele>
        <time>2013-08-08T08:37:41Z</time>
      </trkpt>
      <trkpt lat="-21.20645" lon="55.65714">
        <ele>2399.3</ele>
        <time>2013-08-08T08:37:46Z</time>
      </trkpt>
      <trkpt lat="-21.20649" lon="55.65706">
        <ele>2398.7</ele>
        <time>2013-08-08T08:37:52Z</time>
      </trkpt>
      <trkpt lat="-21.20654" lon="55.65699">
        <ele>2398.4</ele>
        <time>2013-08-08T08:37:59Z</time>
      </trkpt>
      <trkpt lat="-21.2066" lon="55.65692">
        <ele>2398.1</ele>
        <time>2013-08-08T08:38:05Z</time>
      </trkpt>
      <trkpt lat="-21.20667" lon="55.65688">
        <ele>2399.9</ele>
        <time>2013-08-08T08:38:12Z</time>
      </trkpt>
      <trkpt lat="-21.20674" lon="55.65683">
        <ele>2399.3</ele>
        <time>2013-08-08T08:38:19Z</time>
      </trkpt>
      <trkpt lat="-21.20681" lon="55.65678">
        <ele>2400.6</ele>
        <time>2013-08-08T08:38:26Z</time>
      </trkpt>
      <trkpt lat="-21.20682" lon="55.65677">
        <ele>2401.1</ele>
        <time>2013-08-08T08:38:27Z</time>
      </trkpt>
      <trkpt lat="-21.20696" lon="55.6567">
        <ele>2403.7</ele>
        <time>2013-08-08T08:38:40Z</time>
      </trkpt>
      <trkpt lat="-21.20704" lon="55.65665">
        <ele>2404.2</ele>
        <time>2013-08-08T08:38:48Z</time>
      </trkpt>
      <trkpt lat="-21.20712" lon="55.65665">
        <ele>2405.2</ele>
        <time>2013-08-08T08:38:56Z</time>
      </trkpt>
      <trkpt lat="-21.20719" lon="55.65662">
        <ele>2406.6</ele>
        <time>2013-08-08T08:39:05Z</time>
      </trkpt>
      <trkpt lat="-21.20725" lon="55.65657">
        <ele>2406.7</ele>
        <time>2013-08-08T08:39:11Z</time>
      </trkpt>
      <trkpt lat="-21.20731" lon="55.6565">
        <ele>2406.9</ele>
        <time>2013-08-08T08:39:17Z</time>
      </trkpt>
      <trkpt lat="-21.2074" lon="55.65648">
        <ele>2408.2</ele>
        <time>2013-08-08T08:39:26Z</time>
      </trkpt>
      <trkpt lat="-21.20747" lon="55.65645">
        <ele>2408.5</ele>
        <time>2013-08-08T08:39:33Z</time>
      </trkpt>
      <trkpt lat="-21.20749" lon="55.65644">
        <ele>2408.4</ele>
        <time>2013-08-08T08:39:34Z</time>
      </trkpt>
      <trkpt lat="-21.20764" lon="55.65641">
        <ele>2411.5</ele>
        <time>2013-08-08T08:39:51Z</time>
      </trkpt>
      <trkpt lat="-21.20772" lon="55.65638">
        <ele>2413</ele>
        <time>2013-08-08T08:40:01Z</time>
      </trkpt>
      <trkpt lat="-21.20779" lon="55.65633">
        <ele>2413.6</ele>
        <time>2013-08-08T08:40:07Z</time>
      </trkpt>
      <trkpt lat="-21.20785" lon="55.65627">
        <ele>2412.7</ele>
        <time>2013-08-08T08:40:14Z</time>
      </trkpt>
      <trkpt lat="-21.20792" lon="55.65622">
        <ele>2412.9</ele>
        <time>2013-08-08T08:40:22Z</time>
      </trkpt>
      <trkpt lat="-21.208" lon="55.65619">
        <ele>2414.7</ele>
        <time>2013-08-08T08:40:32Z</time>
      </trkpt>
      <trkpt lat="-21.20809" lon="55.65617">
        <ele>2414.9</ele>
        <time>2013-08-08T08:40:40Z</time>
      </trkpt>
      <trkpt lat="-21.2081" lon="55.65617">
        <ele>2414.6</ele>
        <time>2013-08-08T08:40:41Z</time>
      </trkpt>
      <trkpt lat="-21.20822" lon="55.65608">
        <ele>2415.9</ele>
        <time>2013-08-08T08:40:52Z</time>
      </trkpt>
      <trkpt lat="-21.20828" lon="55.65603">
        <ele>2415.4</ele>
        <time>2013-08-08T08:40:58Z</time>
      </trkpt>
      <trkpt lat="-21.20836" lon="55.65599">
        <ele>2416.7</ele>
        <time>2013-08-08T08:41:04Z</time>
      </trkpt>
      <trkpt lat="-21.20843" lon="55.65595">
        <ele>2417.2</ele>
        <time>2013-08-08T08:41:10Z</time>
      </trkpt>
      <trkpt lat="-21.20851" lon="55.6559">
        <ele>2416.9</ele>
        <time>2013-08-08T08:41:17Z</time>
      </trkpt>
      <trkpt lat="-21.20857" lon="55.65584">
        <ele>2418.1</ele>
        <time>2013-08-08T08:41:24Z</time>
      </trkpt>
      <trkpt lat="-21.20865" lon="55.6558">
        <ele>2418.4</ele>
        <time>2013-08-08T08:41:31Z</time>
      </trkpt>
      <trkpt lat="-21.20873" lon="55.65576">
        <ele>2419</ele>
        <time>2013-08-08T08:41:38Z</time>
      </trkpt>
      <trkpt lat="-21.2088" lon="55.65572">
        <ele>2420.9</ele>
        <time>2013-08-08T08:41:49Z</time>
      </trkpt>
      <trkpt lat="-21.20882" lon="55.65571">
        <ele>2421.1</ele>
        <time>2013-08-08T08:41:50Z</time>
      </trkpt>
      <trkpt lat="-21.20894" lon="55.6556">
        <ele>2424.8</ele>
        <time>2013-08-08T08:42:06Z</time>
      </trkpt>
      <trkpt lat="-21.20902" lon="55.65557">
        <ele>2425.5</ele>
        <time>2013-08-08T08:42:12Z</time>
      </trkpt>
      <trkpt lat="-21.2091" lon="55.65552">
        <ele>2424.5</ele>
        <time>2013-08-08T08:42:20Z</time>
      </trkpt>
      <trkpt lat="-21.20914" lon="55.65545">
        <ele>2425.5</ele>
        <time>2013-08-08T08:42:28Z</time>
      </trkpt>
      <trkpt lat="-21.20921" lon="55.65541">
        <ele>2427.6</ele>
        <time>2013-08-08T08:42:37Z</time>
      </trkpt>
      <trkpt lat="-21.20926" lon="55.65534">
        <ele>2429.7</ele>
        <time>2013-08-08T08:42:49Z</time>
      </trkpt>
      <trkpt lat="-21.20934" lon="55.65529">
        <ele>2432.5</ele>
        <time>2013-08-08T08:43:07Z</time>
      </trkpt>
      <trkpt lat="-21.20934" lon="55.65529">
        <ele>2432.6</ele>
        <time>2013-08-08T08:43:08Z</time>
      </trkpt>
      <trkpt lat="-21.20947" lon="55.65518">
        <ele>2440.8</ele>
        <time>2013-08-08T08:43:36Z</time>
      </trkpt>
      <trkpt lat="-21.20956" lon="55.65518">
        <ele>2438.2</ele>
        <time>2013-08-08T08:43:47Z</time>
      </trkpt>
      <trkpt lat="-21.20963" lon="55.65518">
        <ele>2437.2</ele>
        <time>2013-08-08T08:43:54Z</time>
      </trkpt>
      <trkpt lat="-21.2097" lon="55.65514">
        <ele>2435.7</ele>
        <time>2013-08-08T08:44:00Z</time>
      </trkpt>
      <trkpt lat="-21.20979" lon="55.65512">
        <ele>2433.4</ele>
        <time>2013-08-08T08:44:07Z</time>
      </trkpt>
      <trkpt lat="-21.20987" lon="55.65509">
        <ele>2433.8</ele>
        <time>2013-08-08T08:44:14Z</time>
      </trkpt>
      <trkpt lat="-21.20989" lon="55.65509">
        <ele>2433.7</ele>
        <time>2013-08-08T08:44:15Z</time>
      </trkpt>
      <trkpt lat="-21.21002" lon="55.655">
        <ele>2433.7</ele>
        <time>2013-08-08T08:44:25Z</time>
      </trkpt>
      <trkpt lat="-21.2101" lon="55.65496">
        <ele>2434.9</ele>
        <time>2013-08-08T08:44:29Z</time>
      </trkpt>
      <trkpt lat="-21.21017" lon="55.65492">
        <ele>2433.7</ele>
        <time>2013-08-08T08:44:33Z</time>
      </trkpt>
      <trkpt lat="-21.21024" lon="55.65487">
        <ele>2433.9</ele>
        <time>2013-08-08T08:44:38Z</time>
      </trkpt>
      <trkpt lat="-21.2103" lon="55.65481">
        <ele>2434</ele>
        <time>2013-08-08T08:44:43Z</time>
      </trkpt>
      <trkpt lat="-21.21037" lon="55.65476">
        <ele>2436.2</ele>
        <time>2013-08-08T08:44:48Z</time>
      </trkpt>
      <trkpt lat="-21.21044" lon="55.6547">
        <ele>2437.1</ele>
        <time>2013-08-08T08:44:54Z</time>
      </trkpt>
      <trkpt lat="-21.21051" lon="55.65465">
        <ele>2437.8</ele>
        <time>2013-08-08T08:45:01Z</time>
      </trkpt>
      <trkpt lat="-21.21058" lon="55.65461">
        <ele>2437.9</ele>
        <time>2013-08-08T08:45:07Z</time>
      </trkpt>
      <trkpt lat="-21.21066" lon="55.65457">
        <ele>2436.5</ele>
        <time>2013-08-08T08:45:14Z</time>
      </trkpt>
      <trkpt lat="-21.21074" lon="55.65456">
        <ele>2435.9</ele>
        <time>2013-08-08T08:45:21Z</time>
      </trkpt>
      <trkpt lat="-21.21075" lon="55.65455">
        <ele>2435.7</ele>
        <time>2013-08-08T08:45:22Z</time>
      </trkpt>
      <trkpt lat="-21.2109" lon="55.6545">
        <ele>2435.9</ele>
        <time>2013-08-08T08:45:46Z</time>
      </trkpt>
      <trkpt lat="-21.21082" lon="55.65449">
        <ele>2434.2</ele>
        <time>2013-08-08T08:47:52Z</time>
      </trkpt>
      <trkpt lat="-21.21081" lon="55.65449">
        <ele>2434.2</ele>
        <time>2013-08-08T08:47:53Z</time>
      </trkpt>
      <trkpt lat="-21.21069" lon="55.65437">
        <ele>2432.5</ele>
        <time>2013-08-08T08:48:19Z</time>
      </trkpt>
      <trkpt lat="-21.21063" lon="55.65431">
        <ele>2432.2</ele>
        <time>2013-08-08T08:48:26Z</time>
      </trkpt>
      <trkpt lat="-21.21059" lon="55.65423">
        <ele>2429.2</ele>
        <time>2013-08-08T08:48:37Z</time>
      </trkpt>
      <trkpt lat="-21.21056" lon="55.65416">
        <ele>2426.3</ele>
        <time>2013-08-08T08:48:46Z</time>
      </trkpt>
      <trkpt lat="-21.21048" lon="55.65412">
        <ele>2425.4</ele>
        <time>2013-08-08T08:48:53Z</time>
      </trkpt>
      <trkpt lat="-21.21047" lon="55.65411">
        <ele>2425.3</ele>
        <time>2013-08-08T08:48:54Z</time>
      </trkpt>
      <trkpt lat="-21.21034" lon="55.65402">
        <ele>2424</ele>
        <time>2013-08-08T08:49:07Z</time>
      </trkpt>
      <trkpt lat="-21.21026" lon="55.65398">
        <ele>2423.3</ele>
        <time>2013-08-08T08:49:19Z</time>
      </trkpt>
      <trkpt lat="-21.21019" lon="55.65395">
        <ele>2421.5</ele>
        <time>2013-08-08T08:49:28Z</time>
      </trkpt>
      <trkpt lat="-21.2101" lon="55.65393">
        <ele>2419.6</ele>
        <time>2013-08-08T08:49:35Z</time>
      </trkpt>
      <trkpt lat="-21.21002" lon="55.65394">
        <ele>2418.4</ele>
        <time>2013-08-08T08:49:45Z</time>
      </trkpt>
      <trkpt lat="-21.20994" lon="55.65398">
        <ele>2415.4</ele>
        <time>2013-08-08T08:49:53Z</time>
      </trkpt>
      <trkpt lat="-21.20986" lon="55.65396">
        <ele>2412.6</ele>
        <time>2013-08-08T08:50:05Z</time>
      </trkpt>
      <trkpt lat="-21.20986" lon="55.65395">
        <ele>2412.5</ele>
        <time>2013-08-08T08:50:06Z</time>
      </trkpt>
      <trkpt lat="-21.20981" lon="55.65379">
        <ele>2409.8</ele>
        <time>2013-08-08T08:50:22Z</time>
      </trkpt>
      <trkpt lat="-21.20978" lon="55.6537">
        <ele>2407.8</ele>
        <time>2013-08-08T08:50:30Z</time>
      </trkpt>
      <trkpt lat="-21.20971" lon="55.65365">
        <ele>2406.1</ele>
        <time>2013-08-08T08:50:38Z</time>
      </trkpt>
      <trkpt lat="-21.20965" lon="55.65361">
        <ele>2405.7</ele>
        <time>2013-08-08T08:50:43Z</time>
      </trkpt>
      <trkpt lat="-21.20958" lon="55.65356">
        <ele>2404.2</ele>
        <time>2013-08-08T08:50:48Z</time>
      </trkpt>
      <trkpt lat="-21.20951" lon="55.6535">
        <ele>2404.1</ele>
        <time>2013-08-08T08:50:54Z</time>
      </trkpt>
      <trkpt lat="-21.20943" lon="55.65347">
        <ele>2404.5</ele>
        <time>2013-08-08T08:51:00Z</time>
      </trkpt>
      <trkpt lat="-21.20936" lon="55.65342">
        <ele>2403.3</ele>
        <time>2013-08-08T08:51:11Z</time>
      </trkpt>
      <trkpt lat="-21.20935" lon="55.65341">
        <ele>2403.3</ele>
        <time>2013-08-08T08:51:12Z</time>
      </trkpt>
      <trkpt lat="-21.2092" lon="55.65335">
        <ele>2400.7</ele>
        <time>2013-08-08T08:51:35Z</time>
      </trkpt>
      <trkpt lat="-21.20913" lon="55.65332">
        <ele>2400.1</ele>
        <time>2013-08-08T08:51:41Z</time>
      </trkpt>
      <trkpt lat="-21.20906" lon="55.6533">
        <ele>2400.1</ele>
        <time>2013-08-08T08:51:46Z</time>
      </trkpt>
      <trkpt lat="-21.20898" lon="55.65327">
        <ele>2399.1</ele>
        <time>2013-08-08T08:51:51Z</time>
      </trkpt>
      <trkpt lat="-21.2089" lon="55.65326">
        <ele>2398.2</ele>
        <time>2013-08-08T08:51:57Z</time>
      </trkpt>
      <trkpt lat="-21.20882" lon="55.65324">
        <ele>2398.3</ele>
        <time>2013-08-08T08:52:03Z</time>
      </trkpt>
      <trkpt lat="-21.20875" lon="55.65323">
        <ele>2397.2</ele>
        <time>2013-08-08T08:52:09Z</time>
      </trkpt>
      <trkpt lat="-21.20866" lon="55.65323">
        <ele>2396.8</ele>
        <time>2013-08-08T08:52:19Z</time>
      </trkpt>
      <trkpt lat="-21.20865" lon="55.65323">
        <ele>2396.5</ele>
        <time>2013-08-08T08:52:20Z</time>
      </trkpt>
      <trkpt lat="-21.20849" lon="55.65319">
        <ele>2396.3</ele>
        <time>2013-08-08T08:52:30Z</time>
      </trkpt>
      <trkpt lat="-21.20841" lon="55.65316">
        <ele>2396.1</ele>
        <time>2013-08-08T08:52:35Z</time>
      </trkpt>
      <trkpt lat="-21.20833" lon="55.65312">
        <ele>2395.5</ele>
        <time>2013-08-08T08:52:40Z</time>
      </trkpt>
      <trkpt lat="-21.20825" lon="55.65311">
        <ele>2395.3</ele>
        <time>2013-08-08T08:52:46Z</time>
      </trkpt>
      <trkpt lat="-21.20818" lon="55.65308">
        <ele>2395.1</ele>
        <time>2013-08-08T08:52:52Z</time>
      </trkpt>
      <trkpt lat="-21.20809" lon="55.65307">
        <ele>2395.2</ele>
        <time>2013-08-08T08:52:58Z</time>
      </trkpt>
      <trkpt lat="-21.20801" lon="55.65305">
        <ele>2393.2</ele>
        <time>2013-08-08T08:53:05Z</time>
      </trkpt>
      <trkpt lat="-21.20793" lon="55.65303">
        <ele>2391.7</ele>
        <time>2013-08-08T08:53:11Z</time>
      </trkpt>
      <trkpt lat="-21.20785" lon="55.65301">
        <ele>2392.4</ele>
        <time>2013-08-08T08:53:17Z</time>
      </trkpt>
      <trkpt lat="-21.20777" lon="55.65299">
        <ele>2391.1</ele>
        <time>2013-08-08T08:53:22Z</time>
      </trkpt>
      <trkpt lat="-21.20776" lon="55.65298">
        <ele>2390.8</ele>
        <time>2013-08-08T08:53:23Z</time>
      </trkpt>
      <trkpt lat="-21.20763" lon="55.65292">
        <ele>2388.4</ele>
        <time>2013-08-08T08:53:31Z</time>
      </trkpt>
      <trkpt lat="-21.20756" lon="55.65288">
        <ele>2389.2</ele>
        <time>2013-08-08T08:53:36Z</time>
      </trkpt>
      <trkpt lat="-21.20749" lon="55.65285">
        <ele>2389.1</ele>
        <time>2013-08-08T08:53:41Z</time>
      </trkpt>
      <trkpt lat="-21.2074" lon="55.65283">
        <ele>2388.4</ele>
        <time>2013-08-08T08:53:46Z</time>
      </trkpt>
      <trkpt lat="-21.20733" lon="55.65278">
        <ele>2387.6</ele>
        <time>2013-08-08T08:53:52Z</time>
      </trkpt>
      <trkpt lat="-21.20725" lon="55.65275">
        <ele>2387.5</ele>
        <time>2013-08-08T08:53:57Z</time>
      </trkpt>
      <trkpt lat="-21.20717" lon="55.65273">
        <ele>2386.4</ele>
        <time>2013-08-08T08:54:02Z</time>
      </trkpt>
      <trkpt lat="-21.20709" lon="55.65271">
        <ele>2386.2</ele>
        <time>2013-08-08T08:54:08Z</time>
      </trkpt>
      <trkpt lat="-21.20701" lon="55.65268">
        <ele>2386.2</ele>
        <time>2013-08-08T08:54:13Z</time>
      </trkpt>
      <trkpt lat="-21.20694" lon="55.65265">
        <ele>2384.7</ele>
        <time>2013-08-08T08:54:18Z</time>
      </trkpt>
      <trkpt lat="-21.20686" lon="55.65262">
        <ele>2384.3</ele>
        <time>2013-08-08T08:54:23Z</time>
      </trkpt>
      <trkpt lat="-21.20677" lon="55.65259">
        <ele>2383.5</ele>
        <time>2013-08-08T08:54:29Z</time>
      </trkpt>
      <trkpt lat="-21.20676" lon="55.65259">
        <ele>2383.5</ele>
        <time>2013-08-08T08:54:30Z</time>
      </trkpt>
      <trkpt lat="-21.20662" lon="55.65254">
        <ele>2382.9</ele>
        <time>2013-08-08T08:54:42Z</time>
      </trkpt>
      <trkpt lat="-21.20655" lon="55.65251">
        <ele>2382.6</ele>
        <time>2013-08-08T08:54:48Z</time>
      </trkpt>
      <trkpt lat="-21.20646" lon="55.65248">
        <ele>2382.3</ele>
        <time>2013-08-08T08:54:54Z</time>
      </trkpt>
      <trkpt lat="-21.2064" lon="55.65245">
        <ele>2381.5</ele>
        <time>2013-08-08T08:54:59Z</time>
      </trkpt>
      <trkpt lat="-21.20632" lon="55.65242">
        <ele>2381</ele>
        <time>2013-08-08T08:55:05Z</time>
      </trkpt>
      <trkpt lat="-21.20624" lon="55.65239">
        <ele>2380.7</ele>
        <time>2013-08-08T08:55:11Z</time>
      </trkpt>
      <trkpt lat="-21.20617" lon="55.65236">
        <ele>2380.9</ele>
        <time>2013-08-08T08:55:18Z</time>
      </trkpt>
      <trkpt lat="-21.20608" lon="55.65233">
        <ele>2381.8</ele>
        <time>2013-08-08T08:55:24Z</time>
      </trkpt>
      <trkpt lat="-21.20601" lon="55.65229">
        <ele>2381</ele>
        <time>2013-08-08T08:55:30Z</time>
      </trkpt>
      <trkpt lat="-21.20593" lon="55.65227">
        <ele>2381.5</ele>
        <time>2013-08-08T08:55:35Z</time>
      </trkpt>
      <trkpt lat="-21.20592" lon="55.65226">
        <ele>2381.4</ele>
        <time>2013-08-08T08:55:36Z</time>
      </trkpt>
      <trkpt lat="-21.20577" lon="55.6522">
        <ele>2380.6</ele>
        <time>2013-08-08T08:55:46Z</time>
      </trkpt>
      <trkpt lat="-21.2057" lon="55.65217">
        <ele>2380.2</ele>
        <time>2013-08-08T08:55:51Z</time>
      </trkpt>
      <trkpt lat="-21.20562" lon="55.65214">
        <ele>2380.8</ele>
        <time>2013-08-08T08:55:56Z</time>
      </trkpt>
      <trkpt lat="-21.20554" lon="55.65211">
        <ele>2380.9</ele>
        <time>2013-08-08T08:56:02Z</time>
      </trkpt>
      <trkpt lat="-21.20547" lon="55.65207">
        <ele>2379.8</ele>
        <time>2013-08-08T08:56:08Z</time>
      </trkpt>
      <trkpt lat="-21.20539" lon="55.65205">
        <ele>2379.7</ele>
        <time>2013-08-08T08:56:14Z</time>
      </trkpt>
      <trkpt lat="-21.2053" lon="55.65203">
        <ele>2379.2</ele>
        <time>2013-08-08T08:56:20Z</time>
      </trkpt>
      <trkpt lat="-21.20522" lon="55.65202">
        <ele>2379.7</ele>
        <time>2013-08-08T08:56:27Z</time>
      </trkpt>
      <trkpt lat="-21.20513" lon="55.65199">
        <ele>2378.4</ele>
        <time>2013-08-08T08:56:33Z</time>
      </trkpt>
      <trkpt lat="-21.20505" lon="55.65198">
        <ele>2379</ele>
        <time>2013-08-08T08:56:38Z</time>
      </trkpt>
      <trkpt lat="-21.20504" lon="55.65197">
        <ele>2378.6</ele>
        <time>2013-08-08T08:56:39Z</time>
      </trkpt>
      <trkpt lat="-21.2049" lon="55.65195">
        <ele>2377.2</ele>
        <time>2013-08-08T08:56:49Z</time>
      </trkpt>
      <trkpt lat="-21.20481" lon="55.65191">
        <ele>2376.8</ele>
        <time>2013-08-08T08:56:55Z</time>
      </trkpt>
      <trkpt lat="-21.20475" lon="55.65189">
        <ele>2376.9</ele>
        <time>2013-08-08T08:56:59Z</time>
      </trkpt>
      <trkpt lat="-21.20468" lon="55.65185">
        <ele>2376.7</ele>
        <time>2013-08-08T08:57:04Z</time>
      </trkpt>
      <trkpt lat="-21.2046" lon="55.65181">
        <ele>2376.7</ele>
        <time>2013-08-08T08:57:09Z</time>
      </trkpt>
      <trkpt lat="-21.20453" lon="55.65178">
        <ele>2376.7</ele>
        <time>2013-08-08T08:57:14Z</time>
      </trkpt>
      <trkpt lat="-21.20446" lon="55.65174">
        <ele>2376.3</ele>
        <time>2013-08-08T08:57:18Z</time>
      </trkpt>
      <trkpt lat="-21.20439" lon="55.65172">
        <ele>2376</ele>
        <time>2013-08-08T08:57:22Z</time>
      </trkpt>
      <trkpt lat="-21.20432" lon="55.65166">
        <ele>2375.1</ele>
        <time>2013-08-08T08:57:27Z</time>
      </trkpt>
      <trkpt lat="-21.20424" lon="55.65163">
        <ele>2375.5</ele>
        <time>2013-08-08T08:57:32Z</time>
      </trkpt>
      <trkpt lat="-21.20416" lon="55.65159">
        <ele>2376.4</ele>
        <time>2013-08-08T08:57:38Z</time>
      </trkpt>
      <trkpt lat="-21.2041" lon="55.65154">
        <ele>2376.4</ele>
        <time>2013-08-08T08:57:43Z</time>
      </trkpt>
      <trkpt lat="-21.20409" lon="55.65153">
        <ele>2376.5</ele>
        <time>2013-08-08T08:57:44Z</time>
      </trkpt>
      <trkpt lat="-21.20399" lon="55.6514">
        <ele>2375.7</ele>
        <time>2013-08-08T08:57:55Z</time>
      </trkpt>
      <trkpt lat="-21.20394" lon="55.65134">
        <ele>2375.1</ele>
        <time>2013-08-08T08:57:59Z</time>
      </trkpt>
      <trkpt lat="-21.20388" lon="55.65129">
        <ele>2375</ele>
        <time>2013-08-08T08:58:04Z</time>
      </trkpt>
      <trkpt lat="-21.20381" lon="55.65124">
        <ele>2374.1</ele>
        <time>2013-08-08T08:58:08Z</time>
      </trkpt>
      <trkpt lat="-21.20375" lon="55.6512">
        <ele>2374.5</ele>
        <time>2013-08-08T08:58:12Z</time>
      </trkpt>
      <trkpt lat="-21.20366" lon="55.65117">
        <ele>2373.4</ele>
        <time>2013-08-08T08:58:17Z</time>
      </trkpt>
      <trkpt lat="-21.2036" lon="55.65113">
        <ele>2372.6</ele>
        <time>2013-08-08T08:58:21Z</time>
      </trkpt>
      <trkpt lat="-21.20353" lon="55.65109">
        <ele>2372.9</ele>
        <time>2013-08-08T08:58:26Z</time>
      </trkpt>
      <trkpt lat="-21.20346" lon="55.65105">
        <ele>2372.5</ele>
        <time>2013-08-08T08:58:32Z</time>
      </trkpt>
      <trkpt lat="-21.20339" lon="55.65101">
        <ele>2371.7</ele>
        <time>2013-08-08T08:58:37Z</time>
      </trkpt>
      <trkpt lat="-21.20332" lon="55.65097">
        <ele>2371.9</ele>
        <time>2013-08-08T08:58:43Z</time>
      </trkpt>
      <trkpt lat="-21.20324" lon="55.65093">
        <ele>2371.1</ele>
        <time>2013-08-08T08:58:48Z</time>
      </trkpt>
      <trkpt lat="-21.20322" lon="55.65093">
        <ele>2370.9</ele>
        <time>2013-08-08T08:58:49Z</time>
      </trkpt>
      <trkpt lat="-21.20312" lon="55.65081">
        <ele>2370.5</ele>
        <time>2013-08-08T08:59:01Z</time>
      </trkpt>
      <trkpt lat="-21.20306" lon="55.65074">
        <ele>2369.9</ele>
        <time>2013-08-08T08:59:06Z</time>
      </trkpt>
      <trkpt lat="-21.20298" lon="55.65072">
        <ele>2369.4</ele>
        <time>2013-08-08T08:59:12Z</time>
      </trkpt>
      <trkpt lat="-21.2029" lon="55.65074">
        <ele>2369.1</ele>
        <time>2013-08-08T08:59:17Z</time>
      </trkpt>
      <trkpt lat="-21.20282" lon="55.65073">
        <ele>2368.5</ele>
        <time>2013-08-08T08:59:23Z</time>
      </trkpt>
      <trkpt lat="-21.20274" lon="55.65073">
        <ele>2367.9</ele>
        <time>2013-08-08T08:59:28Z</time>
      </trkpt>
      <trkpt lat="-21.20265" lon="55.65071">
        <ele>2367.7</ele>
        <time>2013-08-08T08:59:34Z</time>
      </trkpt>
      <trkpt lat="-21.20258" lon="55.65066">
        <ele>2368.5</ele>
        <time>2013-08-08T08:59:41Z</time>
      </trkpt>
      <trkpt lat="-21.20252" lon="55.6506">
        <ele>2368.3</ele>
        <time>2013-08-08T08:59:47Z</time>
      </trkpt>
      <trkpt lat="-21.20245" lon="55.65056">
        <ele>2368.7</ele>
        <time>2013-08-08T08:59:52Z</time>
      </trkpt>
      <trkpt lat="-21.20244" lon="55.65055">
        <ele>2368.6</ele>
        <time>2013-08-08T08:59:53Z</time>
      </trkpt>
      <trkpt lat="-21.20235" lon="55.6504">
        <ele>2369.8</ele>
        <time>2013-08-08T09:00:05Z</time>
      </trkpt>
      <trkpt lat="-21.20229" lon="55.65034">
        <ele>2370</ele>
        <time>2013-08-08T09:00:10Z</time>
      </trkpt>
      <trkpt lat="-21.20225" lon="55.65027">
        <ele>2369.1</ele>
        <time>2013-08-08T09:00:16Z</time>
      </trkpt>
      <trkpt lat="-21.20222" lon="55.65018">
        <ele>2368.4</ele>
        <time>2013-08-08T09:00:22Z</time>
      </trkpt>
      <trkpt lat="-21.20219" lon="55.65011">
        <ele>2367.4</ele>
        <time>2013-08-08T09:00:27Z</time>
      </trkpt>
      <trkpt lat="-21.20216" lon="55.65002">
        <ele>2367.2</ele>
        <time>2013-08-08T09:00:33Z</time>
      </trkpt>
      <trkpt lat="-21.20213" lon="55.64995">
        <ele>2366.3</ele>
        <time>2013-08-08T09:00:39Z</time>
      </trkpt>
      <trkpt lat="-21.20209" lon="55.64986">
        <ele>2364.3</ele>
        <time>2013-08-08T09:00:46Z</time>
      </trkpt>
      <trkpt lat="-21.20207" lon="55.64978">
        <ele>2363.6</ele>
        <time>2013-08-08T09:00:51Z</time>
      </trkpt>
      <trkpt lat="-21.20204" lon="55.64971">
        <ele>2362.5</ele>
        <time>2013-08-08T09:00:56Z</time>
      </trkpt>
      <trkpt lat="-21.20204" lon="55.64969">
        <ele>2362.3</ele>
        <time>2013-08-08T09:00:57Z</time>
      </trkpt>
      <trkpt lat="-21.20199" lon="55.64955">
        <ele>2361.8</ele>
        <time>2013-08-08T09:01:06Z</time>
      </trkpt>
      <trkpt lat="-21.20196" lon="55.64948">
        <ele>2360.6</ele>
        <time>2013-08-08T09:01:11Z</time>
      </trkpt>
      <trkpt lat="-21.20192" lon="55.64939">
        <ele>2360.2</ele>
        <time>2013-08-08T09:01:17Z</time>
      </trkpt>
      <trkpt lat="-21.20188" lon="55.64931">
        <ele>2359.4</ele>
        <time>2013-08-08T09:01:23Z</time>
      </trkpt>
      <trkpt lat="-21.20184" lon="55.64923">
        <ele>2358.4</ele>
        <time>2013-08-08T09:01:29Z</time>
      </trkpt>
      <trkpt lat="-21.2018" lon="55.64915">
        <ele>2357.1</ele>
        <time>2013-08-08T09:01:36Z</time>
      </trkpt>
      <trkpt lat="-21.20174" lon="55.64908">
        <ele>2356.6</ele>
        <time>2013-08-08T09:01:43Z</time>
      </trkpt>
      <trkpt lat="-21.2017" lon="55.649">
        <ele>2356.1</ele>
        <time>2013-08-08T09:01:49Z</time>
      </trkpt>
      <trkpt lat="-21.20164" lon="55.64895">
        <ele>2356.8</ele>
        <time>2013-08-08T09:01:55Z</time>
      </trkpt>
      <trkpt lat="-21.2016" lon="55.64887">
        <ele>2356.5</ele>
        <time>2013-08-08T09:02:02Z</time>
      </trkpt>
      <trkpt lat="-21.20159" lon="55.64886">
        <ele>2356.4</ele>
        <time>2013-08-08T09:02:03Z</time>
      </trkpt>
      <trkpt lat="-21.20146" lon="55.64876">
        <ele>2359.1</ele>
        <time>2013-08-08T09:02:17Z</time>
      </trkpt>
      <trkpt lat="-21.2014" lon="55.6487">
        <ele>2359.5</ele>
        <time>2013-08-08T09:02:23Z</time>
      </trkpt>
      <trkpt lat="-21.20134" lon="55.64863">
        <ele>2360.5</ele>
        <time>2013-08-08T09:02:29Z</time>
      </trkpt>
      <trkpt lat="-21.20132" lon="55.64854">
        <ele>2359.1</ele>
        <time>2013-08-08T09:02:35Z</time>
      </trkpt>
      <trkpt lat="-21.20128" lon="55.64847">
        <ele>2359.3</ele>
        <time>2013-08-08T09:02:41Z</time>
      </trkpt>
      <trkpt lat="-21.20125" lon="55.64838">
        <ele>2358.4</ele>
        <time>2013-08-08T09:02:48Z</time>
      </trkpt>
      <trkpt lat="-21.20121" lon="55.6483">
        <ele>2355.5</ele>
        <time>2013-08-08T09:02:55Z</time>
      </trkpt>
      <trkpt lat="-21.20118" lon="55.64822">
        <ele>2353.9</ele>
        <time>2013-08-08T09:03:04Z</time>
      </trkpt>
      <trkpt lat="-21.20118" lon="55.64821">
        <ele>2353.9</ele>
        <time>2013-08-08T09:03:05Z</time>
      </trkpt>
      <trkpt lat="-21.20118" lon="55.64803">
        <ele>2350.1</ele>
        <time>2013-08-08T09:03:23Z</time>
      </trkpt>
      <trkpt lat="-21.20112" lon="55.64797">
        <ele>2347.9</ele>
        <time>2013-08-08T09:03:49Z</time>
      </trkpt>
      <trkpt lat="-21.20104" lon="55.64795">
        <ele>2345.6</ele>
        <time>2013-08-08T09:03:58Z</time>
      </trkpt>
      <trkpt lat="-21.20096" lon="55.64792">
        <ele>2343.4</ele>
        <time>2013-08-08T09:04:07Z</time>
      </trkpt>
      <trkpt lat="-21.20094" lon="55.64792">
        <ele>2343.1</ele>
        <time>2013-08-08T09:04:08Z</time>
      </trkpt>
      <trkpt lat="-21.20079" lon="55.64788">
        <ele>2339.5</ele>
        <time>2013-08-08T09:04:26Z</time>
      </trkpt>
      <trkpt lat="-21.2007" lon="55.64787">
        <ele>2337.9</ele>
        <time>2013-08-08T09:04:34Z</time>
      </trkpt>
      <trkpt lat="-21.20062" lon="55.64785">
        <ele>2337.5</ele>
        <time>2013-08-08T09:04:41Z</time>
      </trkpt>
      <trkpt lat="-21.20055" lon="55.64781">
        <ele>2335.9</ele>
        <time>2013-08-08T09:04:47Z</time>
      </trkpt>
      <trkpt lat="-21.20048" lon="55.64776">
        <ele>2334.8</ele>
        <time>2013-08-08T09:04:54Z</time>
      </trkpt>
      <trkpt lat="-21.20039" lon="55.64773">
        <ele>2333.5</ele>
        <time>2013-08-08T09:05:01Z</time>
      </trkpt>
      <trkpt lat="-21.20031" lon="55.6477">
        <ele>2331.9</ele>
        <time>2013-08-08T09:05:08Z</time>
      </trkpt>
      <trkpt lat="-21.2003" lon="55.64769">
        <ele>2332</ele>
        <time>2013-08-08T09:05:09Z</time>
      </trkpt>
      <trkpt lat="-21.20016" lon="55.64764">
        <ele>2332.2</ele>
        <time>2013-08-08T09:05:20Z</time>
      </trkpt>
      <trkpt lat="-21.20008" lon="55.64761">
        <ele>2331.8</ele>
        <time>2013-08-08T09:05:26Z</time>
      </trkpt>
      <trkpt lat="-21.2" lon="55.64758">
        <ele>2331</ele>
        <time>2013-08-08T09:05:33Z</time>
      </trkpt>
      <trkpt lat="-21.19993" lon="55.64755">
        <ele>2329.8</ele>
        <time>2013-08-08T09:05:40Z</time>
      </trkpt>
      <trkpt lat="-21.19987" lon="55.64748">
        <ele>2329.7</ele>
        <time>2013-08-08T09:05:46Z</time>
      </trkpt>
      <trkpt lat="-21.19981" lon="55.64742">
        <ele>2328.8</ele>
        <time>2013-08-08T09:05:53Z</time>
      </trkpt>
      <trkpt lat="-21.19974" lon="55.64738">
        <ele>2327</ele>
        <time>2013-08-08T09:06:01Z</time>
      </trkpt>
      <trkpt lat="-21.19967" lon="55.64733">
        <ele>2325.4</ele>
        <time>2013-08-08T09:06:09Z</time>
      </trkpt>
      <trkpt lat="-21.1996" lon="55.64728">
        <ele>2324.1</ele>
        <time>2013-08-08T09:06:16Z</time>
      </trkpt>
      <trkpt lat="-21.19959" lon="55.64727">
        <ele>2323.9</ele>
        <time>2013-08-08T09:06:17Z</time>
      </trkpt>
      <trkpt lat="-21.19949" lon="55.64714">
        <ele>2320.8</ele>
        <time>2013-08-08T09:06:33Z</time>
      </trkpt>
      <trkpt lat="-21.19944" lon="55.64707">
        <ele>2320.1</ele>
        <time>2013-08-08T09:06:40Z</time>
      </trkpt>
      <trkpt lat="-21.1994" lon="55.64699">
        <ele>2318.5</ele>
        <time>2013-08-08T09:06:47Z</time>
      </trkpt>
      <trkpt lat="-21.19936" lon="55.64691">
        <ele>2317.6</ele>
        <time>2013-08-08T09:06:55Z</time>
      </trkpt>
      <trkpt lat="-21.19932" lon="55.64684">
        <ele>2316.2</ele>
        <time>2013-08-08T09:07:01Z</time>
      </trkpt>
      <trkpt lat="-21.19929" lon="55.64676">
        <ele>2315.2</ele>
        <time>2013-08-08T09:07:06Z</time>
      </trkpt>
      <trkpt lat="-21.19926" lon="55.64668">
        <ele>2315.5</ele>
        <time>2013-08-08T09:07:11Z</time>
      </trkpt>
      <trkpt lat="-21.19925" lon="55.64659">
        <ele>2314</ele>
        <time>2013-08-08T09:07:16Z</time>
      </trkpt>
      <trkpt lat="-21.19919" lon="55.64652">
        <ele>2313.1</ele>
        <time>2013-08-08T09:07:21Z</time>
      </trkpt>
      <trkpt lat="-21.19918" lon="55.64651">
        <ele>2313</ele>
        <time>2013-08-08T09:07:22Z</time>
      </trkpt>
      <trkpt lat="-21.19909" lon="55.64639">
        <ele>2311.3</ele>
        <time>2013-08-08T09:07:31Z</time>
      </trkpt>
      <trkpt lat="-21.19902" lon="55.64636">
        <ele>2309.3</ele>
        <time>2013-08-08T09:07:36Z</time>
      </trkpt>
      <trkpt lat="-21.19893" lon="55.64636">
        <ele>2308.9</ele>
        <time>2013-08-08T09:07:42Z</time>
      </trkpt>
      <trkpt lat="-21.19887" lon="55.6463">
        <ele>2308.1</ele>
        <time>2013-08-08T09:07:47Z</time>
      </trkpt>
      <trkpt lat="-21.1988" lon="55.64626">
        <ele>2306.2</ele>
        <time>2013-08-08T09:07:52Z</time>
      </trkpt>
      <trkpt lat="-21.19873" lon="55.6462">
        <ele>2304.8</ele>
        <time>2013-08-08T09:07:56Z</time>
      </trkpt>
      <trkpt lat="-21.19866" lon="55.64618">
        <ele>2304</ele>
        <time>2013-08-08T09:08:01Z</time>
      </trkpt>
      <trkpt lat="-21.19857" lon="55.64617">
        <ele>2304.3</ele>
        <time>2013-08-08T09:08:05Z</time>
      </trkpt>
      <trkpt lat="-21.19849" lon="55.64616">
        <ele>2304.1</ele>
        <time>2013-08-08T09:08:11Z</time>
      </trkpt>
      <trkpt lat="-21.19841" lon="55.64615">
        <ele>2304.9</ele>
        <time>2013-08-08T09:08:17Z</time>
      </trkpt>
      <trkpt lat="-21.19833" lon="55.64612">
        <ele>2304.8</ele>
        <time>2013-08-08T09:08:24Z</time>
      </trkpt>
      <trkpt lat="-21.19832" lon="55.64612">
        <ele>2304.7</ele>
        <time>2013-08-08T09:08:25Z</time>
      </trkpt>
      <trkpt lat="-21.19818" lon="55.64605">
        <ele>2302.2</ele>
        <time>2013-08-08T09:08:36Z</time>
      </trkpt>
      <trkpt lat="-21.19811" lon="55.646">
        <ele>2301</ele>
        <time>2013-08-08T09:08:42Z</time>
      </trkpt>
      <trkpt lat="-21.19805" lon="55.64594">
        <ele>2299.3</ele>
        <time>2013-08-08T09:08:48Z</time>
      </trkpt>
      <trkpt lat="-21.19798" lon="55.64591">
        <ele>2299.7</ele>
        <time>2013-08-08T09:08:53Z</time>
      </trkpt>
      <trkpt lat="-21.19791" lon="55.64587">
        <ele>2298.3</ele>
        <time>2013-08-08T09:08:59Z</time>
      </trkpt>
      <trkpt lat="-21.19785" lon="55.64581">
        <ele>2298.5</ele>
        <time>2013-08-08T09:09:04Z</time>
      </trkpt>
      <trkpt lat="-21.19778" lon="55.64575">
        <ele>2299.1</ele>
        <time>2013-08-08T09:09:10Z</time>
      </trkpt>
      <trkpt lat="-21.1977" lon="55.64572">
        <ele>2298.8</ele>
        <time>2013-08-08T09:09:15Z</time>
      </trkpt>
      <trkpt lat="-21.19762" lon="55.64568">
        <ele>2298.7</ele>
        <time>2013-08-08T09:09:21Z</time>
      </trkpt>
      <trkpt lat="-21.19755" lon="55.64564">
        <ele>2297.6</ele>
        <time>2013-08-08T09:09:27Z</time>
      </trkpt>
      <trkpt lat="-21.19753" lon="55.64563">
        <ele>2297.8</ele>
        <time>2013-08-08T09:09:28Z</time>
      </trkpt>
      <trkpt lat="-21.19739" lon="55.64557">
        <ele>2299.4</ele>
        <time>2013-08-08T09:09:44Z</time>
      </trkpt>
      <trkpt lat="-21.19731" lon="55.64554">
        <ele>2301.5</ele>
        <time>2013-08-08T09:09:52Z</time>
      </trkpt>
      <trkpt lat="-21.19726" lon="55.64547">
        <ele>2302.8</ele>
        <time>2013-08-08T09:09:58Z</time>
      </trkpt>
      <trkpt lat="-21.19723" lon="55.64539">
        <ele>2303.7</ele>
        <time>2013-08-08T09:10:05Z</time>
      </trkpt>
      <trkpt lat="-21.19716" lon="55.64534">
        <ele>2304.8</ele>
        <time>2013-08-08T09:10:14Z</time>
      </trkpt>
      <trkpt lat="-21.19708" lon="55.6453">
        <ele>2305.4</ele>
        <time>2013-08-08T09:10:22Z</time>
      </trkpt>
      <trkpt lat="-21.19701" lon="55.64527">
        <ele>2305</ele>
        <time>2013-08-08T09:10:28Z</time>
      </trkpt>
      <trkpt lat="-21.19699" lon="55.64526">
        <ele>2304.9</ele>
        <time>2013-08-08T09:10:29Z</time>
      </trkpt>
      <trkpt lat="-21.19688" lon="55.64515">
        <ele>2302.6</ele>
        <time>2013-08-08T09:10:43Z</time>
      </trkpt>
      <trkpt lat="-21.19681" lon="55.6451">
        <ele>2301.7</ele>
        <time>2013-08-08T09:10:50Z</time>
      </trkpt>
      <trkpt lat="-21.19673" lon="55.64506">
        <ele>2299.4</ele>
        <time>2013-08-08T09:10:58Z</time>
      </trkpt>
      <trkpt lat="-21.19665" lon="55.64504">
        <ele>2297.3</ele>
        <time>2013-08-08T09:11:05Z</time>
      </trkpt>
      <trkpt lat="-21.19657" lon="55.64499">
        <ele>2294.4</ele>
        <time>2013-08-08T09:11:12Z</time>
      </trkpt>
      <trkpt lat="-21.1965" lon="55.64495">
        <ele>2293.2</ele>
        <time>2013-08-08T09:11:18Z</time>
      </trkpt>
      <trkpt lat="-21.19642" lon="55.6449">
        <ele>2292.6</ele>
        <time>2013-08-08T09:11:25Z</time>
      </trkpt>
      <trkpt lat="-21.19634" lon="55.64486">
        <ele>2291.9</ele>
        <time>2013-08-08T09:11:32Z</time>
      </trkpt>
      <trkpt lat="-21.19633" lon="55.64485">
        <ele>2292.1</ele>
        <time>2013-08-08T09:11:33Z</time>
      </trkpt>
      <trkpt lat="-21.19623" lon="55.64475">
        <ele>2287.4</ele>
        <time>2013-08-08T09:11:44Z</time>
      </trkpt>
      <trkpt lat="-21.19615" lon="55.6447">
        <ele>2286.2</ele>
        <time>2013-08-08T09:11:51Z</time>
      </trkpt>
      <trkpt lat="-21.19609" lon="55.64463">
        <ele>2286.7</ele>
        <time>2013-08-08T09:11:59Z</time>
      </trkpt>
      <trkpt lat="-21.19602" lon="55.64458">
        <ele>2282.6</ele>
        <time>2013-08-08T09:12:26Z</time>
      </trkpt>
      <trkpt lat="-21.19596" lon="55.64453">
        <ele>2281.8</ele>
        <time>2013-08-08T09:12:35Z</time>
      </trkpt>
      <trkpt lat="-21.19595" lon="55.64452">
        <ele>2281.5</ele>
        <time>2013-08-08T09:12:36Z</time>
      </trkpt>
      <trkpt lat="-21.19579" lon="55.6445">
        <ele>2276.4</ele>
        <time>2013-08-08T09:12:54Z</time>
      </trkpt>
      <trkpt lat="-21.19571" lon="55.64447">
        <ele>2274.2</ele>
        <time>2013-08-08T09:13:08Z</time>
      </trkpt>
      <trkpt lat="-21.19564" lon="55.64442">
        <ele>2270.3</ele>
        <time>2013-08-08T09:13:17Z</time>
      </trkpt>
      <trkpt lat="-21.19557" lon="55.64436">
        <ele>2268.2</ele>
        <time>2013-08-08T09:13:25Z</time>
      </trkpt>
      <trkpt lat="-21.19551" lon="55.64431">
        <ele>2266.2</ele>
        <time>2013-08-08T09:13:32Z</time>
      </trkpt>
      <trkpt lat="-21.19546" lon="55.64423">
        <ele>2263.9</ele>
        <time>2013-08-08T09:13:39Z</time>
      </trkpt>
      <trkpt lat="-21.19545" lon="55.64422">
        <ele>2263.7</ele>
        <time>2013-08-08T09:13:40Z</time>
      </trkpt>
      <trkpt lat="-21.19536" lon="55.64408">
        <ele>2260.9</ele>
        <time>2013-08-08T09:13:53Z</time>
      </trkpt>
      <trkpt lat="-21.19527" lon="55.64409">
        <ele>2257.7</ele>
        <time>2013-08-08T09:14:03Z</time>
      </trkpt>
      <trkpt lat="-21.1952" lon="55.64403">
        <ele>2254.5</ele>
        <time>2013-08-08T09:14:19Z</time>
      </trkpt>
      <trkpt lat="-21.19519" lon="55.64394">
        <ele>2252.2</ele>
        <time>2013-08-08T09:14:28Z</time>
      </trkpt>
      <trkpt lat="-21.19521" lon="55.64385">
        <ele>2250.7</ele>
        <time>2013-08-08T09:14:37Z</time>
      </trkpt>
      <trkpt lat="-21.19526" lon="55.64378">
        <ele>2248.6</ele>
        <time>2013-08-08T09:14:45Z</time>
      </trkpt>
      <trkpt lat="-21.19527" lon="55.64377">
        <ele>2248.5</ele>
        <time>2013-08-08T09:14:46Z</time>
      </trkpt>
      <trkpt lat="-21.19523" lon="55.64361">
        <ele>2244.8</ele>
        <time>2013-08-08T09:15:00Z</time>
      </trkpt>
      <trkpt lat="-21.1952" lon="55.64352">
        <ele>2244.5</ele>
        <time>2013-08-08T09:15:07Z</time>
      </trkpt>
      <trkpt lat="-21.19517" lon="55.64344">
        <ele>2242.6</ele>
        <time>2013-08-08T09:15:15Z</time>
      </trkpt>
      <trkpt lat="-21.19515" lon="55.64336">
        <ele>2241.2</ele>
        <time>2013-08-08T09:15:23Z</time>
      </trkpt>
      <trkpt lat="-21.19509" lon="55.64329">
        <ele>2237.9</ele>
        <time>2013-08-08T09:15:32Z</time>
      </trkpt>
      <trkpt lat="-21.19503" lon="55.64323">
        <ele>2237.1</ele>
        <time>2013-08-08T09:15:39Z</time>
      </trkpt>
      <trkpt lat="-21.19497" lon="55.64317">
        <ele>2235.9</ele>
        <time>2013-08-08T09:15:45Z</time>
      </trkpt>
      <trkpt lat="-21.19489" lon="55.64314">
        <ele>2235.1</ele>
        <time>2013-08-08T09:15:52Z</time>
      </trkpt>
      <trkpt lat="-21.19488" lon="55.64314">
        <ele>2234.9</ele>
        <time>2013-08-08T09:15:53Z</time>
      </trkpt>
      <trkpt lat="-21.19474" lon="55.64306">
        <ele>2232.2</ele>
        <time>2013-08-08T09:16:07Z</time>
      </trkpt>
      <trkpt lat="-21.19471" lon="55.64297">
        <ele>2231.4</ele>
        <time>2013-08-08T09:16:16Z</time>
      </trkpt>
      <trkpt lat="-21.19469" lon="55.64289">
        <ele>2230</ele>
        <time>2013-08-08T09:16:25Z</time>
      </trkpt>
      <trkpt lat="-21.19465" lon="55.64281">
        <ele>2227.2</ele>
        <time>2013-08-08T09:16:33Z</time>
      </trkpt>
      <trkpt lat="-21.19458" lon="55.64276">
        <ele>2225.5</ele>
        <time>2013-08-08T09:16:40Z</time>
      </trkpt>
      <trkpt lat="-21.19454" lon="55.64268">
        <ele>2224.7</ele>
        <time>2013-08-08T09:16:48Z</time>
      </trkpt>
      <trkpt lat="-21.19449" lon="55.64262">
        <ele>2222.1</ele>
        <time>2013-08-08T09:16:56Z</time>
      </trkpt>
      <trkpt lat="-21.19448" lon="55.64261">
        <ele>2221.9</ele>
        <time>2013-08-08T09:16:57Z</time>
      </trkpt>
      <trkpt lat="-21.19435" lon="55.64252">
        <ele>2220.5</ele>
        <time>2013-08-08T09:17:09Z</time>
      </trkpt>
      <trkpt lat="-21.19433" lon="55.64243">
        <ele>2219.8</ele>
        <time>2013-08-08T09:17:16Z</time>
      </trkpt>
      <trkpt lat="-21.1943" lon="55.64234">
        <ele>2218.6</ele>
        <time>2013-08-08T09:17:24Z</time>
      </trkpt>
      <trkpt lat="-21.19432" lon="55.64225">
        <ele>2217.2</ele>
        <time>2013-08-08T09:17:32Z</time>
      </trkpt>
      <trkpt lat="-21.19431" lon="55.64215">
        <ele>2215.1</ele>
        <time>2013-08-08T09:17:39Z</time>
      </trkpt>
      <trkpt lat="-21.19426" lon="55.64208">
        <ele>2214.6</ele>
        <time>2013-08-08T09:17:47Z</time>
      </trkpt>
      <trkpt lat="-21.19424" lon="55.64199">
        <ele>2213.2</ele>
        <time>2013-08-08T09:17:55Z</time>
      </trkpt>
      <trkpt lat="-21.19425" lon="55.64191">
        <ele>2213.2</ele>
        <time>2013-08-08T09:17:59Z</time>
      </trkpt>
      <trkpt lat="-21.19426" lon="55.64188">
        <ele>2213.4</ele>
        <time>2013-08-08T09:18:00Z</time>
      </trkpt>
      <trkpt lat="-21.19427" lon="55.64173">
        <ele>2210.9</ele>
        <time>2013-08-08T09:18:07Z</time>
      </trkpt>
      <trkpt lat="-21.19426" lon="55.64164">
        <ele>2210.5</ele>
        <time>2013-08-08T09:18:12Z</time>
      </trkpt>
      <trkpt lat="-21.19422" lon="55.64158">
        <ele>2209.8</ele>
        <time>2013-08-08T09:18:17Z</time>
      </trkpt>
      <trkpt lat="-21.19417" lon="55.64151">
        <ele>2208.5</ele>
        <time>2013-08-08T09:18:23Z</time>
      </trkpt>
      <trkpt lat="-21.1941" lon="55.64146">
        <ele>2206.8</ele>
        <time>2013-08-08T09:18:28Z</time>
      </trkpt>
      <trkpt lat="-21.19404" lon="55.64139">
        <ele>2207.3</ele>
        <time>2013-08-08T09:18:36Z</time>
      </trkpt>
      <trkpt lat="-21.19403" lon="55.6413">
        <ele>2205.7</ele>
        <time>2013-08-08T09:18:46Z</time>
      </trkpt>
      <trkpt lat="-21.194" lon="55.64121">
        <ele>2205.6</ele>
        <time>2013-08-08T09:18:53Z</time>
      </trkpt>
      <trkpt lat="-21.19397" lon="55.64112">
        <ele>2205.8</ele>
        <time>2013-08-08T09:19:00Z</time>
      </trkpt>
      <trkpt lat="-21.19394" lon="55.64104">
        <ele>2204.9</ele>
        <time>2013-08-08T09:19:06Z</time>
      </trkpt>
      <trkpt lat="-21.19393" lon="55.64102">
        <ele>2204.7</ele>
        <time>2013-08-08T09:19:07Z</time>
      </trkpt>
      <trkpt lat="-21.19382" lon="55.64091">
        <ele>2204.6</ele>
        <time>2013-08-08T09:19:19Z</time>
      </trkpt>
      <trkpt lat="-21.19373" lon="55.64088">
        <ele>2201.7</ele>
        <time>2013-08-08T09:19:27Z</time>
      </trkpt>
      <trkpt lat="-21.19367" lon="55.64083">
        <ele>2200.7</ele>
        <time>2013-08-08T09:19:37Z</time>
      </trkpt>
      <trkpt lat="-21.19359" lon="55.64078">
        <ele>2199.4</ele>
        <time>2013-08-08T09:19:47Z</time>
      </trkpt>
      <trkpt lat="-21.19353" lon="55.64073">
        <ele>2198.1</ele>
        <time>2013-08-08T09:19:55Z</time>
      </trkpt>
      <trkpt lat="-21.19347" lon="55.64067">
        <ele>2196.8</ele>
        <time>2013-08-08T09:20:02Z</time>
      </trkpt>
      <trkpt lat="-21.1934" lon="55.64062">
        <ele>2196.7</ele>
        <time>2013-08-08T09:20:09Z</time>
      </trkpt>
      <trkpt lat="-21.19339" lon="55.64061">
        <ele>2196.4</ele>
        <time>2013-08-08T09:20:10Z</time>
      </trkpt>
      <trkpt lat="-21.19329" lon="55.64048">
        <ele>2194.4</ele>
        <time>2013-08-08T09:20:24Z</time>
      </trkpt>
      <trkpt lat="-21.19324" lon="55.64041">
        <ele>2194</ele>
        <time>2013-08-08T09:20:31Z</time>
      </trkpt>
      <trkpt lat="-21.19319" lon="55.64033">
        <ele>2193.4</ele>
        <time>2013-08-08T09:20:37Z</time>
      </trkpt>
      <trkpt lat="-21.19315" lon="55.64025">
        <ele>2192.6</ele>
        <time>2013-08-08T09:20:46Z</time>
      </trkpt>
      <trkpt lat="-21.19315" lon="55.64016">
        <ele>2190.8</ele>
        <time>2013-08-08T09:20:54Z</time>
      </trkpt>
      <trkpt lat="-21.19316" lon="55.64006">
        <ele>2190.2</ele>
        <time>2013-08-08T09:21:01Z</time>
      </trkpt>
      <trkpt lat="-21.19313" lon="55.63998">
        <ele>2188.8</ele>
        <time>2013-08-08T09:21:09Z</time>
      </trkpt>
      <trkpt lat="-21.1931" lon="55.6399">
        <ele>2187.1</ele>
        <time>2013-08-08T09:21:16Z</time>
      </trkpt>
      <trkpt lat="-21.19309" lon="55.63989">
        <ele>2187</ele>
        <time>2013-08-08T09:21:17Z</time>
      </trkpt>
      <trkpt lat="-21.19303" lon="55.63973">
        <ele>2185.3</ele>
        <time>2013-08-08T09:21:31Z</time>
      </trkpt>
      <trkpt lat="-21.19299" lon="55.63965">
        <ele>2185</ele>
        <time>2013-08-08T09:21:38Z</time>
      </trkpt>
      <trkpt lat="-21.19297" lon="55.63956">
        <ele>2181</ele>
        <time>2013-08-08T09:21:47Z</time>
      </trkpt>
      <trkpt lat="-21.19293" lon="55.63949">
        <ele>2179.1</ele>
        <time>2013-08-08T09:21:56Z</time>
      </trkpt>
      <trkpt lat="-21.1929" lon="55.6394">
        <ele>2177.8</ele>
        <time>2013-08-08T09:22:04Z</time>
      </trkpt>
      <trkpt lat="-21.19286" lon="55.63932">
        <ele>2177.6</ele>
        <time>2013-08-08T09:22:10Z</time>
      </trkpt>
      <trkpt lat="-21.19282" lon="55.63924">
        <ele>2177.5</ele>
        <time>2013-08-08T09:22:17Z</time>
      </trkpt>
      <trkpt lat="-21.19282" lon="55.63923">
        <ele>2177.6</ele>
        <time>2013-08-08T09:22:18Z</time>
      </trkpt>
      <trkpt lat="-21.19279" lon="55.63906">
        <ele>2175.6</ele>
        <time>2013-08-08T09:22:32Z</time>
      </trkpt>
      <trkpt lat="-21.19276" lon="55.63897">
        <ele>2173.8</ele>
        <time>2013-08-08T09:22:39Z</time>
      </trkpt>
      <trkpt lat="-21.19272" lon="55.63889">
        <ele>2173.1</ele>
        <time>2013-08-08T09:22:45Z</time>
      </trkpt>
      <trkpt lat="-21.19271" lon="55.6388">
        <ele>2172.9</ele>
        <time>2013-08-08T09:22:51Z</time>
      </trkpt>
      <trkpt lat="-21.19269" lon="55.63871">
        <ele>2173.4</ele>
        <time>2013-08-08T09:22:58Z</time>
      </trkpt>
      <trkpt lat="-21.19266" lon="55.63862">
        <ele>2173.3</ele>
        <time>2013-08-08T09:23:05Z</time>
      </trkpt>
      <trkpt lat="-21.19263" lon="55.63854">
        <ele>2172.9</ele>
        <time>2013-08-08T09:23:11Z</time>
      </trkpt>
      <trkpt lat="-21.1926" lon="55.63846">
        <ele>2171.7</ele>
        <time>2013-08-08T09:23:17Z</time>
      </trkpt>
      <trkpt lat="-21.19254" lon="55.63839">
        <ele>2172</ele>
        <time>2013-08-08T09:23:23Z</time>
      </trkpt>
      <trkpt lat="-21.19253" lon="55.63838">
        <ele>2172.1</ele>
        <time>2013-08-08T09:23:24Z</time>
      </trkpt>
      <trkpt lat="-21.1924" lon="55.63828">
        <ele>2171.4</ele>
        <time>2013-08-08T09:23:35Z</time>
      </trkpt>
      <trkpt lat="-21.19232" lon="55.63825">
        <ele>2170.5</ele>
        <time>2013-08-08T09:23:42Z</time>
      </trkpt>
      <trkpt lat="-21.19223" lon="55.63823">
        <ele>2169.2</ele>
        <time>2013-08-08T09:23:49Z</time>
      </trkpt>
      <trkpt lat="-21.19217" lon="55.63817">
        <ele>2168.4</ele>
        <time>2013-08-08T09:23:55Z</time>
      </trkpt>
      <trkpt lat="-21.19211" lon="55.63811">
        <ele>2167.4</ele>
        <time>2013-08-08T09:24:01Z</time>
      </trkpt>
      <trkpt lat="-21.19205" lon="55.63806">
        <ele>2167.6</ele>
        <time>2013-08-08T09:24:07Z</time>
      </trkpt>
      <trkpt lat="-21.19198" lon="55.63799">
        <ele>2167.9</ele>
        <time>2013-08-08T09:24:13Z</time>
      </trkpt>
      <trkpt lat="-21.19192" lon="55.63792">
        <ele>2167.9</ele>
        <time>2013-08-08T09:24:19Z</time>
      </trkpt>
      <trkpt lat="-21.19187" lon="55.63785">
        <ele>2167.4</ele>
        <time>2013-08-08T09:24:25Z</time>
      </trkpt>
      <trkpt lat="-21.19186" lon="55.63783">
        <ele>2167.2</ele>
        <time>2013-08-08T09:24:26Z</time>
      </trkpt>
      <trkpt lat="-21.19177" lon="55.63771">
        <ele>2166.2</ele>
        <time>2013-08-08T09:24:36Z</time>
      </trkpt>
      <trkpt lat="-21.19173" lon="55.63763">
        <ele>2167.6</ele>
        <time>2013-08-08T09:24:42Z</time>
      </trkpt>
      <trkpt lat="-21.19169" lon="55.63754">
        <ele>2167.5</ele>
        <time>2013-08-08T09:24:49Z</time>
      </trkpt>
      <trkpt lat="-21.19165" lon="55.63746">
        <ele>2167.5</ele>
        <time>2013-08-08T09:24:56Z</time>
      </trkpt>
      <trkpt lat="-21.19165" lon="55.63737">
        <ele>2168.1</ele>
        <time>2013-08-08T09:25:05Z</time>
      </trkpt>
      <trkpt lat="-21.1917" lon="55.63729">
        <ele>2168.8</ele>
        <time>2013-08-08T09:25:15Z</time>
      </trkpt>
      <trkpt lat="-21.19162" lon="55.6373">
        <ele>2170.1</ele>
        <time>2013-08-08T09:38:22Z</time>
      </trkpt>
      <trkpt lat="-21.19161" lon="55.63731">
        <ele>2169.8</ele>
        <time>2013-08-08T09:38:23Z</time>
      </trkpt>
      <trkpt lat="-21.19161" lon="55.63713">
        <ele>2168.2</ele>
        <time>2013-08-08T09:39:08Z</time>
      </trkpt>
      <trkpt lat="-21.19159" lon="55.63704">
        <ele>2168.9</ele>
        <time>2013-08-08T09:39:16Z</time>
      </trkpt>
      <trkpt lat="-21.19158" lon="55.63695">
        <ele>2168.2</ele>
        <time>2013-08-08T09:39:25Z</time>
      </trkpt>
      <trkpt lat="-21.19158" lon="55.63694">
        <ele>2168.3</ele>
        <time>2013-08-08T09:39:26Z</time>
      </trkpt>
      <trkpt lat="-21.19156" lon="55.63678">
        <ele>2172.2</ele>
        <time>2013-08-08T09:39:48Z</time>
      </trkpt>
      <trkpt lat="-21.19153" lon="55.6367">
        <ele>2173.6</ele>
        <time>2013-08-08T09:39:57Z</time>
      </trkpt>
      <trkpt lat="-21.19153" lon="55.6366">
        <ele>2176.4</ele>
        <time>2013-08-08T09:40:07Z</time>
      </trkpt>
      <trkpt lat="-21.19155" lon="55.63651">
        <ele>2177.2</ele>
        <time>2013-08-08T09:40:15Z</time>
      </trkpt>
      <trkpt lat="-21.19155" lon="55.63642">
        <ele>2177.9</ele>
        <time>2013-08-08T09:40:23Z</time>
      </trkpt>
      <trkpt lat="-21.19154" lon="55.63633">
        <ele>2178.1</ele>
        <time>2013-08-08T09:40:31Z</time>
      </trkpt>
      <trkpt lat="-21.19154" lon="55.63632">
        <ele>2178.3</ele>
        <time>2013-08-08T09:40:32Z</time>
      </trkpt>
      <trkpt lat="-21.19144" lon="55.63619">
        <ele>2178.7</ele>
        <time>2013-08-08T09:40:45Z</time>
      </trkpt>
      <trkpt lat="-21.19141" lon="55.6361">
        <ele>2179.3</ele>
        <time>2013-08-08T09:40:53Z</time>
      </trkpt>
      <trkpt lat="-21.1914" lon="55.63602">
        <ele>2179.8</ele>
        <time>2013-08-08T09:40:58Z</time>
      </trkpt>
      <trkpt lat="-21.19134" lon="55.63595">
        <ele>2180.3</ele>
        <time>2013-08-08T09:41:05Z</time>
      </trkpt>
      <trkpt lat="-21.19129" lon="55.63587">
        <ele>2182.4</ele>
        <time>2013-08-08T09:41:14Z</time>
      </trkpt>
      <trkpt lat="-21.19126" lon="55.63579">
        <ele>2184.4</ele>
        <time>2013-08-08T09:41:21Z</time>
      </trkpt>
      <trkpt lat="-21.1912" lon="55.63572">
        <ele>2184.5</ele>
        <time>2013-08-08T09:41:28Z</time>
      </trkpt>
      <trkpt lat="-21.19118" lon="55.63563">
        <ele>2184.3</ele>
        <time>2013-08-08T09:41:35Z</time>
      </trkpt>
      <trkpt lat="-21.19117" lon="55.63562">
        <ele>2184.1</ele>
        <time>2013-08-08T09:41:36Z</time>
      </trkpt>
      <trkpt lat="-21.19105" lon="55.63555">
        <ele>2187.3</ele>
        <time>2013-08-08T09:41:58Z</time>
      </trkpt>
      <trkpt lat="-21.19099" lon="55.63559">
        <ele>2186.2</ele>
        <time>2013-08-08T09:42:04Z</time>
      </trkpt>
      <trkpt lat="-21.19091" lon="55.63563">
        <ele>2186.4</ele>
        <time>2013-08-08T09:42:10Z</time>
      </trkpt>
      <trkpt lat="-21.19083" lon="55.63567">
        <ele>2185.6</ele>
        <time>2013-08-08T09:42:16Z</time>
      </trkpt>
      <trkpt lat="-21.19075" lon="55.63571">
        <ele>2185.5</ele>
        <time>2013-08-08T09:42:22Z</time>
      </trkpt>
      <trkpt lat="-21.19067" lon="55.63574">
        <ele>2184.7</ele>
        <time>2013-08-08T09:42:28Z</time>
      </trkpt>
      <trkpt lat="-21.1906" lon="55.63576">
        <ele>2184.2</ele>
        <time>2013-08-08T09:42:34Z</time>
      </trkpt>
      <trkpt lat="-21.19051" lon="55.63575">
        <ele>2184.5</ele>
        <time>2013-08-08T09:42:41Z</time>
      </trkpt>
      <trkpt lat="-21.1905" lon="55.63575">
        <ele>2184.1</ele>
        <time>2013-08-08T09:42:42Z</time>
      </trkpt>
      <trkpt lat="-21.1904" lon="55.63587">
        <ele>2185.4</ele>
        <time>2013-08-08T09:42:55Z</time>
      </trkpt>
      <trkpt lat="-21.19041" lon="55.63596">
        <ele>2184</ele>
        <time>2013-08-08T09:43:01Z</time>
      </trkpt>
      <trkpt lat="-21.1904" lon="55.63605">
        <ele>2182.5</ele>
        <time>2013-08-08T09:43:07Z</time>
      </trkpt>
      <trkpt lat="-21.19037" lon="55.63613">
        <ele>2181.9</ele>
        <time>2013-08-08T09:43:13Z</time>
      </trkpt>
      <trkpt lat="-21.19035" lon="55.63622">
        <ele>2182.2</ele>
        <time>2013-08-08T09:43:20Z</time>
      </trkpt>
      <trkpt lat="-21.19038" lon="55.63629">
        <ele>2181.4</ele>
        <time>2013-08-08T09:43:26Z</time>
      </trkpt>
      <trkpt lat="-21.19039" lon="55.63638">
        <ele>2180.3</ele>
        <time>2013-08-08T09:43:33Z</time>
      </trkpt>
      <trkpt lat="-21.19041" lon="55.63647">
        <ele>2180.4</ele>
        <time>2013-08-08T09:43:40Z</time>
      </trkpt>
      <trkpt lat="-21.19043" lon="55.63655">
        <ele>2178.5</ele>
        <time>2013-08-08T09:43:46Z</time>
      </trkpt>
      <trkpt lat="-21.19043" lon="55.63656">
        <ele>2178.2</ele>
        <time>2013-08-08T09:43:47Z</time>
      </trkpt>
      <trkpt lat="-21.19043" lon="55.63673">
        <ele>2177.7</ele>
        <time>2013-08-08T09:43:59Z</time>
      </trkpt>
      <trkpt lat="-21.19048" lon="55.6368">
        <ele>2176.8</ele>
        <time>2013-08-08T09:44:06Z</time>
      </trkpt>
      <trkpt lat="-21.19052" lon="55.63687">
        <ele>2174.9</ele>
        <time>2013-08-08T09:44:12Z</time>
      </trkpt>
      <trkpt lat="-21.19056" lon="55.63695">
        <ele>2173.6</ele>
        <time>2013-08-08T09:44:19Z</time>
      </trkpt>
      <trkpt lat="-21.1906" lon="55.63702">
        <ele>2172.7</ele>
        <time>2013-08-08T09:44:26Z</time>
      </trkpt>
      <trkpt lat="-21.19067" lon="55.63708">
        <ele>2172.8</ele>
        <time>2013-08-08T09:44:33Z</time>
      </trkpt>
      <trkpt lat="-21.19071" lon="55.63715">
        <ele>2171.4</ele>
        <time>2013-08-08T09:44:39Z</time>
      </trkpt>
      <trkpt lat="-21.19074" lon="55.63723">
        <ele>2169.6</ele>
        <time>2013-08-08T09:44:45Z</time>
      </trkpt>
      <trkpt lat="-21.19077" lon="55.63731">
        <ele>2169.9</ele>
        <time>2013-08-08T09:44:51Z</time>
      </trkpt>
      <trkpt lat="-21.19077" lon="55.63733">
        <ele>2169.7</ele>
        <time>2013-08-08T09:44:52Z</time>
      </trkpt>
      <trkpt lat="-21.19075" lon="55.6375">
        <ele>2167.9</ele>
        <time>2013-08-08T09:45:05Z</time>
      </trkpt>
      <trkpt lat="-21.19077" lon="55.63759">
        <ele>2166.8</ele>
        <time>2013-08-08T09:45:12Z</time>
      </trkpt>
      <trkpt lat="-21.19078" lon="55.63767">
        <ele>2166.4</ele>
        <time>2013-08-08T09:45:19Z</time>
      </trkpt>
      <trkpt lat="-21.1908" lon="55.63775">
        <ele>2165</ele>
        <time>2013-08-08T09:45:25Z</time>
      </trkpt>
      <trkpt lat="-21.1908" lon="55.63784">
        <ele>2162.8</ele>
        <time>2013-08-08T09:45:32Z</time>
      </trkpt>
      <trkpt lat="-21.1908" lon="55.63793">
        <ele>2162.9</ele>
        <time>2013-08-08T09:45:39Z</time>
      </trkpt>
      <trkpt lat="-21.1908" lon="55.63802">
        <ele>2162.6</ele>
        <time>2013-08-08T09:45:47Z</time>
      </trkpt>
      <trkpt lat="-21.19078" lon="55.63811">
        <ele>2162.5</ele>
        <time>2013-08-08T09:45:54Z</time>
      </trkpt>
      <trkpt lat="-21.19077" lon="55.63811">
        <ele>2162.2</ele>
        <time>2013-08-08T09:45:55Z</time>
      </trkpt>
      <trkpt lat="-21.19078" lon="55.63828">
        <ele>2161.9</ele>
        <time>2013-08-08T09:46:19Z</time>
      </trkpt>
      <trkpt lat="-21.19079" lon="55.63837">
        <ele>2162.2</ele>
        <time>2013-08-08T09:46:28Z</time>
      </trkpt>
      <trkpt lat="-21.19079" lon="55.63829">
        <ele>2161.9</ele>
        <time>2013-08-08T09:46:50Z</time>
      </trkpt>
      <trkpt lat="-21.19078" lon="55.6382">
        <ele>2162.6</ele>
        <time>2013-08-08T09:46:57Z</time>
      </trkpt>
      <trkpt lat="-21.19078" lon="55.63819">
        <ele>2162.5</ele>
        <time>2013-08-08T09:46:58Z</time>
      </trkpt>
      <trkpt lat="-21.19067" lon="55.63806">
        <ele>2161.4</ele>
        <time>2013-08-08T09:47:23Z</time>
      </trkpt>
      <trkpt lat="-21.19059" lon="55.63803">
        <ele>2160.6</ele>
        <time>2013-08-08T09:47:32Z</time>
      </trkpt>
      <trkpt lat="-21.19052" lon="55.63798">
        <ele>2161.2</ele>
        <time>2013-08-08T09:47:47Z</time>
      </trkpt>
      <trkpt lat="-21.19046" lon="55.63792">
        <ele>2159.3</ele>
        <time>2013-08-08T09:47:58Z</time>
      </trkpt>
      <trkpt lat="-21.19045" lon="55.63792">
        <ele>2159.1</ele>
        <time>2013-08-08T09:47:59Z</time>
      </trkpt>
      <trkpt lat="-21.1903" lon="55.63786">
        <ele>2157.4</ele>
        <time>2013-08-08T09:48:21Z</time>
      </trkpt>
      <trkpt lat="-21.19022" lon="55.63784">
        <ele>2157</ele>
        <time>2013-08-08T09:48:31Z</time>
      </trkpt>
      <trkpt lat="-21.19014" lon="55.63782">
        <ele>2156.5</ele>
        <time>2013-08-08T09:48:40Z</time>
      </trkpt>
      <trkpt lat="-21.19006" lon="55.63784">
        <ele>2155.4</ele>
        <time>2013-08-08T09:48:49Z</time>
      </trkpt>
      <trkpt lat="-21.18998" lon="55.63782">
        <ele>2156.3</ele>
        <time>2013-08-08T09:48:55Z</time>
      </trkpt>
      <trkpt lat="-21.1899" lon="55.63781">
        <ele>2156.3</ele>
        <time>2013-08-08T09:49:00Z</time>
      </trkpt>
      <trkpt lat="-21.18988" lon="55.63781">
        <ele>2156.2</ele>
        <time>2013-08-08T09:49:01Z</time>
      </trkpt>
      <trkpt lat="-21.18974" lon="55.63778">
        <ele>2155.7</ele>
        <time>2013-08-08T09:49:12Z</time>
      </trkpt>
      <trkpt lat="-21.18966" lon="55.63783">
        <ele>2156</ele>
        <time>2013-08-08T09:49:21Z</time>
      </trkpt>
      <trkpt lat="-21.18962" lon="55.63791">
        <ele>2156.9</ele>
        <time>2013-08-08T09:49:27Z</time>
      </trkpt>
      <trkpt lat="-21.18955" lon="55.63797">
        <ele>2155.8</ele>
        <time>2013-08-08T09:49:33Z</time>
      </trkpt>
      <trkpt lat="-21.1895" lon="55.63803">
        <ele>2156.2</ele>
        <time>2013-08-08T09:49:38Z</time>
      </trkpt>
      <trkpt lat="-21.18945" lon="55.6381">
        <ele>2156.2</ele>
        <time>2013-08-08T09:49:44Z</time>
      </trkpt>
      <trkpt lat="-21.1894" lon="55.63818">
        <ele>2156.9</ele>
        <time>2013-08-08T09:49:50Z</time>
      </trkpt>
      <trkpt lat="-21.18934" lon="55.63825">
        <ele>2155.8</ele>
        <time>2013-08-08T09:49:56Z</time>
      </trkpt>
      <trkpt lat="-21.18928" lon="55.63832">
        <ele>2156</ele>
        <time>2013-08-08T09:50:02Z</time>
      </trkpt>
      <trkpt lat="-21.18928" lon="55.63834">
        <ele>2156.2</ele>
        <time>2013-08-08T09:50:03Z</time>
      </trkpt>
      <trkpt lat="-21.1892" lon="55.63848">
        <ele>2156.2</ele>
        <time>2013-08-08T09:50:13Z</time>
      </trkpt>
      <trkpt lat="-21.18917" lon="55.63856">
        <ele>2156.7</ele>
        <time>2013-08-08T09:50:19Z</time>
      </trkpt>
      <trkpt lat="-21.18916" lon="55.63865">
        <ele>2155.6</ele>
        <time>2013-08-08T09:50:26Z</time>
      </trkpt>
      <trkpt lat="-21.1891" lon="55.63872">
        <ele>2154.2</ele>
        <time>2013-08-08T09:50:34Z</time>
      </trkpt>
      <trkpt lat="-21.18904" lon="55.6388">
        <ele>2153</ele>
        <time>2013-08-08T09:50:43Z</time>
      </trkpt>
      <trkpt lat="-21.18907" lon="55.63889">
        <ele>2150.5</ele>
        <time>2013-08-08T09:50:51Z</time>
      </trkpt>
      <trkpt lat="-21.18912" lon="55.63896">
        <ele>2151.3</ele>
        <time>2013-08-08T09:50:58Z</time>
      </trkpt>
      <trkpt lat="-21.18909" lon="55.63904">
        <ele>2153.9</ele>
        <time>2013-08-08T09:51:08Z</time>
      </trkpt>
      <trkpt lat="-21.18908" lon="55.63906">
        <ele>2154.3</ele>
        <time>2013-08-08T09:51:09Z</time>
      </trkpt>
      <trkpt lat="-21.189" lon="55.6392">
        <ele>2154.9</ele>
        <time>2013-08-08T09:51:21Z</time>
      </trkpt>
      <trkpt lat="-21.18894" lon="55.63925">
        <ele>2154.7</ele>
        <time>2013-08-08T09:51:27Z</time>
      </trkpt>
      <trkpt lat="-21.1889" lon="55.63933">
        <ele>2153.3</ele>
        <time>2013-08-08T09:51:33Z</time>
      </trkpt>
      <trkpt lat="-21.18883" lon="55.63938">
        <ele>2153</ele>
        <time>2013-08-08T09:51:39Z</time>
      </trkpt>
      <trkpt lat="-21.18875" lon="55.63941">
        <ele>2152.6</ele>
        <time>2013-08-08T09:51:45Z</time>
      </trkpt>
      <trkpt lat="-21.18868" lon="55.63942">
        <ele>2151.8</ele>
        <time>2013-08-08T09:51:51Z</time>
      </trkpt>
      <trkpt lat="-21.18859" lon="55.63944">
        <ele>2151.3</ele>
        <time>2013-08-08T09:51:58Z</time>
      </trkpt>
      <trkpt lat="-21.18851" lon="55.63946">
        <ele>2152.3</ele>
        <time>2013-08-08T09:52:05Z</time>
      </trkpt>
      <trkpt lat="-21.18842" lon="55.63946">
        <ele>2152.6</ele>
        <time>2013-08-08T09:52:11Z</time>
      </trkpt>
      <trkpt lat="-21.1884" lon="55.63946">
        <ele>2152.7</ele>
        <time>2013-08-08T09:52:12Z</time>
      </trkpt>
      <trkpt lat="-21.18826" lon="55.63951">
        <ele>2152.2</ele>
        <time>2013-08-08T09:52:23Z</time>
      </trkpt>
      <trkpt lat="-21.18818" lon="55.63952">
        <ele>2152.8</ele>
        <time>2013-08-08T09:52:29Z</time>
      </trkpt>
      <trkpt lat="-21.1881" lon="55.63956">
        <ele>2153.7</ele>
        <time>2013-08-08T09:52:35Z</time>
      </trkpt>
      <trkpt lat="-21.18804" lon="55.63962">
        <ele>2153.7</ele>
        <time>2013-08-08T09:52:41Z</time>
      </trkpt>
      <trkpt lat="-21.18798" lon="55.63968">
        <ele>2153.7</ele>
        <time>2013-08-08T09:52:46Z</time>
      </trkpt>
      <trkpt lat="-21.18791" lon="55.63973">
        <ele>2154</ele>
        <time>2013-08-08T09:52:52Z</time>
      </trkpt>
      <trkpt lat="-21.18784" lon="55.63977">
        <ele>2155.7</ele>
        <time>2013-08-08T09:52:59Z</time>
      </trkpt>
      <trkpt lat="-21.18776" lon="55.63981">
        <ele>2155.6</ele>
        <time>2013-08-08T09:53:06Z</time>
      </trkpt>
      <trkpt lat="-21.18768" lon="55.63982">
        <ele>2154.5</ele>
        <time>2013-08-08T09:53:11Z</time>
      </trkpt>
      <trkpt lat="-21.1876" lon="55.63984">
        <ele>2153.6</ele>
        <time>2013-08-08T09:53:17Z</time>
      </trkpt>
      <trkpt lat="-21.18759" lon="55.63984">
        <ele>2153.8</ele>
        <time>2013-08-08T09:53:18Z</time>
      </trkpt>
      <trkpt lat="-21.18746" lon="55.63978">
        <ele>2152.2</ele>
        <time>2013-08-08T09:53:30Z</time>
      </trkpt>
      <trkpt lat="-21.18738" lon="55.63976">
        <ele>2153.4</ele>
        <time>2013-08-08T09:53:37Z</time>
      </trkpt>
      <trkpt lat="-21.1873" lon="55.63973">
        <ele>2152.7</ele>
        <time>2013-08-08T09:53:42Z</time>
      </trkpt>
      <trkpt lat="-21.18725" lon="55.63979">
        <ele>2151.8</ele>
        <time>2013-08-08T09:53:47Z</time>
      </trkpt>
      <trkpt lat="-21.18716" lon="55.63981">
        <ele>2153.1</ele>
        <time>2013-08-08T09:53:55Z</time>
      </trkpt>
      <trkpt lat="-21.18708" lon="55.63977">
        <ele>2153.3</ele>
        <time>2013-08-08T09:54:01Z</time>
      </trkpt>
      <trkpt lat="-21.187" lon="55.63977">
        <ele>2152.2</ele>
        <time>2013-08-08T09:54:06Z</time>
      </trkpt>
      <trkpt lat="-21.18691" lon="55.63976">
        <ele>2151.8</ele>
        <time>2013-08-08T09:54:12Z</time>
      </trkpt>
      <trkpt lat="-21.18687" lon="55.63968">
        <ele>2151.3</ele>
        <time>2013-08-08T09:54:18Z</time>
      </trkpt>
      <trkpt lat="-21.18686" lon="55.63967">
        <ele>2150.9</ele>
        <time>2013-08-08T09:54:19Z</time>
      </trkpt>
      <trkpt lat="-21.18672" lon="55.63959">
        <ele>2149.1</ele>
        <time>2013-08-08T09:54:30Z</time>
      </trkpt>
      <trkpt lat="-21.18664" lon="55.63956">
        <ele>2148.9</ele>
        <time>2013-08-08T09:54:36Z</time>
      </trkpt>
      <trkpt lat="-21.18656" lon="55.63951">
        <ele>2148</ele>
        <time>2013-08-08T09:54:43Z</time>
      </trkpt>
      <trkpt lat="-21.1865" lon="55.63945">
        <ele>2147.2</ele>
        <time>2013-08-08T09:54:49Z</time>
      </trkpt>
      <trkpt lat="-21.18643" lon="55.63943">
        <ele>2147.3</ele>
        <time>2013-08-08T09:54:54Z</time>
      </trkpt>
      <trkpt lat="-21.18634" lon="55.63945">
        <ele>2145.9</ele>
        <time>2013-08-08T09:55:00Z</time>
      </trkpt>
      <trkpt lat="-21.18627" lon="55.63941">
        <ele>2145.6</ele>
        <time>2013-08-08T09:55:05Z</time>
      </trkpt>
      <trkpt lat="-21.18619" lon="55.63941">
        <ele>2146.4</ele>
        <time>2013-08-08T09:55:12Z</time>
      </trkpt>
      <trkpt lat="-21.18611" lon="55.6394">
        <ele>2146.3</ele>
        <time>2013-08-08T09:55:17Z</time>
      </trkpt>
      <trkpt lat="-21.18604" lon="55.63943">
        <ele>2146.7</ele>
        <time>2013-08-08T09:55:24Z</time>
      </trkpt>
      <trkpt lat="-21.18603" lon="55.63944">
        <ele>2146.7</ele>
        <time>2013-08-08T09:55:25Z</time>
      </trkpt>
      <trkpt lat="-21.18588" lon="55.63948">
        <ele>2146.8</ele>
        <time>2013-08-08T09:55:38Z</time>
      </trkpt>
      <trkpt lat="-21.18579" lon="55.63951">
        <ele>2146.5</ele>
        <time>2013-08-08T09:55:45Z</time>
      </trkpt>
      <trkpt lat="-21.18573" lon="55.63956">
        <ele>2146.4</ele>
        <time>2013-08-08T09:55:50Z</time>
      </trkpt>
      <trkpt lat="-21.18566" lon="55.6396">
        <ele>2145.4</ele>
        <time>2013-08-08T09:55:56Z</time>
      </trkpt>
      <trkpt lat="-21.18559" lon="55.63965">
        <ele>2144.8</ele>
        <time>2013-08-08T09:56:02Z</time>
      </trkpt>
      <trkpt lat="-21.18555" lon="55.63973">
        <ele>2143.9</ele>
        <time>2013-08-08T09:56:09Z</time>
      </trkpt>
      <trkpt lat="-21.18547" lon="55.63976">
        <ele>2142.8</ele>
        <time>2013-08-08T09:56:15Z</time>
      </trkpt>
      <trkpt lat="-21.18542" lon="55.63982">
        <ele>2143.1</ele>
        <time>2013-08-08T09:56:20Z</time>
      </trkpt>
      <trkpt lat="-21.18533" lon="55.6398">
        <ele>2143</ele>
        <time>2013-08-08T09:56:26Z</time>
      </trkpt>
      <trkpt lat="-21.18532" lon="55.6398">
        <ele>2143</ele>
        <time>2013-08-08T09:56:27Z</time>
      </trkpt>
      <trkpt lat="-21.18517" lon="55.63983">
        <ele>2141.4</ele>
        <time>2013-08-08T09:56:39Z</time>
      </trkpt>
      <trkpt lat="-21.18508" lon="55.63983">
        <ele>2141.7</ele>
        <time>2013-08-08T09:56:46Z</time>
      </trkpt>
      <trkpt lat="-21.185" lon="55.63983">
        <ele>2143.6</ele>
        <time>2013-08-08T09:56:53Z</time>
      </trkpt>
      <trkpt lat="-21.18491" lon="55.63983">
        <ele>2142.8</ele>
        <time>2013-08-08T09:56:59Z</time>
      </trkpt>
      <trkpt lat="-21.18483" lon="55.63985">
        <ele>2140.4</ele>
        <time>2013-08-08T09:57:07Z</time>
      </trkpt>
      <trkpt lat="-21.18475" lon="55.63985">
        <ele>2141.1</ele>
        <time>2013-08-08T09:57:13Z</time>
      </trkpt>
      <trkpt lat="-21.18467" lon="55.6399">
        <ele>2140.2</ele>
        <time>2013-08-08T09:57:22Z</time>
      </trkpt>
      <trkpt lat="-21.18458" lon="55.63989">
        <ele>2137.9</ele>
        <time>2013-08-08T09:57:32Z</time>
      </trkpt>
      <trkpt lat="-21.18457" lon="55.63988">
        <ele>2137.6</ele>
        <time>2013-08-08T09:57:33Z</time>
      </trkpt>
      <trkpt lat="-21.18441" lon="55.63985">
        <ele>2134.7</ele>
        <time>2013-08-08T09:57:46Z</time>
      </trkpt>
      <trkpt lat="-21.18433" lon="55.63984">
        <ele>2133.4</ele>
        <time>2013-08-08T09:57:54Z</time>
      </trkpt>
      <trkpt lat="-21.18425" lon="55.63984">
        <ele>2130.7</ele>
        <time>2013-08-08T09:57:59Z</time>
      </trkpt>
      <trkpt lat="-21.18417" lon="55.63983">
        <ele>2127.2</ele>
        <time>2013-08-08T09:58:07Z</time>
      </trkpt>
      <trkpt lat="-21.18409" lon="55.63982">
        <ele>2125.2</ele>
        <time>2013-08-08T09:58:16Z</time>
      </trkpt>
      <trkpt lat="-21.18401" lon="55.63983">
        <ele>2122.4</ele>
        <time>2013-08-08T09:58:21Z</time>
      </trkpt>
      <trkpt lat="-21.18393" lon="55.63985">
        <ele>2120</ele>
        <time>2013-08-08T09:58:28Z</time>
      </trkpt>
      <trkpt lat="-21.18386" lon="55.63989">
        <ele>2116.9</ele>
        <time>2013-08-08T09:58:35Z</time>
      </trkpt>
      <trkpt lat="-21.18385" lon="55.6399">
        <ele>2116.7</ele>
        <time>2013-08-08T09:58:36Z</time>
      </trkpt>
      <trkpt lat="-21.18369" lon="55.6399">
        <ele>2113.2</ele>
        <time>2013-08-08T09:58:49Z</time>
      </trkpt>
      <trkpt lat="-21.18361" lon="55.63993">
        <ele>2112.3</ele>
        <time>2013-08-08T09:58:56Z</time>
      </trkpt>
      <trkpt lat="-21.18353" lon="55.63994">
        <ele>2111.1</ele>
        <time>2013-08-08T09:59:02Z</time>
      </trkpt>
      <trkpt lat="-21.18346" lon="55.63993">
        <ele>2109.5</ele>
        <time>2013-08-08T09:59:07Z</time>
      </trkpt>
      <trkpt lat="-21.18337" lon="55.63994">
        <ele>2109</ele>
        <time>2013-08-08T09:59:14Z</time>
      </trkpt>
      <trkpt lat="-21.18329" lon="55.63992">
        <ele>2108.1</ele>
        <time>2013-08-08T09:59:21Z</time>
      </trkpt>
      <trkpt lat="-21.1832" lon="55.6399">
        <ele>2105.7</ele>
        <time>2013-08-08T09:59:30Z</time>
      </trkpt>
      <trkpt lat="-21.18313" lon="55.63986">
        <ele>2102.9</ele>
        <time>2013-08-08T09:59:40Z</time>
      </trkpt>
      <trkpt lat="-21.18311" lon="55.63985">
        <ele>2102.5</ele>
        <time>2013-08-08T09:59:41Z</time>
      </trkpt>
      <trkpt lat="-21.18297" lon="55.63982">
        <ele>2100.2</ele>
        <time>2013-08-08T09:59:53Z</time>
      </trkpt>
      <trkpt lat="-21.18288" lon="55.63981">
        <ele>2100.5</ele>
        <time>2013-08-08T10:00:00Z</time>
      </trkpt>
      <trkpt lat="-21.1828" lon="55.63981">
        <ele>2098.3</ele>
        <time>2013-08-08T10:00:07Z</time>
      </trkpt>
      <trkpt lat="-21.18272" lon="55.63981">
        <ele>2098.1</ele>
        <time>2013-08-08T10:00:14Z</time>
      </trkpt>
      <trkpt lat="-21.18264" lon="55.63978">
        <ele>2096.1</ele>
        <time>2013-08-08T10:00:24Z</time>
      </trkpt>
      <trkpt lat="-21.18257" lon="55.63975">
        <ele>2095</ele>
        <time>2013-08-08T10:00:30Z</time>
      </trkpt>
      <trkpt lat="-21.18249" lon="55.63973">
        <ele>2094.2</ele>
        <time>2013-08-08T10:00:37Z</time>
      </trkpt>
      <trkpt lat="-21.18241" lon="55.63971">
        <ele>2093</ele>
        <time>2013-08-08T10:00:43Z</time>
      </trkpt>
      <trkpt lat="-21.1824" lon="55.63971">
        <ele>2092.9</ele>
        <time>2013-08-08T10:00:44Z</time>
      </trkpt>
      <trkpt lat="-21.18225" lon="55.63969">
        <ele>2090.9</ele>
        <time>2013-08-08T10:00:54Z</time>
      </trkpt>
      <trkpt lat="-21.18217" lon="55.6397">
        <ele>2090.1</ele>
        <time>2013-08-08T10:01:01Z</time>
      </trkpt>
      <trkpt lat="-21.1821" lon="55.6397">
        <ele>2090.1</ele>
        <time>2013-08-08T10:01:07Z</time>
      </trkpt>
      <trkpt lat="-21.18202" lon="55.63971">
        <ele>2088</ele>
        <time>2013-08-08T10:01:12Z</time>
      </trkpt>
      <trkpt lat="-21.18193" lon="55.63973">
        <ele>2086</ele>
        <time>2013-08-08T10:01:18Z</time>
      </trkpt>
      <trkpt lat="-21.18186" lon="55.63977">
        <ele>2085.1</ele>
        <time>2013-08-08T10:01:24Z</time>
      </trkpt>
      <trkpt lat="-21.18179" lon="55.63982">
        <ele>2084.5</ele>
        <time>2013-08-08T10:01:29Z</time>
      </trkpt>
      <trkpt lat="-21.18172" lon="55.63987">
        <ele>2083.3</ele>
        <time>2013-08-08T10:01:35Z</time>
      </trkpt>
      <trkpt lat="-21.18166" lon="55.63992">
        <ele>2083</ele>
        <time>2013-08-08T10:01:40Z</time>
      </trkpt>
      <trkpt lat="-21.1816" lon="55.63998">
        <ele>2082.2</ele>
        <time>2013-08-08T10:01:46Z</time>
      </trkpt>
      <trkpt lat="-21.18158" lon="55.63999">
        <ele>2082.1</ele>
        <time>2013-08-08T10:01:47Z</time>
      </trkpt>
      <trkpt lat="-21.18146" lon="55.64009">
        <ele>2080.9</ele>
        <time>2013-08-08T10:01:58Z</time>
      </trkpt>
      <trkpt lat="-21.18139" lon="55.64013">
        <ele>2080.1</ele>
        <time>2013-08-08T10:02:04Z</time>
      </trkpt>
      <trkpt lat="-21.18131" lon="55.64018">
        <ele>2079</ele>
        <time>2013-08-08T10:02:10Z</time>
      </trkpt>
      <trkpt lat="-21.18124" lon="55.64022">
        <ele>2077.5</ele>
        <time>2013-08-08T10:02:16Z</time>
      </trkpt>
      <trkpt lat="-21.18115" lon="55.64023">
        <ele>2076.3</ele>
        <time>2013-08-08T10:02:23Z</time>
      </trkpt>
      <trkpt lat="-21.18107" lon="55.64021">
        <ele>2073.3</ele>
        <time>2013-08-08T10:02:31Z</time>
      </trkpt>
      <trkpt lat="-21.181" lon="55.64018">
        <ele>2071.3</ele>
        <time>2013-08-08T10:02:39Z</time>
      </trkpt>
      <trkpt lat="-21.18091" lon="55.64016">
        <ele>2069.4</ele>
        <time>2013-08-08T10:02:47Z</time>
      </trkpt>
      <trkpt lat="-21.1809" lon="55.64017">
        <ele>2069.5</ele>
        <time>2013-08-08T10:02:48Z</time>
      </trkpt>
      <trkpt lat="-21.18075" lon="55.64008">
        <ele>2065.1</ele>
        <time>2013-08-08T10:03:04Z</time>
      </trkpt>
      <trkpt lat="-21.18068" lon="55.64003">
        <ele>2063.8</ele>
        <time>2013-08-08T10:03:12Z</time>
      </trkpt>
      <trkpt lat="-21.18062" lon="55.63997">
        <ele>2062.2</ele>
        <time>2013-08-08T10:03:20Z</time>
      </trkpt>
      <trkpt lat="-21.18056" lon="55.63991">
        <ele>2061.4</ele>
        <time>2013-08-08T10:03:27Z</time>
      </trkpt>
      <trkpt lat="-21.18052" lon="55.63983">
        <ele>2059</ele>
        <time>2013-08-08T10:03:34Z</time>
      </trkpt>
      <trkpt lat="-21.18045" lon="55.63978">
        <ele>2056.8</ele>
        <time>2013-08-08T10:03:41Z</time>
      </trkpt>
      <trkpt lat="-21.18039" lon="55.63972">
        <ele>2054.7</ele>
        <time>2013-08-08T10:03:49Z</time>
      </trkpt>
      <trkpt lat="-21.18039" lon="55.63971">
        <ele>2054.5</ele>
        <time>2013-08-08T10:03:50Z</time>
      </trkpt>
      <trkpt lat="-21.18048" lon="55.63957">
        <ele>2049.8</ele>
        <time>2013-08-08T10:04:07Z</time>
      </trkpt>
      <trkpt lat="-21.1805" lon="55.63948">
        <ele>2049.5</ele>
        <time>2013-08-08T10:04:15Z</time>
      </trkpt>
      <trkpt lat="-21.18048" lon="55.6394">
        <ele>2047.9</ele>
        <time>2013-08-08T10:04:21Z</time>
      </trkpt>
      <trkpt lat="-21.18042" lon="55.63934">
        <ele>2045.8</ele>
        <time>2013-08-08T10:04:28Z</time>
      </trkpt>
      <trkpt lat="-21.1804" lon="55.63925">
        <ele>2044</ele>
        <time>2013-08-08T10:04:36Z</time>
      </trkpt>
      <trkpt lat="-21.18035" lon="55.63918">
        <ele>2040.5</ele>
        <time>2013-08-08T10:04:46Z</time>
      </trkpt>
      <trkpt lat="-21.18028" lon="55.63911">
        <ele>2036.1</ele>
        <time>2013-08-08T10:04:59Z</time>
      </trkpt>
      <trkpt lat="-21.18027" lon="55.63911">
        <ele>2035.2</ele>
        <time>2013-08-08T10:05:00Z</time>
      </trkpt>
      <trkpt lat="-21.18019" lon="55.63896">
        <ele>2027</ele>
        <time>2013-08-08T10:05:23Z</time>
      </trkpt>
      <trkpt lat="-21.18011" lon="55.63892">
        <ele>2025.5</ele>
        <time>2013-08-08T10:05:31Z</time>
      </trkpt>
      <trkpt lat="-21.18002" lon="55.6389">
        <ele>2023.8</ele>
        <time>2013-08-08T10:05:40Z</time>
      </trkpt>
      <trkpt lat="-21.18" lon="55.63881">
        <ele>2018.1</ele>
        <time>2013-08-08T10:06:05Z</time>
      </trkpt>
      <trkpt lat="-21.18" lon="55.63881">
        <ele>2018.1</ele>
        <time>2013-08-08T10:06:06Z</time>
      </trkpt>
      <trkpt lat="-21.17988" lon="55.63867">
        <ele>2009.1</ele>
        <time>2013-08-08T10:06:44Z</time>
      </trkpt>
      <trkpt lat="-21.1799" lon="55.63858">
        <ele>1998.6</ele>
        <time>2013-08-08T10:07:21Z</time>
      </trkpt>
      <trkpt lat="-21.17991" lon="55.63857">
        <ele>1998.4</ele>
        <time>2013-08-08T10:07:22Z</time>
      </trkpt>
      <trkpt lat="-21.17995" lon="55.6384">
        <ele>1991.1</ele>
        <time>2013-08-08T10:07:55Z</time>
      </trkpt>
      <trkpt lat="-21.17999" lon="55.63834">
        <ele>1990.1</ele>
        <time>2013-08-08T10:08:01Z</time>
      </trkpt>
      <trkpt lat="-21.18004" lon="55.63826">
        <ele>1988</ele>
        <time>2013-08-08T10:08:08Z</time>
      </trkpt>
      <trkpt lat="-21.18012" lon="55.63822">
        <ele>1986.3</ele>
        <time>2013-08-08T10:08:22Z</time>
      </trkpt>
      <trkpt lat="-21.18012" lon="55.63822">
        <ele>1986.1</ele>
        <time>2013-08-08T10:08:23Z</time>
      </trkpt>
      <trkpt lat="-21.18008" lon="55.63805">
        <ele>1972.9</ele>
        <time>2013-08-08T10:09:15Z</time>
      </trkpt>
      <trkpt lat="-21.18007" lon="55.63796">
        <ele>1970.5</ele>
        <time>2013-08-08T10:09:28Z</time>
      </trkpt>
      <trkpt lat="-21.18007" lon="55.63795">
        <ele>1970</ele>
        <time>2013-08-08T10:09:29Z</time>
      </trkpt>
      <trkpt lat="-21.17996" lon="55.63782">
        <ele>1963.3</ele>
        <time>2013-08-08T10:09:56Z</time>
      </trkpt>
      <trkpt lat="-21.18005" lon="55.63781">
        <ele>1960</ele>
        <time>2013-08-08T10:10:21Z</time>
      </trkpt>
      <trkpt lat="-21.18012" lon="55.63775">
        <ele>1955.1</ele>
        <time>2013-08-08T10:10:41Z</time>
      </trkpt>
      <trkpt lat="-21.18012" lon="55.63774">
        <ele>1954.4</ele>
        <time>2013-08-08T10:10:42Z</time>
      </trkpt>
      <trkpt lat="-21.18011" lon="55.63756">
        <ele>1948</ele>
        <time>2013-08-08T10:11:14Z</time>
      </trkpt>
      <trkpt lat="-21.18013" lon="55.63747">
        <ele>1941.7</ele>
        <time>2013-08-08T10:11:35Z</time>
      </trkpt>
      <trkpt lat="-21.18014" lon="55.63738">
        <ele>1934.4</ele>
        <time>2013-08-08T10:12:05Z</time>
      </trkpt>
      <trkpt lat="-21.18014" lon="55.63737">
        <ele>1934.5</ele>
        <time>2013-08-08T10:12:06Z</time>
      </trkpt>
      <trkpt lat="-21.18" lon="55.63723">
        <ele>1927</ele>
        <time>2013-08-08T10:12:56Z</time>
      </trkpt>
      <trkpt lat="-21.17995" lon="55.63717">
        <ele>1923.8</ele>
        <time>2013-08-08T10:13:18Z</time>
      </trkpt>
      <trkpt lat="-21.17994" lon="55.63715">
        <ele>1924</ele>
        <time>2013-08-08T10:13:19Z</time>
      </trkpt>
      <trkpt lat="-21.17999" lon="55.63708">
        <ele>1918.4</ele>
        <time>2013-08-08T10:14:04Z</time>
      </trkpt>
      <trkpt lat="-21.18001" lon="55.63699">
        <ele>1915</ele>
        <time>2013-08-08T10:14:28Z</time>
      </trkpt>
      <trkpt lat="-21.18" lon="55.63698">
        <ele>1914.4</ele>
        <time>2013-08-08T10:14:29Z</time>
      </trkpt>
      <trkpt lat="-21.17989" lon="55.63687">
        <ele>1907.3</ele>
        <time>2013-08-08T10:15:07Z</time>
      </trkpt>
      <trkpt lat="-21.17982" lon="55.63681">
        <ele>1905.6</ele>
        <time>2013-08-08T10:15:25Z</time>
      </trkpt>
      <trkpt lat="-21.17975" lon="55.63676">
        <ele>1901.6</ele>
        <time>2013-08-08T10:15:46Z</time>
      </trkpt>
      <trkpt lat="-21.17974" lon="55.63676">
        <ele>1901.6</ele>
        <time>2013-08-08T10:15:47Z</time>
      </trkpt>
      <trkpt lat="-21.1795" lon="55.63662">
        <ele>1901</ele>
        <time>2013-08-08T10:16:28Z</time>
      </trkpt>
      <trkpt lat="-21.17957" lon="55.63654">
        <ele>1903</ele>
        <time>2013-08-08T10:16:41Z</time>
      </trkpt>
      <trkpt lat="-21.17955" lon="55.63644">
        <ele>1904</ele>
        <time>2013-08-08T10:16:53Z</time>
      </trkpt>
      <trkpt lat="-21.17954" lon="55.63644">
        <ele>1905.8</ele>
        <time>2013-08-08T10:16:54Z</time>
      </trkpt>
      <trkpt lat="-21.1794" lon="55.63639">
        <ele>1909</ele>
        <time>2013-08-08T10:17:25Z</time>
      </trkpt>
      <trkpt lat="-21.17932" lon="55.63635">
        <ele>1911.1</ele>
        <time>2013-08-08T10:17:35Z</time>
      </trkpt>
      <trkpt lat="-21.17925" lon="55.6363">
        <ele>1911.3</ele>
        <time>2013-08-08T10:17:42Z</time>
      </trkpt>
      <trkpt lat="-21.1792" lon="55.63624">
        <ele>1911.1</ele>
        <time>2013-08-08T10:17:47Z</time>
      </trkpt>
      <trkpt lat="-21.17916" lon="55.63615">
        <ele>1911</ele>
        <time>2013-08-08T10:17:52Z</time>
      </trkpt>
      <trkpt lat="-21.17908" lon="55.63615">
        <ele>1912.1</ele>
        <time>2013-08-08T10:18:00Z</time>
      </trkpt>
      <trkpt lat="-21.17907" lon="55.63615">
        <ele>1911.9</ele>
        <time>2013-08-08T10:18:01Z</time>
      </trkpt>
      <trkpt lat="-21.17893" lon="55.63608">
        <ele>1909.4</ele>
        <time>2013-08-08T10:18:18Z</time>
      </trkpt>
      <trkpt lat="-21.17888" lon="55.63615">
        <ele>1908.2</ele>
        <time>2013-08-08T10:18:24Z</time>
      </trkpt>
      <trkpt lat="-21.17886" lon="55.63623">
        <ele>1907.5</ele>
        <time>2013-08-08T10:18:30Z</time>
      </trkpt>
      <trkpt lat="-21.17879" lon="55.6363">
        <ele>1908.3</ele>
        <time>2013-08-08T10:18:39Z</time>
      </trkpt>
      <trkpt lat="-21.17873" lon="55.63636">
        <ele>1908.6</ele>
        <time>2013-08-08T10:18:46Z</time>
      </trkpt>
      <trkpt lat="-21.17866" lon="55.63642">
        <ele>1907.2</ele>
        <time>2013-08-08T10:18:55Z</time>
      </trkpt>
      <trkpt lat="-21.17864" lon="55.63651">
        <ele>1904.6</ele>
        <time>2013-08-08T10:19:02Z</time>
      </trkpt>
      <trkpt lat="-21.17863" lon="55.63651">
        <ele>1904.7</ele>
        <time>2013-08-08T10:19:03Z</time>
      </trkpt>
      <trkpt lat="-21.17848" lon="55.63654">
        <ele>1899.8</ele>
        <time>2013-08-08T10:19:20Z</time>
      </trkpt>
      <trkpt lat="-21.1784" lon="55.63654">
        <ele>1898.2</ele>
        <time>2013-08-08T10:19:27Z</time>
      </trkpt>
      <trkpt lat="-21.17832" lon="55.63651">
        <ele>1897.9</ele>
        <time>2013-08-08T10:19:35Z</time>
      </trkpt>
      <trkpt lat="-21.17824" lon="55.63646">
        <ele>1895.7</ele>
        <time>2013-08-08T10:19:49Z</time>
      </trkpt>
      <trkpt lat="-21.17816" lon="55.63644">
        <ele>1893.1</ele>
        <time>2013-08-08T10:19:58Z</time>
      </trkpt>
      <trkpt lat="-21.17809" lon="55.63639">
        <ele>1889.9</ele>
        <time>2013-08-08T10:20:08Z</time>
      </trkpt>
      <trkpt lat="-21.17809" lon="55.63637">
        <ele>1889</ele>
        <time>2013-08-08T10:20:09Z</time>
      </trkpt>
      <trkpt lat="-21.17798" lon="55.63623">
        <ele>1883.2</ele>
        <time>2013-08-08T10:20:34Z</time>
      </trkpt>
      <trkpt lat="-21.17791" lon="55.63618">
        <ele>1880.4</ele>
        <time>2013-08-08T10:20:43Z</time>
      </trkpt>
      <trkpt lat="-21.17782" lon="55.63616">
        <ele>1876.8</ele>
        <time>2013-08-08T10:20:59Z</time>
      </trkpt>
      <trkpt lat="-21.17774" lon="55.63614">
        <ele>1872.6</ele>
        <time>2013-08-08T10:21:14Z</time>
      </trkpt>
      <trkpt lat="-21.17773" lon="55.63614">
        <ele>1872.6</ele>
        <time>2013-08-08T10:21:15Z</time>
      </trkpt>
      <trkpt lat="-21.17758" lon="55.63606">
        <ele>1863.9</ele>
        <time>2013-08-08T10:21:42Z</time>
      </trkpt>
      <trkpt lat="-21.1775" lon="55.63603">
        <ele>1861.3</ele>
        <time>2013-08-08T10:21:51Z</time>
      </trkpt>
      <trkpt lat="-21.17747" lon="55.63596">
        <ele>1855.7</ele>
        <time>2013-08-08T10:22:10Z</time>
      </trkpt>
      <trkpt lat="-21.17744" lon="55.63587">
        <ele>1853.3</ele>
        <time>2013-08-08T10:22:25Z</time>
      </trkpt>
      <trkpt lat="-21.17743" lon="55.63586">
        <ele>1853.1</ele>
        <time>2013-08-08T10:22:26Z</time>
      </trkpt>
      <trkpt lat="-21.17732" lon="55.63573">
        <ele>1847.7</ele>
        <time>2013-08-08T10:22:51Z</time>
      </trkpt>
      <trkpt lat="-21.17724" lon="55.63572">
        <ele>1846.3</ele>
        <time>2013-08-08T10:23:04Z</time>
      </trkpt>
      <trkpt lat="-21.17715" lon="55.6357">
        <ele>1843.4</ele>
        <time>2013-08-08T10:23:20Z</time>
      </trkpt>
      <trkpt lat="-21.17706" lon="55.6357">
        <ele>1839.7</ele>
        <time>2013-08-08T10:23:43Z</time>
      </trkpt>
      <trkpt lat="-21.17705" lon="55.63569">
        <ele>1839.4</ele>
        <time>2013-08-08T10:23:44Z</time>
      </trkpt>
      <trkpt lat="-21.17692" lon="55.63559">
        <ele>1835.3</ele>
        <time>2013-08-08T10:24:08Z</time>
      </trkpt>
      <trkpt lat="-21.17685" lon="55.63554">
        <ele>1831.7</ele>
        <time>2013-08-08T10:24:22Z</time>
      </trkpt>
      <trkpt lat="-21.17679" lon="55.63546">
        <ele>1830.1</ele>
        <time>2013-08-08T10:24:33Z</time>
      </trkpt>
      <trkpt lat="-21.17672" lon="55.63541">
        <ele>1826.3</ele>
        <time>2013-08-08T10:24:45Z</time>
      </trkpt>
      <trkpt lat="-21.17672" lon="55.63541">
        <ele>1826.3</ele>
        <time>2013-08-08T10:24:46Z</time>
      </trkpt>
      <trkpt lat="-21.17659" lon="55.6353">
        <ele>1820.7</ele>
        <time>2013-08-08T10:25:05Z</time>
      </trkpt>
      <trkpt lat="-21.17652" lon="55.63525">
        <ele>1819.1</ele>
        <time>2013-08-08T10:25:15Z</time>
      </trkpt>
      <trkpt lat="-21.17647" lon="55.63517">
        <ele>1817.9</ele>
        <time>2013-08-08T10:25:30Z</time>
      </trkpt>
      <trkpt lat="-21.17641" lon="55.6351">
        <ele>1816.5</ele>
        <time>2013-08-08T10:25:39Z</time>
      </trkpt>
      <trkpt lat="-21.17635" lon="55.63503">
        <ele>1814.5</ele>
        <time>2013-08-08T10:25:51Z</time>
      </trkpt>
      <trkpt lat="-21.17634" lon="55.63503">
        <ele>1814.4</ele>
        <time>2013-08-08T10:25:52Z</time>
      </trkpt>
      <trkpt lat="-21.1762" lon="55.63498">
        <ele>1812.3</ele>
        <time>2013-08-08T10:26:07Z</time>
      </trkpt>
      <trkpt lat="-21.17612" lon="55.63495">
        <ele>1810.7</ele>
        <time>2013-08-08T10:26:18Z</time>
      </trkpt>
      <trkpt lat="-21.17607" lon="55.63488">
        <ele>1810</ele>
        <time>2013-08-08T10:26:28Z</time>
      </trkpt>
      <trkpt lat="-21.176" lon="55.63482">
        <ele>1808.7</ele>
        <time>2013-08-08T10:26:39Z</time>
      </trkpt>
      <trkpt lat="-21.17598" lon="55.63473">
        <ele>1806.6</ele>
        <time>2013-08-08T10:26:51Z</time>
      </trkpt>
      <trkpt lat="-21.17599" lon="55.63458">
        <ele>1806.2</ele>
        <time>2013-08-08T10:26:58Z</time>
      </trkpt>
      <trkpt lat="-21.17599" lon="55.63456">
        <ele>1805.9</ele>
        <time>2013-08-08T10:26:59Z</time>
      </trkpt>
      <trkpt lat="-21.17597" lon="55.63443">
        <ele>1808.1</ele>
        <time>2013-08-08T10:27:10Z</time>
      </trkpt>
      <trkpt lat="-21.17588" lon="55.63443">
        <ele>1807.6</ele>
        <time>2013-08-08T10:27:24Z</time>
      </trkpt>
      <trkpt lat="-21.1758" lon="55.63435">
        <ele>1806</ele>
        <time>2013-08-08T10:27:45Z</time>
      </trkpt>
      <trkpt lat="-21.17569" lon="55.63431">
        <ele>1807</ele>
        <time>2013-08-08T10:27:55Z</time>
      </trkpt>
      <trkpt lat="-21.17562" lon="55.63434">
        <ele>1806.3</ele>
        <time>2013-08-08T10:28:03Z</time>
      </trkpt>
      <trkpt lat="-21.17561" lon="55.63435">
        <ele>1806.4</ele>
        <time>2013-08-08T10:28:04Z</time>
      </trkpt>
      <trkpt lat="-21.17545" lon="55.63439">
        <ele>1800.7</ele>
        <time>2013-08-08T10:28:22Z</time>
      </trkpt>
      <trkpt lat="-21.17536" lon="55.63439">
        <ele>1796.3</ele>
        <time>2013-08-08T10:28:34Z</time>
      </trkpt>
      <trkpt lat="-21.1753" lon="55.63445">
        <ele>1792.6</ele>
        <time>2013-08-08T10:28:52Z</time>
      </trkpt>
      <trkpt lat="-21.17522" lon="55.63443">
        <ele>1788.3</ele>
        <time>2013-08-08T10:29:11Z</time>
      </trkpt>
      <trkpt lat="-21.17521" lon="55.63443">
        <ele>1788.1</ele>
        <time>2013-08-08T10:29:12Z</time>
      </trkpt>
      <trkpt lat="-21.17507" lon="55.63433">
        <ele>1781.7</ele>
        <time>2013-08-08T10:29:35Z</time>
      </trkpt>
      <trkpt lat="-21.175" lon="55.63432">
        <ele>1779.9</ele>
        <time>2013-08-08T10:29:44Z</time>
      </trkpt>
      <trkpt lat="-21.17494" lon="55.63425">
        <ele>1778</ele>
        <time>2013-08-08T10:29:54Z</time>
      </trkpt>
      <trkpt lat="-21.1749" lon="55.63418">
        <ele>1778.2</ele>
        <time>2013-08-08T10:29:59Z</time>
      </trkpt>
      <trkpt lat="-21.17484" lon="55.63411">
        <ele>1771.1</ele>
        <time>2013-08-08T10:30:28Z</time>
      </trkpt>
      <trkpt lat="-21.17484" lon="55.6341">
        <ele>1770.9</ele>
        <time>2013-08-08T10:30:29Z</time>
      </trkpt>
      <trkpt lat="-21.17472" lon="55.634">
        <ele>1769.1</ele>
        <time>2013-08-08T10:31:11Z</time>
      </trkpt>
      <trkpt lat="-21.17466" lon="55.63393">
        <ele>1767.1</ele>
        <time>2013-08-08T10:31:25Z</time>
      </trkpt>
      <trkpt lat="-21.17457" lon="55.6339">
        <ele>1759.1</ele>
        <time>2013-08-08T10:31:56Z</time>
      </trkpt>
      <trkpt lat="-21.17457" lon="55.6339">
        <ele>1759.3</ele>
        <time>2013-08-08T10:31:57Z</time>
      </trkpt>
      <trkpt lat="-21.17442" lon="55.63383">
        <ele>1755.2</ele>
        <time>2013-08-08T10:32:40Z</time>
      </trkpt>
      <trkpt lat="-21.17433" lon="55.63382">
        <ele>1751.9</ele>
        <time>2013-08-08T10:32:53Z</time>
      </trkpt>
      <trkpt lat="-21.17425" lon="55.63379">
        <ele>1747.6</ele>
        <time>2013-08-08T10:33:13Z</time>
      </trkpt>
      <trkpt lat="-21.17424" lon="55.63378">
        <ele>1747.3</ele>
        <time>2013-08-08T10:33:14Z</time>
      </trkpt>
      <trkpt lat="-21.17411" lon="55.63369">
        <ele>1744.2</ele>
        <time>2013-08-08T10:33:31Z</time>
      </trkpt>
      <trkpt lat="-21.17402" lon="55.63366">
        <ele>1742.3</ele>
        <time>2013-08-08T10:33:42Z</time>
      </trkpt>
      <trkpt lat="-21.17394" lon="55.63363">
        <ele>1739.4</ele>
        <time>2013-08-08T10:33:55Z</time>
      </trkpt>
      <trkpt lat="-21.17386" lon="55.63362">
        <ele>1735.8</ele>
        <time>2013-08-08T10:34:07Z</time>
      </trkpt>
      <trkpt lat="-21.17377" lon="55.63364">
        <ele>1732.9</ele>
        <time>2013-08-08T10:34:21Z</time>
      </trkpt>
      <trkpt lat="-21.17376" lon="55.63364">
        <ele>1732.6</ele>
        <time>2013-08-08T10:34:22Z</time>
      </trkpt>
      <trkpt lat="-21.17361" lon="55.63363">
        <ele>1727.9</ele>
        <time>2013-08-08T10:34:44Z</time>
      </trkpt>
      <trkpt lat="-21.17354" lon="55.63358">
        <ele>1725.6</ele>
        <time>2013-08-08T10:34:56Z</time>
      </trkpt>
      <trkpt lat="-21.17345" lon="55.63356">
        <ele>1723.1</ele>
        <time>2013-08-08T10:35:08Z</time>
      </trkpt>
      <trkpt lat="-21.17336" lon="55.63357">
        <ele>1719.7</ele>
        <time>2013-08-08T10:35:22Z</time>
      </trkpt>
      <trkpt lat="-21.17335" lon="55.63356">
        <ele>1719.5</ele>
        <time>2013-08-08T10:35:23Z</time>
      </trkpt>
      <trkpt lat="-21.17319" lon="55.63362">
        <ele>1714.8</ele>
        <time>2013-08-08T10:35:48Z</time>
      </trkpt>
      <trkpt lat="-21.17311" lon="55.63366">
        <ele>1711.9</ele>
        <time>2013-08-08T10:36:02Z</time>
      </trkpt>
      <trkpt lat="-21.17304" lon="55.63371">
        <ele>1709.4</ele>
        <time>2013-08-08T10:36:13Z</time>
      </trkpt>
      <trkpt lat="-21.17296" lon="55.63372">
        <ele>1707.9</ele>
        <time>2013-08-08T10:36:24Z</time>
      </trkpt>
      <trkpt lat="-21.17294" lon="55.63373">
        <ele>1707.7</ele>
        <time>2013-08-08T10:36:25Z</time>
      </trkpt>
      <trkpt lat="-21.17279" lon="55.63372">
        <ele>1702</ele>
        <time>2013-08-08T10:36:48Z</time>
      </trkpt>
      <trkpt lat="-21.1727" lon="55.63374">
        <ele>1699.5</ele>
        <time>2013-08-08T10:37:03Z</time>
      </trkpt>
      <trkpt lat="-21.17262" lon="55.63371">
        <ele>1697.8</ele>
        <time>2013-08-08T10:37:16Z</time>
      </trkpt>
      <trkpt lat="-21.17254" lon="55.63375">
        <ele>1695.8</ele>
        <time>2013-08-08T10:37:27Z</time>
      </trkpt>
      <trkpt lat="-21.17253" lon="55.63375">
        <ele>1695.3</ele>
        <time>2013-08-08T10:37:28Z</time>
      </trkpt>
      <trkpt lat="-21.17237" lon="55.63371">
        <ele>1688.9</ele>
        <time>2013-08-08T10:37:52Z</time>
      </trkpt>
      <trkpt lat="-21.17229" lon="55.63373">
        <ele>1685.9</ele>
        <time>2013-08-08T10:38:05Z</time>
      </trkpt>
      <trkpt lat="-21.17219" lon="55.63373">
        <ele>1681</ele>
        <time>2013-08-08T10:38:26Z</time>
      </trkpt>
      <trkpt lat="-21.17211" lon="55.63377">
        <ele>1679.3</ele>
        <time>2013-08-08T10:38:38Z</time>
      </trkpt>
      <trkpt lat="-21.1721" lon="55.63377">
        <ele>1679.2</ele>
        <time>2013-08-08T10:38:39Z</time>
      </trkpt>
      <trkpt lat="-21.17197" lon="55.63368">
        <ele>1674.8</ele>
        <time>2013-08-08T10:38:57Z</time>
      </trkpt>
      <trkpt lat="-21.17189" lon="55.63365">
        <ele>1670.9</ele>
        <time>2013-08-08T10:39:16Z</time>
      </trkpt>
      <trkpt lat="-21.1718" lon="55.63365">
        <ele>1665.7</ele>
        <time>2013-08-08T10:39:39Z</time>
      </trkpt>
      <trkpt lat="-21.17179" lon="55.63365">
        <ele>1665.4</ele>
        <time>2013-08-08T10:39:40Z</time>
      </trkpt>
      <trkpt lat="-21.17163" lon="55.63362">
        <ele>1659.7</ele>
        <time>2013-08-08T10:40:08Z</time>
      </trkpt>
      <trkpt lat="-21.17155" lon="55.63362">
        <ele>1658.2</ele>
        <time>2013-08-08T10:40:16Z</time>
      </trkpt>
      <trkpt lat="-21.17145" lon="55.63362">
        <ele>1655</ele>
        <time>2013-08-08T10:40:30Z</time>
      </trkpt>
      <trkpt lat="-21.17137" lon="55.63361">
        <ele>1651.3</ele>
        <time>2013-08-08T10:40:50Z</time>
      </trkpt>
      <trkpt lat="-21.17136" lon="55.63362">
        <ele>1651</ele>
        <time>2013-08-08T10:40:51Z</time>
      </trkpt>
      <trkpt lat="-21.1712" lon="55.63361">
        <ele>1645.6</ele>
        <time>2013-08-08T10:41:15Z</time>
      </trkpt>
      <trkpt lat="-21.17111" lon="55.6336">
        <ele>1642.9</ele>
        <time>2013-08-08T10:41:28Z</time>
      </trkpt>
      <trkpt lat="-21.17102" lon="55.63361">
        <ele>1641</ele>
        <time>2013-08-08T10:41:39Z</time>
      </trkpt>
      <trkpt lat="-21.17094" lon="55.63357">
        <ele>1638.8</ele>
        <time>2013-08-08T10:41:53Z</time>
      </trkpt>
      <trkpt lat="-21.17094" lon="55.63357">
        <ele>1638.8</ele>
        <time>2013-08-08T10:41:54Z</time>
      </trkpt>
      <trkpt lat="-21.17077" lon="55.63353">
        <ele>1634.3</ele>
        <time>2013-08-08T10:42:16Z</time>
      </trkpt>
      <trkpt lat="-21.17069" lon="55.63357">
        <ele>1631.9</ele>
        <time>2013-08-08T10:42:27Z</time>
      </trkpt>
      <trkpt lat="-21.17061" lon="55.63354">
        <ele>1628.1</ele>
        <time>2013-08-08T10:42:40Z</time>
      </trkpt>
      <trkpt lat="-21.17054" lon="55.63348">
        <ele>1625.2</ele>
        <time>2013-08-08T10:42:52Z</time>
      </trkpt>
      <trkpt lat="-21.17045" lon="55.63347">
        <ele>1622.2</ele>
        <time>2013-08-08T10:43:05Z</time>
      </trkpt>
      <trkpt lat="-21.17045" lon="55.63348">
        <ele>1622.2</ele>
        <time>2013-08-08T10:43:06Z</time>
      </trkpt>
      <trkpt lat="-21.1703" lon="55.63355">
        <ele>1617.2</ele>
        <time>2013-08-08T10:43:24Z</time>
      </trkpt>
      <trkpt lat="-21.17022" lon="55.63356">
        <ele>1616.6</ele>
        <time>2013-08-08T10:43:34Z</time>
      </trkpt>
      <trkpt lat="-21.17014" lon="55.63359">
        <ele>1613.5</ele>
        <time>2013-08-08T10:43:42Z</time>
      </trkpt>
      <trkpt lat="-21.17006" lon="55.63362">
        <ele>1611.6</ele>
        <time>2013-08-08T10:43:52Z</time>
      </trkpt>
      <trkpt lat="-21.16999" lon="55.63366">
        <ele>1610.3</ele>
        <time>2013-08-08T10:44:01Z</time>
      </trkpt>
      <trkpt lat="-21.16991" lon="55.63369">
        <ele>1607.8</ele>
        <time>2013-08-08T10:44:10Z</time>
      </trkpt>
      <trkpt lat="-21.1699" lon="55.6337">
        <ele>1607.6</ele>
        <time>2013-08-08T10:44:11Z</time>
      </trkpt>
      <trkpt lat="-21.16975" lon="55.63374">
        <ele>1602.1</ele>
        <time>2013-08-08T10:44:28Z</time>
      </trkpt>
      <trkpt lat="-21.16967" lon="55.63375">
        <ele>1600.3</ele>
        <time>2013-08-08T10:44:36Z</time>
      </trkpt>
      <trkpt lat="-21.16958" lon="55.63373">
        <ele>1596.4</ele>
        <time>2013-08-08T10:44:48Z</time>
      </trkpt>
      <trkpt lat="-21.1695" lon="55.63374">
        <ele>1594</ele>
        <time>2013-08-08T10:44:58Z</time>
      </trkpt>
      <trkpt lat="-21.16941" lon="55.63374">
        <ele>1591.3</ele>
        <time>2013-08-08T10:45:12Z</time>
      </trkpt>
      <trkpt lat="-21.16941" lon="55.63374">
        <ele>1591.3</ele>
        <time>2013-08-08T10:45:13Z</time>
      </trkpt>
      <trkpt lat="-21.16928" lon="55.63364">
        <ele>1584.5</ele>
        <time>2013-08-08T10:45:35Z</time>
      </trkpt>
      <trkpt lat="-21.16923" lon="55.63358">
        <ele>1582.5</ele>
        <time>2013-08-08T10:45:45Z</time>
      </trkpt>
      <trkpt lat="-21.16915" lon="55.63353">
        <ele>1579.9</ele>
        <time>2013-08-08T10:45:53Z</time>
      </trkpt>
      <trkpt lat="-21.16913" lon="55.63344">
        <ele>1579.3</ele>
        <time>2013-08-08T10:46:03Z</time>
      </trkpt>
      <trkpt lat="-21.16906" lon="55.63339">
        <ele>1575.8</ele>
        <time>2013-08-08T10:46:12Z</time>
      </trkpt>
      <trkpt lat="-21.169" lon="55.63332">
        <ele>1574.2</ele>
        <time>2013-08-08T10:46:19Z</time>
      </trkpt>
      <trkpt lat="-21.16899" lon="55.63331">
        <ele>1573.9</ele>
        <time>2013-08-08T10:46:20Z</time>
      </trkpt>
      <trkpt lat="-21.16886" lon="55.63322">
        <ele>1568.5</ele>
        <time>2013-08-08T10:46:39Z</time>
      </trkpt>
      <trkpt lat="-21.16882" lon="55.63314">
        <ele>1566.8</ele>
        <time>2013-08-08T10:46:49Z</time>
      </trkpt>
      <trkpt lat="-21.1688" lon="55.63305">
        <ele>1563.8</ele>
        <time>2013-08-08T10:47:03Z</time>
      </trkpt>
      <trkpt lat="-21.16879" lon="55.63296">
        <ele>1564.5</ele>
        <time>2013-08-08T10:47:12Z</time>
      </trkpt>
      <trkpt lat="-21.16877" lon="55.63288">
        <ele>1563.2</ele>
        <time>2013-08-08T10:47:18Z</time>
      </trkpt>
      <trkpt lat="-21.16872" lon="55.63281">
        <ele>1560.8</ele>
        <time>2013-08-08T10:47:25Z</time>
      </trkpt>
      <trkpt lat="-21.16871" lon="55.6328">
        <ele>1560.5</ele>
        <time>2013-08-08T10:47:26Z</time>
      </trkpt>
      <trkpt lat="-21.16856" lon="55.63278">
        <ele>1556.7</ele>
        <time>2013-08-08T10:47:42Z</time>
      </trkpt>
      <trkpt lat="-21.16848" lon="55.63275">
        <ele>1554.2</ele>
        <time>2013-08-08T10:47:49Z</time>
      </trkpt>
      <trkpt lat="-21.16841" lon="55.6327">
        <ele>1551.7</ele>
        <time>2013-08-08T10:47:58Z</time>
      </trkpt>
      <trkpt lat="-21.16833" lon="55.63272">
        <ele>1549.4</ele>
        <time>2013-08-08T10:48:07Z</time>
      </trkpt>
      <trkpt lat="-21.16825" lon="55.63275">
        <ele>1548</ele>
        <time>2013-08-08T10:48:15Z</time>
      </trkpt>
      <trkpt lat="-21.16817" lon="55.63276">
        <ele>1546.5</ele>
        <time>2013-08-08T10:48:23Z</time>
      </trkpt>
      <trkpt lat="-21.16808" lon="55.63276">
        <ele>1540.9</ele>
        <time>2013-08-08T10:48:40Z</time>
      </trkpt>
      <trkpt lat="-21.16808" lon="55.63276">
        <ele>1540.2</ele>
        <time>2013-08-08T10:48:41Z</time>
      </trkpt>
      <trkpt lat="-21.16792" lon="55.63271">
        <ele>1533.3</ele>
        <time>2013-08-08T10:49:04Z</time>
      </trkpt>
      <trkpt lat="-21.16784" lon="55.63268">
        <ele>1531.4</ele>
        <time>2013-08-08T10:49:16Z</time>
      </trkpt>
      <trkpt lat="-21.16775" lon="55.63268">
        <ele>1528.5</ele>
        <time>2013-08-08T10:49:29Z</time>
      </trkpt>
      <trkpt lat="-21.16767" lon="55.63265">
        <ele>1526.2</ele>
        <time>2013-08-08T10:49:38Z</time>
      </trkpt>
      <trkpt lat="-21.16758" lon="55.63267">
        <ele>1525.5</ele>
        <time>2013-08-08T10:49:46Z</time>
      </trkpt>
      <trkpt lat="-21.16758" lon="55.63268">
        <ele>1525.1</ele>
        <time>2013-08-08T10:49:47Z</time>
      </trkpt>
      <trkpt lat="-21.16743" lon="55.6326">
        <ele>1519.6</ele>
        <time>2013-08-08T10:50:05Z</time>
      </trkpt>
      <trkpt lat="-21.16735" lon="55.63256">
        <ele>1517.1</ele>
        <time>2013-08-08T10:50:14Z</time>
      </trkpt>
      <trkpt lat="-21.16726" lon="55.63255">
        <ele>1514.8</ele>
        <time>2013-08-08T10:50:25Z</time>
      </trkpt>
      <trkpt lat="-21.16718" lon="55.63254">
        <ele>1512.2</ele>
        <time>2013-08-08T10:50:40Z</time>
      </trkpt>
      <trkpt lat="-21.16709" lon="55.63252">
        <ele>1508.3</ele>
        <time>2013-08-08T10:50:52Z</time>
      </trkpt>
      <trkpt lat="-21.16709" lon="55.63252">
        <ele>1508.2</ele>
        <time>2013-08-08T10:50:53Z</time>
      </trkpt>
      <trkpt lat="-21.16693" lon="55.63245">
        <ele>1502.6</ele>
        <time>2013-08-08T10:51:12Z</time>
      </trkpt>
      <trkpt lat="-21.16686" lon="55.63241">
        <ele>1498.7</ele>
        <time>2013-08-08T10:51:20Z</time>
      </trkpt>
      <trkpt lat="-21.16679" lon="55.63236">
        <ele>1496.1</ele>
        <time>2013-08-08T10:51:29Z</time>
      </trkpt>
      <trkpt lat="-21.1668" lon="55.63227">
        <ele>1494.7</ele>
        <time>2013-08-08T10:51:41Z</time>
      </trkpt>
      <trkpt lat="-21.16684" lon="55.63219">
        <ele>1493.9</ele>
        <time>2013-08-08T10:51:53Z</time>
      </trkpt>
      <trkpt lat="-21.16685" lon="55.63218">
        <ele>1493.9</ele>
        <time>2013-08-08T10:51:54Z</time>
      </trkpt>
      <trkpt lat="-21.16697" lon="55.63201">
        <ele>1494</ele>
        <time>2013-08-08T10:52:16Z</time>
      </trkpt>
      <trkpt lat="-21.16701" lon="55.63191">
        <ele>1495</ele>
        <time>2013-08-08T10:52:29Z</time>
      </trkpt>
      <trkpt lat="-21.16705" lon="55.63182">
        <ele>1493.1</ele>
        <time>2013-08-08T10:52:39Z</time>
      </trkpt>
      <trkpt lat="-21.16705" lon="55.63174">
        <ele>1491.2</ele>
        <time>2013-08-08T10:52:46Z</time>
      </trkpt>
      <trkpt lat="-21.16706" lon="55.63164">
        <ele>1489.2</ele>
        <time>2013-08-08T10:52:54Z</time>
      </trkpt>
      <trkpt lat="-21.16706" lon="55.63163">
        <ele>1488.8</ele>
        <time>2013-08-08T10:52:55Z</time>
      </trkpt>
      <trkpt lat="-21.16694" lon="55.63151">
        <ele>1481.3</ele>
        <time>2013-08-08T10:53:25Z</time>
      </trkpt>
      <trkpt lat="-21.1669" lon="55.63143">
        <ele>1477.8</ele>
        <time>2013-08-08T10:53:35Z</time>
      </trkpt>
      <trkpt lat="-21.16687" lon="55.63135">
        <ele>1476.5</ele>
        <time>2013-08-08T10:53:45Z</time>
      </trkpt>
      <trkpt lat="-21.16681" lon="55.63129">
        <ele>1474.3</ele>
        <time>2013-08-08T10:53:52Z</time>
      </trkpt>
      <trkpt lat="-21.16675" lon="55.63123">
        <ele>1472.6</ele>
        <time>2013-08-08T10:54:00Z</time>
      </trkpt>
      <trkpt lat="-21.16674" lon="55.63122">
        <ele>1472.7</ele>
        <time>2013-08-08T10:54:01Z</time>
      </trkpt>
      <trkpt lat="-21.16666" lon="55.63109">
        <ele>1469.5</ele>
        <time>2013-08-08T10:54:18Z</time>
      </trkpt>
      <trkpt lat="-21.16663" lon="55.63101">
        <ele>1466.1</ele>
        <time>2013-08-08T10:54:29Z</time>
      </trkpt>
      <trkpt lat="-21.16657" lon="55.63094">
        <ele>1463.7</ele>
        <time>2013-08-08T10:54:39Z</time>
      </trkpt>
      <trkpt lat="-21.16649" lon="55.63091">
        <ele>1460.1</ele>
        <time>2013-08-08T10:54:53Z</time>
      </trkpt>
      <trkpt lat="-21.16643" lon="55.63085">
        <ele>1458.8</ele>
        <time>2013-08-08T10:55:02Z</time>
      </trkpt>
      <trkpt lat="-21.16642" lon="55.63084">
        <ele>1458.1</ele>
        <time>2013-08-08T10:55:03Z</time>
      </trkpt>
      <trkpt lat="-21.16634" lon="55.63069">
        <ele>1454.1</ele>
        <time>2013-08-08T10:55:21Z</time>
      </trkpt>
      <trkpt lat="-21.16633" lon="55.6306">
        <ele>1453.5</ele>
        <time>2013-08-08T10:55:45Z</time>
      </trkpt>
      <trkpt lat="-21.1664" lon="55.63054">
        <ele>1454.6</ele>
        <time>2013-08-08T10:56:02Z</time>
      </trkpt>
      <trkpt lat="-21.16648" lon="55.6305">
        <ele>1455</ele>
        <time>2013-08-08T10:56:14Z</time>
      </trkpt>
      <trkpt lat="-21.16649" lon="55.63049">
        <ele>1456.2</ele>
        <time>2013-08-08T10:56:16Z</time>
      </trkpt>
      <trkpt lat="-21.16664" lon="55.63043">
        <ele>1456.6</ele>
        <time>2013-08-08T10:56:29Z</time>
      </trkpt>
      <trkpt lat="-21.16672" lon="55.6304">
        <ele>1458.7</ele>
        <time>2013-08-08T10:56:45Z</time>
      </trkpt>
      <trkpt lat="-21.16673" lon="55.6303">
        <ele>1461.4</ele>
        <time>2013-08-08T10:57:03Z</time>
      </trkpt>
      <trkpt lat="-21.16679" lon="55.63024">
        <ele>1466</ele>
        <time>2013-08-08T10:57:25Z</time>
      </trkpt>
      <trkpt lat="-21.16679" lon="55.63022">
        <ele>1466.2</ele>
        <time>2013-08-08T10:57:26Z</time>
      </trkpt>
      <trkpt lat="-21.16688" lon="55.63011">
        <ele>1468.9</ele>
        <time>2013-08-08T10:57:49Z</time>
      </trkpt>
      <trkpt lat="-21.16691" lon="55.63001">
        <ele>1469.2</ele>
        <time>2013-08-08T10:58:06Z</time>
      </trkpt>
      <trkpt lat="-21.16693" lon="55.62993">
        <ele>1465.4</ele>
        <time>2013-08-08T10:58:24Z</time>
      </trkpt>
      <trkpt lat="-21.16688" lon="55.62985">
        <ele>1461.8</ele>
        <time>2013-08-08T10:58:37Z</time>
      </trkpt>
      <trkpt lat="-21.16687" lon="55.62985">
        <ele>1461.5</ele>
        <time>2013-08-08T10:58:38Z</time>
      </trkpt>
      <trkpt lat="-21.16673" lon="55.62975">
        <ele>1454.8</ele>
        <time>2013-08-08T10:59:08Z</time>
      </trkpt>
      <trkpt lat="-21.16669" lon="55.62967">
        <ele>1448.7</ele>
        <time>2013-08-08T10:59:29Z</time>
      </trkpt>
      <trkpt lat="-21.16669" lon="55.62958">
        <ele>1444.1</ele>
        <time>2013-08-08T10:59:43Z</time>
      </trkpt>
      <trkpt lat="-21.16669" lon="55.62957">
        <ele>1444.2</ele>
        <time>2013-08-08T10:59:44Z</time>
      </trkpt>
      <trkpt lat="-21.16662" lon="55.62941">
        <ele>1439.1</ele>
        <time>2013-08-08T11:00:04Z</time>
      </trkpt>
      <trkpt lat="-21.16656" lon="55.62934">
        <ele>1436.5</ele>
        <time>2013-08-08T11:00:13Z</time>
      </trkpt>
      <trkpt lat="-21.16648" lon="55.62931">
        <ele>1434.9</ele>
        <time>2013-08-08T11:00:22Z</time>
      </trkpt>
      <trkpt lat="-21.1664" lon="55.62926">
        <ele>1432.9</ele>
        <time>2013-08-08T11:00:33Z</time>
      </trkpt>
      <trkpt lat="-21.16637" lon="55.62918">
        <ele>1427.9</ele>
        <time>2013-08-08T11:00:54Z</time>
      </trkpt>
      <trkpt lat="-21.16637" lon="55.62917">
        <ele>1427.5</ele>
        <time>2013-08-08T11:00:55Z</time>
      </trkpt>
      <trkpt lat="-21.16626" lon="55.62904">
        <ele>1421.3</ele>
        <time>2013-08-08T11:01:16Z</time>
      </trkpt>
      <trkpt lat="-21.16622" lon="55.62897">
        <ele>1418.4</ele>
        <time>2013-08-08T11:01:24Z</time>
      </trkpt>
      <trkpt lat="-21.16618" lon="55.6289">
        <ele>1418.2</ele>
        <time>2013-08-08T11:01:29Z</time>
      </trkpt>
      <trkpt lat="-21.16613" lon="55.62881">
        <ele>1417.4</ele>
        <time>2013-08-08T11:01:37Z</time>
      </trkpt>
      <trkpt lat="-21.16607" lon="55.62875">
        <ele>1414.9</ele>
        <time>2013-08-08T11:01:49Z</time>
      </trkpt>
      <trkpt lat="-21.16598" lon="55.62872">
        <ele>1412.5</ele>
        <time>2013-08-08T11:02:00Z</time>
      </trkpt>
      <trkpt lat="-21.16598" lon="55.62872">
        <ele>1412.3</ele>
        <time>2013-08-08T11:02:01Z</time>
      </trkpt>
      <trkpt lat="-21.16584" lon="55.62861">
        <ele>1405.1</ele>
        <time>2013-08-08T11:02:30Z</time>
      </trkpt>
      <trkpt lat="-21.16575" lon="55.62857">
        <ele>1401</ele>
        <time>2013-08-08T11:02:47Z</time>
      </trkpt>
      <trkpt lat="-21.16567" lon="55.62851">
        <ele>1394</ele>
        <time>2013-08-08T11:03:15Z</time>
      </trkpt>
      <trkpt lat="-21.16567" lon="55.62851">
        <ele>1394.3</ele>
        <time>2013-08-08T11:03:17Z</time>
      </trkpt>
      <trkpt lat="-21.16557" lon="55.62831">
        <ele>1390</ele>
        <time>2013-08-08T11:04:10Z</time>
      </trkpt>
      <trkpt lat="-21.16551" lon="55.62824">
        <ele>1388</ele>
        <time>2013-08-08T11:04:22Z</time>
      </trkpt>
      <trkpt lat="-21.1655" lon="55.62822">
        <ele>1388.9</ele>
        <time>2013-08-08T11:04:24Z</time>
      </trkpt>
      <trkpt lat="-21.16541" lon="55.62806">
        <ele>1385</ele>
        <time>2013-08-08T11:05:06Z</time>
      </trkpt>
      <trkpt lat="-21.16551" lon="55.62799">
        <ele>1385</ele>
        <time>2013-08-08T11:05:21Z</time>
      </trkpt>
      <trkpt lat="-21.16544" lon="55.62794">
        <ele>1382.5</ele>
        <time>2013-08-08T11:05:38Z</time>
      </trkpt>
      <trkpt lat="-21.16543" lon="55.62794">
        <ele>1382.2</ele>
        <time>2013-08-08T11:05:39Z</time>
      </trkpt>
      <trkpt lat="-21.16553" lon="55.62779">
        <ele>1381.8</ele>
        <time>2013-08-08T11:06:35Z</time>
      </trkpt>
      <trkpt lat="-21.16556" lon="55.62771">
        <ele>1380.6</ele>
        <time>2013-08-08T11:06:44Z</time>
      </trkpt>
      <trkpt lat="-21.16557" lon="55.6277">
        <ele>1380.4</ele>
        <time>2013-08-08T11:06:45Z</time>
      </trkpt>
      <trkpt lat="-21.16546" lon="55.62757">
        <ele>1375.8</ele>
        <time>2013-08-08T11:07:16Z</time>
      </trkpt>
      <trkpt lat="-21.1654" lon="55.62748">
        <ele>1376</ele>
        <time>2013-08-08T11:07:29Z</time>
      </trkpt>
      <trkpt lat="-21.16535" lon="55.62737">
        <ele>1378</ele>
        <time>2013-08-08T11:07:41Z</time>
      </trkpt>
      <trkpt lat="-21.16529" lon="55.62726">
        <ele>1380</ele>
        <time>2013-08-08T11:07:53Z</time>
      </trkpt>
      <trkpt lat="-21.16529" lon="55.62725">
        <ele>1380.6</ele>
        <time>2013-08-08T11:07:55Z</time>
      </trkpt>
      <trkpt lat="-21.16522" lon="55.62703">
        <ele>1385</ele>
        <time>2013-08-08T11:08:25Z</time>
      </trkpt>
      <trkpt lat="-21.16518" lon="55.62693">
        <ele>1386.7</ele>
        <time>2013-08-08T11:08:35Z</time>
      </trkpt>
      <trkpt lat="-21.16513" lon="55.62687">
        <ele>1388.7</ele>
        <time>2013-08-08T11:08:43Z</time>
      </trkpt>
      <trkpt lat="-21.16511" lon="55.62678">
        <ele>1389</ele>
        <time>2013-08-08T11:08:47Z</time>
      </trkpt>
      <trkpt lat="-21.16509" lon="55.62669">
        <ele>1388.9</ele>
        <time>2013-08-08T11:08:55Z</time>
      </trkpt>
      <trkpt lat="-21.16507" lon="55.62661">
        <ele>1387.4</ele>
        <time>2013-08-08T11:09:04Z</time>
      </trkpt>
      <trkpt lat="-21.16506" lon="55.62659">
        <ele>1387.4</ele>
        <time>2013-08-08T11:09:05Z</time>
      </trkpt>
      <trkpt lat="-21.16509" lon="55.62642">
        <ele>1384</ele>
        <time>2013-08-08T11:09:24Z</time>
      </trkpt>
      <trkpt lat="-21.16506" lon="55.62633">
        <ele>1385.1</ele>
        <time>2013-08-08T11:09:39Z</time>
      </trkpt>
      <trkpt lat="-21.16501" lon="55.62626">
        <ele>1380.8</ele>
        <time>2013-08-08T11:09:54Z</time>
      </trkpt>
      <trkpt lat="-21.16494" lon="55.6262">
        <ele>1380.4</ele>
        <time>2013-08-08T11:10:04Z</time>
      </trkpt>
      <trkpt lat="-21.16488" lon="55.62616">
        <ele>1379</ele>
        <time>2013-08-08T11:10:10Z</time>
      </trkpt>
      <trkpt lat="-21.16486" lon="55.62615">
        <ele>1378.8</ele>
        <time>2013-08-08T11:10:11Z</time>
      </trkpt>
      <trkpt lat="-21.16473" lon="55.6261">
        <ele>1379.4</ele>
        <time>2013-08-08T11:10:26Z</time>
      </trkpt>
      <trkpt lat="-21.16467" lon="55.62615">
        <ele>1376.5</ele>
        <time>2013-08-08T11:10:34Z</time>
      </trkpt>
      <trkpt lat="-21.16459" lon="55.62619">
        <ele>1375.4</ele>
        <time>2013-08-08T11:10:41Z</time>
      </trkpt>
      <trkpt lat="-21.16452" lon="55.62623">
        <ele>1374.8</ele>
        <time>2013-08-08T11:10:46Z</time>
      </trkpt>
      <trkpt lat="-21.16444" lon="55.62627">
        <ele>1375.6</ele>
        <time>2013-08-08T11:10:53Z</time>
      </trkpt>
      <trkpt lat="-21.16437" lon="55.6263">
        <ele>1376</ele>
        <time>2013-08-08T11:11:00Z</time>
      </trkpt>
      <trkpt lat="-21.16429" lon="55.62634">
        <ele>1375.1</ele>
        <time>2013-08-08T11:11:07Z</time>
      </trkpt>
      <trkpt lat="-21.16422" lon="55.62638">
        <ele>1372.9</ele>
        <time>2013-08-08T11:11:17Z</time>
      </trkpt>
      <trkpt lat="-21.16421" lon="55.62639">
        <ele>1372.5</ele>
        <time>2013-08-08T11:11:18Z</time>
      </trkpt>
      <trkpt lat="-21.16407" lon="55.62647">
        <ele>1368.9</ele>
        <time>2013-08-08T11:11:34Z</time>
      </trkpt>
      <trkpt lat="-21.16399" lon="55.62651">
        <ele>1366.8</ele>
        <time>2013-08-08T11:11:40Z</time>
      </trkpt>
      <trkpt lat="-21.16391" lon="55.62654">
        <ele>1365.6</ele>
        <time>2013-08-08T11:11:47Z</time>
      </trkpt>
      <trkpt lat="-21.16383" lon="55.62657">
        <ele>1364.7</ele>
        <time>2013-08-08T11:11:56Z</time>
      </trkpt>
      <trkpt lat="-21.16374" lon="55.6266">
        <ele>1363.6</ele>
        <time>2013-08-08T11:12:05Z</time>
      </trkpt>
      <trkpt lat="-21.16366" lon="55.62661">
        <ele>1363.9</ele>
        <time>2013-08-08T11:12:11Z</time>
      </trkpt>
      <trkpt lat="-21.16358" lon="55.62665">
        <ele>1364.2</ele>
        <time>2013-08-08T11:12:18Z</time>
      </trkpt>
      <trkpt lat="-21.16351" lon="55.6267">
        <ele>1363.7</ele>
        <time>2013-08-08T11:12:26Z</time>
      </trkpt>
      <trkpt lat="-21.1635" lon="55.62671">
        <ele>1363.4</ele>
        <time>2013-08-08T11:12:27Z</time>
      </trkpt>
      <trkpt lat="-21.16335" lon="55.62676">
        <ele>1360.3</ele>
        <time>2013-08-08T11:12:41Z</time>
      </trkpt>
      <trkpt lat="-21.16327" lon="55.62679">
        <ele>1357.8</ele>
        <time>2013-08-08T11:12:50Z</time>
      </trkpt>
      <trkpt lat="-21.16319" lon="55.62682">
        <ele>1356.4</ele>
        <time>2013-08-08T11:12:58Z</time>
      </trkpt>
      <trkpt lat="-21.1631" lon="55.62684">
        <ele>1355.8</ele>
        <time>2013-08-08T11:13:05Z</time>
      </trkpt>
      <trkpt lat="-21.16302" lon="55.62686">
        <ele>1354.8</ele>
        <time>2013-08-08T11:13:10Z</time>
      </trkpt>
      <trkpt lat="-21.16295" lon="55.62691">
        <ele>1353.8</ele>
        <time>2013-08-08T11:13:18Z</time>
      </trkpt>
      <trkpt lat="-21.16287" lon="55.62693">
        <ele>1352.5</ele>
        <time>2013-08-08T11:13:24Z</time>
      </trkpt>
      <trkpt lat="-21.1628" lon="55.62698">
        <ele>1352.1</ele>
        <time>2013-08-08T11:13:31Z</time>
      </trkpt>
      <trkpt lat="-21.16278" lon="55.62699">
        <ele>1352</ele>
        <time>2013-08-08T11:13:32Z</time>
      </trkpt>
      <trkpt lat="-21.16265" lon="55.62707">
        <ele>1351.6</ele>
        <time>2013-08-08T11:13:45Z</time>
      </trkpt>
      <trkpt lat="-21.16259" lon="55.62713">
        <ele>1350.4</ele>
        <time>2013-08-08T11:13:51Z</time>
      </trkpt>
      <trkpt lat="-21.16252" lon="55.62718">
        <ele>1350.1</ele>
        <time>2013-08-08T11:13:58Z</time>
      </trkpt>
      <trkpt lat="-21.16246" lon="55.62723">
        <ele>1350.5</ele>
        <time>2013-08-08T11:14:04Z</time>
      </trkpt>
      <trkpt lat="-21.16241" lon="55.62729">
        <ele>1349.9</ele>
        <time>2013-08-08T11:14:11Z</time>
      </trkpt>
      <trkpt lat="-21.16234" lon="55.62735">
        <ele>1350.2</ele>
        <time>2013-08-08T11:14:18Z</time>
      </trkpt>
      <trkpt lat="-21.16227" lon="55.62741">
        <ele>1351</ele>
        <time>2013-08-08T11:14:25Z</time>
      </trkpt>
      <trkpt lat="-21.16221" lon="55.62746">
        <ele>1351</ele>
        <time>2013-08-08T11:14:31Z</time>
      </trkpt>
      <trkpt lat="-21.16214" lon="55.62752">
        <ele>1350.2</ele>
        <time>2013-08-08T11:14:37Z</time>
      </trkpt>
      <trkpt lat="-21.16213" lon="55.62753">
        <ele>1350.4</ele>
        <time>2013-08-08T11:14:38Z</time>
      </trkpt>
      <trkpt lat="-21.16199" lon="55.6276">
        <ele>1350.7</ele>
        <time>2013-08-08T11:14:49Z</time>
      </trkpt>
      <trkpt lat="-21.16193" lon="55.62767">
        <ele>1350.2</ele>
        <time>2013-08-08T11:15:00Z</time>
      </trkpt>
      <trkpt lat="-21.16185" lon="55.62771">
        <ele>1349.3</ele>
        <time>2013-08-08T11:15:17Z</time>
      </trkpt>
      <trkpt lat="-21.16188" lon="55.62762">
        <ele>1350.7</ele>
        <time>2013-08-08T11:17:09Z</time>
      </trkpt>
      <trkpt lat="-21.16188" lon="55.62762">
        <ele>1350.5</ele>
        <time>2013-08-08T11:17:10Z</time>
      </trkpt>
      <trkpt lat="-21.16175" lon="55.62754">
        <ele>1348.7</ele>
        <time>2013-08-08T11:17:37Z</time>
      </trkpt>
      <trkpt lat="-21.16169" lon="55.62761">
        <ele>1347.9</ele>
        <time>2013-08-08T11:17:44Z</time>
      </trkpt>
      <trkpt lat="-21.16166" lon="55.6277">
        <ele>1347.8</ele>
        <time>2013-08-08T11:17:51Z</time>
      </trkpt>
      <trkpt lat="-21.16162" lon="55.62777">
        <ele>1346.8</ele>
        <time>2013-08-08T11:17:56Z</time>
      </trkpt>
      <trkpt lat="-21.16158" lon="55.62785">
        <ele>1345.4</ele>
        <time>2013-08-08T11:18:01Z</time>
      </trkpt>
      <trkpt lat="-21.16155" lon="55.62793">
        <ele>1344.9</ele>
        <time>2013-08-08T11:18:06Z</time>
      </trkpt>
      <trkpt lat="-21.16151" lon="55.62801">
        <ele>1344.5</ele>
        <time>2013-08-08T11:18:11Z</time>
      </trkpt>
      <trkpt lat="-21.16151" lon="55.62803">
        <ele>1344.5</ele>
        <time>2013-08-08T11:18:12Z</time>
      </trkpt>
      <trkpt lat="-21.16147" lon="55.62817">
        <ele>1343.6</ele>
        <time>2013-08-08T11:18:20Z</time>
      </trkpt>
      <trkpt lat="-21.16144" lon="55.62825">
        <ele>1343.5</ele>
        <time>2013-08-08T11:18:25Z</time>
      </trkpt>
      <trkpt lat="-21.1614" lon="55.62833">
        <ele>1342.1</ele>
        <time>2013-08-08T11:18:30Z</time>
      </trkpt>
      <trkpt lat="-21.16138" lon="55.62841">
        <ele>1342</ele>
        <time>2013-08-08T11:18:35Z</time>
      </trkpt>
      <trkpt lat="-21.16136" lon="55.62849">
        <ele>1341.1</ele>
        <time>2013-08-08T11:18:40Z</time>
      </trkpt>
      <trkpt lat="-21.16136" lon="55.62857">
        <ele>1339.8</ele>
        <time>2013-08-08T11:18:45Z</time>
      </trkpt>
      <trkpt lat="-21.16132" lon="55.62866">
        <ele>1339.6</ele>
        <time>2013-08-08T11:18:51Z</time>
      </trkpt>
      <trkpt lat="-21.16128" lon="55.62873">
        <ele>1338.6</ele>
        <time>2013-08-08T11:18:56Z</time>
      </trkpt>
      <trkpt lat="-21.16122" lon="55.62879">
        <ele>1337.8</ele>
        <time>2013-08-08T11:19:02Z</time>
      </trkpt>
      <trkpt lat="-21.16115" lon="55.62885">
        <ele>1336.2</ele>
        <time>2013-08-08T11:19:07Z</time>
      </trkpt>
      <trkpt lat="-21.1611" lon="55.6289">
        <ele>1336.3</ele>
        <time>2013-08-08T11:19:13Z</time>
      </trkpt>
      <trkpt lat="-21.16108" lon="55.62892">
        <ele>1336.3</ele>
        <time>2013-08-08T11:19:14Z</time>
      </trkpt>
      <trkpt lat="-21.16098" lon="55.62902">
        <ele>1336</ele>
        <time>2013-08-08T11:19:23Z</time>
      </trkpt>
      <trkpt lat="-21.16092" lon="55.62907">
        <ele>1335.1</ele>
        <time>2013-08-08T11:19:28Z</time>
      </trkpt>
      <trkpt lat="-21.16086" lon="55.62914">
        <ele>1334.5</ele>
        <time>2013-08-08T11:19:33Z</time>
      </trkpt>
      <trkpt lat="-21.1608" lon="55.6292">
        <ele>1334.5</ele>
        <time>2013-08-08T11:19:38Z</time>
      </trkpt>
      <trkpt lat="-21.16074" lon="55.62926">
        <ele>1333.9</ele>
        <time>2013-08-08T11:19:43Z</time>
      </trkpt>
      <trkpt lat="-21.16068" lon="55.62931">
        <ele>1333.1</ele>
        <time>2013-08-08T11:19:48Z</time>
      </trkpt>
      <trkpt lat="-21.16062" lon="55.62937">
        <ele>1333.2</ele>
        <time>2013-08-08T11:19:53Z</time>
      </trkpt>
      <trkpt lat="-21.16056" lon="55.62944">
        <ele>1332.5</ele>
        <time>2013-08-08T11:19:59Z</time>
      </trkpt>
      <trkpt lat="-21.16049" lon="55.62949">
        <ele>1331.2</ele>
        <time>2013-08-08T11:20:04Z</time>
      </trkpt>
      <trkpt lat="-21.16043" lon="55.62955">
        <ele>1331.8</ele>
        <time>2013-08-08T11:20:09Z</time>
      </trkpt>
      <trkpt lat="-21.16037" lon="55.62961">
        <ele>1331</ele>
        <time>2013-08-08T11:20:14Z</time>
      </trkpt>
      <trkpt lat="-21.16035" lon="55.62962">
        <ele>1330.7</ele>
        <time>2013-08-08T11:20:15Z</time>
      </trkpt>
      <trkpt lat="-21.16025" lon="55.62974">
        <ele>1330.9</ele>
        <time>2013-08-08T11:20:24Z</time>
      </trkpt>
      <trkpt lat="-21.16018" lon="55.62979">
        <ele>1330.5</ele>
        <time>2013-08-08T11:20:29Z</time>
      </trkpt>
      <trkpt lat="-21.16013" lon="55.62985">
        <ele>1329.8</ele>
        <time>2013-08-08T11:20:34Z</time>
      </trkpt>
      <trkpt lat="-21.16007" lon="55.62991">
        <ele>1329.7</ele>
        <time>2013-08-08T11:20:39Z</time>
      </trkpt>
      <trkpt lat="-21.16001" lon="55.62997">
        <ele>1329.2</ele>
        <time>2013-08-08T11:20:44Z</time>
      </trkpt>
      <trkpt lat="-21.15996" lon="55.63003">
        <ele>1329.5</ele>
        <time>2013-08-08T11:20:49Z</time>
      </trkpt>
      <trkpt lat="-21.15988" lon="55.63008">
        <ele>1329.5</ele>
        <time>2013-08-08T11:20:55Z</time>
      </trkpt>
      <trkpt lat="-21.15982" lon="55.63014">
        <ele>1329.2</ele>
        <time>2013-08-08T11:21:00Z</time>
      </trkpt>
      <trkpt lat="-21.15976" lon="55.6302">
        <ele>1328.6</ele>
        <time>2013-08-08T11:21:05Z</time>
      </trkpt>
      <trkpt lat="-21.1597" lon="55.63026">
        <ele>1328</ele>
        <time>2013-08-08T11:21:10Z</time>
      </trkpt>
      <trkpt lat="-21.15964" lon="55.63031">
        <ele>1327.1</ele>
        <time>2013-08-08T11:21:15Z</time>
      </trkpt>
      <trkpt lat="-21.15958" lon="55.63038">
        <ele>1326.5</ele>
        <time>2013-08-08T11:21:20Z</time>
      </trkpt>
      <trkpt lat="-21.15956" lon="55.63039">
        <ele>1326.1</ele>
        <time>2013-08-08T11:21:21Z</time>
      </trkpt>
      <trkpt lat="-21.15946" lon="55.6305">
        <ele>1324.4</ele>
        <time>2013-08-08T11:21:30Z</time>
      </trkpt>
      <trkpt lat="-21.1594" lon="55.63056">
        <ele>1323.6</ele>
        <time>2013-08-08T11:21:35Z</time>
      </trkpt>
      <trkpt lat="-21.15934" lon="55.63062">
        <ele>1322.4</ele>
        <time>2013-08-08T11:21:40Z</time>
      </trkpt>
      <trkpt lat="-21.15928" lon="55.63068">
        <ele>1321.3</ele>
        <time>2013-08-08T11:21:45Z</time>
      </trkpt>
      <trkpt lat="-21.15922" lon="55.63074">
        <ele>1321.1</ele>
        <time>2013-08-08T11:21:50Z</time>
      </trkpt>
      <trkpt lat="-21.15915" lon="55.6308">
        <ele>1320.3</ele>
        <time>2013-08-08T11:21:55Z</time>
      </trkpt>
      <trkpt lat="-21.15909" lon="55.63086">
        <ele>1319.6</ele>
        <time>2013-08-08T11:22:00Z</time>
      </trkpt>
      <trkpt lat="-21.15903" lon="55.63091">
        <ele>1319.3</ele>
        <time>2013-08-08T11:22:05Z</time>
      </trkpt>
      <trkpt lat="-21.15896" lon="55.63096">
        <ele>1318.7</ele>
        <time>2013-08-08T11:22:10Z</time>
      </trkpt>
      <trkpt lat="-21.15889" lon="55.63098">
        <ele>1318</ele>
        <time>2013-08-08T11:22:15Z</time>
      </trkpt>
      <trkpt lat="-21.15882" lon="55.63098">
        <ele>1316.8</ele>
        <time>2013-08-08T11:22:19Z</time>
      </trkpt>
      <trkpt lat="-21.15873" lon="55.63098">
        <ele>1316.4</ele>
        <time>2013-08-08T11:22:24Z</time>
      </trkpt>
      <trkpt lat="-21.15871" lon="55.63097">
        <ele>1316.3</ele>
        <time>2013-08-08T11:22:25Z</time>
      </trkpt>
      <trkpt lat="-21.15856" lon="55.63094">
        <ele>1314.1</ele>
        <time>2013-08-08T11:22:35Z</time>
      </trkpt>
      <trkpt lat="-21.15848" lon="55.63092">
        <ele>1313.9</ele>
        <time>2013-08-08T11:22:40Z</time>
      </trkpt>
      <trkpt lat="-21.1584" lon="55.63092">
        <ele>1312.3</ele>
        <time>2013-08-08T11:22:45Z</time>
      </trkpt>
      <trkpt lat="-21.15831" lon="55.63094">
        <ele>1309.8</ele>
        <time>2013-08-08T11:22:50Z</time>
      </trkpt>
      <trkpt lat="-21.1582" lon="55.63095">
        <ele>1309</ele>
        <time>2013-08-08T11:22:56Z</time>
      </trkpt>
      <trkpt lat="-21.15812" lon="55.63095">
        <ele>1308.1</ele>
        <time>2013-08-08T11:23:01Z</time>
      </trkpt>
      <trkpt lat="-21.15803" lon="55.63095">
        <ele>1305.5</ele>
        <time>2013-08-08T11:23:07Z</time>
      </trkpt>
      <trkpt lat="-21.15795" lon="55.63099">
        <ele>1304.9</ele>
        <time>2013-08-08T11:23:13Z</time>
      </trkpt>
      <trkpt lat="-21.15787" lon="55.63095">
        <ele>1303.9</ele>
        <time>2013-08-08T11:23:22Z</time>
      </trkpt>
      <trkpt lat="-21.1579" lon="55.63105">
        <ele>1303.4</ele>
        <time>2013-08-08T11:23:44Z</time>
      </trkpt>
      <trkpt lat="-21.1579" lon="55.63107">
        <ele>1303.3</ele>
        <time>2013-08-08T11:23:45Z</time>
      </trkpt>
      <trkpt lat="-21.15797" lon="55.6312">
        <ele>1302</ele>
        <time>2013-08-08T11:23:56Z</time>
      </trkpt>
      <trkpt lat="-21.15804" lon="55.63124">
        <ele>1301.4</ele>
        <time>2013-08-08T11:24:02Z</time>
      </trkpt>
      <trkpt lat="-21.15808" lon="55.63132">
        <ele>1300.3</ele>
        <time>2013-08-08T11:24:08Z</time>
      </trkpt>
      <trkpt lat="-21.15804" lon="55.6314">
        <ele>1300.3</ele>
        <time>2013-08-08T11:24:14Z</time>
      </trkpt>
      <trkpt lat="-21.15799" lon="55.63146">
        <ele>1298.8</ele>
        <time>2013-08-08T11:24:19Z</time>
      </trkpt>
      <trkpt lat="-21.15793" lon="55.63152">
        <ele>1297.6</ele>
        <time>2013-08-08T11:24:25Z</time>
      </trkpt>
      <trkpt lat="-21.15786" lon="55.63158">
        <ele>1296.7</ele>
        <time>2013-08-08T11:24:31Z</time>
      </trkpt>
      <trkpt lat="-21.15779" lon="55.63163">
        <ele>1296.2</ele>
        <time>2013-08-08T11:24:36Z</time>
      </trkpt>
      <trkpt lat="-21.15773" lon="55.63169">
        <ele>1295.3</ele>
        <time>2013-08-08T11:24:41Z</time>
      </trkpt>
      <trkpt lat="-21.15767" lon="55.63175">
        <ele>1294.8</ele>
        <time>2013-08-08T11:24:46Z</time>
      </trkpt>
      <trkpt lat="-21.15765" lon="55.63176">
        <ele>1294.7</ele>
        <time>2013-08-08T11:24:47Z</time>
      </trkpt>
      <trkpt lat="-21.15754" lon="55.63184">
        <ele>1293.8</ele>
        <time>2013-08-08T11:24:56Z</time>
      </trkpt>
      <trkpt lat="-21.15748" lon="55.63189">
        <ele>1294.3</ele>
        <time>2013-08-08T11:25:01Z</time>
      </trkpt>
      <trkpt lat="-21.15742" lon="55.63195">
        <ele>1292.8</ele>
        <time>2013-08-08T11:25:06Z</time>
      </trkpt>
      <trkpt lat="-21.15736" lon="55.63201">
        <ele>1291.8</ele>
        <time>2013-08-08T11:25:11Z</time>
      </trkpt>
      <trkpt lat="-21.1573" lon="55.63207">
        <ele>1291.5</ele>
        <time>2013-08-08T11:25:16Z</time>
      </trkpt>
      <trkpt lat="-21.15724" lon="55.63213">
        <ele>1290</ele>
        <time>2013-08-08T11:25:21Z</time>
      </trkpt>
      <trkpt lat="-21.15717" lon="55.63219">
        <ele>1289.2</ele>
        <time>2013-08-08T11:25:26Z</time>
      </trkpt>
      <trkpt lat="-21.15711" lon="55.63225">
        <ele>1288.6</ele>
        <time>2013-08-08T11:25:32Z</time>
      </trkpt>
      <trkpt lat="-21.15705" lon="55.63232">
        <ele>1287.5</ele>
        <time>2013-08-08T11:25:38Z</time>
      </trkpt>
      <trkpt lat="-21.15699" lon="55.63239">
        <ele>1287</ele>
        <time>2013-08-08T11:25:44Z</time>
      </trkpt>
      <trkpt lat="-21.15693" lon="55.63245">
        <ele>1285.6</ele>
        <time>2013-08-08T11:25:49Z</time>
      </trkpt>
      <trkpt lat="-21.15692" lon="55.63246">
        <ele>1285.6</ele>
        <time>2013-08-08T11:25:50Z</time>
      </trkpt>
      <trkpt lat="-21.15683" lon="55.6326">
        <ele>1283.9</ele>
        <time>2013-08-08T11:26:00Z</time>
      </trkpt>
      <trkpt lat="-21.15676" lon="55.63266">
        <ele>1283</ele>
        <time>2013-08-08T11:26:05Z</time>
      </trkpt>
      <trkpt lat="-21.1567" lon="55.63271">
        <ele>1282.2</ele>
        <time>2013-08-08T11:26:10Z</time>
      </trkpt>
      <trkpt lat="-21.15665" lon="55.63278">
        <ele>1281.6</ele>
        <time>2013-08-08T11:26:14Z</time>
      </trkpt>
      <trkpt lat="-21.1566" lon="55.63283">
        <ele>1280.2</ele>
        <time>2013-08-08T11:26:18Z</time>
      </trkpt>
      <trkpt lat="-21.15654" lon="55.63289">
        <ele>1279.1</ele>
        <time>2013-08-08T11:26:22Z</time>
      </trkpt>
      <trkpt lat="-21.15649" lon="55.63294">
        <ele>1278.2</ele>
        <time>2013-08-08T11:26:25Z</time>
      </trkpt>
      <trkpt lat="-21.15643" lon="55.63298">
        <ele>1277</ele>
        <time>2013-08-08T11:26:28Z</time>
      </trkpt>
      <trkpt lat="-21.15638" lon="55.63304">
        <ele>1276.1</ele>
        <time>2013-08-08T11:26:31Z</time>
      </trkpt>
      <trkpt lat="-21.15633" lon="55.63309">
        <ele>1275.2</ele>
        <time>2013-08-08T11:26:34Z</time>
      </trkpt>
      <trkpt lat="-21.15627" lon="55.63316">
        <ele>1274.7</ele>
        <time>2013-08-08T11:26:38Z</time>
      </trkpt>
      <trkpt lat="-21.15621" lon="55.63321">
        <ele>1273.6</ele>
        <time>2013-08-08T11:26:41Z</time>
      </trkpt>
      <trkpt lat="-21.15615" lon="55.63327">
        <ele>1272.3</ele>
        <time>2013-08-08T11:26:45Z</time>
      </trkpt>
      <trkpt lat="-21.15611" lon="55.63333">
        <ele>1272</ele>
        <time>2013-08-08T11:26:48Z</time>
      </trkpt>
      <trkpt lat="-21.15606" lon="55.63341">
        <ele>1271</ele>
        <time>2013-08-08T11:26:52Z</time>
      </trkpt>
      <trkpt lat="-21.15605" lon="55.63343">
        <ele>1270.8</ele>
        <time>2013-08-08T11:26:53Z</time>
      </trkpt>
      <trkpt lat="-21.15597" lon="55.63355">
        <ele>1270.1</ele>
        <time>2013-08-08T11:26:59Z</time>
      </trkpt>
      <trkpt lat="-21.15592" lon="55.63361">
        <ele>1269.3</ele>
        <time>2013-08-08T11:27:02Z</time>
      </trkpt>
      <trkpt lat="-21.15588" lon="55.63368">
        <ele>1268.9</ele>
        <time>2013-08-08T11:27:05Z</time>
      </trkpt>
      <trkpt lat="-21.15585" lon="55.63375">
        <ele>1268.6</ele>
        <time>2013-08-08T11:27:08Z</time>
      </trkpt>
      <trkpt lat="-21.15582" lon="55.63381">
        <ele>1268.8</ele>
        <time>2013-08-08T11:27:11Z</time>
      </trkpt>
      <trkpt lat="-21.15578" lon="55.63388">
        <ele>1268</ele>
        <time>2013-08-08T11:27:14Z</time>
      </trkpt>
      <trkpt lat="-21.15574" lon="55.63393">
        <ele>1267.6</ele>
        <time>2013-08-08T11:27:17Z</time>
      </trkpt>
      <trkpt lat="-21.15568" lon="55.63398">
        <ele>1268</ele>
        <time>2013-08-08T11:27:20Z</time>
      </trkpt>
      <trkpt lat="-21.15563" lon="55.63404">
        <ele>1268.1</ele>
        <time>2013-08-08T11:27:23Z</time>
      </trkpt>
      <trkpt lat="-21.15557" lon="55.63409">
        <ele>1267.1</ele>
        <time>2013-08-08T11:27:26Z</time>
      </trkpt>
      <trkpt lat="-21.15551" lon="55.63414">
        <ele>1266.3</ele>
        <time>2013-08-08T11:27:29Z</time>
      </trkpt>
      <trkpt lat="-21.15546" lon="55.63419">
        <ele>1265.7</ele>
        <time>2013-08-08T11:27:32Z</time>
      </trkpt>
      <trkpt lat="-21.15541" lon="55.63425">
        <ele>1265.4</ele>
        <time>2013-08-08T11:27:35Z</time>
      </trkpt>
      <trkpt lat="-21.15536" lon="55.6343">
        <ele>1265.7</ele>
        <time>2013-08-08T11:27:38Z</time>
      </trkpt>
      <trkpt lat="-21.1553" lon="55.63436">
        <ele>1265.5</ele>
        <time>2013-08-08T11:27:42Z</time>
      </trkpt>
      <trkpt lat="-21.15524" lon="55.63441">
        <ele>1264.6</ele>
        <time>2013-08-08T11:27:45Z</time>
      </trkpt>
      <trkpt lat="-21.15519" lon="55.63446">
        <ele>1264.2</ele>
        <time>2013-08-08T11:27:48Z</time>
      </trkpt>
      <trkpt lat="-21.15513" lon="55.63452">
        <ele>1263.7</ele>
        <time>2013-08-08T11:27:52Z</time>
      </trkpt>
      <trkpt lat="-21.15508" lon="55.63458">
        <ele>1263.6</ele>
        <time>2013-08-08T11:27:56Z</time>
      </trkpt>
      <trkpt lat="-21.15506" lon="55.63459">
        <ele>1263.6</ele>
        <time>2013-08-08T11:27:57Z</time>
      </trkpt>
      <trkpt lat="-21.15496" lon="55.63469">
        <ele>1262.9</ele>
        <time>2013-08-08T11:28:04Z</time>
      </trkpt>
      <trkpt lat="-21.1549" lon="55.63475">
        <ele>1262.5</ele>
        <time>2013-08-08T11:28:08Z</time>
      </trkpt>
      <trkpt lat="-21.15484" lon="55.63481">
        <ele>1261.8</ele>
        <time>2013-08-08T11:28:12Z</time>
      </trkpt>
      <trkpt lat="-21.15478" lon="55.63486">
        <ele>1261.5</ele>
        <time>2013-08-08T11:28:16Z</time>
      </trkpt>
      <trkpt lat="-21.15471" lon="55.63491">
        <ele>1261.7</ele>
        <time>2013-08-08T11:28:20Z</time>
      </trkpt>
      <trkpt lat="-21.15463" lon="55.63495">
        <ele>1260.8</ele>
        <time>2013-08-08T11:28:24Z</time>
      </trkpt>
      <trkpt lat="-21.15455" lon="55.63497">
        <ele>1260.1</ele>
        <time>2013-08-08T11:28:28Z</time>
      </trkpt>
      <trkpt lat="-21.15447" lon="55.63497">
        <ele>1258.3</ele>
        <time>2013-08-08T11:28:32Z</time>
      </trkpt>
      <trkpt lat="-21.15439" lon="55.63497">
        <ele>1258.1</ele>
        <time>2013-08-08T11:28:36Z</time>
      </trkpt>
      <trkpt lat="-21.15432" lon="55.63496">
        <ele>1258.3</ele>
        <time>2013-08-08T11:28:40Z</time>
      </trkpt>
      <trkpt lat="-21.15424" lon="55.63494">
        <ele>1256.9</ele>
        <time>2013-08-08T11:28:44Z</time>
      </trkpt>
      <trkpt lat="-21.15411" lon="55.63492">
        <ele>1256</ele>
        <time>2013-08-08T11:28:51Z</time>
      </trkpt>
      <trkpt lat="-21.15404" lon="55.6349">
        <ele>1257.1</ele>
        <time>2013-08-08T11:28:55Z</time>
      </trkpt>
      <trkpt lat="-21.15395" lon="55.63488">
        <ele>1255.6</ele>
        <time>2013-08-08T11:28:59Z</time>
      </trkpt>
      <trkpt lat="-21.15393" lon="55.63488">
        <ele>1255.1</ele>
        <time>2013-08-08T11:29:00Z</time>
      </trkpt>
      <trkpt lat="-21.1538" lon="55.63486">
        <ele>1253.1</ele>
        <time>2013-08-08T11:29:06Z</time>
      </trkpt>
      <trkpt lat="-21.15371" lon="55.63485">
        <ele>1252.7</ele>
        <time>2013-08-08T11:29:10Z</time>
      </trkpt>
      <trkpt lat="-21.15362" lon="55.63483">
        <ele>1251.7</ele>
        <time>2013-08-08T11:29:14Z</time>
      </trkpt>
      <trkpt lat="-21.15354" lon="55.6348">
        <ele>1250.4</ele>
        <time>2013-08-08T11:29:18Z</time>
      </trkpt>
      <trkpt lat="-21.15347" lon="55.6348">
        <ele>1250.1</ele>
        <time>2013-08-08T11:29:22Z</time>
      </trkpt>
      <trkpt lat="-21.1534" lon="55.63483">
        <ele>1248.2</ele>
        <time>2013-08-08T11:29:26Z</time>
      </trkpt>
      <trkpt lat="-21.15336" lon="55.63491">
        <ele>1246.9</ele>
        <time>2013-08-08T11:29:30Z</time>
      </trkpt>
      <trkpt lat="-21.15334" lon="55.63498">
        <ele>1246.1</ele>
        <time>2013-08-08T11:29:33Z</time>
      </trkpt>
      <trkpt lat="-21.15331" lon="55.63507">
        <ele>1245</ele>
        <time>2013-08-08T11:29:37Z</time>
      </trkpt>
      <trkpt lat="-21.15326" lon="55.63514">
        <ele>1243.5</ele>
        <time>2013-08-08T11:29:41Z</time>
      </trkpt>
      <trkpt lat="-21.15322" lon="55.6352">
        <ele>1242.5</ele>
        <time>2013-08-08T11:29:44Z</time>
      </trkpt>
      <trkpt lat="-21.15316" lon="55.63526">
        <ele>1242.3</ele>
        <time>2013-08-08T11:29:48Z</time>
      </trkpt>
      <trkpt lat="-21.15312" lon="55.63533">
        <ele>1241</ele>
        <time>2013-08-08T11:29:52Z</time>
      </trkpt>
      <trkpt lat="-21.15307" lon="55.63539">
        <ele>1239.7</ele>
        <time>2013-08-08T11:29:56Z</time>
      </trkpt>
      <trkpt lat="-21.15302" lon="55.63544">
        <ele>1238.7</ele>
        <time>2013-08-08T11:30:00Z</time>
      </trkpt>
      <trkpt lat="-21.15294" lon="55.63548">
        <ele>1238</ele>
        <time>2013-08-08T11:30:04Z</time>
      </trkpt>
      <trkpt lat="-21.15292" lon="55.63548">
        <ele>1237.9</ele>
        <time>2013-08-08T11:30:05Z</time>
      </trkpt>
      <trkpt lat="-21.15278" lon="55.63547">
        <ele>1236.8</ele>
        <time>2013-08-08T11:30:11Z</time>
      </trkpt>
      <trkpt lat="-21.1527" lon="55.63544">
        <ele>1235.1</ele>
        <time>2013-08-08T11:30:15Z</time>
      </trkpt>
      <trkpt lat="-21.15263" lon="55.63541">
        <ele>1233.6</ele>
        <time>2013-08-08T11:30:19Z</time>
      </trkpt>
      <trkpt lat="-21.15255" lon="55.63537">
        <ele>1232.5</ele>
        <time>2013-08-08T11:30:23Z</time>
      </trkpt>
      <trkpt lat="-21.15247" lon="55.63534">
        <ele>1232.6</ele>
        <time>2013-08-08T11:30:27Z</time>
      </trkpt>
      <trkpt lat="-21.1524" lon="55.6353">
        <ele>1231</ele>
        <time>2013-08-08T11:30:31Z</time>
      </trkpt>
      <trkpt lat="-21.15235" lon="55.63525">
        <ele>1230.5</ele>
        <time>2013-08-08T11:30:34Z</time>
      </trkpt>
      <trkpt lat="-21.1523" lon="55.63518">
        <ele>1230</ele>
        <time>2013-08-08T11:30:38Z</time>
      </trkpt>
      <trkpt lat="-21.15226" lon="55.63512">
        <ele>1229.8</ele>
        <time>2013-08-08T11:30:41Z</time>
      </trkpt>
      <trkpt lat="-21.15221" lon="55.63505">
        <ele>1228.7</ele>
        <time>2013-08-08T11:30:45Z</time>
      </trkpt>
      <trkpt lat="-21.15216" lon="55.63497">
        <ele>1227.7</ele>
        <time>2013-08-08T11:30:49Z</time>
      </trkpt>
      <trkpt lat="-21.15207" lon="55.63494">
        <ele>1226.7</ele>
        <time>2013-08-08T11:30:54Z</time>
      </trkpt>
      <trkpt lat="-21.152" lon="55.63493">
        <ele>1225.2</ele>
        <time>2013-08-08T11:30:58Z</time>
      </trkpt>
      <trkpt lat="-21.15192" lon="55.63493">
        <ele>1225.1</ele>
        <time>2013-08-08T11:31:02Z</time>
      </trkpt>
      <trkpt lat="-21.15184" lon="55.63493">
        <ele>1224.1</ele>
        <time>2013-08-08T11:31:06Z</time>
      </trkpt>
      <trkpt lat="-21.15182" lon="55.63493">
        <ele>1224.3</ele>
        <time>2013-08-08T11:31:07Z</time>
      </trkpt>
      <trkpt lat="-21.15169" lon="55.63491">
        <ele>1223.9</ele>
        <time>2013-08-08T11:31:14Z</time>
      </trkpt>
      <trkpt lat="-21.15162" lon="55.63488">
        <ele>1222.2</ele>
        <time>2013-08-08T11:31:18Z</time>
      </trkpt>
      <trkpt lat="-21.15153" lon="55.63487">
        <ele>1221.5</ele>
        <time>2013-08-08T11:31:22Z</time>
      </trkpt>
      <trkpt lat="-21.15145" lon="55.63485">
        <ele>1220.8</ele>
        <time>2013-08-08T11:31:26Z</time>
      </trkpt>
      <trkpt lat="-21.15137" lon="55.63482">
        <ele>1220.5</ele>
        <time>2013-08-08T11:31:30Z</time>
      </trkpt>
      <trkpt lat="-21.1513" lon="55.63478">
        <ele>1219.4</ele>
        <time>2013-08-08T11:31:34Z</time>
      </trkpt>
      <trkpt lat="-21.15123" lon="55.63474">
        <ele>1219.2</ele>
        <time>2013-08-08T11:31:39Z</time>
      </trkpt>
      <trkpt lat="-21.15117" lon="55.6347">
        <ele>1219.1</ele>
        <time>2013-08-08T11:31:44Z</time>
      </trkpt>
      <trkpt lat="-21.15108" lon="55.63469">
        <ele>1219.6</ele>
        <time>2013-08-08T11:31:50Z</time>
      </trkpt>
      <trkpt lat="-21.151" lon="55.6347">
        <ele>1219.3</ele>
        <time>2013-08-08T11:31:56Z</time>
      </trkpt>
      <trkpt lat="-21.15091" lon="55.63473">
        <ele>1218.4</ele>
        <time>2013-08-08T11:32:02Z</time>
      </trkpt>
      <trkpt lat="-21.15084" lon="55.63475">
        <ele>1218.7</ele>
        <time>2013-08-08T11:32:07Z</time>
      </trkpt>
      <trkpt lat="-21.15076" lon="55.63476">
        <ele>1218.1</ele>
        <time>2013-08-08T11:32:12Z</time>
      </trkpt>
      <trkpt lat="-21.15075" lon="55.63476">
        <ele>1218</ele>
        <time>2013-08-08T11:32:13Z</time>
      </trkpt>
      <trkpt lat="-21.1506" lon="55.63476">
        <ele>1218.3</ele>
        <time>2013-08-08T11:32:22Z</time>
      </trkpt>
      <trkpt lat="-21.15052" lon="55.63473">
        <ele>1216.9</ele>
        <time>2013-08-08T11:32:28Z</time>
      </trkpt>
      <trkpt lat="-21.15045" lon="55.63468">
        <ele>1216.1</ele>
        <time>2013-08-08T11:32:33Z</time>
      </trkpt>
      <trkpt lat="-21.15039" lon="55.63462">
        <ele>1215.9</ele>
        <time>2013-08-08T11:32:37Z</time>
      </trkpt>
      <trkpt lat="-21.15033" lon="55.63456">
        <ele>1214.9</ele>
        <time>2013-08-08T11:32:41Z</time>
      </trkpt>
      <trkpt lat="-21.15027" lon="55.63449">
        <ele>1213.8</ele>
        <time>2013-08-08T11:32:45Z</time>
      </trkpt>
      <trkpt lat="-21.15021" lon="55.63442">
        <ele>1213.3</ele>
        <time>2013-08-08T11:32:49Z</time>
      </trkpt>
      <trkpt lat="-21.15016" lon="55.63436">
        <ele>1212.7</ele>
        <time>2013-08-08T11:32:54Z</time>
      </trkpt>
      <trkpt lat="-21.15011" lon="55.63429">
        <ele>1211.9</ele>
        <time>2013-08-08T11:32:59Z</time>
      </trkpt>
      <trkpt lat="-21.15005" lon="55.63422">
        <ele>1210.5</ele>
        <time>2013-08-08T11:33:05Z</time>
      </trkpt>
      <trkpt lat="-21.14999" lon="55.63415">
        <ele>1209.5</ele>
        <time>2013-08-08T11:33:10Z</time>
      </trkpt>
      <trkpt lat="-21.14993" lon="55.63409">
        <ele>1208.5</ele>
        <time>2013-08-08T11:33:15Z</time>
      </trkpt>
      <trkpt lat="-21.14992" lon="55.63408">
        <ele>1208.3</ele>
        <time>2013-08-08T11:33:16Z</time>
      </trkpt>
      <trkpt lat="-21.14984" lon="55.63396">
        <ele>1206.4</ele>
        <time>2013-08-08T11:33:25Z</time>
      </trkpt>
      <trkpt lat="-21.14979" lon="55.63388">
        <ele>1205.3</ele>
        <time>2013-08-08T11:33:31Z</time>
      </trkpt>
      <trkpt lat="-21.14974" lon="55.63382">
        <ele>1204.8</ele>
        <time>2013-08-08T11:33:36Z</time>
      </trkpt>
      <trkpt lat="-21.14968" lon="55.63376">
        <ele>1204.4</ele>
        <time>2013-08-08T11:33:41Z</time>
      </trkpt>
      <trkpt lat="-21.14962" lon="55.63371">
        <ele>1203.9</ele>
        <time>2013-08-08T11:33:46Z</time>
      </trkpt>
      <trkpt lat="-21.14957" lon="55.63365">
        <ele>1202.3</ele>
        <time>2013-08-08T11:33:51Z</time>
      </trkpt>
      <trkpt lat="-21.14951" lon="55.63359">
        <ele>1201</ele>
        <time>2013-08-08T11:33:56Z</time>
      </trkpt>
      <trkpt lat="-21.14946" lon="55.63353">
        <ele>1200</ele>
        <time>2013-08-08T11:34:01Z</time>
      </trkpt>
      <trkpt lat="-21.14939" lon="55.63347">
        <ele>1199.2</ele>
        <time>2013-08-08T11:34:06Z</time>
      </trkpt>
      <trkpt lat="-21.14934" lon="55.6334">
        <ele>1197.6</ele>
        <time>2013-08-08T11:34:12Z</time>
      </trkpt>
      <trkpt lat="-21.14928" lon="55.63333">
        <ele>1196.5</ele>
        <time>2013-08-08T11:34:17Z</time>
      </trkpt>
      <trkpt lat="-21.14927" lon="55.63331">
        <ele>1196.2</ele>
        <time>2013-08-08T11:34:18Z</time>
      </trkpt>
      <trkpt lat="-21.14918" lon="55.6332">
        <ele>1195.5</ele>
        <time>2013-08-08T11:34:26Z</time>
      </trkpt>
      <trkpt lat="-21.14912" lon="55.63313">
        <ele>1194.9</ele>
        <time>2013-08-08T11:34:31Z</time>
      </trkpt>
      <trkpt lat="-21.14906" lon="55.63307">
        <ele>1194.4</ele>
        <time>2013-08-08T11:34:36Z</time>
      </trkpt>
      <trkpt lat="-21.149" lon="55.63302">
        <ele>1194.5</ele>
        <time>2013-08-08T11:34:41Z</time>
      </trkpt>
      <trkpt lat="-21.14894" lon="55.63296">
        <ele>1194.8</ele>
        <time>2013-08-08T11:34:46Z</time>
      </trkpt>
      <trkpt lat="-21.14889" lon="55.6329">
        <ele>1193.9</ele>
        <time>2013-08-08T11:34:51Z</time>
      </trkpt>
      <trkpt lat="-21.14883" lon="55.63284">
        <ele>1193.3</ele>
        <time>2013-08-08T11:34:56Z</time>
      </trkpt>
      <trkpt lat="-21.14878" lon="55.63278">
        <ele>1193.7</ele>
        <time>2013-08-08T11:35:00Z</time>
      </trkpt>
      <trkpt lat="-21.14872" lon="55.63271">
        <ele>1192</ele>
        <time>2013-08-08T11:35:05Z</time>
      </trkpt>
      <trkpt lat="-21.14867" lon="55.63265">
        <ele>1190.5</ele>
        <time>2013-08-08T11:35:10Z</time>
      </trkpt>
      <trkpt lat="-21.14862" lon="55.63259">
        <ele>1190.4</ele>
        <time>2013-08-08T11:35:14Z</time>
      </trkpt>
      <trkpt lat="-21.14856" lon="55.63252">
        <ele>1189.8</ele>
        <time>2013-08-08T11:35:19Z</time>
      </trkpt>
      <trkpt lat="-21.14855" lon="55.63251">
        <ele>1189.4</ele>
        <time>2013-08-08T11:35:20Z</time>
      </trkpt>
      <trkpt lat="-21.14845" lon="55.6324">
        <ele>1189.1</ele>
        <time>2013-08-08T11:35:29Z</time>
      </trkpt>
      <trkpt lat="-21.1484" lon="55.63233">
        <ele>1188</ele>
        <time>2013-08-08T11:35:34Z</time>
      </trkpt>
      <trkpt lat="-21.14836" lon="55.63226">
        <ele>1186.9</ele>
        <time>2013-08-08T11:35:39Z</time>
      </trkpt>
      <trkpt lat="-21.1483" lon="55.6322">
        <ele>1185.8</ele>
        <time>2013-08-08T11:35:44Z</time>
      </trkpt>
      <trkpt lat="-21.14823" lon="55.63214">
        <ele>1185.6</ele>
        <time>2013-08-08T11:35:50Z</time>
      </trkpt>
      <trkpt lat="-21.14817" lon="55.63208">
        <ele>1185.1</ele>
        <time>2013-08-08T11:35:56Z</time>
      </trkpt>
      <trkpt lat="-21.1481" lon="55.63201">
        <ele>1184.8</ele>
        <time>2013-08-08T11:36:02Z</time>
      </trkpt>
      <trkpt lat="-21.14805" lon="55.63195">
        <ele>1184.5</ele>
        <time>2013-08-08T11:36:07Z</time>
      </trkpt>
      <trkpt lat="-21.148" lon="55.63189">
        <ele>1184.9</ele>
        <time>2013-08-08T11:36:12Z</time>
      </trkpt>
      <trkpt lat="-21.14793" lon="55.63183">
        <ele>1183.9</ele>
        <time>2013-08-08T11:36:18Z</time>
      </trkpt>
      <trkpt lat="-21.14786" lon="55.63178">
        <ele>1183.9</ele>
        <time>2013-08-08T11:36:24Z</time>
      </trkpt>
      <trkpt lat="-21.14785" lon="55.63176">
        <ele>1184</ele>
        <time>2013-08-08T11:36:25Z</time>
      </trkpt>
      <trkpt lat="-21.14775" lon="55.63165">
        <ele>1182.7</ele>
        <time>2013-08-08T11:36:37Z</time>
      </trkpt>
      <trkpt lat="-21.1477" lon="55.63157">
        <ele>1181.9</ele>
        <time>2013-08-08T11:36:43Z</time>
      </trkpt>
      <trkpt lat="-21.14765" lon="55.6315">
        <ele>1179.9</ele>
        <time>2013-08-08T11:36:48Z</time>
      </trkpt>
      <trkpt lat="-21.14761" lon="55.63143">
        <ele>1179.8</ele>
        <time>2013-08-08T11:36:53Z</time>
      </trkpt>
      <trkpt lat="-21.14756" lon="55.63136">
        <ele>1178.9</ele>
        <time>2013-08-08T11:36:58Z</time>
      </trkpt>
      <trkpt lat="-21.14752" lon="55.63129">
        <ele>1178.1</ele>
        <time>2013-08-08T11:37:03Z</time>
      </trkpt>
      <trkpt lat="-21.14747" lon="55.63123">
        <ele>1177.8</ele>
        <time>2013-08-08T11:37:08Z</time>
      </trkpt>
      <trkpt lat="-21.1474" lon="55.63117">
        <ele>1177</ele>
        <time>2013-08-08T11:37:15Z</time>
      </trkpt>
      <trkpt lat="-21.14733" lon="55.63112">
        <ele>1175.6</ele>
        <time>2013-08-08T11:37:21Z</time>
      </trkpt>
      <trkpt lat="-21.14726" lon="55.63107">
        <ele>1174.6</ele>
        <time>2013-08-08T11:37:27Z</time>
      </trkpt>
      <trkpt lat="-21.14725" lon="55.63106">
        <ele>1174.4</ele>
        <time>2013-08-08T11:37:28Z</time>
      </trkpt>
      <trkpt lat="-21.14717" lon="55.63093">
        <ele>1172.1</ele>
        <time>2013-08-08T11:37:38Z</time>
      </trkpt>
      <trkpt lat="-21.14711" lon="55.63088">
        <ele>1171.4</ele>
        <time>2013-08-08T11:37:43Z</time>
      </trkpt>
      <trkpt lat="-21.14704" lon="55.63082">
        <ele>1169.1</ele>
        <time>2013-08-08T11:37:49Z</time>
      </trkpt>
      <trkpt lat="-21.14698" lon="55.63076">
        <ele>1166.4</ele>
        <time>2013-08-08T11:37:55Z</time>
      </trkpt>
      <trkpt lat="-21.14694" lon="55.63067">
        <ele>1164.8</ele>
        <time>2013-08-08T11:38:01Z</time>
      </trkpt>
      <trkpt lat="-21.14689" lon="55.6306">
        <ele>1162.4</ele>
        <time>2013-08-08T11:38:07Z</time>
      </trkpt>
      <trkpt lat="-21.14683" lon="55.63054">
        <ele>1161</ele>
        <time>2013-08-08T11:38:12Z</time>
      </trkpt>
      <trkpt lat="-21.14678" lon="55.63046">
        <ele>1159.1</ele>
        <time>2013-08-08T11:38:17Z</time>
      </trkpt>
      <trkpt lat="-21.14672" lon="55.6304">
        <ele>1157.3</ele>
        <time>2013-08-08T11:38:23Z</time>
      </trkpt>
      <trkpt lat="-21.14667" lon="55.63034">
        <ele>1154.9</ele>
        <time>2013-08-08T11:38:29Z</time>
      </trkpt>
      <trkpt lat="-21.14666" lon="55.63032">
        <ele>1154.6</ele>
        <time>2013-08-08T11:38:30Z</time>
      </trkpt>
      <trkpt lat="-21.14655" lon="55.63022">
        <ele>1150.2</ele>
        <time>2013-08-08T11:38:41Z</time>
      </trkpt>
      <trkpt lat="-21.1465" lon="55.63014">
        <ele>1147.4</ele>
        <time>2013-08-08T11:38:49Z</time>
      </trkpt>
      <trkpt lat="-21.14644" lon="55.63008">
        <ele>1145.8</ele>
        <time>2013-08-08T11:39:24Z</time>
      </trkpt>
      <trkpt lat="-21.14637" lon="55.63003">
        <ele>1142.9</ele>
        <time>2013-08-08T11:39:32Z</time>
      </trkpt>
      <trkpt lat="-21.14637" lon="55.63001">
        <ele>1142.4</ele>
        <time>2013-08-08T11:39:33Z</time>
      </trkpt>
      <trkpt lat="-21.14631" lon="55.62988">
        <ele>1139.3</ele>
        <time>2013-08-08T11:39:44Z</time>
      </trkpt>
      <trkpt lat="-21.14625" lon="55.62982">
        <ele>1138.4</ele>
        <time>2013-08-08T11:39:50Z</time>
      </trkpt>
      <trkpt lat="-21.1462" lon="55.62975">
        <ele>1137.3</ele>
        <time>2013-08-08T11:39:56Z</time>
      </trkpt>
      <trkpt lat="-21.14615" lon="55.62968">
        <ele>1135.1</ele>
        <time>2013-08-08T11:40:02Z</time>
      </trkpt>
      <trkpt lat="-21.14609" lon="55.62961">
        <ele>1132.6</ele>
        <time>2013-08-08T11:40:09Z</time>
      </trkpt>
      <trkpt lat="-21.14604" lon="55.62954">
        <ele>1129.5</ele>
        <time>2013-08-08T11:40:16Z</time>
      </trkpt>
      <trkpt lat="-21.14596" lon="55.6295">
        <ele>1126.5</ele>
        <time>2013-08-08T11:40:26Z</time>
      </trkpt>
      <trkpt lat="-21.14594" lon="55.62941">
        <ele>1123.4</ele>
        <time>2013-08-08T11:40:37Z</time>
      </trkpt>
      <trkpt lat="-21.14594" lon="55.62939">
        <ele>1123.2</ele>
        <time>2013-08-08T11:40:38Z</time>
      </trkpt>
      <trkpt lat="-21.14607" lon="55.62931">
        <ele>1121.9</ele>
        <time>2013-08-08T11:40:51Z</time>
      </trkpt>
      <trkpt lat="-21.14615" lon="55.62929">
        <ele>1120.7</ele>
        <time>2013-08-08T11:40:58Z</time>
      </trkpt>
      <trkpt lat="-21.14624" lon="55.62926">
        <ele>1119.9</ele>
        <time>2013-08-08T11:41:04Z</time>
      </trkpt>
      <trkpt lat="-21.14627" lon="55.62917">
        <ele>1119</ele>
        <time>2013-08-08T11:41:11Z</time>
      </trkpt>
      <trkpt lat="-21.14624" lon="55.6291">
        <ele>1116.2</ele>
        <time>2013-08-08T11:41:16Z</time>
      </trkpt>
      <trkpt lat="-21.14616" lon="55.62906">
        <ele>1116.1</ele>
        <time>2013-08-08T11:41:22Z</time>
      </trkpt>
      <trkpt lat="-21.14609" lon="55.62904">
        <ele>1114.7</ele>
        <time>2013-08-08T11:41:27Z</time>
      </trkpt>
      <trkpt lat="-21.14601" lon="55.62902">
        <ele>1114</ele>
        <time>2013-08-08T11:41:32Z</time>
      </trkpt>
      <trkpt lat="-21.14593" lon="55.62899">
        <ele>1113.1</ele>
        <time>2013-08-08T11:41:38Z</time>
      </trkpt>
      <trkpt lat="-21.14592" lon="55.62899">
        <ele>1112.9</ele>
        <time>2013-08-08T11:41:39Z</time>
      </trkpt>
      <trkpt lat="-21.14576" lon="55.62896">
        <ele>1110.9</ele>
        <time>2013-08-08T11:41:48Z</time>
      </trkpt>
      <trkpt lat="-21.14568" lon="55.62896">
        <ele>1109.7</ele>
        <time>2013-08-08T11:41:53Z</time>
      </trkpt>
      <trkpt lat="-21.1456" lon="55.62895">
        <ele>1110.1</ele>
        <time>2013-08-08T11:41:58Z</time>
      </trkpt>
      <trkpt lat="-21.14551" lon="55.62893">
        <ele>1109.1</ele>
        <time>2013-08-08T11:42:03Z</time>
      </trkpt>
      <trkpt lat="-21.14544" lon="55.62892">
        <ele>1108.4</ele>
        <time>2013-08-08T11:42:08Z</time>
      </trkpt>
      <trkpt lat="-21.14536" lon="55.62888">
        <ele>1107.8</ele>
        <time>2013-08-08T11:42:14Z</time>
      </trkpt>
      <trkpt lat="-21.14529" lon="55.62882">
        <ele>1106.8</ele>
        <time>2013-08-08T11:42:20Z</time>
      </trkpt>
      <trkpt lat="-21.14522" lon="55.62876">
        <ele>1106.3</ele>
        <time>2013-08-08T11:42:26Z</time>
      </trkpt>
      <trkpt lat="-21.14517" lon="55.62869">
        <ele>1105.7</ele>
        <time>2013-08-08T11:42:31Z</time>
      </trkpt>
      <trkpt lat="-21.14512" lon="55.62862">
        <ele>1105.3</ele>
        <time>2013-08-08T11:42:36Z</time>
      </trkpt>
      <trkpt lat="-21.14505" lon="55.62856">
        <ele>1106.4</ele>
        <time>2013-08-08T11:42:42Z</time>
      </trkpt>
      <trkpt lat="-21.14504" lon="55.62854">
        <ele>1106.2</ele>
        <time>2013-08-08T11:42:43Z</time>
      </trkpt>
      <trkpt lat="-21.14493" lon="55.62841">
        <ele>1104.4</ele>
        <time>2013-08-08T11:42:54Z</time>
      </trkpt>
      <trkpt lat="-21.14487" lon="55.62835">
        <ele>1104.8</ele>
        <time>2013-08-08T11:42:59Z</time>
      </trkpt>
      <trkpt lat="-21.14481" lon="55.62829">
        <ele>1104.1</ele>
        <time>2013-08-08T11:43:04Z</time>
      </trkpt>
      <trkpt lat="-21.14476" lon="55.62821">
        <ele>1103.6</ele>
        <time>2013-08-08T11:43:10Z</time>
      </trkpt>
      <trkpt lat="-21.14471" lon="55.62816">
        <ele>1103.8</ele>
        <time>2013-08-08T11:43:15Z</time>
      </trkpt>
      <trkpt lat="-21.14463" lon="55.62815">
        <ele>1103.6</ele>
        <time>2013-08-08T11:43:21Z</time>
      </trkpt>
      <trkpt lat="-21.14457" lon="55.6282">
        <ele>1103.4</ele>
        <time>2013-08-08T11:43:26Z</time>
      </trkpt>
      <trkpt lat="-21.14451" lon="55.62825">
        <ele>1102.8</ele>
        <time>2013-08-08T11:43:31Z</time>
      </trkpt>
      <trkpt lat="-21.14445" lon="55.62832">
        <ele>1101.9</ele>
        <time>2013-08-08T11:43:37Z</time>
      </trkpt>
      <trkpt lat="-21.14439" lon="55.62838">
        <ele>1101.6</ele>
        <time>2013-08-08T11:43:43Z</time>
      </trkpt>
      <trkpt lat="-21.14437" lon="55.62838">
        <ele>1101.8</ele>
        <time>2013-08-08T11:43:44Z</time>
      </trkpt>
      <trkpt lat="-21.14424" lon="55.62847">
        <ele>1100.5</ele>
        <time>2013-08-08T11:43:54Z</time>
      </trkpt>
      <trkpt lat="-21.14417" lon="55.62851">
        <ele>1101.2</ele>
        <time>2013-08-08T11:43:59Z</time>
      </trkpt>
      <trkpt lat="-21.14411" lon="55.62857">
        <ele>1100.5</ele>
        <time>2013-08-08T11:44:05Z</time>
      </trkpt>
      <trkpt lat="-21.14405" lon="55.62862">
        <ele>1098.8</ele>
        <time>2013-08-08T11:44:10Z</time>
      </trkpt>
      <trkpt lat="-21.14399" lon="55.62867">
        <ele>1098.9</ele>
        <time>2013-08-08T11:44:15Z</time>
      </trkpt>
      <trkpt lat="-21.14391" lon="55.62871">
        <ele>1098.1</ele>
        <time>2013-08-08T11:44:20Z</time>
      </trkpt>
      <trkpt lat="-21.14384" lon="55.62877">
        <ele>1097.8</ele>
        <time>2013-08-08T11:44:25Z</time>
      </trkpt>
      <trkpt lat="-21.14378" lon="55.62882">
        <ele>1097.6</ele>
        <time>2013-08-08T11:44:30Z</time>
      </trkpt>
      <trkpt lat="-21.14372" lon="55.62888">
        <ele>1097.4</ele>
        <time>2013-08-08T11:44:34Z</time>
      </trkpt>
      <trkpt lat="-21.14366" lon="55.62893">
        <ele>1096</ele>
        <time>2013-08-08T11:44:39Z</time>
      </trkpt>
      <trkpt lat="-21.14361" lon="55.629">
        <ele>1095.5</ele>
        <time>2013-08-08T11:44:44Z</time>
      </trkpt>
      <trkpt lat="-21.1436" lon="55.62902">
        <ele>1095.4</ele>
        <time>2013-08-08T11:44:45Z</time>
      </trkpt>
      <trkpt lat="-21.14347" lon="55.62912">
        <ele>1093.8</ele>
        <time>2013-08-08T11:44:54Z</time>
      </trkpt>
      <trkpt lat="-21.1434" lon="55.62916">
        <ele>1093.4</ele>
        <time>2013-08-08T11:44:59Z</time>
      </trkpt>
      <trkpt lat="-21.14333" lon="55.62921">
        <ele>1092.9</ele>
        <time>2013-08-08T11:45:04Z</time>
      </trkpt>
      <trkpt lat="-21.14326" lon="55.62927">
        <ele>1091.7</ele>
        <time>2013-08-08T11:45:09Z</time>
      </trkpt>
      <trkpt lat="-21.14319" lon="55.62931">
        <ele>1091.1</ele>
        <time>2013-08-08T11:45:14Z</time>
      </trkpt>
      <trkpt lat="-21.14313" lon="55.62936">
        <ele>1091</ele>
        <time>2013-08-08T11:45:19Z</time>
      </trkpt>
      <trkpt lat="-21.14306" lon="55.62941">
        <ele>1090.2</ele>
        <time>2013-08-08T11:45:24Z</time>
      </trkpt>
      <trkpt lat="-21.143" lon="55.62946">
        <ele>1089.2</ele>
        <time>2013-08-08T11:45:29Z</time>
      </trkpt>
      <trkpt lat="-21.14294" lon="55.62951">
        <ele>1089</ele>
        <time>2013-08-08T11:45:34Z</time>
      </trkpt>
      <trkpt lat="-21.14287" lon="55.62957">
        <ele>1087.5</ele>
        <time>2013-08-08T11:45:39Z</time>
      </trkpt>
      <trkpt lat="-21.1428" lon="55.62962">
        <ele>1088.3</ele>
        <time>2013-08-08T11:45:44Z</time>
      </trkpt>
      <trkpt lat="-21.14273" lon="55.62967">
        <ele>1087.1</ele>
        <time>2013-08-08T11:45:49Z</time>
      </trkpt>
      <trkpt lat="-21.14272" lon="55.62967">
        <ele>1087.3</ele>
        <time>2013-08-08T11:45:50Z</time>
      </trkpt>
      <trkpt lat="-21.1426" lon="55.62978">
        <ele>1085.8</ele>
        <time>2013-08-08T11:45:59Z</time>
      </trkpt>
      <trkpt lat="-21.14253" lon="55.62982">
        <ele>1085.2</ele>
        <time>2013-08-08T11:46:04Z</time>
      </trkpt>
      <trkpt lat="-21.14246" lon="55.62987">
        <ele>1084.9</ele>
        <time>2013-08-08T11:46:09Z</time>
      </trkpt>
      <trkpt lat="-21.14241" lon="55.62992">
        <ele>1085.4</ele>
        <time>2013-08-08T11:46:13Z</time>
      </trkpt>
      <trkpt lat="-21.14233" lon="55.62997">
        <ele>1084.5</ele>
        <time>2013-08-08T11:46:18Z</time>
      </trkpt>
      <trkpt lat="-21.14227" lon="55.63002">
        <ele>1084.6</ele>
        <time>2013-08-08T11:46:23Z</time>
      </trkpt>
      <trkpt lat="-21.14221" lon="55.63008">
        <ele>1084.7</ele>
        <time>2013-08-08T11:46:28Z</time>
      </trkpt>
      <trkpt lat="-21.14215" lon="55.63014">
        <ele>1082.9</ele>
        <time>2013-08-08T11:46:33Z</time>
      </trkpt>
      <trkpt lat="-21.14209" lon="55.63019">
        <ele>1082.4</ele>
        <time>2013-08-08T11:46:38Z</time>
      </trkpt>
      <trkpt lat="-21.14202" lon="55.63025">
        <ele>1081.6</ele>
        <time>2013-08-08T11:46:44Z</time>
      </trkpt>
      <trkpt lat="-21.14196" lon="55.6303">
        <ele>1082</ele>
        <time>2013-08-08T11:46:49Z</time>
      </trkpt>
      <trkpt lat="-21.1419" lon="55.63036">
        <ele>1081.5</ele>
        <time>2013-08-08T11:46:54Z</time>
      </trkpt>
      <trkpt lat="-21.14189" lon="55.63037">
        <ele>1081.3</ele>
        <time>2013-08-08T11:46:55Z</time>
      </trkpt>
      <trkpt lat="-21.14178" lon="55.63046">
        <ele>1079.9</ele>
        <time>2013-08-08T11:47:04Z</time>
      </trkpt>
      <trkpt lat="-21.14171" lon="55.63051">
        <ele>1078.7</ele>
        <time>2013-08-08T11:47:10Z</time>
      </trkpt>
      <trkpt lat="-21.14164" lon="55.63057">
        <ele>1078.2</ele>
        <time>2013-08-08T11:47:15Z</time>
      </trkpt>
      <trkpt lat="-21.14157" lon="55.63062">
        <ele>1078.7</ele>
        <time>2013-08-08T11:47:20Z</time>
      </trkpt>
      <trkpt lat="-21.14151" lon="55.63067">
        <ele>1077.7</ele>
        <time>2013-08-08T11:47:25Z</time>
      </trkpt>
      <trkpt lat="-21.14145" lon="55.63074">
        <ele>1077.2</ele>
        <time>2013-08-08T11:47:31Z</time>
      </trkpt>
      <trkpt lat="-21.14138" lon="55.6308">
        <ele>1076.2</ele>
        <time>2013-08-08T11:47:37Z</time>
      </trkpt>
      <trkpt lat="-21.14133" lon="55.63086">
        <ele>1076.1</ele>
        <time>2013-08-08T11:47:42Z</time>
      </trkpt>
      <trkpt lat="-21.14126" lon="55.6309">
        <ele>1075.1</ele>
        <time>2013-08-08T11:47:48Z</time>
      </trkpt>
      <trkpt lat="-21.14118" lon="55.63094">
        <ele>1074.6</ele>
        <time>2013-08-08T11:47:54Z</time>
      </trkpt>
      <trkpt lat="-21.14111" lon="55.63091">
        <ele>1074.6</ele>
        <time>2013-08-08T11:48:01Z</time>
      </trkpt>
      <trkpt lat="-21.14109" lon="55.63089">
        <ele>1074.7</ele>
        <time>2013-08-08T11:48:02Z</time>
      </trkpt>
      <trkpt lat="-21.14098" lon="55.6308">
        <ele>1074.7</ele>
        <time>2013-08-08T11:48:11Z</time>
      </trkpt>
      <trkpt lat="-21.14092" lon="55.63075">
        <ele>1074.3</ele>
        <time>2013-08-08T11:48:16Z</time>
      </trkpt>
      <trkpt lat="-21.14086" lon="55.6307">
        <ele>1073.3</ele>
        <time>2013-08-08T11:48:22Z</time>
      </trkpt>
      <trkpt lat="-21.1408" lon="55.63064">
        <ele>1073.8</ele>
        <time>2013-08-08T11:48:27Z</time>
      </trkpt>
      <trkpt lat="-21.14075" lon="55.63058">
        <ele>1074.1</ele>
        <time>2013-08-08T11:48:32Z</time>
      </trkpt>
      <trkpt lat="-21.14069" lon="55.63051">
        <ele>1073.8</ele>
        <time>2013-08-08T11:48:38Z</time>
      </trkpt>
      <trkpt lat="-21.14063" lon="55.63044">
        <ele>1073.3</ele>
        <time>2013-08-08T11:48:43Z</time>
      </trkpt>
      <trkpt lat="-21.14058" lon="55.63037">
        <ele>1073.6</ele>
        <time>2013-08-08T11:48:48Z</time>
      </trkpt>
      <trkpt lat="-21.14053" lon="55.63031">
        <ele>1073.4</ele>
        <time>2013-08-08T11:48:53Z</time>
      </trkpt>
      <trkpt lat="-21.14047" lon="55.63025">
        <ele>1073.4</ele>
        <time>2013-08-08T11:48:58Z</time>
      </trkpt>
      <trkpt lat="-21.14042" lon="55.63018">
        <ele>1073.6</ele>
        <time>2013-08-08T11:49:03Z</time>
      </trkpt>
      <trkpt lat="-21.14041" lon="55.63017">
        <ele>1073.1</ele>
        <time>2013-08-08T11:49:04Z</time>
      </trkpt>
      <trkpt lat="-21.14032" lon="55.63004">
        <ele>1074</ele>
        <time>2013-08-08T11:49:13Z</time>
      </trkpt>
      <trkpt lat="-21.14025" lon="55.63">
        <ele>1074.4</ele>
        <time>2013-08-08T11:49:18Z</time>
      </trkpt>
      <trkpt lat="-21.14019" lon="55.62996">
        <ele>1075.7</ele>
        <time>2013-08-08T11:49:23Z</time>
      </trkpt>
      <trkpt lat="-21.14012" lon="55.6299">
        <ele>1075.7</ele>
        <time>2013-08-08T11:49:29Z</time>
      </trkpt>
      <trkpt lat="-21.14005" lon="55.62984">
        <ele>1076.2</ele>
        <time>2013-08-08T11:49:36Z</time>
      </trkpt>
      <trkpt lat="-21.13998" lon="55.62978">
        <ele>1076.7</ele>
        <time>2013-08-08T11:49:42Z</time>
      </trkpt>
      <trkpt lat="-21.13992" lon="55.62973">
        <ele>1076.4</ele>
        <time>2013-08-08T11:49:48Z</time>
      </trkpt>
      <trkpt lat="-21.13985" lon="55.62968">
        <ele>1077</ele>
        <time>2013-08-08T11:49:53Z</time>
      </trkpt>
      <trkpt lat="-21.13979" lon="55.62963">
        <ele>1077.1</ele>
        <time>2013-08-08T11:49:58Z</time>
      </trkpt>
      <trkpt lat="-21.13973" lon="55.62957">
        <ele>1078.4</ele>
        <time>2013-08-08T11:50:03Z</time>
      </trkpt>
      <trkpt lat="-21.13967" lon="55.62951">
        <ele>1078.1</ele>
        <time>2013-08-08T11:50:09Z</time>
      </trkpt>
      <trkpt lat="-21.13966" lon="55.62949">
        <ele>1078.2</ele>
        <time>2013-08-08T11:50:10Z</time>
      </trkpt>
      <trkpt lat="-21.13955" lon="55.62937">
        <ele>1076.7</ele>
        <time>2013-08-08T11:50:19Z</time>
      </trkpt>
      <trkpt lat="-21.1395" lon="55.6293">
        <ele>1077</ele>
        <time>2013-08-08T11:50:24Z</time>
      </trkpt>
      <trkpt lat="-21.13945" lon="55.62923">
        <ele>1077.9</ele>
        <time>2013-08-08T11:50:29Z</time>
      </trkpt>
      <trkpt lat="-21.13939" lon="55.62916">
        <ele>1077.3</ele>
        <time>2013-08-08T11:50:34Z</time>
      </trkpt>
      <trkpt lat="-21.13934" lon="55.62911">
        <ele>1076.7</ele>
        <time>2013-08-08T11:50:38Z</time>
      </trkpt>
      <trkpt lat="-21.13928" lon="55.62904">
        <ele>1076.9</ele>
        <time>2013-08-08T11:50:43Z</time>
      </trkpt>
      <trkpt lat="-21.13921" lon="55.62897">
        <ele>1076.5</ele>
        <time>2013-08-08T11:50:49Z</time>
      </trkpt>
      <trkpt lat="-21.13916" lon="55.62891">
        <ele>1076.3</ele>
        <time>2013-08-08T11:50:54Z</time>
      </trkpt>
      <trkpt lat="-21.1391" lon="55.62884">
        <ele>1076.3</ele>
        <time>2013-08-08T11:50:59Z</time>
      </trkpt>
      <trkpt lat="-21.13905" lon="55.62878">
        <ele>1075.4</ele>
        <time>2013-08-08T11:51:04Z</time>
      </trkpt>
      <trkpt lat="-21.13899" lon="55.62871">
        <ele>1075.8</ele>
        <time>2013-08-08T11:51:10Z</time>
      </trkpt>
      <trkpt lat="-21.13897" lon="55.6287">
        <ele>1075.6</ele>
        <time>2013-08-08T11:51:11Z</time>
      </trkpt>
      <trkpt lat="-21.13886" lon="55.62858">
        <ele>1076</ele>
        <time>2013-08-08T11:51:21Z</time>
      </trkpt>
      <trkpt lat="-21.13881" lon="55.62853">
        <ele>1076.4</ele>
        <time>2013-08-08T11:51:26Z</time>
      </trkpt>
      <trkpt lat="-21.13875" lon="55.62847">
        <ele>1076.2</ele>
        <time>2013-08-08T11:51:31Z</time>
      </trkpt>
      <trkpt lat="-21.13869" lon="55.62841">
        <ele>1076.1</ele>
        <time>2013-08-08T11:51:36Z</time>
      </trkpt>
      <trkpt lat="-21.13865" lon="55.62835">
        <ele>1076.1</ele>
        <time>2013-08-08T11:51:41Z</time>
      </trkpt>
      <trkpt lat="-21.1386" lon="55.62828">
        <ele>1075</ele>
        <time>2013-08-08T11:51:46Z</time>
      </trkpt>
      <trkpt lat="-21.13854" lon="55.62821">
        <ele>1075.4</ele>
        <time>2013-08-08T11:51:51Z</time>
      </trkpt>
      <trkpt lat="-21.13848" lon="55.62814">
        <ele>1075.2</ele>
        <time>2013-08-08T11:51:56Z</time>
      </trkpt>
      <trkpt lat="-21.13842" lon="55.62807">
        <ele>1075.9</ele>
        <time>2013-08-08T11:52:01Z</time>
      </trkpt>
      <trkpt lat="-21.13837" lon="55.628">
        <ele>1076.7</ele>
        <time>2013-08-08T11:52:06Z</time>
      </trkpt>
      <trkpt lat="-21.13832" lon="55.62794">
        <ele>1076.1</ele>
        <time>2013-08-08T11:52:11Z</time>
      </trkpt>
      <trkpt lat="-21.13831" lon="55.62793">
        <ele>1076</ele>
        <time>2013-08-08T11:52:12Z</time>
      </trkpt>
      <trkpt lat="-21.13819" lon="55.62782">
        <ele>1075.4</ele>
        <time>2013-08-08T11:52:21Z</time>
      </trkpt>
      <trkpt lat="-21.13812" lon="55.62776">
        <ele>1075.6</ele>
        <time>2013-08-08T11:52:27Z</time>
      </trkpt>
      <trkpt lat="-21.13806" lon="55.6277">
        <ele>1076.1</ele>
        <time>2013-08-08T11:52:32Z</time>
      </trkpt>
      <trkpt lat="-21.13801" lon="55.62764">
        <ele>1077</ele>
        <time>2013-08-08T11:52:37Z</time>
      </trkpt>
      <trkpt lat="-21.13796" lon="55.62758">
        <ele>1077.5</ele>
        <time>2013-08-08T11:52:42Z</time>
      </trkpt>
      <trkpt lat="-21.1379" lon="55.62752">
        <ele>1077.4</ele>
        <time>2013-08-08T11:52:47Z</time>
      </trkpt>
      <trkpt lat="-21.13785" lon="55.62746">
        <ele>1077.9</ele>
        <time>2013-08-08T11:52:52Z</time>
      </trkpt>
      <trkpt lat="-21.13778" lon="55.62741">
        <ele>1077.6</ele>
        <time>2013-08-08T11:52:58Z</time>
      </trkpt>
      <trkpt lat="-21.13772" lon="55.62736">
        <ele>1076.9</ele>
        <time>2013-08-08T11:53:03Z</time>
      </trkpt>
      <trkpt lat="-21.13766" lon="55.6273">
        <ele>1078</ele>
        <time>2013-08-08T11:53:08Z</time>
      </trkpt>
      <trkpt lat="-21.1376" lon="55.62723">
        <ele>1078.1</ele>
        <time>2013-08-08T11:53:14Z</time>
      </trkpt>
      <trkpt lat="-21.13759" lon="55.62722">
        <ele>1078.2</ele>
        <time>2013-08-08T11:53:15Z</time>
      </trkpt>
      <trkpt lat="-21.13748" lon="55.62709">
        <ele>1078.3</ele>
        <time>2013-08-08T11:53:26Z</time>
      </trkpt>
      <trkpt lat="-21.13742" lon="55.62702">
        <ele>1078.3</ele>
        <time>2013-08-08T11:53:32Z</time>
      </trkpt>
      <trkpt lat="-21.13736" lon="55.62696">
        <ele>1077.9</ele>
        <time>2013-08-08T11:53:38Z</time>
      </trkpt>
      <trkpt lat="-21.1373" lon="55.6269">
        <ele>1078.2</ele>
        <time>2013-08-08T11:53:43Z</time>
      </trkpt>
      <trkpt lat="-21.13725" lon="55.62684">
        <ele>1078.2</ele>
        <time>2013-08-08T11:53:48Z</time>
      </trkpt>
      <trkpt lat="-21.13719" lon="55.62677">
        <ele>1079.2</ele>
        <time>2013-08-08T11:53:53Z</time>
      </trkpt>
      <trkpt lat="-21.13713" lon="55.6267">
        <ele>1078.7</ele>
        <time>2013-08-08T11:53:59Z</time>
      </trkpt>
      <trkpt lat="-21.13706" lon="55.62663">
        <ele>1078.6</ele>
        <time>2013-08-08T11:54:05Z</time>
      </trkpt>
      <trkpt lat="-21.13701" lon="55.62658">
        <ele>1078.2</ele>
        <time>2013-08-08T11:54:11Z</time>
      </trkpt>
      <trkpt lat="-21.13695" lon="55.62652">
        <ele>1078.7</ele>
        <time>2013-08-08T11:54:18Z</time>
      </trkpt>
      <trkpt lat="-21.13694" lon="55.62651">
        <ele>1078.6</ele>
        <time>2013-08-08T11:54:19Z</time>
      </trkpt>
      <trkpt lat="-21.13682" lon="55.6264">
        <ele>1079.2</ele>
        <time>2013-08-08T11:54:31Z</time>
      </trkpt>
      <trkpt lat="-21.13676" lon="55.62634">
        <ele>1078.5</ele>
        <time>2013-08-08T11:54:36Z</time>
      </trkpt>
      <trkpt lat="-21.1367" lon="55.62626">
        <ele>1078.4</ele>
        <time>2013-08-08T11:54:41Z</time>
      </trkpt>
      <trkpt lat="-21.13665" lon="55.6262">
        <ele>1078.1</ele>
        <time>2013-08-08T11:54:46Z</time>
      </trkpt>
      <trkpt lat="-21.13659" lon="55.62614">
        <ele>1078</ele>
        <time>2013-08-08T11:54:51Z</time>
      </trkpt>
      <trkpt lat="-21.13655" lon="55.62608">
        <ele>1078.5</ele>
        <time>2013-08-08T11:54:55Z</time>
      </trkpt>
      <trkpt lat="-21.13649" lon="55.62601">
        <ele>1078.4</ele>
        <time>2013-08-08T11:55:00Z</time>
      </trkpt>
      <trkpt lat="-21.13644" lon="55.62593">
        <ele>1078.8</ele>
        <time>2013-08-08T11:55:05Z</time>
      </trkpt>
      <trkpt lat="-21.13639" lon="55.62587">
        <ele>1078.8</ele>
        <time>2013-08-08T11:55:09Z</time>
      </trkpt>
      <trkpt lat="-21.13631" lon="55.62584">
        <ele>1078.9</ele>
        <time>2013-08-08T11:55:15Z</time>
      </trkpt>
      <trkpt lat="-21.13623" lon="55.62585">
        <ele>1079.1</ele>
        <time>2013-08-08T11:55:20Z</time>
      </trkpt>
      <trkpt lat="-21.13622" lon="55.62585">
        <ele>1079</ele>
        <time>2013-08-08T11:55:21Z</time>
      </trkpt>
      <trkpt lat="-21.13606" lon="55.62586">
        <ele>1077.8</ele>
        <time>2013-08-08T11:55:31Z</time>
      </trkpt>
      <trkpt lat="-21.13601" lon="55.62591">
        <ele>1077.4</ele>
        <time>2013-08-08T11:55:36Z</time>
      </trkpt>
      <trkpt lat="-21.13594" lon="55.62596">
        <ele>1077</ele>
        <time>2013-08-08T11:55:42Z</time>
      </trkpt>
      <trkpt lat="-21.13585" lon="55.62598">
        <ele>1077.7</ele>
        <time>2013-08-08T11:55:49Z</time>
      </trkpt>
      <trkpt lat="-21.13577" lon="55.62597">
        <ele>1078.5</ele>
        <time>2013-08-08T11:55:55Z</time>
      </trkpt>
      <trkpt lat="-21.13569" lon="55.62601">
        <ele>1076.7</ele>
        <time>2013-08-08T11:56:05Z</time>
      </trkpt>
      <trkpt lat="-21.13561" lon="55.62597">
        <ele>1078.1</ele>
        <time>2013-08-08T11:56:11Z</time>
      </trkpt>
      <trkpt lat="-21.13553" lon="55.62597">
        <ele>1079</ele>
        <time>2013-08-08T11:56:17Z</time>
      </trkpt>
      <trkpt lat="-21.13545" lon="55.62598">
        <ele>1077.7</ele>
        <time>2013-08-08T11:56:24Z</time>
      </trkpt>
      <trkpt lat="-21.13544" lon="55.62599">
        <ele>1077.6</ele>
        <time>2013-08-08T11:56:25Z</time>
      </trkpt>
      <trkpt lat="-21.13531" lon="55.62596">
        <ele>1077</ele>
        <time>2013-08-08T11:56:34Z</time>
      </trkpt>
      <trkpt lat="-21.13522" lon="55.62595">
        <ele>1077.2</ele>
        <time>2013-08-08T11:56:39Z</time>
      </trkpt>
      <trkpt lat="-21.13513" lon="55.62595">
        <ele>1076.7</ele>
        <time>2013-08-08T11:56:45Z</time>
      </trkpt>
      <trkpt lat="-21.13505" lon="55.62595">
        <ele>1077.3</ele>
        <time>2013-08-08T11:56:50Z</time>
      </trkpt>
      <trkpt lat="-21.13497" lon="55.62598">
        <ele>1077</ele>
        <time>2013-08-08T11:56:56Z</time>
      </trkpt>
      <trkpt lat="-21.13489" lon="55.62598">
        <ele>1077.6</ele>
        <time>2013-08-08T11:57:02Z</time>
      </trkpt>
      <trkpt lat="-21.13481" lon="55.62597">
        <ele>1076.1</ele>
        <time>2013-08-08T11:57:07Z</time>
      </trkpt>
      <trkpt lat="-21.13473" lon="55.62599">
        <ele>1076.1</ele>
        <time>2013-08-08T11:57:13Z</time>
      </trkpt>
      <trkpt lat="-21.13465" lon="55.62603">
        <ele>1076.4</ele>
        <time>2013-08-08T11:57:20Z</time>
      </trkpt>
      <trkpt lat="-21.13458" lon="55.62606">
        <ele>1077.5</ele>
        <time>2013-08-08T11:57:59Z</time>
      </trkpt>
      <trkpt lat="-21.13458" lon="55.62606">
        <ele>1077.5</ele>
        <time>2013-08-08T11:57:59Z</time>
      </trkpt>
      <trkpt lat="-21.13458" lon="55.62606">
        <ele>1077.5</ele>
        <time>2013-08-08T11:57:59Z</time>
      </trkpt>
      <trkpt lat="-21.13458" lon="55.62606">
        <ele>1077.1</ele>
        <time>2013-08-08T11:58:02Z</time>
      </trkpt>
    </trkseg>
  </trk>
</gpx>